<?xml version='1.0' encoding='UTF-8'?><gpx version="1.1" creator="JPX - https://github.com/jenetics/jpx" xmlns="http://www.topografix.com/GPX/1/1"><trk><trkseg><trkpt lat="45.6616051" lon="11.5930059"><ele>66.0</ele><time>2026-04-26T12:09:31.063Z</time></trkpt><trkpt lat="45.6616764" lon="11.5930431"><ele>66.0</ele><time>2026-04-26T12:09:33.075Z</time></trkpt><trkpt lat="45.6617458" lon="11.5930886"><ele>66.0</ele><time>2026-04-26T12:09:35.076Z</time></trkpt><trkpt lat="45.661808" lon="11.5931365"><ele>66.0</ele><time>2026-04-26T12:09:37.069Z</time></trkpt><trkpt lat="45.6618713" lon="11.5931739"><ele>66.0</ele><time>2026-04-26T12:09:39.062Z</time></trkpt><trkpt lat="45.661953" lon="11.5932257"><ele>66.0</ele><time>2026-04-26T12:09:42.068Z</time></trkpt><trkpt lat="45.6620096" lon="11.5932688"><ele>66.0</ele><time>2026-04-26T12:09:44.019Z</time></trkpt><trkpt lat="45.6620838" lon="11.5933377"><ele>66.16666666666667</ele><time>2026-04-26T12:09:47.019Z</time></trkpt><trkpt lat="45.6621436" lon="11.5933971"><ele>66.33333333333333</ele><time>2026-04-26T12:09:50.02Z</time></trkpt><trkpt lat="45.6621936" lon="11.5933191"><ele>66.5</ele><time>2026-04-26T12:09:55.02Z</time></trkpt><trkpt lat="45.6622625" lon="11.5933475"><ele>66.66666666666666</ele><time>2026-04-26T12:09:59.02Z</time></trkpt><trkpt lat="45.6623279" lon="11.5934131"><ele>66.83333333333333</ele><time>2026-04-26T12:10:02.02Z</time></trkpt><trkpt lat="45.662401" lon="11.5934893"><ele>67.0</ele><time>2026-04-26T12:10:05.02Z</time></trkpt><trkpt lat="45.662472" lon="11.5935683"><ele>67.0</ele><time>2026-04-26T12:10:08.02Z</time></trkpt><trkpt lat="45.6625304" lon="11.5936241"><ele>67.0</ele><time>2026-04-26T12:10:10.02Z</time></trkpt><trkpt lat="45.6625865" lon="11.5936897"><ele>67.0</ele><time>2026-04-26T12:10:12.02Z</time></trkpt><trkpt lat="45.6626392" lon="11.5937547"><ele>67.0</ele><time>2026-04-26T12:10:14.02Z</time></trkpt><trkpt lat="45.6626968" lon="11.5938197"><ele>67.0</ele><time>2026-04-26T12:10:16.02Z</time></trkpt><trkpt lat="45.662747" lon="11.5938917"><ele>67.0</ele><time>2026-04-26T12:10:18.02Z</time></trkpt><trkpt lat="45.6627919" lon="11.5939664"><ele>67.0</ele><time>2026-04-26T12:10:20.02Z</time></trkpt><trkpt lat="45.662836" lon="11.594045"><ele>67.0</ele><time>2026-04-26T12:10:22.02Z</time></trkpt><trkpt lat="45.6628805" lon="11.5941239"><ele>67.0</ele><time>2026-04-26T12:10:24.02Z</time></trkpt><trkpt lat="45.6629217" lon="11.5942086"><ele>67.0</ele><time>2026-04-26T12:10:26.02Z</time></trkpt><trkpt lat="45.6629716" lon="11.5942898"><ele>67.0</ele><time>2026-04-26T12:10:28.02Z</time></trkpt><trkpt lat="45.6630201" lon="11.5943769"><ele>67.0</ele><time>2026-04-26T12:10:30.02Z</time></trkpt><trkpt lat="45.6630615" lon="11.5944716"><ele>67.0</ele><time>2026-04-26T12:10:32.02Z</time></trkpt><trkpt lat="45.6630997" lon="11.594558"><ele>67.0</ele><time>2026-04-26T12:10:34.02Z</time></trkpt><trkpt lat="45.663143" lon="11.5946547"><ele>67.0</ele><time>2026-04-26T12:10:36.02Z</time></trkpt><trkpt lat="45.663185" lon="11.5947444"><ele>67.0</ele><time>2026-04-26T12:10:38.02Z</time></trkpt><trkpt lat="45.6632182" lon="11.5948383"><ele>67.0</ele><time>2026-04-26T12:10:40.02Z</time></trkpt><trkpt lat="45.6632478" lon="11.5949359"><ele>67.0</ele><time>2026-04-26T12:10:42.02Z</time></trkpt><trkpt lat="45.6632808" lon="11.5950358"><ele>67.0</ele><time>2026-04-26T12:10:44.02Z</time></trkpt><trkpt lat="45.6633079" lon="11.5951374"><ele>67.0</ele><time>2026-04-26T12:10:46.02Z</time></trkpt><trkpt lat="45.6633354" lon="11.5952378"><ele>67.0</ele><time>2026-04-26T12:10:48.02Z</time></trkpt><trkpt lat="45.6633597" lon="11.5953398"><ele>67.0</ele><time>2026-04-26T12:10:50.02Z</time></trkpt><trkpt lat="45.6633796" lon="11.5954463"><ele>67.0</ele><time>2026-04-26T12:10:52.02Z</time></trkpt><trkpt lat="45.6633985" lon="11.5955432"><ele>67.0</ele><time>2026-04-26T12:10:54.02Z</time></trkpt><trkpt lat="45.6634229" lon="11.5956473"><ele>67.0</ele><time>2026-04-26T12:10:56.02Z</time></trkpt><trkpt lat="45.6634456" lon="11.5957525"><ele>67.0</ele><time>2026-04-26T12:10:58.021Z</time></trkpt><trkpt lat="45.663464" lon="11.595857"><ele>67.0</ele><time>2026-04-26T12:11:00.021Z</time></trkpt><trkpt lat="45.663478" lon="11.5959631"><ele>67.0</ele><time>2026-04-26T12:11:02.021Z</time></trkpt><trkpt lat="45.6634939" lon="11.5960745"><ele>67.0</ele><time>2026-04-26T12:11:04.021Z</time></trkpt><trkpt lat="45.6635051" lon="11.5961845"><ele>67.0</ele><time>2026-04-26T12:11:06.021Z</time></trkpt><trkpt lat="45.6635201" lon="11.5962916"><ele>67.0</ele><time>2026-04-26T12:11:08.021Z</time></trkpt><trkpt lat="45.6635198" lon="11.5963978"><ele>67.0</ele><time>2026-04-26T12:11:10.021Z</time></trkpt><trkpt lat="45.6635149" lon="11.5965051"><ele>67.0</ele><time>2026-04-26T12:11:12.021Z</time></trkpt><trkpt lat="45.6635112" lon="11.5966064"><ele>67.0</ele><time>2026-04-26T12:11:14.021Z</time></trkpt><trkpt lat="45.6635192" lon="11.5967169"><ele>67.0</ele><time>2026-04-26T12:11:16.021Z</time></trkpt><trkpt lat="45.6635215" lon="11.5968207"><ele>67.0</ele><time>2026-04-26T12:11:18.02Z</time></trkpt><trkpt lat="45.6635166" lon="11.5969146"><ele>67.0</ele><time>2026-04-26T12:11:20.021Z</time></trkpt><trkpt lat="45.663516" lon="11.5970255"><ele>67.0</ele><time>2026-04-26T12:11:22.021Z</time></trkpt><trkpt lat="45.6635222" lon="11.597143"><ele>67.0</ele><time>2026-04-26T12:11:24.021Z</time></trkpt><trkpt lat="45.6635237" lon="11.5972674"><ele>67.0</ele><time>2026-04-26T12:11:26.02Z</time></trkpt><trkpt lat="45.6635214" lon="11.5973913"><ele>67.0</ele><time>2026-04-26T12:11:28.021Z</time></trkpt><trkpt lat="45.6635227" lon="11.5975129"><ele>67.0</ele><time>2026-04-26T12:11:30.021Z</time></trkpt><trkpt lat="45.6635219" lon="11.5976444"><ele>67.0</ele><time>2026-04-26T12:11:32.021Z</time></trkpt><trkpt lat="45.6635162" lon="11.5977693"><ele>67.0</ele><time>2026-04-26T12:11:34.021Z</time></trkpt><trkpt lat="45.663511" lon="11.5978844"><ele>67.0</ele><time>2026-04-26T12:11:36.021Z</time></trkpt><trkpt lat="45.6635009" lon="11.5979944"><ele>67.66666666666666</ele><time>2026-04-26T12:11:38.021Z</time></trkpt><trkpt lat="45.6634878" lon="11.5980968"><ele>68.33333333333333</ele><time>2026-04-26T12:11:40.021Z</time></trkpt><trkpt lat="45.6634758" lon="11.5981928"><ele>69.0</ele><time>2026-04-26T12:11:42.021Z</time></trkpt><trkpt lat="45.6634622" lon="11.5982988"><ele>69.66666666666667</ele><time>2026-04-26T12:11:44.02Z</time></trkpt><trkpt lat="45.6634466" lon="11.5984183"><ele>70.33333333333334</ele><time>2026-04-26T12:11:46.021Z</time></trkpt><trkpt lat="45.6633949" lon="11.5985313"><ele>71.0</ele><time>2026-04-26T12:11:48.02Z</time></trkpt><trkpt lat="45.6633474" lon="11.5986228"><ele>70.85714285714286</ele><time>2026-04-26T12:11:50.021Z</time></trkpt><trkpt lat="45.6632951" lon="11.5987092"><ele>70.71428571428571</ele><time>2026-04-26T12:11:52.021Z</time></trkpt><trkpt lat="45.6632561" lon="11.5988024"><ele>70.57142857142857</ele><time>2026-04-26T12:11:54.021Z</time></trkpt><trkpt lat="45.6632962" lon="11.5988766"><ele>70.42857142857143</ele><time>2026-04-26T12:11:56.021Z</time></trkpt><trkpt lat="45.6633179" lon="11.5989656"><ele>70.28571428571428</ele><time>2026-04-26T12:12:00.021Z</time></trkpt><trkpt lat="45.6632984" lon="11.5990981"><ele>70.14285714285714</ele><time>2026-04-26T12:12:03.021Z</time></trkpt><trkpt lat="45.6632895" lon="11.5991937"><ele>70.0</ele><time>2026-04-26T12:12:05.021Z</time></trkpt><trkpt lat="45.6632722" lon="11.5992931"><ele>70.0</ele><time>2026-04-26T12:12:07.021Z</time></trkpt><trkpt lat="45.6632486" lon="11.5994034"><ele>70.0</ele><time>2026-04-26T12:12:09.02Z</time></trkpt><trkpt lat="45.6632357" lon="11.5995207"><ele>70.0</ele><time>2026-04-26T12:12:11.022Z</time></trkpt><trkpt lat="45.6632283" lon="11.5996478"><ele>70.0</ele><time>2026-04-26T12:12:13.022Z</time></trkpt><trkpt lat="45.6632019" lon="11.599774"><ele>70.0</ele><time>2026-04-26T12:12:15.022Z</time></trkpt><trkpt lat="45.6631858" lon="11.5998855"><ele>70.0</ele><time>2026-04-26T12:12:17.022Z</time></trkpt><trkpt lat="45.6631748" lon="11.600011"><ele>69.83333333333333</ele><time>2026-04-26T12:12:19.022Z</time></trkpt><trkpt lat="45.6631659" lon="11.6001357"><ele>69.66666666666666</ele><time>2026-04-26T12:12:21.022Z</time></trkpt><trkpt lat="45.6631595" lon="11.6002478"><ele>69.5</ele><time>2026-04-26T12:12:23.022Z</time></trkpt><trkpt lat="45.6631423" lon="11.6003548"><ele>69.33333333333333</ele><time>2026-04-26T12:12:25.022Z</time></trkpt><trkpt lat="45.6631329" lon="11.6004654"><ele>69.16666666666667</ele><time>2026-04-26T12:12:27.022Z</time></trkpt><trkpt lat="45.6631286" lon="11.6005881"><ele>69.0</ele><time>2026-04-26T12:12:29.021Z</time></trkpt><trkpt lat="45.663115" lon="11.6007136"><ele>68.83333333333333</ele><time>2026-04-26T12:12:31.022Z</time></trkpt><trkpt lat="45.6631018" lon="11.600828"><ele>68.66666666666667</ele><time>2026-04-26T12:12:33.022Z</time></trkpt><trkpt lat="45.6630953" lon="11.6009406"><ele>68.5</ele><time>2026-04-26T12:12:35.021Z</time></trkpt><trkpt lat="45.6630799" lon="11.6010587"><ele>68.33333333333334</ele><time>2026-04-26T12:12:37.022Z</time></trkpt><trkpt lat="45.6630609" lon="11.6011864"><ele>68.16666666666667</ele><time>2026-04-26T12:12:39.022Z</time></trkpt><trkpt lat="45.6630413" lon="11.6013157"><ele>68.0</ele><time>2026-04-26T12:12:41.022Z</time></trkpt><trkpt lat="45.6630218" lon="11.6014366"><ele>68.0</ele><time>2026-04-26T12:12:43.021Z</time></trkpt><trkpt lat="45.6630023" lon="11.6015659"><ele>68.0</ele><time>2026-04-26T12:12:45.022Z</time></trkpt><trkpt lat="45.6629776" lon="11.601711"><ele>68.0</ele><time>2026-04-26T12:12:47.022Z</time></trkpt><trkpt lat="45.6629568" lon="11.6018566"><ele>68.0</ele><time>2026-04-26T12:12:49.022Z</time></trkpt><trkpt lat="45.6629399" lon="11.601994"><ele>68.0</ele><time>2026-04-26T12:12:51.022Z</time></trkpt><trkpt lat="45.6629173" lon="11.6021276"><ele>68.0</ele><time>2026-04-26T12:12:53.022Z</time></trkpt><trkpt lat="45.6628952" lon="11.602263"><ele>68.0</ele><time>2026-04-26T12:12:55.022Z</time></trkpt><trkpt lat="45.6628719" lon="11.6023882"><ele>68.0</ele><time>2026-04-26T12:12:57.022Z</time></trkpt><trkpt lat="45.6628521" lon="11.6025168"><ele>68.0</ele><time>2026-04-26T12:12:59.022Z</time></trkpt><trkpt lat="45.6628344" lon="11.6026567"><ele>68.0</ele><time>2026-04-26T12:13:01.022Z</time></trkpt><trkpt lat="45.6628153" lon="11.6027978"><ele>67.8</ele><time>2026-04-26T12:13:03.022Z</time></trkpt><trkpt lat="45.6628055" lon="11.6029436"><ele>67.6</ele><time>2026-04-26T12:13:05.021Z</time></trkpt><trkpt lat="45.6628022" lon="11.6030951"><ele>67.4</ele><time>2026-04-26T12:13:07.022Z</time></trkpt><trkpt lat="45.6627748" lon="11.6032476"><ele>67.2</ele><time>2026-04-26T12:13:09.022Z</time></trkpt><trkpt lat="45.6627328" lon="11.6034088"><ele>67.0</ele><time>2026-04-26T12:13:11.022Z</time></trkpt><trkpt lat="45.6626932" lon="11.60356"><ele>67.0</ele><time>2026-04-26T12:13:13.022Z</time></trkpt><trkpt lat="45.6626653" lon="11.6037159"><ele>67.0</ele><time>2026-04-26T12:13:15.022Z</time></trkpt><trkpt lat="45.6626402" lon="11.6038674"><ele>67.0</ele><time>2026-04-26T12:13:17.021Z</time></trkpt><trkpt lat="45.6626129" lon="11.6040156"><ele>67.0</ele><time>2026-04-26T12:13:19.023Z</time></trkpt><trkpt lat="45.6625907" lon="11.6041616"><ele>67.0</ele><time>2026-04-26T12:13:21.022Z</time></trkpt><trkpt lat="45.6625754" lon="11.604307"><ele>67.0</ele><time>2026-04-26T12:13:23.023Z</time></trkpt><trkpt lat="45.6625569" lon="11.6044552"><ele>67.0</ele><time>2026-04-26T12:13:25.023Z</time></trkpt><trkpt lat="45.6625383" lon="11.6046159"><ele>67.0</ele><time>2026-04-26T12:13:27.023Z</time></trkpt><trkpt lat="45.6625036" lon="11.6047674"><ele>67.0</ele><time>2026-04-26T12:13:29.022Z</time></trkpt><trkpt lat="45.6624549" lon="11.6048998"><ele>67.0</ele><time>2026-04-26T12:13:31.022Z</time></trkpt><trkpt lat="45.6624142" lon="11.6050332"><ele>66.8</ele><time>2026-04-26T12:13:33.023Z</time></trkpt><trkpt lat="45.662377" lon="11.6051616"><ele>66.6</ele><time>2026-04-26T12:13:35.023Z</time></trkpt><trkpt lat="45.6623397" lon="11.605289"><ele>66.39999999999999</ele><time>2026-04-26T12:13:37.023Z</time></trkpt><trkpt lat="45.6623014" lon="11.60542"><ele>66.2</ele><time>2026-04-26T12:13:39.023Z</time></trkpt><trkpt lat="45.6622572" lon="11.605546"><ele>66.0</ele><time>2026-04-26T12:13:41.023Z</time></trkpt><trkpt lat="45.6622223" lon="11.605659"><ele>66.0</ele><time>2026-04-26T12:13:43.023Z</time></trkpt><trkpt lat="45.6621881" lon="11.6057867"><ele>66.0</ele><time>2026-04-26T12:13:45.023Z</time></trkpt><trkpt lat="45.6621485" lon="11.6059092"><ele>66.0</ele><time>2026-04-26T12:13:47.023Z</time></trkpt><trkpt lat="45.6621014" lon="11.6060442"><ele>66.0</ele><time>2026-04-26T12:13:49.023Z</time></trkpt><trkpt lat="45.6620595" lon="11.6061989"><ele>66.0</ele><time>2026-04-26T12:13:51.023Z</time></trkpt><trkpt lat="45.6620139" lon="11.6063402"><ele>66.0</ele><time>2026-04-26T12:13:53.022Z</time></trkpt><trkpt lat="45.6619645" lon="11.6064775"><ele>66.0</ele><time>2026-04-26T12:13:55.023Z</time></trkpt><trkpt lat="45.6619244" lon="11.6066141"><ele>66.0</ele><time>2026-04-26T12:13:57.023Z</time></trkpt><trkpt lat="45.6618828" lon="11.6067384"><ele>66.0</ele><time>2026-04-26T12:13:59.023Z</time></trkpt><trkpt lat="45.661844" lon="11.6068641"><ele>66.0</ele><time>2026-04-26T12:14:01.023Z</time></trkpt><trkpt lat="45.6618031" lon="11.6069878"><ele>65.5</ele><time>2026-04-26T12:14:03.023Z</time></trkpt><trkpt lat="45.6617612" lon="11.607106"><ele>65.0</ele><time>2026-04-26T12:14:05.023Z</time></trkpt><trkpt lat="45.6617286" lon="11.6072237"><ele>64.5</ele><time>2026-04-26T12:14:07.023Z</time></trkpt><trkpt lat="45.6616929" lon="11.6073292"><ele>64.0</ele><time>2026-04-26T12:14:09.022Z</time></trkpt><trkpt lat="45.6616607" lon="11.6074431"><ele>63.5</ele><time>2026-04-26T12:14:11.023Z</time></trkpt><trkpt lat="45.6616296" lon="11.6075646"><ele>63.0</ele><time>2026-04-26T12:14:13.022Z</time></trkpt><trkpt lat="45.6615946" lon="11.607669"><ele>63.0</ele><time>2026-04-26T12:14:15.022Z</time></trkpt><trkpt lat="45.6615335" lon="11.6077204"><ele>63.0</ele><time>2026-04-26T12:14:18.022Z</time></trkpt><trkpt lat="45.6614497" lon="11.6077574"><ele>63.0</ele><time>2026-04-26T12:14:22.023Z</time></trkpt><trkpt lat="45.6614401" lon="11.6079055"><ele>63.0</ele><time>2026-04-26T12:14:25.023Z</time></trkpt><trkpt lat="45.6614422" lon="11.6080307"><ele>63.0</ele><time>2026-04-26T12:14:27.024Z</time></trkpt><trkpt lat="45.6614434" lon="11.6081591"><ele>63.0</ele><time>2026-04-26T12:14:29.024Z</time></trkpt><trkpt lat="45.6614413" lon="11.6083044"><ele>62.4</ele><time>2026-04-26T12:14:31.024Z</time></trkpt><trkpt lat="45.661434" lon="11.6084601"><ele>61.8</ele><time>2026-04-26T12:14:33.024Z</time></trkpt><trkpt lat="45.6614343" lon="11.6086212"><ele>61.2</ele><time>2026-04-26T12:14:35.023Z</time></trkpt><trkpt lat="45.6614318" lon="11.6087919"><ele>60.6</ele><time>2026-04-26T12:14:37.024Z</time></trkpt><trkpt lat="45.6614308" lon="11.6089423"><ele>60.0</ele><time>2026-04-26T12:14:39.023Z</time></trkpt><trkpt lat="45.6614329" lon="11.6090854"><ele>59.6</ele><time>2026-04-26T12:14:41.024Z</time></trkpt><trkpt lat="45.661439" lon="11.6092293"><ele>59.2</ele><time>2026-04-26T12:14:43.024Z</time></trkpt><trkpt lat="45.6614407" lon="11.6093706"><ele>58.8</ele><time>2026-04-26T12:14:45.024Z</time></trkpt><trkpt lat="45.661443" lon="11.6095089"><ele>58.4</ele><time>2026-04-26T12:14:47.023Z</time></trkpt><trkpt lat="45.6614502" lon="11.6096469"><ele>58.0</ele><time>2026-04-26T12:14:49.024Z</time></trkpt><trkpt lat="45.661455" lon="11.6097894"><ele>57.8</ele><time>2026-04-26T12:14:51.023Z</time></trkpt><trkpt lat="45.6614579" lon="11.6099322"><ele>57.599999999999994</ele><time>2026-04-26T12:14:53.021Z</time></trkpt><trkpt lat="45.66146" lon="11.6100706"><ele>57.400000000000006</ele><time>2026-04-26T12:14:55.024Z</time></trkpt><trkpt lat="45.6614635" lon="11.6102179"><ele>57.2</ele><time>2026-04-26T12:14:57.023Z</time></trkpt><trkpt lat="45.6614631" lon="11.6103656"><ele>57.0</ele><time>2026-04-26T12:14:59.023Z</time></trkpt><trkpt lat="45.6614631" lon="11.610512"><ele>57.2</ele><time>2026-04-26T12:15:01.023Z</time></trkpt><trkpt lat="45.6614636" lon="11.6106543"><ele>57.400000000000006</ele><time>2026-04-26T12:15:03.023Z</time></trkpt><trkpt lat="45.66147" lon="11.6107971"><ele>57.599999999999994</ele><time>2026-04-26T12:15:05.024Z</time></trkpt><trkpt lat="45.6614707" lon="11.6109423"><ele>57.8</ele><time>2026-04-26T12:15:07.023Z</time></trkpt><trkpt lat="45.6614696" lon="11.6110822"><ele>58.0</ele><time>2026-04-26T12:15:09.024Z</time></trkpt><trkpt lat="45.6614713" lon="11.611224"><ele>58.0</ele><time>2026-04-26T12:15:11.024Z</time></trkpt><trkpt lat="45.6614725" lon="11.6113663"><ele>58.0</ele><time>2026-04-26T12:15:13.024Z</time></trkpt><trkpt lat="45.6614713" lon="11.6115055"><ele>58.0</ele><time>2026-04-26T12:15:15.023Z</time></trkpt><trkpt lat="45.661456" lon="11.611643"><ele>58.0</ele><time>2026-04-26T12:15:17.024Z</time></trkpt><trkpt lat="45.6614407" lon="11.6117777"><ele>58.0</ele><time>2026-04-26T12:15:19.024Z</time></trkpt><trkpt lat="45.6614597" lon="11.6119071"><ele>58.0</ele><time>2026-04-26T12:15:21.024Z</time></trkpt><trkpt lat="45.6614912" lon="11.6120516"><ele>58.0</ele><time>2026-04-26T12:15:23.024Z</time></trkpt><trkpt lat="45.6614951" lon="11.6121983"><ele>58.0</ele><time>2026-04-26T12:15:25.024Z</time></trkpt><trkpt lat="45.6614949" lon="11.6123407"><ele>58.0</ele><time>2026-04-26T12:15:27.025Z</time></trkpt><trkpt lat="45.6614952" lon="11.6124858"><ele>58.0</ele><time>2026-04-26T12:15:29.024Z</time></trkpt><trkpt lat="45.661494" lon="11.6126266"><ele>58.0</ele><time>2026-04-26T12:15:31.024Z</time></trkpt><trkpt lat="45.661495" lon="11.6127669"><ele>58.0</ele><time>2026-04-26T12:15:33.024Z</time></trkpt><trkpt lat="45.6614985" lon="11.6129086"><ele>58.0</ele><time>2026-04-26T12:15:35.025Z</time></trkpt><trkpt lat="45.6615024" lon="11.6130496"><ele>58.0</ele><time>2026-04-26T12:15:37.025Z</time></trkpt><trkpt lat="45.6615052" lon="11.6131738"><ele>58.0</ele><time>2026-04-26T12:15:39.025Z</time></trkpt><trkpt lat="45.6615136" lon="11.6132933"><ele>58.166666666666664</ele><time>2026-04-26T12:15:41.025Z</time></trkpt><trkpt lat="45.6614941" lon="11.6133978"><ele>58.33333333333333</ele><time>2026-04-26T12:15:43.024Z</time></trkpt><trkpt lat="45.6614274" lon="11.613402"><ele>58.5</ele><time>2026-04-26T12:15:45.025Z</time></trkpt><trkpt lat="45.661368" lon="11.6133436"><ele>58.66666666666667</ele><time>2026-04-26T12:15:47.025Z</time></trkpt><trkpt lat="45.6613233" lon="11.6132726"><ele>58.833333333333336</ele><time>2026-04-26T12:15:49.025Z</time></trkpt><trkpt lat="45.6612576" lon="11.61321"><ele>59.0</ele><time>2026-04-26T12:15:52.025Z</time></trkpt><trkpt lat="45.6611976" lon="11.6133052"><ele>59.0</ele><time>2026-04-26T12:15:55.025Z</time></trkpt><trkpt lat="45.6611423" lon="11.6134049"><ele>59.00000000000001</ele><time>2026-04-26T12:15:58.025Z</time></trkpt><trkpt lat="45.6610875" lon="11.6134903"><ele>59.00000000000001</ele><time>2026-04-26T12:16:01.025Z</time></trkpt><trkpt lat="45.6611233" lon="11.6136188"><ele>59.0</ele><time>2026-04-26T12:16:04.025Z</time></trkpt><trkpt lat="45.6612033" lon="11.6137026"><ele>59.0</ele><time>2026-04-26T12:16:06.025Z</time></trkpt><trkpt lat="45.6612912" lon="11.6138147"><ele>59.0</ele><time>2026-04-26T12:16:08.025Z</time></trkpt><trkpt lat="45.6613731" lon="11.6139461"><ele>59.00000000000001</ele><time>2026-04-26T12:16:10.025Z</time></trkpt><trkpt lat="45.6614316" lon="11.6140752"><ele>59.00000000000001</ele><time>2026-04-26T12:16:12.025Z</time></trkpt><trkpt lat="45.6615031" lon="11.614166"><ele>59.0</ele><time>2026-04-26T12:16:14.025Z</time></trkpt><trkpt lat="45.6615275" lon="11.6143104"><ele>59.0</ele><time>2026-04-26T12:16:16.025Z</time></trkpt><trkpt lat="45.6615237" lon="11.614489"><ele>58.66666666666667</ele><time>2026-04-26T12:16:18.025Z</time></trkpt><trkpt lat="45.6615273" lon="11.6145792"><ele>58.333333333333336</ele><time>2026-04-26T12:16:19.025Z</time></trkpt><trkpt lat="45.6615282" lon="11.6146751"><ele>58.0</ele><time>2026-04-26T12:16:20.024Z</time></trkpt><trkpt lat="45.6615254" lon="11.6147788"><ele>57.66666666666667</ele><time>2026-04-26T12:16:21.025Z</time></trkpt><trkpt lat="45.6615212" lon="11.6148791"><ele>57.333333333333336</ele><time>2026-04-26T12:16:22.025Z</time></trkpt><trkpt lat="45.6615194" lon="11.6149735"><ele>57.0</ele><time>2026-04-26T12:16:23.025Z</time></trkpt><trkpt lat="45.6615263" lon="11.6151412"><ele>57.0</ele><time>2026-04-26T12:16:25.025Z</time></trkpt><trkpt lat="45.6615293" lon="11.6153022"><ele>57.0</ele><time>2026-04-26T12:16:27.025Z</time></trkpt><trkpt lat="45.6615298" lon="11.6154677"><ele>57.0</ele><time>2026-04-26T12:16:29.025Z</time></trkpt><trkpt lat="45.6615305" lon="11.6156267"><ele>57.0</ele><time>2026-04-26T12:16:31.025Z</time></trkpt><trkpt lat="45.6615305" lon="11.6157921"><ele>56.75</ele><time>2026-04-26T12:16:33.025Z</time></trkpt><trkpt lat="45.661536" lon="11.6159666"><ele>56.5</ele><time>2026-04-26T12:16:35.025Z</time></trkpt><trkpt lat="45.6615421" lon="11.6161397"><ele>56.25</ele><time>2026-04-26T12:16:37.025Z</time></trkpt><trkpt lat="45.6615444" lon="11.6163092"><ele>56.0</ele><time>2026-04-26T12:16:39.025Z</time></trkpt><trkpt lat="45.6615437" lon="11.6164757"><ele>56.0</ele><time>2026-04-26T12:16:41.025Z</time></trkpt><trkpt lat="45.6615477" lon="11.6166423"><ele>56.0</ele><time>2026-04-26T12:16:43.025Z</time></trkpt><trkpt lat="45.6615497" lon="11.6168118"><ele>56.0</ele><time>2026-04-26T12:16:45.026Z</time></trkpt><trkpt lat="45.6615498" lon="11.6169771"><ele>56.0</ele><time>2026-04-26T12:16:47.026Z</time></trkpt><trkpt lat="45.6615487" lon="11.6171437"><ele>56.25</ele><time>2026-04-26T12:16:49.026Z</time></trkpt><trkpt lat="45.6615532" lon="11.6173126"><ele>56.5</ele><time>2026-04-26T12:16:51.026Z</time></trkpt><trkpt lat="45.6615613" lon="11.6174805"><ele>56.75</ele><time>2026-04-26T12:16:53.026Z</time></trkpt><trkpt lat="45.6615731" lon="11.6176407"><ele>57.0</ele><time>2026-04-26T12:16:55.026Z</time></trkpt><trkpt lat="45.6615852" lon="11.6177935"><ele>57.2</ele><time>2026-04-26T12:16:57.026Z</time></trkpt><trkpt lat="45.6615922" lon="11.6179412"><ele>57.400000000000006</ele><time>2026-04-26T12:16:59.026Z</time></trkpt><trkpt lat="45.6615904" lon="11.6180988"><ele>57.599999999999994</ele><time>2026-04-26T12:17:01.026Z</time></trkpt><trkpt lat="45.6615953" lon="11.6182593"><ele>57.8</ele><time>2026-04-26T12:17:03.026Z</time></trkpt><trkpt lat="45.6615946" lon="11.6184194"><ele>58.0</ele><time>2026-04-26T12:17:05.026Z</time></trkpt><trkpt lat="45.6615987" lon="11.6185783"><ele>57.75</ele><time>2026-04-26T12:17:07.026Z</time></trkpt><trkpt lat="45.6615947" lon="11.6187394"><ele>57.5</ele><time>2026-04-26T12:17:09.025Z</time></trkpt><trkpt lat="45.6615841" lon="11.6189048"><ele>57.25</ele><time>2026-04-26T12:17:11.026Z</time></trkpt><trkpt lat="45.6615722" lon="11.6190772"><ele>57.0</ele><time>2026-04-26T12:17:13.025Z</time></trkpt><trkpt lat="45.66157" lon="11.6192488"><ele>57.0</ele><time>2026-04-26T12:17:15.026Z</time></trkpt><trkpt lat="45.661573" lon="11.6194181"><ele>57.0</ele><time>2026-04-26T12:17:17.026Z</time></trkpt><trkpt lat="45.6615817" lon="11.6195826"><ele>57.0</ele><time>2026-04-26T12:17:19.026Z</time></trkpt><trkpt lat="45.6615889" lon="11.6197337"><ele>57.0</ele><time>2026-04-26T12:17:21.026Z</time></trkpt><trkpt lat="45.6615955" lon="11.619881"><ele>57.0</ele><time>2026-04-26T12:17:23.026Z</time></trkpt><trkpt lat="45.6615755" lon="11.6200064"><ele>57.2</ele><time>2026-04-26T12:17:25.026Z</time></trkpt><trkpt lat="45.6615062" lon="11.6201054"><ele>57.400000000000006</ele><time>2026-04-26T12:17:27.026Z</time></trkpt><trkpt lat="45.6615333" lon="11.6202153"><ele>57.599999999999994</ele><time>2026-04-26T12:17:29.026Z</time></trkpt><trkpt lat="45.6615975" lon="11.6203452"><ele>57.8</ele><time>2026-04-26T12:17:31.026Z</time></trkpt><trkpt lat="45.6616034" lon="11.620497"><ele>58.0</ele><time>2026-04-26T12:17:33.026Z</time></trkpt><trkpt lat="45.6616014" lon="11.6206359"><ele>58.0</ele><time>2026-04-26T12:17:35.026Z</time></trkpt><trkpt lat="45.6616007" lon="11.6207811"><ele>58.0</ele><time>2026-04-26T12:17:37.026Z</time></trkpt><trkpt lat="45.6616015" lon="11.620928"><ele>58.0</ele><time>2026-04-26T12:17:39.025Z</time></trkpt><trkpt lat="45.6616039" lon="11.621075"><ele>58.0</ele><time>2026-04-26T12:17:41.026Z</time></trkpt><trkpt lat="45.6616051" lon="11.6212277"><ele>58.0</ele><time>2026-04-26T12:17:43.026Z</time></trkpt><trkpt lat="45.6616078" lon="11.6213821"><ele>57.8</ele><time>2026-04-26T12:17:45.026Z</time></trkpt><trkpt lat="45.6616101" lon="11.6215376"><ele>57.599999999999994</ele><time>2026-04-26T12:17:47.026Z</time></trkpt><trkpt lat="45.6616134" lon="11.6216894"><ele>57.400000000000006</ele><time>2026-04-26T12:17:49.027Z</time></trkpt><trkpt lat="45.6616148" lon="11.6218407"><ele>57.2</ele><time>2026-04-26T12:17:51.026Z</time></trkpt><trkpt lat="45.6616138" lon="11.6219977"><ele>57.0</ele><time>2026-04-26T12:17:53.027Z</time></trkpt><trkpt lat="45.6616132" lon="11.6221555"><ele>57.0</ele><time>2026-04-26T12:17:55.027Z</time></trkpt><trkpt lat="45.6616145" lon="11.6223119"><ele>57.0</ele><time>2026-04-26T12:17:57.027Z</time></trkpt><trkpt lat="45.6616195" lon="11.6224722"><ele>57.0</ele><time>2026-04-26T12:17:59.026Z</time></trkpt><trkpt lat="45.6616297" lon="11.6226279"><ele>57.0</ele><time>2026-04-26T12:18:01.027Z</time></trkpt><trkpt lat="45.6616403" lon="11.6227884"><ele>57.0</ele><time>2026-04-26T12:18:03.026Z</time></trkpt><trkpt lat="45.6616465" lon="11.6229487"><ele>57.0</ele><time>2026-04-26T12:18:05.026Z</time></trkpt><trkpt lat="45.6616455" lon="11.6231036"><ele>57.0</ele><time>2026-04-26T12:18:07.026Z</time></trkpt><trkpt lat="45.6616508" lon="11.6232506"><ele>57.0</ele><time>2026-04-26T12:18:09.027Z</time></trkpt><trkpt lat="45.6616536" lon="11.6233863"><ele>57.0</ele><time>2026-04-26T12:18:11.027Z</time></trkpt><trkpt lat="45.6616371" lon="11.6235202"><ele>57.0</ele><time>2026-04-26T12:18:13.027Z</time></trkpt><trkpt lat="45.6616312" lon="11.6236553"><ele>56.6</ele><time>2026-04-26T12:18:15.027Z</time></trkpt><trkpt lat="45.6616365" lon="11.6237951"><ele>56.2</ele><time>2026-04-26T12:18:17.027Z</time></trkpt><trkpt lat="45.6616413" lon="11.6239477"><ele>55.8</ele><time>2026-04-26T12:18:19.027Z</time></trkpt><trkpt lat="45.6616464" lon="11.6241001"><ele>55.4</ele><time>2026-04-26T12:18:21.027Z</time></trkpt><trkpt lat="45.6616555" lon="11.6242493"><ele>55.0</ele><time>2026-04-26T12:18:23.027Z</time></trkpt><trkpt lat="45.6616561" lon="11.6243958"><ele>55.2</ele><time>2026-04-26T12:18:25.027Z</time></trkpt><trkpt lat="45.6616595" lon="11.6245451"><ele>55.4</ele><time>2026-04-26T12:18:27.027Z</time></trkpt><trkpt lat="45.6616588" lon="11.6246959"><ele>55.599999999999994</ele><time>2026-04-26T12:18:29.026Z</time></trkpt><trkpt lat="45.6616583" lon="11.6248477"><ele>55.8</ele><time>2026-04-26T12:18:31.026Z</time></trkpt><trkpt lat="45.6616741" lon="11.625005"><ele>56.0</ele><time>2026-04-26T12:18:33.027Z</time></trkpt><trkpt lat="45.6616944" lon="11.6251497"><ele>56.0</ele><time>2026-04-26T12:18:35.027Z</time></trkpt><trkpt lat="45.6616977" lon="11.6252932"><ele>55.99999999999999</ele><time>2026-04-26T12:18:37.027Z</time></trkpt><trkpt lat="45.6617006" lon="11.6254373"><ele>55.99999999999999</ele><time>2026-04-26T12:18:39.027Z</time></trkpt><trkpt lat="45.6617066" lon="11.625579"><ele>56.0</ele><time>2026-04-26T12:18:41.027Z</time></trkpt><trkpt lat="45.6617099" lon="11.625716"><ele>56.0</ele><time>2026-04-26T12:18:43.027Z</time></trkpt><trkpt lat="45.6617142" lon="11.6258556"><ele>56.199999999999996</ele><time>2026-04-26T12:18:45.027Z</time></trkpt><trkpt lat="45.6617158" lon="11.6260034"><ele>56.39999999999999</ele><time>2026-04-26T12:18:47.027Z</time></trkpt><trkpt lat="45.6617212" lon="11.62615"><ele>56.6</ele><time>2026-04-26T12:18:49.027Z</time></trkpt><trkpt lat="45.6617312" lon="11.6263082"><ele>56.8</ele><time>2026-04-26T12:18:51.027Z</time></trkpt><trkpt lat="45.6617331" lon="11.6264763"><ele>57.0</ele><time>2026-04-26T12:18:53.027Z</time></trkpt><trkpt lat="45.6617378" lon="11.6266347"><ele>57.0</ele><time>2026-04-26T12:18:55.026Z</time></trkpt><trkpt lat="45.6617454" lon="11.6267916"><ele>57.0</ele><time>2026-04-26T12:18:57.026Z</time></trkpt><trkpt lat="45.6617517" lon="11.6269458"><ele>57.0</ele><time>2026-04-26T12:18:59.028Z</time></trkpt><trkpt lat="45.6617546" lon="11.6271043"><ele>57.0</ele><time>2026-04-26T12:19:01.028Z</time></trkpt><trkpt lat="45.6617584" lon="11.6272587"><ele>57.0</ele><time>2026-04-26T12:19:03.028Z</time></trkpt><trkpt lat="45.6617641" lon="11.6274153"><ele>57.0</ele><time>2026-04-26T12:19:05.028Z</time></trkpt><trkpt lat="45.6617652" lon="11.6275703"><ele>57.0</ele><time>2026-04-26T12:19:07.027Z</time></trkpt><trkpt lat="45.6617679" lon="11.6277258"><ele>57.0</ele><time>2026-04-26T12:19:09.028Z</time></trkpt><trkpt lat="45.6617708" lon="11.6278832"><ele>57.0</ele><time>2026-04-26T12:19:11.028Z</time></trkpt><trkpt lat="45.661776" lon="11.628038"><ele>57.0</ele><time>2026-04-26T12:19:13.027Z</time></trkpt><trkpt lat="45.6617813" lon="11.6281866"><ele>57.0</ele><time>2026-04-26T12:19:15.028Z</time></trkpt><trkpt lat="45.6617878" lon="11.6283362"><ele>57.0</ele><time>2026-04-26T12:19:17.028Z</time></trkpt><trkpt lat="45.6617941" lon="11.6284829"><ele>57.0</ele><time>2026-04-26T12:19:19.028Z</time></trkpt><trkpt lat="45.6617996" lon="11.6286251"><ele>57.0</ele><time>2026-04-26T12:19:21.028Z</time></trkpt><trkpt lat="45.6618051" lon="11.6287673"><ele>57.0</ele><time>2026-04-26T12:19:23.027Z</time></trkpt><trkpt lat="45.661809" lon="11.6289144"><ele>57.0</ele><time>2026-04-26T12:19:25.028Z</time></trkpt><trkpt lat="45.6618072" lon="11.6290581"><ele>57.0</ele><time>2026-04-26T12:19:27.028Z</time></trkpt><trkpt lat="45.6618121" lon="11.6291997"><ele>57.0</ele><time>2026-04-26T12:19:29.027Z</time></trkpt><trkpt lat="45.6618187" lon="11.6293481"><ele>57.0</ele><time>2026-04-26T12:19:31.028Z</time></trkpt><trkpt lat="45.661822" lon="11.629489"><ele>57.0</ele><time>2026-04-26T12:19:33.027Z</time></trkpt><trkpt lat="45.6618302" lon="11.6296351"><ele>56.8</ele><time>2026-04-26T12:19:35.028Z</time></trkpt><trkpt lat="45.6618405" lon="11.6297816"><ele>56.6</ele><time>2026-04-26T12:19:37.028Z</time></trkpt><trkpt lat="45.661849" lon="11.6299245"><ele>56.39999999999999</ele><time>2026-04-26T12:19:39.028Z</time></trkpt><trkpt lat="45.6618464" lon="11.6300758"><ele>56.199999999999996</ele><time>2026-04-26T12:19:41.028Z</time></trkpt><trkpt lat="45.6618509" lon="11.6302252"><ele>56.0</ele><time>2026-04-26T12:19:43.027Z</time></trkpt><trkpt lat="45.6618615" lon="11.6303714"><ele>56.0</ele><time>2026-04-26T12:19:45.028Z</time></trkpt><trkpt lat="45.6618671" lon="11.6305219"><ele>55.99999999999999</ele><time>2026-04-26T12:19:47.028Z</time></trkpt><trkpt lat="45.6618715" lon="11.6306744"><ele>55.99999999999999</ele><time>2026-04-26T12:19:49.028Z</time></trkpt><trkpt lat="45.6618739" lon="11.6308295"><ele>56.0</ele><time>2026-04-26T12:19:51.028Z</time></trkpt><trkpt lat="45.6618782" lon="11.6309844"><ele>56.0</ele><time>2026-04-26T12:19:53.029Z</time></trkpt><trkpt lat="45.6618849" lon="11.631138"><ele>56.0</ele><time>2026-04-26T12:19:55.027Z</time></trkpt><trkpt lat="45.6618949" lon="11.6312912"><ele>55.99999999999999</ele><time>2026-04-26T12:19:57.028Z</time></trkpt><trkpt lat="45.6618903" lon="11.6314454"><ele>55.99999999999999</ele><time>2026-04-26T12:19:59.027Z</time></trkpt><trkpt lat="45.6618892" lon="11.6315932"><ele>56.0</ele><time>2026-04-26T12:20:01.028Z</time></trkpt><trkpt lat="45.6618921" lon="11.6317417"><ele>56.0</ele><time>2026-04-26T12:20:03.028Z</time></trkpt><trkpt lat="45.6618947" lon="11.6318957"><ele>56.4</ele><time>2026-04-26T12:20:05.028Z</time></trkpt><trkpt lat="45.6618998" lon="11.6320472"><ele>56.8</ele><time>2026-04-26T12:20:07.028Z</time></trkpt><trkpt lat="45.6619056" lon="11.6322004"><ele>57.199999999999996</ele><time>2026-04-26T12:20:09.029Z</time></trkpt><trkpt lat="45.6619164" lon="11.6323625"><ele>57.599999999999994</ele><time>2026-04-26T12:20:11.029Z</time></trkpt><trkpt lat="45.6619259" lon="11.632523"><ele>58.0</ele><time>2026-04-26T12:20:13.029Z</time></trkpt><trkpt lat="45.6619304" lon="11.63267"><ele>58.0</ele><time>2026-04-26T12:20:15.028Z</time></trkpt><trkpt lat="45.6619382" lon="11.6328293"><ele>58.0</ele><time>2026-04-26T12:20:17.029Z</time></trkpt><trkpt lat="45.6619365" lon="11.632976"><ele>58.0</ele><time>2026-04-26T12:20:19.029Z</time></trkpt><trkpt lat="45.6619987" lon="11.6331033"><ele>58.0</ele><time>2026-04-26T12:20:21.029Z</time></trkpt><trkpt lat="45.6620519" lon="11.6332342"><ele>58.0</ele><time>2026-04-26T12:20:23.029Z</time></trkpt><trkpt lat="45.6621239" lon="11.6333494"><ele>58.0</ele><time>2026-04-26T12:20:25.029Z</time></trkpt><trkpt lat="45.6622253" lon="11.6334379"><ele>58.0</ele><time>2026-04-26T12:20:27.029Z</time></trkpt><trkpt lat="45.662318" lon="11.6335204"><ele>58.0</ele><time>2026-04-26T12:20:29.029Z</time></trkpt><trkpt lat="45.6624162" lon="11.6336021"><ele>58.0</ele><time>2026-04-26T12:20:31.028Z</time></trkpt><trkpt lat="45.6625131" lon="11.6336695"><ele>58.0</ele><time>2026-04-26T12:20:33.029Z</time></trkpt><trkpt lat="45.6626061" lon="11.6337185"><ele>58.0</ele><time>2026-04-26T12:20:35.029Z</time></trkpt><trkpt lat="45.6626831" lon="11.6337682"><ele>58.0</ele><time>2026-04-26T12:20:37.029Z</time></trkpt><trkpt lat="45.6627513" lon="11.6338154"><ele>58.0</ele><time>2026-04-26T12:20:39.029Z</time></trkpt><trkpt lat="45.6628323" lon="11.6338701"><ele>58.0</ele><time>2026-04-26T12:20:41.029Z</time></trkpt><trkpt lat="45.6629329" lon="11.6339287"><ele>58.0</ele><time>2026-04-26T12:20:43.029Z</time></trkpt><trkpt lat="45.6630108" lon="11.6340371"><ele>58.0</ele><time>2026-04-26T12:20:45.029Z</time></trkpt><trkpt lat="45.6630893" lon="11.6341381"><ele>58.0</ele><time>2026-04-26T12:20:47.029Z</time></trkpt><trkpt lat="45.6631728" lon="11.634236"><ele>58.0</ele><time>2026-04-26T12:20:49.029Z</time></trkpt><trkpt lat="45.6632478" lon="11.6343354"><ele>58.0</ele><time>2026-04-26T12:20:51.029Z</time></trkpt><trkpt lat="45.6633163" lon="11.63443"><ele>58.0</ele><time>2026-04-26T12:20:53.028Z</time></trkpt><trkpt lat="45.6633861" lon="11.6345399"><ele>58.2</ele><time>2026-04-26T12:20:55.029Z</time></trkpt><trkpt lat="45.6634535" lon="11.634658"><ele>58.4</ele><time>2026-04-26T12:20:57.029Z</time></trkpt><trkpt lat="45.6635212" lon="11.6347572"><ele>58.60000000000001</ele><time>2026-04-26T12:20:59.029Z</time></trkpt><trkpt lat="45.6635963" lon="11.6348408"><ele>58.800000000000004</ele><time>2026-04-26T12:21:01.029Z</time></trkpt><trkpt lat="45.6636844" lon="11.6349094"><ele>59.0</ele><time>2026-04-26T12:21:03.029Z</time></trkpt><trkpt lat="45.6637667" lon="11.6349729"><ele>59.16666666666667</ele><time>2026-04-26T12:21:05.028Z</time></trkpt><trkpt lat="45.6638349" lon="11.63502"><ele>59.333333333333336</ele><time>2026-04-26T12:21:07.029Z</time></trkpt><trkpt lat="45.6639151" lon="11.6350747"><ele>59.5</ele><time>2026-04-26T12:21:09.029Z</time></trkpt><trkpt lat="45.6639952" lon="11.6351155"><ele>59.66666666666667</ele><time>2026-04-26T12:21:11.028Z</time></trkpt><trkpt lat="45.6640675" lon="11.6351518"><ele>59.833333333333336</ele><time>2026-04-26T12:21:13.029Z</time></trkpt><trkpt lat="45.6641444" lon="11.6351749"><ele>60.0</ele><time>2026-04-26T12:21:15.029Z</time></trkpt><trkpt lat="45.6642284" lon="11.6352069"><ele>60.0</ele><time>2026-04-26T12:21:17.029Z</time></trkpt><trkpt lat="45.6643131" lon="11.6352477"><ele>60.0</ele><time>2026-04-26T12:21:19.03Z</time></trkpt><trkpt lat="45.6643792" lon="11.6353319"><ele>60.0</ele><time>2026-04-26T12:21:21.03Z</time></trkpt><trkpt lat="45.6643885" lon="11.6354724"><ele>60.0</ele><time>2026-04-26T12:21:23.03Z</time></trkpt><trkpt lat="45.664414" lon="11.6356061"><ele>60.0</ele><time>2026-04-26T12:21:25.03Z</time></trkpt><trkpt lat="45.6644355" lon="11.6357435"><ele>60.0</ele><time>2026-04-26T12:21:27.03Z</time></trkpt><trkpt lat="45.6644443" lon="11.6358977"><ele>60.0</ele><time>2026-04-26T12:21:29.03Z</time></trkpt><trkpt lat="45.6644631" lon="11.6360459"><ele>60.0</ele><time>2026-04-26T12:21:31.029Z</time></trkpt><trkpt lat="45.6644788" lon="11.6361894"><ele>60.0</ele><time>2026-04-26T12:21:33.03Z</time></trkpt><trkpt lat="45.6644917" lon="11.6363175"><ele>60.0</ele><time>2026-04-26T12:21:35.03Z</time></trkpt><trkpt lat="45.6645084" lon="11.6364679"><ele>60.0</ele><time>2026-04-26T12:21:37.029Z</time></trkpt><trkpt lat="45.6645227" lon="11.6366376"><ele>60.0</ele><time>2026-04-26T12:21:39.03Z</time></trkpt><trkpt lat="45.6645395" lon="11.6367922"><ele>60.0</ele><time>2026-04-26T12:21:41.029Z</time></trkpt><trkpt lat="45.6645644" lon="11.6369432"><ele>60.0</ele><time>2026-04-26T12:21:43.03Z</time></trkpt><trkpt lat="45.6645823" lon="11.6370943"><ele>60.0</ele><time>2026-04-26T12:21:45.03Z</time></trkpt><trkpt lat="45.6645955" lon="11.6372457"><ele>59.6</ele><time>2026-04-26T12:21:47.03Z</time></trkpt><trkpt lat="45.6646006" lon="11.6374015"><ele>59.2</ele><time>2026-04-26T12:21:49.029Z</time></trkpt><trkpt lat="45.6645989" lon="11.6375626"><ele>58.8</ele><time>2026-04-26T12:21:51.03Z</time></trkpt><trkpt lat="45.6645805" lon="11.6377224"><ele>58.4</ele><time>2026-04-26T12:21:53.03Z</time></trkpt><trkpt lat="45.6645458" lon="11.6378756"><ele>58.0</ele><time>2026-04-26T12:21:55.03Z</time></trkpt><trkpt lat="45.6644913" lon="11.6380179"><ele>58.0</ele><time>2026-04-26T12:21:57.03Z</time></trkpt><trkpt lat="45.664436" lon="11.6381622"><ele>58.0</ele><time>2026-04-26T12:21:59.03Z</time></trkpt><trkpt lat="45.6643818" lon="11.6383023"><ele>58.0</ele><time>2026-04-26T12:22:01.03Z</time></trkpt><trkpt lat="45.6643194" lon="11.6384404"><ele>58.0</ele><time>2026-04-26T12:22:03.03Z</time></trkpt><trkpt lat="45.6642674" lon="11.6385864"><ele>57.75</ele><time>2026-04-26T12:22:05.03Z</time></trkpt><trkpt lat="45.6642236" lon="11.6387367"><ele>57.5</ele><time>2026-04-26T12:22:07.03Z</time></trkpt><trkpt lat="45.6641821" lon="11.6388893"><ele>57.25</ele><time>2026-04-26T12:22:09.03Z</time></trkpt><trkpt lat="45.6641427" lon="11.6390384"><ele>57.0</ele><time>2026-04-26T12:22:11.029Z</time></trkpt><trkpt lat="45.6641091" lon="11.6391916"><ele>57.0</ele><time>2026-04-26T12:22:13.03Z</time></trkpt><trkpt lat="45.6640747" lon="11.6393506"><ele>57.0</ele><time>2026-04-26T12:22:15.03Z</time></trkpt><trkpt lat="45.6640407" lon="11.6395092"><ele>57.0</ele><time>2026-04-26T12:22:17.03Z</time></trkpt><trkpt lat="45.6640062" lon="11.639665"><ele>57.0</ele><time>2026-04-26T12:22:19.03Z</time></trkpt><trkpt lat="45.6639725" lon="11.6398153"><ele>57.0</ele><time>2026-04-26T12:22:21.03Z</time></trkpt><trkpt lat="45.6639405" lon="11.6399641"><ele>57.0</ele><time>2026-04-26T12:22:23.03Z</time></trkpt><trkpt lat="45.6639066" lon="11.6401102"><ele>57.0</ele><time>2026-04-26T12:22:25.03Z</time></trkpt><trkpt lat="45.6638755" lon="11.6402606"><ele>57.0</ele><time>2026-04-26T12:22:27.031Z</time></trkpt><trkpt lat="45.6638438" lon="11.6404129"><ele>57.0</ele><time>2026-04-26T12:22:29.03Z</time></trkpt><trkpt lat="45.6638124" lon="11.6405592"><ele>57.2</ele><time>2026-04-26T12:22:31.031Z</time></trkpt><trkpt lat="45.6637763" lon="11.6407058"><ele>57.400000000000006</ele><time>2026-04-26T12:22:33.031Z</time></trkpt><trkpt lat="45.6637413" lon="11.6408587"><ele>57.599999999999994</ele><time>2026-04-26T12:22:35.031Z</time></trkpt><trkpt lat="45.6637072" lon="11.641003"><ele>57.8</ele><time>2026-04-26T12:22:37.031Z</time></trkpt><trkpt lat="45.6636771" lon="11.6411511"><ele>58.0</ele><time>2026-04-26T12:22:39.031Z</time></trkpt><trkpt lat="45.6636433" lon="11.6412951"><ele>58.2</ele><time>2026-04-26T12:22:41.031Z</time></trkpt><trkpt lat="45.6636132" lon="11.6414422"><ele>58.4</ele><time>2026-04-26T12:22:43.031Z</time></trkpt><trkpt lat="45.6635794" lon="11.6415864"><ele>58.60000000000001</ele><time>2026-04-26T12:22:45.031Z</time></trkpt><trkpt lat="45.6635462" lon="11.6417314"><ele>58.800000000000004</ele><time>2026-04-26T12:22:47.031Z</time></trkpt><trkpt lat="45.6635216" lon="11.6418728"><ele>59.0</ele><time>2026-04-26T12:22:49.031Z</time></trkpt><trkpt lat="45.6634902" lon="11.6420129"><ele>59.0</ele><time>2026-04-26T12:22:51.031Z</time></trkpt><trkpt lat="45.6634554" lon="11.6421683"><ele>59.00000000000001</ele><time>2026-04-26T12:22:53.031Z</time></trkpt><trkpt lat="45.6634204" lon="11.6423262"><ele>59.00000000000001</ele><time>2026-04-26T12:22:55.031Z</time></trkpt><trkpt lat="45.6633806" lon="11.6424765"><ele>59.0</ele><time>2026-04-26T12:22:57.03Z</time></trkpt><trkpt lat="45.6633489" lon="11.6425968"><ele>59.0</ele><time>2026-04-26T12:22:59.031Z</time></trkpt><trkpt lat="45.6633529" lon="11.64272"><ele>58.800000000000004</ele><time>2026-04-26T12:23:01.031Z</time></trkpt><trkpt lat="45.663324" lon="11.6428571"><ele>58.60000000000001</ele><time>2026-04-26T12:23:03.031Z</time></trkpt><trkpt lat="45.663279" lon="11.6429795"><ele>58.4</ele><time>2026-04-26T12:23:05.031Z</time></trkpt><trkpt lat="45.6632485" lon="11.6430949"><ele>58.2</ele><time>2026-04-26T12:23:07.03Z</time></trkpt><trkpt lat="45.6632176" lon="11.643227"><ele>58.0</ele><time>2026-04-26T12:23:09.031Z</time></trkpt><trkpt lat="45.6631895" lon="11.6433637"><ele>58.0</ele><time>2026-04-26T12:23:11.031Z</time></trkpt><trkpt lat="45.6631643" lon="11.6434809"><ele>58.0</ele><time>2026-04-26T12:23:13.031Z</time></trkpt><trkpt lat="45.6631342" lon="11.643618"><ele>58.0</ele><time>2026-04-26T12:23:15.031Z</time></trkpt><trkpt lat="45.6631064" lon="11.6437651"><ele>58.0</ele><time>2026-04-26T12:23:17.031Z</time></trkpt><trkpt lat="45.6630777" lon="11.6438901"><ele>58.0</ele><time>2026-04-26T12:23:19.031Z</time></trkpt><trkpt lat="45.6630442" lon="11.644036"><ele>58.0</ele><time>2026-04-26T12:23:21.03Z</time></trkpt><trkpt lat="45.663013" lon="11.6441905"><ele>58.0</ele><time>2026-04-26T12:23:23.031Z</time></trkpt><trkpt lat="45.6629878" lon="11.6443381"><ele>58.0</ele><time>2026-04-26T12:23:25.03Z</time></trkpt><trkpt lat="45.6629563" lon="11.6444724"><ele>58.0</ele><time>2026-04-26T12:23:27.031Z</time></trkpt><trkpt lat="45.6629268" lon="11.6446002"><ele>58.0</ele><time>2026-04-26T12:23:29.031Z</time></trkpt><trkpt lat="45.662902" lon="11.6447164"><ele>57.99999999999999</ele><time>2026-04-26T12:23:31.031Z</time></trkpt><trkpt lat="45.662881" lon="11.6448167"><ele>58.0</ele><time>2026-04-26T12:23:33.031Z</time></trkpt><trkpt lat="45.6628525" lon="11.6449165"><ele>58.0</ele><time>2026-04-26T12:23:35.032Z</time></trkpt><trkpt lat="45.6628332" lon="11.6450258"><ele>58.0</ele><time>2026-04-26T12:23:37.032Z</time></trkpt><trkpt lat="45.6628037" lon="11.6451463"><ele>57.99999999999999</ele><time>2026-04-26T12:23:39.032Z</time></trkpt><trkpt lat="45.6627574" lon="11.6452816"><ele>58.0</ele><time>2026-04-26T12:23:41.032Z</time></trkpt><trkpt lat="45.6627374" lon="11.6454135"><ele>57.99999999999999</ele><time>2026-04-26T12:23:43.032Z</time></trkpt><trkpt lat="45.6626869" lon="11.6455067"><ele>58.0</ele><time>2026-04-26T12:23:45.032Z</time></trkpt><trkpt lat="45.6626282" lon="11.6455744"><ele>58.0</ele><time>2026-04-26T12:23:47.032Z</time></trkpt><trkpt lat="45.6625517" lon="11.6456063"><ele>58.0</ele><time>2026-04-26T12:23:49.031Z</time></trkpt><trkpt lat="45.6624656" lon="11.6456035"><ele>57.99999999999999</ele><time>2026-04-26T12:23:51.031Z</time></trkpt><trkpt lat="45.6623826" lon="11.6455603"><ele>58.0</ele><time>2026-04-26T12:23:53.032Z</time></trkpt><trkpt lat="45.6622992" lon="11.6455218"><ele>57.99999999999999</ele><time>2026-04-26T12:23:55.032Z</time></trkpt><trkpt lat="45.6622135" lon="11.645474"><ele>58.0</ele><time>2026-04-26T12:23:57.032Z</time></trkpt><trkpt lat="45.6621277" lon="11.6454451"><ele>58.0</ele><time>2026-04-26T12:23:59.032Z</time></trkpt><trkpt lat="45.6620431" lon="11.6454127"><ele>58.0</ele><time>2026-04-26T12:24:01.032Z</time></trkpt><trkpt lat="45.6619621" lon="11.6453756"><ele>57.99999999999999</ele><time>2026-04-26T12:24:03.032Z</time></trkpt><trkpt lat="45.6618835" lon="11.6453416"><ele>58.0</ele><time>2026-04-26T12:24:05.032Z</time></trkpt><trkpt lat="45.6618113" lon="11.6453101"><ele>57.83333333333333</ele><time>2026-04-26T12:24:07.032Z</time></trkpt><trkpt lat="45.6617312" lon="11.6452746"><ele>57.666666666666664</ele><time>2026-04-26T12:24:09.032Z</time></trkpt><trkpt lat="45.661654" lon="11.6452394"><ele>57.5</ele><time>2026-04-26T12:24:11.032Z</time></trkpt><trkpt lat="45.6615737" lon="11.6452126"><ele>57.33333333333333</ele><time>2026-04-26T12:24:13.032Z</time></trkpt><trkpt lat="45.6614928" lon="11.6451898"><ele>57.166666666666664</ele><time>2026-04-26T12:24:15.032Z</time></trkpt><trkpt lat="45.661418" lon="11.645158"><ele>57.0</ele><time>2026-04-26T12:24:17.032Z</time></trkpt><trkpt lat="45.661353" lon="11.6451306"><ele>57.0</ele><time>2026-04-26T12:24:19.032Z</time></trkpt><trkpt lat="45.6612895" lon="11.6451107"><ele>57.0</ele><time>2026-04-26T12:24:21.032Z</time></trkpt><trkpt lat="45.6612246" lon="11.6451229"><ele>57.0</ele><time>2026-04-26T12:24:23.032Z</time></trkpt><trkpt lat="45.6611729" lon="11.6451897"><ele>57.0</ele><time>2026-04-26T12:24:25.032Z</time></trkpt><trkpt lat="45.6611661" lon="11.6453143"><ele>57.0</ele><time>2026-04-26T12:24:27.032Z</time></trkpt><trkpt lat="45.6611782" lon="11.6454352"><ele>57.0</ele><time>2026-04-26T12:24:29.031Z</time></trkpt><trkpt lat="45.6611871" lon="11.6455599"><ele>56.8</ele><time>2026-04-26T12:24:31.032Z</time></trkpt><trkpt lat="45.6611947" lon="11.6456886"><ele>56.6</ele><time>2026-04-26T12:24:33.032Z</time></trkpt><trkpt lat="45.6612018" lon="11.6458207"><ele>56.39999999999999</ele><time>2026-04-26T12:24:35.031Z</time></trkpt><trkpt lat="45.6612057" lon="11.6459583"><ele>56.199999999999996</ele><time>2026-04-26T12:24:37.032Z</time></trkpt><trkpt lat="45.6612097" lon="11.6460909"><ele>56.0</ele><time>2026-04-26T12:24:39.032Z</time></trkpt><trkpt lat="45.6612163" lon="11.6462263"><ele>56.0</ele><time>2026-04-26T12:24:41.032Z</time></trkpt><trkpt lat="45.6612246" lon="11.6463677"><ele>55.99999999999999</ele><time>2026-04-26T12:24:43.033Z</time></trkpt><trkpt lat="45.6612319" lon="11.6465045"><ele>55.99999999999999</ele><time>2026-04-26T12:24:45.033Z</time></trkpt><trkpt lat="45.661234" lon="11.6466472"><ele>56.0</ele><time>2026-04-26T12:24:47.033Z</time></trkpt><trkpt lat="45.6612412" lon="11.6467944"><ele>56.0</ele><time>2026-04-26T12:24:49.033Z</time></trkpt><trkpt lat="45.661246" lon="11.6469266"><ele>56.0</ele><time>2026-04-26T12:24:51.033Z</time></trkpt><trkpt lat="45.6612505" lon="11.6470712"><ele>55.99999999999999</ele><time>2026-04-26T12:24:53.033Z</time></trkpt><trkpt lat="45.6612568" lon="11.6472296"><ele>55.99999999999999</ele><time>2026-04-26T12:24:55.033Z</time></trkpt><trkpt lat="45.6612691" lon="11.6473796"><ele>56.0</ele><time>2026-04-26T12:24:57.033Z</time></trkpt><trkpt lat="45.6612736" lon="11.6475236"><ele>56.0</ele><time>2026-04-26T12:24:59.033Z</time></trkpt><trkpt lat="45.6612808" lon="11.6476687"><ele>56.199999999999996</ele><time>2026-04-26T12:25:01.033Z</time></trkpt><trkpt lat="45.6612899" lon="11.6478149"><ele>56.39999999999999</ele><time>2026-04-26T12:25:03.032Z</time></trkpt><trkpt lat="45.6612918" lon="11.6479622"><ele>56.6</ele><time>2026-04-26T12:25:05.033Z</time></trkpt><trkpt lat="45.6612958" lon="11.6481121"><ele>56.8</ele><time>2026-04-26T12:25:07.032Z</time></trkpt><trkpt lat="45.6613029" lon="11.6482604"><ele>57.0</ele><time>2026-04-26T12:25:09.033Z</time></trkpt><trkpt lat="45.661311" lon="11.6484051"><ele>57.0</ele><time>2026-04-26T12:25:11.033Z</time></trkpt><trkpt lat="45.6613132" lon="11.6485513"><ele>57.0</ele><time>2026-04-26T12:25:13.033Z</time></trkpt><trkpt lat="45.661321" lon="11.6487048"><ele>57.0</ele><time>2026-04-26T12:25:15.033Z</time></trkpt><trkpt lat="45.6613287" lon="11.6488493"><ele>57.0</ele><time>2026-04-26T12:25:17.033Z</time></trkpt><trkpt lat="45.6613398" lon="11.6489986"><ele>57.0</ele><time>2026-04-26T12:25:19.033Z</time></trkpt><trkpt lat="45.6613499" lon="11.649143"><ele>57.0</ele><time>2026-04-26T12:25:21.033Z</time></trkpt><trkpt lat="45.6613542" lon="11.6492903"><ele>57.0</ele><time>2026-04-26T12:25:23.033Z</time></trkpt><trkpt lat="45.6613578" lon="11.6494382"><ele>57.0</ele><time>2026-04-26T12:25:25.033Z</time></trkpt><trkpt lat="45.6613654" lon="11.6495703"><ele>57.0</ele><time>2026-04-26T12:25:27.032Z</time></trkpt><trkpt lat="45.6613734" lon="11.6497167"><ele>57.0</ele><time>2026-04-26T12:25:29.032Z</time></trkpt><trkpt lat="45.661379" lon="11.6498721"><ele>57.0</ele><time>2026-04-26T12:25:31.032Z</time></trkpt><trkpt lat="45.6613864" lon="11.6500248"><ele>57.0</ele><time>2026-04-26T12:25:33.033Z</time></trkpt><trkpt lat="45.6613957" lon="11.6501748"><ele>57.0</ele><time>2026-04-26T12:25:35.033Z</time></trkpt><trkpt lat="45.6614003" lon="11.6503235"><ele>57.0</ele><time>2026-04-26T12:25:37.033Z</time></trkpt><trkpt lat="45.6614093" lon="11.650462"><ele>57.0</ele><time>2026-04-26T12:25:39.033Z</time></trkpt><trkpt lat="45.6614185" lon="11.6505976"><ele>57.400000000000006</ele><time>2026-04-26T12:25:41.033Z</time></trkpt><trkpt lat="45.6614222" lon="11.6507385"><ele>57.800000000000004</ele><time>2026-04-26T12:25:43.033Z</time></trkpt><trkpt lat="45.6614282" lon="11.6508874"><ele>58.2</ele><time>2026-04-26T12:25:45.033Z</time></trkpt><trkpt lat="45.6614377" lon="11.6510259"><ele>58.6</ele><time>2026-04-26T12:25:47.033Z</time></trkpt><trkpt lat="45.6614466" lon="11.6511665"><ele>59.0</ele><time>2026-04-26T12:25:49.033Z</time></trkpt><trkpt lat="45.6614533" lon="11.6513045"><ele>59.0</ele><time>2026-04-26T12:25:51.033Z</time></trkpt><trkpt lat="45.6614576" lon="11.65144"><ele>59.00000000000001</ele><time>2026-04-26T12:25:53.034Z</time></trkpt><trkpt lat="45.661464" lon="11.6515743"><ele>59.00000000000001</ele><time>2026-04-26T12:25:55.034Z</time></trkpt><trkpt lat="45.6614705" lon="11.6517087"><ele>59.0</ele><time>2026-04-26T12:25:57.033Z</time></trkpt><trkpt lat="45.6614823" lon="11.6518408"><ele>59.0</ele><time>2026-04-26T12:25:59.034Z</time></trkpt><trkpt lat="45.6614915" lon="11.6519734"><ele>59.0</ele><time>2026-04-26T12:26:01.034Z</time></trkpt><trkpt lat="45.6614966" lon="11.6521023"><ele>59.00000000000001</ele><time>2026-04-26T12:26:03.034Z</time></trkpt><trkpt lat="45.6615026" lon="11.6522321"><ele>59.00000000000001</ele><time>2026-04-26T12:26:05.034Z</time></trkpt><trkpt lat="45.6615079" lon="11.6523602"><ele>59.0</ele><time>2026-04-26T12:26:07.033Z</time></trkpt><trkpt lat="45.6615197" lon="11.6524951"><ele>59.0</ele><time>2026-04-26T12:26:09.034Z</time></trkpt><trkpt lat="45.6615255" lon="11.6526407"><ele>59.0</ele><time>2026-04-26T12:26:11.033Z</time></trkpt><trkpt lat="45.6615249" lon="11.6527871"><ele>59.00000000000001</ele><time>2026-04-26T12:26:13.034Z</time></trkpt><trkpt lat="45.6615292" lon="11.6529272"><ele>59.00000000000001</ele><time>2026-04-26T12:26:15.034Z</time></trkpt><trkpt lat="45.661532" lon="11.6530614"><ele>59.0</ele><time>2026-04-26T12:26:17.034Z</time></trkpt><trkpt lat="45.6615369" lon="11.653199"><ele>59.0</ele><time>2026-04-26T12:26:19.034Z</time></trkpt><trkpt lat="45.6615447" lon="11.6533332"><ele>58.6</ele><time>2026-04-26T12:26:21.034Z</time></trkpt><trkpt lat="45.6615552" lon="11.653474"><ele>58.2</ele><time>2026-04-26T12:26:23.033Z</time></trkpt><trkpt lat="45.6615617" lon="11.6536159"><ele>57.800000000000004</ele><time>2026-04-26T12:26:25.033Z</time></trkpt><trkpt lat="45.6615657" lon="11.6537602"><ele>57.400000000000006</ele><time>2026-04-26T12:26:27.034Z</time></trkpt><trkpt lat="45.6615736" lon="11.6539017"><ele>57.0</ele><time>2026-04-26T12:26:29.034Z</time></trkpt><trkpt lat="45.661582" lon="11.654038"><ele>57.0</ele><time>2026-04-26T12:26:31.033Z</time></trkpt><trkpt lat="45.6615864" lon="11.6541698"><ele>57.0</ele><time>2026-04-26T12:26:33.034Z</time></trkpt><trkpt lat="45.6615883" lon="11.6543028"><ele>57.0</ele><time>2026-04-26T12:26:35.034Z</time></trkpt><trkpt lat="45.6615915" lon="11.6544387"><ele>57.0</ele><time>2026-04-26T12:26:37.034Z</time></trkpt><trkpt lat="45.6615945" lon="11.6545725"><ele>57.0</ele><time>2026-04-26T12:26:39.033Z</time></trkpt><trkpt lat="45.6615999" lon="11.6547101"><ele>57.400000000000006</ele><time>2026-04-26T12:26:41.034Z</time></trkpt><trkpt lat="45.6616075" lon="11.6548577"><ele>57.800000000000004</ele><time>2026-04-26T12:26:43.034Z</time></trkpt><trkpt lat="45.6616129" lon="11.6550018"><ele>58.2</ele><time>2026-04-26T12:26:45.034Z</time></trkpt><trkpt lat="45.661624" lon="11.6551339"><ele>58.6</ele><time>2026-04-26T12:26:47.034Z</time></trkpt><trkpt lat="45.6616287" lon="11.655269"><ele>59.0</ele><time>2026-04-26T12:26:49.034Z</time></trkpt><trkpt lat="45.6616305" lon="11.6554068"><ele>59.0</ele><time>2026-04-26T12:26:51.034Z</time></trkpt><trkpt lat="45.6616373" lon="11.655543"><ele>59.00000000000001</ele><time>2026-04-26T12:26:53.034Z</time></trkpt><trkpt lat="45.6616412" lon="11.6556837"><ele>59.00000000000001</ele><time>2026-04-26T12:26:55.034Z</time></trkpt><trkpt lat="45.6616486" lon="11.6558296"><ele>59.0</ele><time>2026-04-26T12:26:57.034Z</time></trkpt><trkpt lat="45.6616555" lon="11.6559735"><ele>59.0</ele><time>2026-04-26T12:26:59.035Z</time></trkpt><trkpt lat="45.6616628" lon="11.6561207"><ele>59.0</ele><time>2026-04-26T12:27:01.034Z</time></trkpt><trkpt lat="45.6616712" lon="11.6562664"><ele>59.00000000000001</ele><time>2026-04-26T12:27:03.034Z</time></trkpt><trkpt lat="45.6616745" lon="11.6564036"><ele>59.00000000000001</ele><time>2026-04-26T12:27:05.034Z</time></trkpt><trkpt lat="45.6616771" lon="11.6565425"><ele>59.0</ele><time>2026-04-26T12:27:07.035Z</time></trkpt><trkpt lat="45.6616823" lon="11.6566778"><ele>59.0</ele><time>2026-04-26T12:27:09.035Z</time></trkpt><trkpt lat="45.6616859" lon="11.656813"><ele>59.0</ele><time>2026-04-26T12:27:11.035Z</time></trkpt><trkpt lat="45.6616892" lon="11.6569534"><ele>59.00000000000001</ele><time>2026-04-26T12:27:13.035Z</time></trkpt><trkpt lat="45.6616987" lon="11.6570904"><ele>59.00000000000001</ele><time>2026-04-26T12:27:15.035Z</time></trkpt><trkpt lat="45.6617059" lon="11.6572249"><ele>59.0</ele><time>2026-04-26T12:27:17.035Z</time></trkpt><trkpt lat="45.6617153" lon="11.6573495"><ele>59.0</ele><time>2026-04-26T12:27:19.035Z</time></trkpt><trkpt lat="45.6617231" lon="11.6574818"><ele>59.0</ele><time>2026-04-26T12:27:21.035Z</time></trkpt><trkpt lat="45.6617303" lon="11.6576127"><ele>59.00000000000001</ele><time>2026-04-26T12:27:23.035Z</time></trkpt><trkpt lat="45.6617394" lon="11.6577465"><ele>59.00000000000001</ele><time>2026-04-26T12:27:25.035Z</time></trkpt><trkpt lat="45.661745" lon="11.6578889"><ele>59.0</ele><time>2026-04-26T12:27:27.035Z</time></trkpt><trkpt lat="45.6617508" lon="11.6580307"><ele>59.0</ele><time>2026-04-26T12:27:29.034Z</time></trkpt><trkpt lat="45.6617547" lon="11.658175"><ele>59.0</ele><time>2026-04-26T12:27:31.035Z</time></trkpt><trkpt lat="45.6617602" lon="11.6583159"><ele>59.00000000000001</ele><time>2026-04-26T12:27:33.035Z</time></trkpt><trkpt lat="45.6617656" lon="11.6584608"><ele>59.00000000000001</ele><time>2026-04-26T12:27:35.035Z</time></trkpt><trkpt lat="45.6617707" lon="11.6586023"><ele>59.0</ele><time>2026-04-26T12:27:37.035Z</time></trkpt><trkpt lat="45.6617762" lon="11.658741"><ele>59.0</ele><time>2026-04-26T12:27:39.034Z</time></trkpt><trkpt lat="45.6617804" lon="11.6588773"><ele>59.0</ele><time>2026-04-26T12:27:41.035Z</time></trkpt><trkpt lat="45.6617889" lon="11.6590131"><ele>59.00000000000001</ele><time>2026-04-26T12:27:43.035Z</time></trkpt><trkpt lat="45.6617957" lon="11.6591518"><ele>59.00000000000001</ele><time>2026-04-26T12:27:45.035Z</time></trkpt><trkpt lat="45.6618003" lon="11.6592906"><ele>59.0</ele><time>2026-04-26T12:27:47.035Z</time></trkpt><trkpt lat="45.6618069" lon="11.6594284"><ele>59.0</ele><time>2026-04-26T12:27:49.035Z</time></trkpt><trkpt lat="45.6618121" lon="11.6595704"><ele>59.0</ele><time>2026-04-26T12:27:51.035Z</time></trkpt><trkpt lat="45.661818" lon="11.659718"><ele>59.00000000000001</ele><time>2026-04-26T12:27:53.035Z</time></trkpt><trkpt lat="45.6618258" lon="11.6598646"><ele>59.00000000000001</ele><time>2026-04-26T12:27:55.035Z</time></trkpt><trkpt lat="45.6618323" lon="11.6600139"><ele>59.0</ele><time>2026-04-26T12:27:57.035Z</time></trkpt><trkpt lat="45.6618358" lon="11.6601676"><ele>59.0</ele><time>2026-04-26T12:27:59.035Z</time></trkpt><trkpt lat="45.6618442" lon="11.660321"><ele>59.0</ele><time>2026-04-26T12:28:01.035Z</time></trkpt><trkpt lat="45.6618476" lon="11.6604717"><ele>59.00000000000001</ele><time>2026-04-26T12:28:03.034Z</time></trkpt><trkpt lat="45.6618515" lon="11.6606303"><ele>59.00000000000001</ele><time>2026-04-26T12:28:05.034Z</time></trkpt><trkpt lat="45.6618547" lon="11.6607788"><ele>59.0</ele><time>2026-04-26T12:28:07.035Z</time></trkpt><trkpt lat="45.6618683" lon="11.6609399"><ele>59.0</ele><time>2026-04-26T12:28:09.035Z</time></trkpt><trkpt lat="45.6618714" lon="11.6610963"><ele>59.0</ele><time>2026-04-26T12:28:11.035Z</time></trkpt><trkpt lat="45.6618774" lon="11.6612496"><ele>59.00000000000001</ele><time>2026-04-26T12:28:13.034Z</time></trkpt><trkpt lat="45.6618851" lon="11.6613918"><ele>59.00000000000001</ele><time>2026-04-26T12:28:15.036Z</time></trkpt><trkpt lat="45.6618855" lon="11.6615302"><ele>59.0</ele><time>2026-04-26T12:28:17.036Z</time></trkpt><trkpt lat="45.6618954" lon="11.6616744"><ele>59.0</ele><time>2026-04-26T12:28:19.036Z</time></trkpt><trkpt lat="45.6619061" lon="11.661822"><ele>58.400000000000006</ele><time>2026-04-26T12:28:21.036Z</time></trkpt><trkpt lat="45.6619169" lon="11.6619643"><ele>57.800000000000004</ele><time>2026-04-26T12:28:23.036Z</time></trkpt><trkpt lat="45.6619208" lon="11.6621056"><ele>57.199999999999996</ele><time>2026-04-26T12:28:25.036Z</time></trkpt><trkpt lat="45.6619274" lon="11.6622386"><ele>56.599999999999994</ele><time>2026-04-26T12:28:27.035Z</time></trkpt><trkpt lat="45.6619357" lon="11.6623749"><ele>56.0</ele><time>2026-04-26T12:28:29.036Z</time></trkpt><trkpt lat="45.6619387" lon="11.6625435"><ele>56.0</ele><time>2026-04-26T12:28:31.036Z</time></trkpt><trkpt lat="45.6619511" lon="11.6626932"><ele>55.99999999999999</ele><time>2026-04-26T12:28:33.036Z</time></trkpt><trkpt lat="45.6619592" lon="11.6628352"><ele>55.99999999999999</ele><time>2026-04-26T12:28:35.036Z</time></trkpt><trkpt lat="45.6619566" lon="11.6629834"><ele>56.0</ele><time>2026-04-26T12:28:37.036Z</time></trkpt><trkpt lat="45.6619583" lon="11.6631405"><ele>56.0</ele><time>2026-04-26T12:28:39.036Z</time></trkpt><trkpt lat="45.6619657" lon="11.6632884"><ele>56.199999999999996</ele><time>2026-04-26T12:28:41.035Z</time></trkpt><trkpt lat="45.6619717" lon="11.6634324"><ele>56.39999999999999</ele><time>2026-04-26T12:28:43.036Z</time></trkpt><trkpt lat="45.6619774" lon="11.6635851"><ele>56.6</ele><time>2026-04-26T12:28:45.036Z</time></trkpt><trkpt lat="45.66198" lon="11.6637267"><ele>56.8</ele><time>2026-04-26T12:28:47.036Z</time></trkpt><trkpt lat="45.6619873" lon="11.6638774"><ele>57.0</ele><time>2026-04-26T12:28:49.036Z</time></trkpt><trkpt lat="45.6619943" lon="11.6640329"><ele>57.0</ele><time>2026-04-26T12:28:51.036Z</time></trkpt><trkpt lat="45.6619998" lon="11.6641926"><ele>57.0</ele><time>2026-04-26T12:28:53.036Z</time></trkpt><trkpt lat="45.6619944" lon="11.664351"><ele>57.0</ele><time>2026-04-26T12:28:55.035Z</time></trkpt><trkpt lat="45.6619666" lon="11.6644999"><ele>57.0</ele><time>2026-04-26T12:28:57.036Z</time></trkpt><trkpt lat="45.661889" lon="11.6646092"><ele>57.0</ele><time>2026-04-26T12:28:59.036Z</time></trkpt><trkpt lat="45.6617764" lon="11.6646423"><ele>57.0</ele><time>2026-04-26T12:29:01.036Z</time></trkpt><trkpt lat="45.661667" lon="11.6646724"><ele>57.0</ele><time>2026-04-26T12:29:03.035Z</time></trkpt><trkpt lat="45.6615834" lon="11.6647692"><ele>57.0</ele><time>2026-04-26T12:29:05.035Z</time></trkpt><trkpt lat="45.6615795" lon="11.664947"><ele>57.0</ele><time>2026-04-26T12:29:07.035Z</time></trkpt><trkpt lat="45.6616044" lon="11.6651106"><ele>57.0</ele><time>2026-04-26T12:29:09.037Z</time></trkpt><trkpt lat="45.6616168" lon="11.6652776"><ele>57.0</ele><time>2026-04-26T12:29:11.036Z</time></trkpt><trkpt lat="45.6616078" lon="11.6654421"><ele>57.0</ele><time>2026-04-26T12:29:13.035Z</time></trkpt><trkpt lat="45.6615837" lon="11.6655958"><ele>57.0</ele><time>2026-04-26T12:29:15.036Z</time></trkpt><trkpt lat="45.66156" lon="11.665756"><ele>57.0</ele><time>2026-04-26T12:29:17.036Z</time></trkpt><trkpt lat="45.6615335" lon="11.6659147"><ele>57.0</ele><time>2026-04-26T12:29:19.035Z</time></trkpt><trkpt lat="45.6615031" lon="11.6660622"><ele>57.0</ele><time>2026-04-26T12:29:21.036Z</time></trkpt><trkpt lat="45.6614782" lon="11.6662023"><ele>57.0</ele><time>2026-04-26T12:29:23.037Z</time></trkpt><trkpt lat="45.6614544" lon="11.6663611"><ele>57.0</ele><time>2026-04-26T12:29:25.037Z</time></trkpt><trkpt lat="45.6614254" lon="11.6665101"><ele>57.0</ele><time>2026-04-26T12:29:27.037Z</time></trkpt><trkpt lat="45.6613958" lon="11.6666709"><ele>57.0</ele><time>2026-04-26T12:29:29.037Z</time></trkpt><trkpt lat="45.6613666" lon="11.6668456"><ele>57.0</ele><time>2026-04-26T12:29:31.037Z</time></trkpt><trkpt lat="45.6613524" lon="11.6669349"><ele>57.0</ele><time>2026-04-26T12:29:32.037Z</time></trkpt><trkpt lat="45.6613284" lon="11.6671043"><ele>57.0</ele><time>2026-04-26T12:29:34.037Z</time></trkpt><trkpt lat="45.6613051" lon="11.6672661"><ele>57.0</ele><time>2026-04-26T12:29:36.037Z</time></trkpt><trkpt lat="45.6612806" lon="11.66742"><ele>57.0</ele><time>2026-04-26T12:29:38.037Z</time></trkpt><trkpt lat="45.661261" lon="11.6675705"><ele>57.0</ele><time>2026-04-26T12:29:40.037Z</time></trkpt><trkpt lat="45.6612389" lon="11.6677193"><ele>57.0</ele><time>2026-04-26T12:29:42.036Z</time></trkpt><trkpt lat="45.661217" lon="11.6678623"><ele>57.0</ele><time>2026-04-26T12:29:44.037Z</time></trkpt><trkpt lat="45.6611958" lon="11.6680065"><ele>57.0</ele><time>2026-04-26T12:29:46.037Z</time></trkpt><trkpt lat="45.6611832" lon="11.6681508"><ele>57.0</ele><time>2026-04-26T12:29:48.037Z</time></trkpt><trkpt lat="45.6611895" lon="11.6683051"><ele>57.0</ele><time>2026-04-26T12:29:50.037Z</time></trkpt><trkpt lat="45.6612144" lon="11.6684575"><ele>57.0</ele><time>2026-04-26T12:29:52.036Z</time></trkpt><trkpt lat="45.6612587" lon="11.668597"><ele>57.0</ele><time>2026-04-26T12:29:54.037Z</time></trkpt><trkpt lat="45.6613143" lon="11.6687276"><ele>57.0</ele><time>2026-04-26T12:29:56.037Z</time></trkpt><trkpt lat="45.6613831" lon="11.6688432"><ele>57.0</ele><time>2026-04-26T12:29:58.037Z</time></trkpt><trkpt lat="45.6614646" lon="11.66894"><ele>57.0</ele><time>2026-04-26T12:30:00.037Z</time></trkpt><trkpt lat="45.6615545" lon="11.6690201"><ele>57.0</ele><time>2026-04-26T12:30:02.037Z</time></trkpt><trkpt lat="45.6616522" lon="11.6690735"><ele>57.0</ele><time>2026-04-26T12:30:04.037Z</time></trkpt><trkpt lat="45.6617551" lon="11.6691219"><ele>57.0</ele><time>2026-04-26T12:30:06.037Z</time></trkpt><trkpt lat="45.6618548" lon="11.6691457"><ele>57.0</ele><time>2026-04-26T12:30:08.037Z</time></trkpt><trkpt lat="45.6619678" lon="11.6691598"><ele>57.0</ele><time>2026-04-26T12:30:10.037Z</time></trkpt><trkpt lat="45.6620794" lon="11.6691833"><ele>57.0</ele><time>2026-04-26T12:30:12.037Z</time></trkpt><trkpt lat="45.6621768" lon="11.6692076"><ele>57.0</ele><time>2026-04-26T12:30:14.036Z</time></trkpt><trkpt lat="45.6622738" lon="11.6692256"><ele>56.8</ele><time>2026-04-26T12:30:16.036Z</time></trkpt><trkpt lat="45.6623757" lon="11.6692475"><ele>56.6</ele><time>2026-04-26T12:30:18.036Z</time></trkpt><trkpt lat="45.6624822" lon="11.6692683"><ele>56.39999999999999</ele><time>2026-04-26T12:30:20.037Z</time></trkpt><trkpt lat="45.6625852" lon="11.6692905"><ele>56.199999999999996</ele><time>2026-04-26T12:30:22.037Z</time></trkpt><trkpt lat="45.6626878" lon="11.6693174"><ele>56.0</ele><time>2026-04-26T12:30:24.036Z</time></trkpt><trkpt lat="45.6627896" lon="11.6693426"><ele>56.4</ele><time>2026-04-26T12:30:26.037Z</time></trkpt><trkpt lat="45.66289" lon="11.6693634"><ele>56.8</ele><time>2026-04-26T12:30:28.037Z</time></trkpt><trkpt lat="45.6629876" lon="11.6693865"><ele>57.199999999999996</ele><time>2026-04-26T12:30:30.036Z</time></trkpt><trkpt lat="45.6630797" lon="11.66942"><ele>57.599999999999994</ele><time>2026-04-26T12:30:32.037Z</time></trkpt><trkpt lat="45.663172" lon="11.6694546"><ele>58.0</ele><time>2026-04-26T12:30:34.037Z</time></trkpt><trkpt lat="45.6632573" lon="11.669516"><ele>58.0</ele><time>2026-04-26T12:30:36.037Z</time></trkpt><trkpt lat="45.6633184" lon="11.6696253"><ele>58.0</ele><time>2026-04-26T12:30:38.038Z</time></trkpt><trkpt lat="45.663361" lon="11.6697618"><ele>58.0</ele><time>2026-04-26T12:30:40.038Z</time></trkpt><trkpt lat="45.6633768" lon="11.6699048"><ele>58.0</ele><time>2026-04-26T12:30:42.038Z</time></trkpt><trkpt lat="45.6633679" lon="11.6700488"><ele>58.0</ele><time>2026-04-26T12:30:44.037Z</time></trkpt><trkpt lat="45.66336" lon="11.6701959"><ele>57.599999999999994</ele><time>2026-04-26T12:30:46.038Z</time></trkpt><trkpt lat="45.6633535" lon="11.6703312"><ele>57.199999999999996</ele><time>2026-04-26T12:30:48.038Z</time></trkpt><trkpt lat="45.6633552" lon="11.6704742"><ele>56.8</ele><time>2026-04-26T12:30:50.038Z</time></trkpt><trkpt lat="45.6633684" lon="11.6706252"><ele>56.4</ele><time>2026-04-26T12:30:52.037Z</time></trkpt><trkpt lat="45.6633824" lon="11.6707678"><ele>56.0</ele><time>2026-04-26T12:30:54.038Z</time></trkpt><trkpt lat="45.6633946" lon="11.6709108"><ele>56.0</ele><time>2026-04-26T12:30:56.037Z</time></trkpt><trkpt lat="45.663409" lon="11.6710562"><ele>55.99999999999999</ele><time>2026-04-26T12:30:58.038Z</time></trkpt><trkpt lat="45.6634203" lon="11.6712054"><ele>55.99999999999999</ele><time>2026-04-26T12:31:00.037Z</time></trkpt><trkpt lat="45.663426" lon="11.6713547"><ele>56.0</ele><time>2026-04-26T12:31:02.038Z</time></trkpt><trkpt lat="45.6634351" lon="11.6714901"><ele>56.0</ele><time>2026-04-26T12:31:04.038Z</time></trkpt><trkpt lat="45.6634441" lon="11.6716187"><ele>56.00000000000001</ele><time>2026-04-26T12:31:06.037Z</time></trkpt><trkpt lat="45.6634543" lon="11.6717339"><ele>56.0</ele><time>2026-04-26T12:31:08.037Z</time></trkpt><trkpt lat="45.663462" lon="11.671862"><ele>56.0</ele><time>2026-04-26T12:31:10.038Z</time></trkpt><trkpt lat="45.663469" lon="11.6719729"><ele>56.0</ele><time>2026-04-26T12:31:13.035Z</time></trkpt><trkpt lat="45.6634793" lon="11.6720944"><ele>56.00000000000001</ele><time>2026-04-26T12:31:14.037Z</time></trkpt><trkpt lat="45.6634857" lon="11.6721954"><ele>56.0</ele><time>2026-04-26T12:31:15.037Z</time></trkpt><trkpt lat="45.6634967" lon="11.6723416"><ele>56.199999999999996</ele><time>2026-04-26T12:31:17.038Z</time></trkpt><trkpt lat="45.6634978" lon="11.6724675"><ele>56.39999999999999</ele><time>2026-04-26T12:31:19.038Z</time></trkpt><trkpt lat="45.6635087" lon="11.672618"><ele>56.6</ele><time>2026-04-26T12:31:21.038Z</time></trkpt><trkpt lat="45.6635268" lon="11.6727735"><ele>56.8</ele><time>2026-04-26T12:31:23.038Z</time></trkpt><trkpt lat="45.6635427" lon="11.672921"><ele>57.0</ele><time>2026-04-26T12:31:25.037Z</time></trkpt><trkpt lat="45.6635602" lon="11.6730628"><ele>57.2</ele><time>2026-04-26T12:31:27.038Z</time></trkpt><trkpt lat="45.6635803" lon="11.6732039"><ele>57.400000000000006</ele><time>2026-04-26T12:31:29.039Z</time></trkpt><trkpt lat="45.663603" lon="11.6733499"><ele>57.599999999999994</ele><time>2026-04-26T12:31:31.038Z</time></trkpt><trkpt lat="45.6636325" lon="11.6734945"><ele>57.8</ele><time>2026-04-26T12:31:33.038Z</time></trkpt><trkpt lat="45.6636663" lon="11.6736421"><ele>58.0</ele><time>2026-04-26T12:31:35.038Z</time></trkpt><trkpt lat="45.6637017" lon="11.6737812"><ele>58.0</ele><time>2026-04-26T12:31:37.037Z</time></trkpt><trkpt lat="45.6637399" lon="11.6739127"><ele>58.0</ele><time>2026-04-26T12:31:39.038Z</time></trkpt><trkpt lat="45.6637714" lon="11.6740563"><ele>58.0</ele><time>2026-04-26T12:31:41.039Z</time></trkpt><trkpt lat="45.6638031" lon="11.6741886"><ele>58.0</ele><time>2026-04-26T12:31:43.038Z</time></trkpt><trkpt lat="45.6638333" lon="11.6743243"><ele>58.0</ele><time>2026-04-26T12:31:45.039Z</time></trkpt><trkpt lat="45.6638642" lon="11.6744719"><ele>58.0</ele><time>2026-04-26T12:31:47.039Z</time></trkpt><trkpt lat="45.6638959" lon="11.6746217"><ele>58.0</ele><time>2026-04-26T12:31:49.039Z</time></trkpt><trkpt lat="45.6639283" lon="11.6747756"><ele>58.0</ele><time>2026-04-26T12:31:51.039Z</time></trkpt><trkpt lat="45.6639621" lon="11.6749288"><ele>58.0</ele><time>2026-04-26T12:31:53.039Z</time></trkpt><trkpt lat="45.6639979" lon="11.6750755"><ele>58.0</ele><time>2026-04-26T12:31:55.039Z</time></trkpt><trkpt lat="45.6640343" lon="11.675216"><ele>58.0</ele><time>2026-04-26T12:31:57.039Z</time></trkpt><trkpt lat="45.6640695" lon="11.6753702"><ele>58.0</ele><time>2026-04-26T12:31:59.039Z</time></trkpt><trkpt lat="45.6641049" lon="11.6755261"><ele>58.0</ele><time>2026-04-26T12:32:01.039Z</time></trkpt><trkpt lat="45.6641453" lon="11.6756819"><ele>58.0</ele><time>2026-04-26T12:32:03.039Z</time></trkpt><trkpt lat="45.6641865" lon="11.6758375"><ele>58.0</ele><time>2026-04-26T12:32:05.039Z</time></trkpt><trkpt lat="45.6642301" lon="11.6759948"><ele>58.0</ele><time>2026-04-26T12:32:07.039Z</time></trkpt><trkpt lat="45.6642679" lon="11.6761525"><ele>58.0</ele><time>2026-04-26T12:32:09.039Z</time></trkpt><trkpt lat="45.6643029" lon="11.6763151"><ele>58.0</ele><time>2026-04-26T12:32:11.038Z</time></trkpt><trkpt lat="45.6643421" lon="11.6764793"><ele>58.0</ele><time>2026-04-26T12:32:13.039Z</time></trkpt><trkpt lat="45.6643685" lon="11.6766362"><ele>58.0</ele><time>2026-04-26T12:32:15.039Z</time></trkpt><trkpt lat="45.6643901" lon="11.6767843"><ele>58.0</ele><time>2026-04-26T12:32:17.038Z</time></trkpt><trkpt lat="45.6644267" lon="11.6769271"><ele>58.0</ele><time>2026-04-26T12:32:19.038Z</time></trkpt><trkpt lat="45.6644605" lon="11.6770646"><ele>58.0</ele><time>2026-04-26T12:32:21.038Z</time></trkpt><trkpt lat="45.6644903" lon="11.6771981"><ele>58.0</ele><time>2026-04-26T12:32:23.039Z</time></trkpt><trkpt lat="45.6645167" lon="11.6773279"><ele>58.0</ele><time>2026-04-26T12:32:25.039Z</time></trkpt><trkpt lat="45.6645347" lon="11.677471"><ele>58.0</ele><time>2026-04-26T12:32:27.038Z</time></trkpt><trkpt lat="45.6645567" lon="11.677612"><ele>58.0</ele><time>2026-04-26T12:32:29.039Z</time></trkpt><trkpt lat="45.6645857" lon="11.6777496"><ele>58.0</ele><time>2026-04-26T12:32:31.039Z</time></trkpt><trkpt lat="45.6646092" lon="11.677892"><ele>57.8</ele><time>2026-04-26T12:32:33.039Z</time></trkpt><trkpt lat="45.6646344" lon="11.6780284"><ele>57.599999999999994</ele><time>2026-04-26T12:32:35.039Z</time></trkpt><trkpt lat="45.6646554" lon="11.6781682"><ele>57.400000000000006</ele><time>2026-04-26T12:32:37.039Z</time></trkpt><trkpt lat="45.6646781" lon="11.6783104"><ele>57.2</ele><time>2026-04-26T12:32:39.039Z</time></trkpt><trkpt lat="45.6647031" lon="11.6784521"><ele>57.0</ele><time>2026-04-26T12:32:41.039Z</time></trkpt><trkpt lat="45.6647287" lon="11.6785929"><ele>57.0</ele><time>2026-04-26T12:32:43.039Z</time></trkpt><trkpt lat="45.6647541" lon="11.6787359"><ele>57.0</ele><time>2026-04-26T12:32:45.039Z</time></trkpt><trkpt lat="45.6647774" lon="11.6788769"><ele>57.0</ele><time>2026-04-26T12:32:47.039Z</time></trkpt><trkpt lat="45.664801" lon="11.6790161"><ele>57.0</ele><time>2026-04-26T12:32:49.039Z</time></trkpt><trkpt lat="45.6648272" lon="11.6791578"><ele>57.0</ele><time>2026-04-26T12:32:51.039Z</time></trkpt><trkpt lat="45.6648538" lon="11.6793063"><ele>57.2</ele><time>2026-04-26T12:32:53.04Z</time></trkpt><trkpt lat="45.6648767" lon="11.6794548"><ele>57.400000000000006</ele><time>2026-04-26T12:32:55.039Z</time></trkpt><trkpt lat="45.6648967" lon="11.6795986"><ele>57.599999999999994</ele><time>2026-04-26T12:32:57.04Z</time></trkpt><trkpt lat="45.6649132" lon="11.6797631"><ele>57.8</ele><time>2026-04-26T12:32:59.04Z</time></trkpt><trkpt lat="45.6649145" lon="11.6799192"><ele>58.0</ele><time>2026-04-26T12:33:01.04Z</time></trkpt><trkpt lat="45.6649048" lon="11.68007"><ele>58.0</ele><time>2026-04-26T12:33:03.04Z</time></trkpt><trkpt lat="45.6648764" lon="11.6802157"><ele>58.0</ele><time>2026-04-26T12:33:05.04Z</time></trkpt><trkpt lat="45.6648454" lon="11.6803665"><ele>58.0</ele><time>2026-04-26T12:33:07.04Z</time></trkpt><trkpt lat="45.6648101" lon="11.6805197"><ele>58.0</ele><time>2026-04-26T12:33:09.04Z</time></trkpt><trkpt lat="45.6647759" lon="11.6806765"><ele>58.0</ele><time>2026-04-26T12:33:11.04Z</time></trkpt><trkpt lat="45.6647414" lon="11.6808319"><ele>58.0</ele><time>2026-04-26T12:33:13.039Z</time></trkpt><trkpt lat="45.6647113" lon="11.6809763"><ele>58.0</ele><time>2026-04-26T12:33:15.04Z</time></trkpt><trkpt lat="45.6646829" lon="11.6811102"><ele>58.0</ele><time>2026-04-26T12:33:17.04Z</time></trkpt><trkpt lat="45.6646523" lon="11.6812479"><ele>58.0</ele><time>2026-04-26T12:33:19.04Z</time></trkpt><trkpt lat="45.6646289" lon="11.6813777"><ele>58.0</ele><time>2026-04-26T12:33:21.04Z</time></trkpt><trkpt lat="45.6646223" lon="11.6815127"><ele>57.8</ele><time>2026-04-26T12:33:23.04Z</time></trkpt><trkpt lat="45.6646172" lon="11.6816564"><ele>57.599999999999994</ele><time>2026-04-26T12:33:25.04Z</time></trkpt><trkpt lat="45.6646185" lon="11.6818005"><ele>57.400000000000006</ele><time>2026-04-26T12:33:27.04Z</time></trkpt><trkpt lat="45.6646149" lon="11.6819496"><ele>57.2</ele><time>2026-04-26T12:33:29.039Z</time></trkpt><trkpt lat="45.6646103" lon="11.6821072"><ele>57.0</ele><time>2026-04-26T12:33:31.039Z</time></trkpt><trkpt lat="45.6646105" lon="11.6822644"><ele>56.833333333333336</ele><time>2026-04-26T12:33:33.04Z</time></trkpt><trkpt lat="45.6646118" lon="11.6823987"><ele>56.66666666666667</ele><time>2026-04-26T12:33:35.04Z</time></trkpt><trkpt lat="45.66461" lon="11.6825215"><ele>56.5</ele><time>2026-04-26T12:33:37.04Z</time></trkpt><trkpt lat="45.6646127" lon="11.682642"><ele>56.333333333333336</ele><time>2026-04-26T12:33:39.04Z</time></trkpt><trkpt lat="45.6645961" lon="11.6827633"><ele>56.16666666666667</ele><time>2026-04-26T12:33:42.04Z</time></trkpt><trkpt lat="45.6645417" lon="11.6828724"><ele>56.0</ele><time>2026-04-26T12:33:45.04Z</time></trkpt><trkpt lat="45.664553" lon="11.6829771"><ele>56.0</ele><time>2026-04-26T12:33:47.039Z</time></trkpt><trkpt lat="45.6646337" lon="11.6830362"><ele>55.99999999999999</ele><time>2026-04-26T12:33:49.04Z</time></trkpt><trkpt lat="45.6647546" lon="11.6830296"><ele>55.99999999999999</ele><time>2026-04-26T12:33:51.04Z</time></trkpt><trkpt lat="45.6648674" lon="11.6830366"><ele>56.0</ele><time>2026-04-26T12:33:53.04Z</time></trkpt><trkpt lat="45.6649704" lon="11.683041"><ele>56.0</ele><time>2026-04-26T12:33:55.039Z</time></trkpt><trkpt lat="45.6650729" lon="11.6830438"><ele>56.0</ele><time>2026-04-26T12:33:57.04Z</time></trkpt><trkpt lat="45.6651704" lon="11.683049"><ele>55.99999999999999</ele><time>2026-04-26T12:33:59.04Z</time></trkpt><trkpt lat="45.6652714" lon="11.6830524"><ele>55.99999999999999</ele><time>2026-04-26T12:34:01.041Z</time></trkpt><trkpt lat="45.6653688" lon="11.6830565"><ele>56.0</ele><time>2026-04-26T12:34:03.041Z</time></trkpt><trkpt lat="45.6654772" lon="11.6830581"><ele>56.0</ele><time>2026-04-26T12:34:05.041Z</time></trkpt><trkpt lat="45.665577" lon="11.6830625"><ele>56.199999999999996</ele><time>2026-04-26T12:34:07.041Z</time></trkpt><trkpt lat="45.6656769" lon="11.6830662"><ele>56.39999999999999</ele><time>2026-04-26T12:34:09.041Z</time></trkpt><trkpt lat="45.6657857" lon="11.6830678"><ele>56.6</ele><time>2026-04-26T12:34:11.041Z</time></trkpt><trkpt lat="45.665896" lon="11.6830768"><ele>56.8</ele><time>2026-04-26T12:34:13.04Z</time></trkpt><trkpt lat="45.6660019" lon="11.6830815"><ele>57.0</ele><time>2026-04-26T12:34:15.041Z</time></trkpt><trkpt lat="45.6661071" lon="11.6830822"><ele>57.2</ele><time>2026-04-26T12:34:17.041Z</time></trkpt><trkpt lat="45.6662139" lon="11.6830876"><ele>57.400000000000006</ele><time>2026-04-26T12:34:19.041Z</time></trkpt><trkpt lat="45.6663181" lon="11.683089"><ele>57.599999999999994</ele><time>2026-04-26T12:34:21.041Z</time></trkpt><trkpt lat="45.6664211" lon="11.6830998"><ele>57.8</ele><time>2026-04-26T12:34:23.041Z</time></trkpt><trkpt lat="45.6665234" lon="11.6831068"><ele>58.0</ele><time>2026-04-26T12:34:25.041Z</time></trkpt><trkpt lat="45.6666255" lon="11.6831124"><ele>58.0</ele><time>2026-04-26T12:34:27.041Z</time></trkpt><trkpt lat="45.6667233" lon="11.683119"><ele>58.0</ele><time>2026-04-26T12:34:29.04Z</time></trkpt><trkpt lat="45.6668203" lon="11.6831277"><ele>58.0</ele><time>2026-04-26T12:34:31.04Z</time></trkpt><trkpt lat="45.6669158" lon="11.6831286"><ele>58.0</ele><time>2026-04-26T12:34:33.04Z</time></trkpt><trkpt lat="45.6670045" lon="11.6831256"><ele>58.0</ele><time>2026-04-26T12:34:35.04Z</time></trkpt><trkpt lat="45.6670916" lon="11.683116"><ele>58.2</ele><time>2026-04-26T12:34:37.041Z</time></trkpt><trkpt lat="45.6671982" lon="11.6831347"><ele>58.4</ele><time>2026-04-26T12:34:39.041Z</time></trkpt><trkpt lat="45.6672985" lon="11.6831298"><ele>58.60000000000001</ele><time>2026-04-26T12:34:41.041Z</time></trkpt><trkpt lat="45.6673999" lon="11.6831345"><ele>58.800000000000004</ele><time>2026-04-26T12:34:43.041Z</time></trkpt><trkpt lat="45.6674918" lon="11.6831428"><ele>59.0</ele><time>2026-04-26T12:34:45.041Z</time></trkpt><trkpt lat="45.6675817" lon="11.6831485"><ele>59.0</ele><time>2026-04-26T12:34:47.041Z</time></trkpt><trkpt lat="45.6676773" lon="11.6831544"><ele>59.00000000000001</ele><time>2026-04-26T12:34:49.04Z</time></trkpt><trkpt lat="45.6677734" lon="11.6831592"><ele>59.00000000000001</ele><time>2026-04-26T12:34:51.041Z</time></trkpt><trkpt lat="45.6678714" lon="11.6831638"><ele>59.0</ele><time>2026-04-26T12:34:53.041Z</time></trkpt><trkpt lat="45.6679725" lon="11.6831701"><ele>59.0</ele><time>2026-04-26T12:34:55.041Z</time></trkpt><trkpt lat="45.6680743" lon="11.6831742"><ele>59.2</ele><time>2026-04-26T12:34:57.041Z</time></trkpt><trkpt lat="45.6681753" lon="11.6831815"><ele>59.400000000000006</ele><time>2026-04-26T12:34:59.041Z</time></trkpt><trkpt lat="45.6682752" lon="11.6831875"><ele>59.6</ele><time>2026-04-26T12:35:01.041Z</time></trkpt><trkpt lat="45.6683798" lon="11.6831914"><ele>59.8</ele><time>2026-04-26T12:35:03.041Z</time></trkpt><trkpt lat="45.6684882" lon="11.6831961"><ele>60.0</ele><time>2026-04-26T12:35:05.041Z</time></trkpt><trkpt lat="45.6685991" lon="11.6832003"><ele>59.6</ele><time>2026-04-26T12:35:07.041Z</time></trkpt><trkpt lat="45.6687105" lon="11.6832016"><ele>59.2</ele><time>2026-04-26T12:35:09.042Z</time></trkpt><trkpt lat="45.66882" lon="11.6832026"><ele>58.8</ele><time>2026-04-26T12:35:11.041Z</time></trkpt><trkpt lat="45.6689248" lon="11.6832049"><ele>58.4</ele><time>2026-04-26T12:35:13.042Z</time></trkpt><trkpt lat="45.6690334" lon="11.6832062"><ele>58.0</ele><time>2026-04-26T12:35:15.041Z</time></trkpt><trkpt lat="45.6691432" lon="11.6832077"><ele>58.0</ele><time>2026-04-26T12:35:17.042Z</time></trkpt><trkpt lat="45.6692482" lon="11.6832116"><ele>58.0</ele><time>2026-04-26T12:35:19.042Z</time></trkpt><trkpt lat="45.6693557" lon="11.6832131"><ele>58.0</ele><time>2026-04-26T12:35:21.042Z</time></trkpt><trkpt lat="45.6694594" lon="11.6832137"><ele>58.0</ele><time>2026-04-26T12:35:23.042Z</time></trkpt><trkpt lat="45.6695617" lon="11.6832146"><ele>58.0</ele><time>2026-04-26T12:35:25.042Z</time></trkpt><trkpt lat="45.6696636" lon="11.6832144"><ele>58.2</ele><time>2026-04-26T12:35:27.042Z</time></trkpt><trkpt lat="45.6697689" lon="11.6832216"><ele>58.4</ele><time>2026-04-26T12:35:29.042Z</time></trkpt><trkpt lat="45.6698733" lon="11.6832129"><ele>58.60000000000001</ele><time>2026-04-26T12:35:31.042Z</time></trkpt><trkpt lat="45.6699766" lon="11.6832033"><ele>58.800000000000004</ele><time>2026-04-26T12:35:33.041Z</time></trkpt><trkpt lat="45.6700746" lon="11.6831913"><ele>59.0</ele><time>2026-04-26T12:35:35.042Z</time></trkpt><trkpt lat="45.6701708" lon="11.6831764"><ele>59.0</ele><time>2026-04-26T12:35:37.042Z</time></trkpt><trkpt lat="45.6702677" lon="11.683163"><ele>59.00000000000001</ele><time>2026-04-26T12:35:39.042Z</time></trkpt><trkpt lat="45.67037" lon="11.6831448"><ele>59.00000000000001</ele><time>2026-04-26T12:35:41.042Z</time></trkpt><trkpt lat="45.6704666" lon="11.6831115"><ele>59.0</ele><time>2026-04-26T12:35:43.041Z</time></trkpt><trkpt lat="45.6705599" lon="11.683073"><ele>59.0</ele><time>2026-04-26T12:35:45.041Z</time></trkpt><trkpt lat="45.6706531" lon="11.6830475"><ele>59.400000000000006</ele><time>2026-04-26T12:35:47.042Z</time></trkpt><trkpt lat="45.6707482" lon="11.6830202"><ele>59.800000000000004</ele><time>2026-04-26T12:35:49.042Z</time></trkpt><trkpt lat="45.6708393" lon="11.6829842"><ele>60.199999999999996</ele><time>2026-04-26T12:35:51.041Z</time></trkpt><trkpt lat="45.6709358" lon="11.6829556"><ele>60.599999999999994</ele><time>2026-04-26T12:35:53.042Z</time></trkpt><trkpt lat="45.6710347" lon="11.6829269"><ele>61.0</ele><time>2026-04-26T12:35:55.042Z</time></trkpt><trkpt lat="45.6711328" lon="11.6829032"><ele>61.0</ele><time>2026-04-26T12:35:57.042Z</time></trkpt><trkpt lat="45.67123" lon="11.6828743"><ele>60.99999999999999</ele><time>2026-04-26T12:35:59.042Z</time></trkpt><trkpt lat="45.6713208" lon="11.6828416"><ele>60.99999999999999</ele><time>2026-04-26T12:36:01.042Z</time></trkpt><trkpt lat="45.6714098" lon="11.6828113"><ele>61.0</ele><time>2026-04-26T12:36:03.042Z</time></trkpt><trkpt lat="45.6714948" lon="11.6827823"><ele>61.0</ele><time>2026-04-26T12:36:05.042Z</time></trkpt><trkpt lat="45.6715831" lon="11.6827574"><ele>61.0</ele><time>2026-04-26T12:36:07.042Z</time></trkpt><trkpt lat="45.671667" lon="11.6827286"><ele>60.99999999999999</ele><time>2026-04-26T12:36:09.041Z</time></trkpt><trkpt lat="45.6717603" lon="11.6826912"><ele>60.99999999999999</ele><time>2026-04-26T12:36:11.041Z</time></trkpt><trkpt lat="45.6718584" lon="11.6826663"><ele>61.0</ele><time>2026-04-26T12:36:13.042Z</time></trkpt><trkpt lat="45.6719597" lon="11.6826543"><ele>61.0</ele><time>2026-04-26T12:36:15.041Z</time></trkpt><trkpt lat="45.6720512" lon="11.6826329"><ele>60.599999999999994</ele><time>2026-04-26T12:36:17.042Z</time></trkpt><trkpt lat="45.6721475" lon="11.6826135"><ele>60.199999999999996</ele><time>2026-04-26T12:36:19.043Z</time></trkpt><trkpt lat="45.6722477" lon="11.6825955"><ele>59.800000000000004</ele><time>2026-04-26T12:36:21.043Z</time></trkpt><trkpt lat="45.6723508" lon="11.6825752"><ele>59.400000000000006</ele><time>2026-04-26T12:36:23.043Z</time></trkpt><trkpt lat="45.6724551" lon="11.6825608"><ele>59.0</ele><time>2026-04-26T12:36:25.043Z</time></trkpt><trkpt lat="45.6725582" lon="11.6825426"><ele>59.0</ele><time>2026-04-26T12:36:27.043Z</time></trkpt><trkpt lat="45.6726661" lon="11.6825268"><ele>59.00000000000001</ele><time>2026-04-26T12:36:29.043Z</time></trkpt><trkpt lat="45.6727706" lon="11.6825132"><ele>59.00000000000001</ele><time>2026-04-26T12:36:31.043Z</time></trkpt><trkpt lat="45.672875" lon="11.6825028"><ele>59.0</ele><time>2026-04-26T12:36:33.043Z</time></trkpt><trkpt lat="45.6729816" lon="11.6824932"><ele>59.0</ele><time>2026-04-26T12:36:35.043Z</time></trkpt><trkpt lat="45.6730893" lon="11.6824783"><ele>59.2</ele><time>2026-04-26T12:36:37.042Z</time></trkpt><trkpt lat="45.6731991" lon="11.6824656"><ele>59.400000000000006</ele><time>2026-04-26T12:36:39.043Z</time></trkpt><trkpt lat="45.6733115" lon="11.6824533"><ele>59.6</ele><time>2026-04-26T12:36:41.043Z</time></trkpt><trkpt lat="45.6734199" lon="11.6824429"><ele>59.8</ele><time>2026-04-26T12:36:43.043Z</time></trkpt><trkpt lat="45.6735208" lon="11.6824337"><ele>60.0</ele><time>2026-04-26T12:36:45.043Z</time></trkpt><trkpt lat="45.6736255" lon="11.6824195"><ele>60.4</ele><time>2026-04-26T12:36:47.043Z</time></trkpt><trkpt lat="45.6737327" lon="11.6824088"><ele>60.8</ele><time>2026-04-26T12:36:49.043Z</time></trkpt><trkpt lat="45.6738383" lon="11.6823925"><ele>61.2</ele><time>2026-04-26T12:36:51.042Z</time></trkpt><trkpt lat="45.6739466" lon="11.6823802"><ele>61.6</ele><time>2026-04-26T12:36:53.042Z</time></trkpt><trkpt lat="45.674054" lon="11.6823709"><ele>62.0</ele><time>2026-04-26T12:36:55.043Z</time></trkpt><trkpt lat="45.6741545" lon="11.6823596"><ele>62.0</ele><time>2026-04-26T12:36:57.043Z</time></trkpt><trkpt lat="45.674255" lon="11.6823539"><ele>62.0</ele><time>2026-04-26T12:36:59.043Z</time></trkpt><trkpt lat="45.6743526" lon="11.682348"><ele>62.0</ele><time>2026-04-26T12:37:01.043Z</time></trkpt><trkpt lat="45.6744508" lon="11.6823448"><ele>62.0</ele><time>2026-04-26T12:37:03.043Z</time></trkpt><trkpt lat="45.6745539" lon="11.6823404"><ele>62.0</ele><time>2026-04-26T12:37:05.043Z</time></trkpt><trkpt lat="45.6746534" lon="11.6823373"><ele>62.2</ele><time>2026-04-26T12:37:07.043Z</time></trkpt><trkpt lat="45.6747499" lon="11.6823348"><ele>62.400000000000006</ele><time>2026-04-26T12:37:09.043Z</time></trkpt><trkpt lat="45.6748424" lon="11.6823281"><ele>62.599999999999994</ele><time>2026-04-26T12:37:11.043Z</time></trkpt><trkpt lat="45.6749446" lon="11.6823258"><ele>62.8</ele><time>2026-04-26T12:37:13.043Z</time></trkpt><trkpt lat="45.6750413" lon="11.6823238"><ele>63.0</ele><time>2026-04-26T12:37:15.043Z</time></trkpt><trkpt lat="45.675138" lon="11.6823216"><ele>63.0</ele><time>2026-04-26T12:37:17.043Z</time></trkpt><trkpt lat="45.6752329" lon="11.6823201"><ele>63.0</ele><time>2026-04-26T12:37:19.043Z</time></trkpt><trkpt lat="45.6753253" lon="11.6823174"><ele>63.0</ele><time>2026-04-26T12:37:21.043Z</time></trkpt><trkpt lat="45.6754245" lon="11.6823164"><ele>63.0</ele><time>2026-04-26T12:37:23.043Z</time></trkpt><trkpt lat="45.6755252" lon="11.6823103"><ele>63.0</ele><time>2026-04-26T12:37:25.043Z</time></trkpt><trkpt lat="45.6756194" lon="11.6823075"><ele>62.833333333333336</ele><time>2026-04-26T12:37:27.043Z</time></trkpt><trkpt lat="45.6757075" lon="11.6823085"><ele>62.66666666666667</ele><time>2026-04-26T12:37:29.044Z</time></trkpt><trkpt lat="45.6757391" lon="11.6824061"><ele>62.5</ele><time>2026-04-26T12:37:31.043Z</time></trkpt><trkpt lat="45.6757642" lon="11.6825114"><ele>62.333333333333336</ele><time>2026-04-26T12:37:33.043Z</time></trkpt><trkpt lat="45.6758397" lon="11.6825583"><ele>62.16666666666667</ele><time>2026-04-26T12:37:35.044Z</time></trkpt><trkpt lat="45.6758918" lon="11.6826528"><ele>62.0</ele><time>2026-04-26T12:37:37.044Z</time></trkpt><trkpt lat="45.6759532" lon="11.6827395"><ele>62.0</ele><time>2026-04-26T12:37:39.044Z</time></trkpt><trkpt lat="45.6760095" lon="11.6828433"><ele>62.0</ele><time>2026-04-26T12:37:41.043Z</time></trkpt><trkpt lat="45.6760174" lon="11.6829865"><ele>62.0</ele><time>2026-04-26T12:37:43.044Z</time></trkpt><trkpt lat="45.6760053" lon="11.6831339"><ele>62.0</ele><time>2026-04-26T12:37:45.044Z</time></trkpt><trkpt lat="45.6760165" lon="11.6832691"><ele>62.0</ele><time>2026-04-26T12:37:47.044Z</time></trkpt><trkpt lat="45.6760196" lon="11.6833997"><ele>62.0</ele><time>2026-04-26T12:37:49.043Z</time></trkpt><trkpt lat="45.676025" lon="11.6835377"><ele>62.0</ele><time>2026-04-26T12:37:51.043Z</time></trkpt><trkpt lat="45.6760404" lon="11.683675"><ele>62.0</ele><time>2026-04-26T12:37:53.044Z</time></trkpt><trkpt lat="45.6760522" lon="11.6838114"><ele>62.0</ele><time>2026-04-26T12:37:55.044Z</time></trkpt><trkpt lat="45.6760633" lon="11.6839478"><ele>62.0</ele><time>2026-04-26T12:37:57.043Z</time></trkpt><trkpt lat="45.6760752" lon="11.6840822"><ele>62.0</ele><time>2026-04-26T12:37:59.044Z</time></trkpt><trkpt lat="45.6760877" lon="11.6842135"><ele>62.0</ele><time>2026-04-26T12:38:01.043Z</time></trkpt><trkpt lat="45.6761044" lon="11.6843476"><ele>62.0</ele><time>2026-04-26T12:38:03.044Z</time></trkpt><trkpt lat="45.6761225" lon="11.6844847"><ele>62.0</ele><time>2026-04-26T12:38:05.044Z</time></trkpt><trkpt lat="45.6761446" lon="11.6846207"><ele>62.0</ele><time>2026-04-26T12:38:07.043Z</time></trkpt><trkpt lat="45.6761707" lon="11.6847563"><ele>62.16666666666667</ele><time>2026-04-26T12:38:09.044Z</time></trkpt><trkpt lat="45.6761932" lon="11.6848911"><ele>62.333333333333336</ele><time>2026-04-26T12:38:11.043Z</time></trkpt><trkpt lat="45.6762016" lon="11.6850092"><ele>62.5</ele><time>2026-04-26T12:38:13.044Z</time></trkpt><trkpt lat="45.6762007" lon="11.6851154"><ele>62.66666666666667</ele><time>2026-04-26T12:38:15.043Z</time></trkpt><trkpt lat="45.6761613" lon="11.6851933"><ele>62.833333333333336</ele><time>2026-04-26T12:38:17.044Z</time></trkpt><trkpt lat="45.6760864" lon="11.6852026"><ele>63.0</ele><time>2026-04-26T12:38:20.043Z</time></trkpt><trkpt lat="45.6760186" lon="11.6852241"><ele>62.714285714285715</ele><time>2026-04-26T12:38:27.044Z</time></trkpt><trkpt lat="45.6759449" lon="11.6852316"><ele>62.42857142857143</ele><time>2026-04-26T12:38:31.044Z</time></trkpt><trkpt lat="45.6758709" lon="11.6852574"><ele>62.14285714285714</ele><time>2026-04-26T12:38:34.044Z</time></trkpt><trkpt lat="45.6758068" lon="11.6852819"><ele>61.857142857142854</ele><time>2026-04-26T12:38:40.044Z</time></trkpt><trkpt lat="45.675736" lon="11.6853091"><ele>61.57142857142857</ele><time>2026-04-26T12:38:48.045Z</time></trkpt><trkpt lat="45.6756933" lon="11.6853895"><ele>61.28571428571428</ele><time>2026-04-26T12:38:59.045Z</time></trkpt><trkpt lat="45.6756218" lon="11.6853409"><ele>60.99999999999999</ele><time>2026-04-26T12:39:11.045Z</time></trkpt><trkpt lat="45.6755466" lon="11.6853237"><ele>60.99999999999999</ele><time>2026-04-26T12:39:18.045Z</time></trkpt><trkpt lat="45.6754709" lon="11.6852464"><ele>61.0</ele><time>2026-04-26T12:39:21.045Z</time></trkpt><trkpt lat="45.675418" lon="11.6851331"><ele>61.0</ele><time>2026-04-26T12:39:24.044Z</time></trkpt><trkpt lat="45.6753457" lon="11.6851291"><ele>61.0</ele><time>2026-04-26T12:39:26.044Z</time></trkpt><trkpt lat="45.675269" lon="11.6851386"><ele>60.99999999999999</ele><time>2026-04-26T12:39:28.045Z</time></trkpt><trkpt lat="45.6751906" lon="11.6851334"><ele>61.0</ele><time>2026-04-26T12:39:30.045Z</time></trkpt><trkpt lat="45.675119" lon="11.6851375"><ele>60.99999999999999</ele><time>2026-04-26T12:39:32.044Z</time></trkpt><trkpt lat="45.6750471" lon="11.6851368"><ele>61.0</ele><time>2026-04-26T12:39:34.045Z</time></trkpt><trkpt lat="45.6749808" lon="11.6851298"><ele>60.99999999999999</ele><time>2026-04-26T12:39:36.045Z</time></trkpt><trkpt lat="45.6749102" lon="11.6851449"><ele>60.99999999999999</ele><time>2026-04-26T12:39:38.045Z</time></trkpt><trkpt lat="45.6748318" lon="11.6851469"><ele>61.0</ele><time>2026-04-26T12:39:40.045Z</time></trkpt><trkpt lat="45.6747527" lon="11.6851492"><ele>60.99999999999999</ele><time>2026-04-26T12:39:42.045Z</time></trkpt><trkpt lat="45.6746778" lon="11.6851575"><ele>60.99999999999999</ele><time>2026-04-26T12:39:44.044Z</time></trkpt><trkpt lat="45.674614" lon="11.6851643"><ele>60.99999999999999</ele><time>2026-04-26T12:39:46.045Z</time></trkpt><trkpt lat="45.6745214" lon="11.6851617"><ele>61.0</ele><time>2026-04-26T12:39:49.045Z</time></trkpt><trkpt lat="45.6744548" lon="11.685161"><ele>60.99999999999999</ele><time>2026-04-26T12:39:51.045Z</time></trkpt><trkpt lat="45.6743809" lon="11.6851616"><ele>60.99999999999999</ele><time>2026-04-26T12:39:53.046Z</time></trkpt><trkpt lat="45.6743079" lon="11.685164"><ele>61.0</ele><time>2026-04-26T12:39:55.045Z</time></trkpt><trkpt lat="45.6742365" lon="11.6851651"><ele>60.99999999999999</ele><time>2026-04-26T12:39:57.046Z</time></trkpt><trkpt lat="45.674165" lon="11.6851699"><ele>60.99999999999999</ele><time>2026-04-26T12:39:59.046Z</time></trkpt><trkpt lat="45.6740921" lon="11.6851772"><ele>60.49999999999999</ele><time>2026-04-26T12:40:01.046Z</time></trkpt><trkpt lat="45.6740226" lon="11.6851746"><ele>60.0</ele><time>2026-04-26T12:40:03.046Z</time></trkpt><trkpt lat="45.6739481" lon="11.6851885"><ele>59.5</ele><time>2026-04-26T12:40:05.046Z</time></trkpt><trkpt lat="45.6738647" lon="11.6852298"><ele>59.0</ele><time>2026-04-26T12:40:07.046Z</time></trkpt><trkpt lat="45.6737833" lon="11.6852652"><ele>58.49999999999999</ele><time>2026-04-26T12:40:09.045Z</time></trkpt><trkpt lat="45.6737059" lon="11.6852946"><ele>58.0</ele><time>2026-04-26T12:40:11.045Z</time></trkpt><trkpt lat="45.6736336" lon="11.6853302"><ele>58.166666666666664</ele><time>2026-04-26T12:40:13.046Z</time></trkpt><trkpt lat="45.673565" lon="11.6853671"><ele>58.33333333333333</ele><time>2026-04-26T12:40:15.045Z</time></trkpt><trkpt lat="45.6734902" lon="11.6854008"><ele>58.5</ele><time>2026-04-26T12:40:17.046Z</time></trkpt><trkpt lat="45.6734169" lon="11.6854337"><ele>58.66666666666667</ele><time>2026-04-26T12:40:19.046Z</time></trkpt><trkpt lat="45.6733405" lon="11.6854648"><ele>58.833333333333336</ele><time>2026-04-26T12:40:21.046Z</time></trkpt><trkpt lat="45.6732638" lon="11.6855018"><ele>59.0</ele><time>2026-04-26T12:40:23.045Z</time></trkpt><trkpt lat="45.6731882" lon="11.6855425"><ele>59.0</ele><time>2026-04-26T12:40:25.045Z</time></trkpt><trkpt lat="45.6731154" lon="11.6855741"><ele>59.0</ele><time>2026-04-26T12:40:27.046Z</time></trkpt><trkpt lat="45.673044" lon="11.6855904"><ele>59.0</ele><time>2026-04-26T12:40:29.046Z</time></trkpt><trkpt lat="45.6729766" lon="11.6855971"><ele>59.0</ele><time>2026-04-26T12:40:31.046Z</time></trkpt><trkpt lat="45.6729108" lon="11.6856112"><ele>59.0</ele><time>2026-04-26T12:40:33.046Z</time></trkpt><trkpt lat="45.6728434" lon="11.6856065"><ele>59.0</ele><time>2026-04-26T12:40:35.046Z</time></trkpt><trkpt lat="45.6727708" lon="11.685592"><ele>59.0</ele><time>2026-04-26T12:40:37.046Z</time></trkpt><trkpt lat="45.6726983" lon="11.6855786"><ele>58.857142857142854</ele><time>2026-04-26T12:40:39.046Z</time></trkpt><trkpt lat="45.6726321" lon="11.6855569"><ele>58.71428571428572</ele><time>2026-04-26T12:40:41.046Z</time></trkpt><trkpt lat="45.6725639" lon="11.6855408"><ele>58.57142857142858</ele><time>2026-04-26T12:40:43.045Z</time></trkpt><trkpt lat="45.6724991" lon="11.6855317"><ele>58.42857142857143</ele><time>2026-04-26T12:40:45.046Z</time></trkpt><trkpt lat="45.6724077" lon="11.6855247"><ele>58.28571428571429</ele><time>2026-04-26T12:40:48.046Z</time></trkpt><trkpt lat="45.6723437" lon="11.6855184"><ele>58.14285714285715</ele><time>2026-04-26T12:40:50.046Z</time></trkpt><trkpt lat="45.6722764" lon="11.6855089"><ele>58.00000000000001</ele><time>2026-04-26T12:40:52.046Z</time></trkpt><trkpt lat="45.6722058" lon="11.6855049"><ele>57.99999999999999</ele><time>2026-04-26T12:40:54.046Z</time></trkpt><trkpt lat="45.672136" lon="11.6854894"><ele>58.0</ele><time>2026-04-26T12:40:56.046Z</time></trkpt><trkpt lat="45.672043" lon="11.6854768"><ele>58.0</ele><time>2026-04-26T12:40:59.046Z</time></trkpt><trkpt lat="45.6719747" lon="11.6854773"><ele>58.0</ele><time>2026-04-26T12:41:01.047Z</time></trkpt><trkpt lat="45.6718974" lon="11.6854843"><ele>57.99999999999999</ele><time>2026-04-26T12:41:03.047Z</time></trkpt><trkpt lat="45.6718187" lon="11.6854973"><ele>58.0</ele><time>2026-04-26T12:41:05.047Z</time></trkpt><trkpt lat="45.6717481" lon="11.685501"><ele>57.99999999999999</ele><time>2026-04-26T12:41:07.046Z</time></trkpt><trkpt lat="45.6716795" lon="11.6854963"><ele>58.0</ele><time>2026-04-26T12:41:09.046Z</time></trkpt><trkpt lat="45.6716033" lon="11.6855103"><ele>58.0</ele><time>2026-04-26T12:41:11.047Z</time></trkpt><trkpt lat="45.6715246" lon="11.685525"><ele>58.0</ele><time>2026-04-26T12:41:13.047Z</time></trkpt><trkpt lat="45.671447" lon="11.6855364"><ele>57.99999999999999</ele><time>2026-04-26T12:41:15.047Z</time></trkpt><trkpt lat="45.6713712" lon="11.6855442"><ele>58.0</ele><time>2026-04-26T12:41:17.047Z</time></trkpt><trkpt lat="45.6712915" lon="11.6855484"><ele>58.00000000000001</ele><time>2026-04-26T12:41:19.047Z</time></trkpt><trkpt lat="45.6712133" lon="11.6855578"><ele>58.0</ele><time>2026-04-26T12:41:21.046Z</time></trkpt><trkpt lat="45.6711445" lon="11.6855675"><ele>58.00000000000001</ele><time>2026-04-26T12:41:23.047Z</time></trkpt><trkpt lat="45.671074" lon="11.6855776"><ele>58.00000000000001</ele><time>2026-04-26T12:41:25.046Z</time></trkpt><trkpt lat="45.670998" lon="11.6855933"><ele>58.0</ele><time>2026-04-26T12:41:27.047Z</time></trkpt><trkpt lat="45.6709197" lon="11.6856123"><ele>58.00000000000001</ele><time>2026-04-26T12:41:29.046Z</time></trkpt><trkpt lat="45.6708462" lon="11.6856201"><ele>58.00000000000001</ele><time>2026-04-26T12:41:31.047Z</time></trkpt><trkpt lat="45.6707787" lon="11.6856233"><ele>58.00000000000001</ele><time>2026-04-26T12:41:33.047Z</time></trkpt><trkpt lat="45.6707087" lon="11.6856442"><ele>58.0</ele><time>2026-04-26T12:41:35.047Z</time></trkpt><trkpt lat="45.6706404" lon="11.6856829"><ele>58.00000000000001</ele><time>2026-04-26T12:41:37.047Z</time></trkpt><trkpt lat="45.6705723" lon="11.6857115"><ele>58.00000000000001</ele><time>2026-04-26T12:41:39.047Z</time></trkpt><trkpt lat="45.6705078" lon="11.6857284"><ele>58.0</ele><time>2026-04-26T12:41:41.047Z</time></trkpt><trkpt lat="45.6704457" lon="11.6857555"><ele>58.00000000000001</ele><time>2026-04-26T12:41:43.046Z</time></trkpt><trkpt lat="45.6703837" lon="11.6857939"><ele>58.00000000000001</ele><time>2026-04-26T12:41:45.047Z</time></trkpt><trkpt lat="45.6703093" lon="11.6858196"><ele>57.83333333333333</ele><time>2026-04-26T12:41:47.047Z</time></trkpt><trkpt lat="45.6702321" lon="11.6858304"><ele>57.666666666666664</ele><time>2026-04-26T12:41:49.047Z</time></trkpt><trkpt lat="45.670142" lon="11.6858654"><ele>57.5</ele><time>2026-04-26T12:41:52.047Z</time></trkpt><trkpt lat="45.6700714" lon="11.6858948"><ele>57.33333333333333</ele><time>2026-04-26T12:41:54.047Z</time></trkpt><trkpt lat="45.6699887" lon="11.6859249"><ele>57.166666666666664</ele><time>2026-04-26T12:41:56.047Z</time></trkpt><trkpt lat="45.6699066" lon="11.6859623"><ele>57.0</ele><time>2026-04-26T12:41:58.046Z</time></trkpt><trkpt lat="45.6698176" lon="11.6859988"><ele>57.0</ele><time>2026-04-26T12:42:00.047Z</time></trkpt><trkpt lat="45.6697192" lon="11.6860309"><ele>57.0</ele><time>2026-04-26T12:42:02.047Z</time></trkpt><trkpt lat="45.669611" lon="11.6860603"><ele>57.0</ele><time>2026-04-26T12:42:04.046Z</time></trkpt><trkpt lat="45.6695066" lon="11.6860974"><ele>57.0</ele><time>2026-04-26T12:42:06.047Z</time></trkpt><trkpt lat="45.6694015" lon="11.6861256"><ele>57.0</ele><time>2026-04-26T12:42:08.047Z</time></trkpt><trkpt lat="45.6692933" lon="11.6861614"><ele>57.0</ele><time>2026-04-26T12:42:10.047Z</time></trkpt><trkpt lat="45.6691839" lon="11.6862037"><ele>57.0</ele><time>2026-04-26T12:42:12.047Z</time></trkpt><trkpt lat="45.6690721" lon="11.686247"><ele>57.0</ele><time>2026-04-26T12:42:14.048Z</time></trkpt><trkpt lat="45.6689598" lon="11.6862858"><ele>57.0</ele><time>2026-04-26T12:42:16.048Z</time></trkpt><trkpt lat="45.668839" lon="11.6863224"><ele>57.0</ele><time>2026-04-26T12:42:18.048Z</time></trkpt><trkpt lat="45.6687257" lon="11.6863681"><ele>57.0</ele><time>2026-04-26T12:42:20.048Z</time></trkpt><trkpt lat="45.6686205" lon="11.6864058"><ele>57.0</ele><time>2026-04-26T12:42:22.048Z</time></trkpt><trkpt lat="45.6685224" lon="11.6864466"><ele>57.0</ele><time>2026-04-26T12:42:24.048Z</time></trkpt><trkpt lat="45.6684298" lon="11.6864742"><ele>57.0</ele><time>2026-04-26T12:42:26.048Z</time></trkpt><trkpt lat="45.6683313" lon="11.6865218"><ele>57.6</ele><time>2026-04-26T12:42:28.048Z</time></trkpt><trkpt lat="45.6682254" lon="11.6865681"><ele>58.2</ele><time>2026-04-26T12:42:30.048Z</time></trkpt><trkpt lat="45.6681166" lon="11.6866086"><ele>58.8</ele><time>2026-04-26T12:42:32.047Z</time></trkpt><trkpt lat="45.6680126" lon="11.6866323"><ele>59.4</ele><time>2026-04-26T12:42:34.048Z</time></trkpt><trkpt lat="45.667916" lon="11.6866608"><ele>60.0</ele><time>2026-04-26T12:42:36.048Z</time></trkpt><trkpt lat="45.6678243" lon="11.6866938"><ele>59.0</ele><time>2026-04-26T12:42:38.048Z</time></trkpt><trkpt lat="45.6677466" lon="11.6867142"><ele>58.0</ele><time>2026-04-26T12:42:40.048Z</time></trkpt><trkpt lat="45.6676635" lon="11.6867486"><ele>57.0</ele><time>2026-04-26T12:42:42.048Z</time></trkpt><trkpt lat="45.6675738" lon="11.6867885"><ele>56.0</ele><time>2026-04-26T12:42:44.048Z</time></trkpt><trkpt lat="45.6674778" lon="11.6868228"><ele>55.0</ele><time>2026-04-26T12:42:46.048Z</time></trkpt><trkpt lat="45.6673778" lon="11.6868595"><ele>55.0</ele><time>2026-04-26T12:42:48.048Z</time></trkpt><trkpt lat="45.6672772" lon="11.6868939"><ele>55.0</ele><time>2026-04-26T12:42:50.048Z</time></trkpt><trkpt lat="45.6671757" lon="11.6869312"><ele>55.0</ele><time>2026-04-26T12:42:52.048Z</time></trkpt><trkpt lat="45.6670741" lon="11.6869713"><ele>55.0</ele><time>2026-04-26T12:42:54.048Z</time></trkpt><trkpt lat="45.66697" lon="11.6870145"><ele>55.0</ele><time>2026-04-26T12:42:56.048Z</time></trkpt><trkpt lat="45.666872" lon="11.6870433"><ele>55.6</ele><time>2026-04-26T12:42:58.048Z</time></trkpt><trkpt lat="45.66678" lon="11.687071"><ele>56.2</ele><time>2026-04-26T12:43:00.048Z</time></trkpt><trkpt lat="45.666683" lon="11.6871061"><ele>56.8</ele><time>2026-04-26T12:43:02.047Z</time></trkpt><trkpt lat="45.6665846" lon="11.6871518"><ele>57.4</ele><time>2026-04-26T12:43:04.048Z</time></trkpt><trkpt lat="45.6664834" lon="11.6871831"><ele>58.0</ele><time>2026-04-26T12:43:06.048Z</time></trkpt><trkpt lat="45.6663791" lon="11.6872166"><ele>58.0</ele><time>2026-04-26T12:43:08.048Z</time></trkpt><trkpt lat="45.666275" lon="11.6872556"><ele>58.0</ele><time>2026-04-26T12:43:10.048Z</time></trkpt><trkpt lat="45.6661719" lon="11.6872914"><ele>58.0</ele><time>2026-04-26T12:43:12.048Z</time></trkpt><trkpt lat="45.6660742" lon="11.6873288"><ele>58.0</ele><time>2026-04-26T12:43:14.047Z</time></trkpt><trkpt lat="45.6659858" lon="11.6873636"><ele>58.0</ele><time>2026-04-26T12:43:16.048Z</time></trkpt><trkpt lat="45.6659108" lon="11.6873898"><ele>57.8</ele><time>2026-04-26T12:43:18.048Z</time></trkpt><trkpt lat="45.6658339" lon="11.6874167"><ele>57.599999999999994</ele><time>2026-04-26T12:43:20.047Z</time></trkpt><trkpt lat="45.6657485" lon="11.6874443"><ele>57.400000000000006</ele><time>2026-04-26T12:43:22.048Z</time></trkpt><trkpt lat="45.6656506" lon="11.6874794"><ele>57.2</ele><time>2026-04-26T12:43:24.049Z</time></trkpt><trkpt lat="45.6655558" lon="11.6875195"><ele>57.0</ele><time>2026-04-26T12:43:26.048Z</time></trkpt><trkpt lat="45.6654637" lon="11.6875525"><ele>57.0</ele><time>2026-04-26T12:43:28.049Z</time></trkpt><trkpt lat="45.665375" lon="11.6875933"><ele>57.0</ele><time>2026-04-26T12:43:30.049Z</time></trkpt><trkpt lat="45.6652888" lon="11.6876336"><ele>57.0</ele><time>2026-04-26T12:43:32.049Z</time></trkpt><trkpt lat="45.6652032" lon="11.6876802"><ele>57.0</ele><time>2026-04-26T12:43:34.049Z</time></trkpt><trkpt lat="45.6651401" lon="11.6877247"><ele>57.0</ele><time>2026-04-26T12:43:36.048Z</time></trkpt><trkpt lat="45.6650657" lon="11.6877828"><ele>57.0</ele><time>2026-04-26T12:43:38.049Z</time></trkpt><trkpt lat="45.6649937" lon="11.6878592"><ele>57.166666666666664</ele><time>2026-04-26T12:43:40.048Z</time></trkpt><trkpt lat="45.6649315" lon="11.6879389"><ele>57.33333333333333</ele><time>2026-04-26T12:43:42.049Z</time></trkpt><trkpt lat="45.6648613" lon="11.6880428"><ele>57.5</ele><time>2026-04-26T12:43:44.049Z</time></trkpt><trkpt lat="45.6647998" lon="11.688148"><ele>57.666666666666664</ele><time>2026-04-26T12:43:46.049Z</time></trkpt><trkpt lat="45.6647477" lon="11.6882399"><ele>57.83333333333333</ele><time>2026-04-26T12:43:48.049Z</time></trkpt><trkpt lat="45.6646947" lon="11.6883247"><ele>58.0</ele><time>2026-04-26T12:43:50.049Z</time></trkpt><trkpt lat="45.6646409" lon="11.6884109"><ele>57.99999999999999</ele><time>2026-04-26T12:43:52.049Z</time></trkpt><trkpt lat="45.664592" lon="11.6885056"><ele>58.0</ele><time>2026-04-26T12:43:54.049Z</time></trkpt><trkpt lat="45.6645407" lon="11.6886256"><ele>58.0</ele><time>2026-04-26T12:43:56.049Z</time></trkpt><trkpt lat="45.664503" lon="11.6887265"><ele>58.0</ele><time>2026-04-26T12:43:58.049Z</time></trkpt><trkpt lat="45.6644696" lon="11.6888267"><ele>57.99999999999999</ele><time>2026-04-26T12:44:00.049Z</time></trkpt><trkpt lat="45.6644289" lon="11.688954"><ele>58.0</ele><time>2026-04-26T12:44:02.049Z</time></trkpt><trkpt lat="45.664401" lon="11.6890514"><ele>57.57142857142858</ele><time>2026-04-26T12:44:04.049Z</time></trkpt><trkpt lat="45.6643759" lon="11.6891422"><ele>57.142857142857146</ele><time>2026-04-26T12:44:06.049Z</time></trkpt><trkpt lat="45.6643575" lon="11.6892504"><ele>56.714285714285715</ele><time>2026-04-26T12:44:08.049Z</time></trkpt><trkpt lat="45.6643565" lon="11.6893412"><ele>56.28571428571429</ele><time>2026-04-26T12:44:11.048Z</time></trkpt><trkpt lat="45.6643813" lon="11.6894261"><ele>55.85714285714286</ele><time>2026-04-26T12:44:15.049Z</time></trkpt><trkpt lat="45.6644029" lon="11.6895219"><ele>55.42857142857142</ele><time>2026-04-26T12:44:19.049Z</time></trkpt><trkpt lat="45.6644543" lon="11.6895776"><ele>55.0</ele><time>2026-04-26T12:44:41.049Z</time></trkpt><trkpt lat="45.6645218" lon="11.6896085"><ele>54.83333333333333</ele><time>2026-04-26T12:44:43.049Z</time></trkpt><trkpt lat="45.6645925" lon="11.6896138"><ele>54.666666666666664</ele><time>2026-04-26T12:44:45.05Z</time></trkpt><trkpt lat="45.6646539" lon="11.6896445"><ele>54.5</ele><time>2026-04-26T12:44:48.05Z</time></trkpt><trkpt lat="45.6647245" lon="11.6896156"><ele>54.33333333333333</ele><time>2026-04-26T12:44:50.05Z</time></trkpt><trkpt lat="45.6648005" lon="11.6896133"><ele>54.166666666666664</ele><time>2026-04-26T12:44:52.05Z</time></trkpt><trkpt lat="45.6648928" lon="11.689606"><ele>54.0</ele><time>2026-04-26T12:44:55.05Z</time></trkpt><trkpt lat="45.6649747" lon="11.6895979"><ele>54.0</ele><time>2026-04-26T12:44:58.05Z</time></trkpt><trkpt lat="45.6650434" lon="11.6895993"><ele>54.0</ele><time>2026-04-26T12:45:00.049Z</time></trkpt><trkpt lat="45.6651162" lon="11.6895959"><ele>54.0</ele><time>2026-04-26T12:45:02.049Z</time></trkpt><trkpt lat="45.6651861" lon="11.6895867"><ele>54.0</ele><time>2026-04-26T12:45:04.05Z</time></trkpt><trkpt lat="45.6652574" lon="11.6895768"><ele>54.0</ele><time>2026-04-26T12:45:06.05Z</time></trkpt><trkpt lat="45.6653231" lon="11.6895857"><ele>54.0</ele><time>2026-04-26T12:45:08.05Z</time></trkpt><trkpt lat="45.6654125" lon="11.6895944"><ele>54.0</ele><time>2026-04-26T12:45:11.05Z</time></trkpt><trkpt lat="45.665481" lon="11.6895931"><ele>54.333333333333336</ele><time>2026-04-26T12:45:13.05Z</time></trkpt><trkpt lat="45.6655504" lon="11.6895898"><ele>54.66666666666667</ele><time>2026-04-26T12:45:15.049Z</time></trkpt><trkpt lat="45.6656348" lon="11.6895757"><ele>55.0</ele><time>2026-04-26T12:45:18.05Z</time></trkpt><trkpt lat="45.6657218" lon="11.6895603"><ele>55.333333333333336</ele><time>2026-04-26T12:45:21.05Z</time></trkpt><trkpt lat="45.6658038" lon="11.6895495"><ele>55.66666666666667</ele><time>2026-04-26T12:45:24.05Z</time></trkpt><trkpt lat="45.6658648" lon="11.689575"><ele>56.0</ele><time>2026-04-26T12:45:27.05Z</time></trkpt><trkpt lat="45.6659189" lon="11.6896506"><ele>56.0</ele><time>2026-04-26T12:45:31.05Z</time></trkpt><trkpt lat="45.6659847" lon="11.6897056"><ele>56.0</ele><time>2026-04-26T12:45:39.049Z</time></trkpt><trkpt lat="45.6659196" lon="11.6896459"><ele>56.0</ele><time>2026-04-26T12:46:12.051Z</time></trkpt><trkpt lat="45.6658661" lon="11.6895982"><ele>56.0</ele><time>2026-04-26T12:46:14.051Z</time></trkpt><trkpt lat="45.66581" lon="11.6895505"><ele>56.0</ele><time>2026-04-26T12:46:16.051Z</time></trkpt><trkpt lat="45.6657465" lon="11.6895146"><ele>56.0</ele><time>2026-04-26T12:46:18.051Z</time></trkpt><trkpt lat="45.6656716" lon="11.6895371"><ele>56.0</ele><time>2026-04-26T12:46:21.05Z</time></trkpt><trkpt lat="45.6656068" lon="11.68955"><ele>56.00000000000001</ele><time>2026-04-26T12:46:23.051Z</time></trkpt><trkpt lat="45.6655283" lon="11.6895801"><ele>56.0</ele><time>2026-04-26T12:46:26.051Z</time></trkpt><trkpt lat="45.6654466" lon="11.6895826"><ele>56.0</ele><time>2026-04-26T12:46:29.051Z</time></trkpt><trkpt lat="45.6653634" lon="11.689594"><ele>56.0</ele><time>2026-04-26T12:46:32.051Z</time></trkpt><trkpt lat="45.6652965" lon="11.6895893"><ele>56.00000000000001</ele><time>2026-04-26T12:46:34.051Z</time></trkpt><trkpt lat="45.665229" lon="11.6895797"><ele>56.0</ele><time>2026-04-26T12:46:36.051Z</time></trkpt><trkpt lat="45.6651581" lon="11.6895735"><ele>55.66666666666667</ele><time>2026-04-26T12:46:38.051Z</time></trkpt><trkpt lat="45.6650913" lon="11.6895855"><ele>55.333333333333336</ele><time>2026-04-26T12:46:40.051Z</time></trkpt><trkpt lat="45.6650366" lon="11.6896411"><ele>55.0</ele><time>2026-04-26T12:46:42.05Z</time></trkpt><trkpt lat="45.6649778" lon="11.6896983"><ele>54.66666666666667</ele><time>2026-04-26T12:46:44.051Z</time></trkpt><trkpt lat="45.6648987" lon="11.6897688"><ele>54.333333333333336</ele><time>2026-04-26T12:46:47.051Z</time></trkpt><trkpt lat="45.6648426" lon="11.6898768"><ele>54.0</ele><time>2026-04-26T12:46:50.051Z</time></trkpt><trkpt lat="45.6648301" lon="11.6899764"><ele>54.0</ele><time>2026-04-26T12:46:53.05Z</time></trkpt><trkpt lat="45.6648452" lon="11.6901129"><ele>54.0</ele><time>2026-04-26T12:46:56.052Z</time></trkpt><trkpt lat="45.6648714" lon="11.6902244"><ele>54.0</ele><time>2026-04-26T12:46:58.052Z</time></trkpt><trkpt lat="45.6648834" lon="11.6903368"><ele>54.0</ele><time>2026-04-26T12:47:00.052Z</time></trkpt><trkpt lat="45.6648908" lon="11.6904319"><ele>54.0</ele><time>2026-04-26T12:47:02.052Z</time></trkpt><trkpt lat="45.6648979" lon="11.6905422"><ele>54.0</ele><time>2026-04-26T12:47:05.051Z</time></trkpt><trkpt lat="45.6648775" lon="11.6906601"><ele>54.0</ele><time>2026-04-26T12:47:08.052Z</time></trkpt><trkpt lat="45.6648701" lon="11.6907528"><ele>54.0</ele><time>2026-04-26T12:47:10.052Z</time></trkpt><trkpt lat="45.6648656" lon="11.6908597"><ele>54.0</ele><time>2026-04-26T12:47:13.052Z</time></trkpt><trkpt lat="45.664861" lon="11.6909738"><ele>54.0</ele><time>2026-04-26T12:47:16.052Z</time></trkpt><trkpt lat="45.6648158" lon="11.691038"><ele>54.0</ele><time>2026-04-26T12:47:20.051Z</time></trkpt><trkpt lat="45.6647451" lon="11.6911132"><ele>54.0</ele><time>2026-04-26T12:47:23.052Z</time></trkpt><trkpt lat="45.6646786" lon="11.6911974"><ele>53.666666666666664</ele><time>2026-04-26T12:47:26.052Z</time></trkpt><trkpt lat="45.6646501" lon="11.6912813"><ele>53.33333333333333</ele><time>2026-04-26T12:47:29.052Z</time></trkpt><trkpt lat="45.6646099" lon="11.6913842"><ele>53.0</ele><time>2026-04-26T12:47:32.052Z</time></trkpt><trkpt lat="45.6645496" lon="11.6914152"><ele>52.666666666666664</ele><time>2026-04-26T12:47:35.052Z</time></trkpt><trkpt lat="45.6645097" lon="11.6915311"><ele>52.33333333333333</ele><time>2026-04-26T12:47:40.051Z</time></trkpt><trkpt lat="45.6644864" lon="11.6916482"><ele>52.0</ele><time>2026-04-26T12:47:43.052Z</time></trkpt><trkpt lat="45.6644681" lon="11.6917501"><ele>52.33333333333333</ele><time>2026-04-26T12:47:46.052Z</time></trkpt><trkpt lat="45.664436" lon="11.6918705"><ele>52.666666666666664</ele><time>2026-04-26T12:47:49.052Z</time></trkpt><trkpt lat="45.664377" lon="11.6919489"><ele>53.0</ele><time>2026-04-26T12:47:52.052Z</time></trkpt><trkpt lat="45.6643167" lon="11.6920203"><ele>53.33333333333333</ele><time>2026-04-26T12:47:56.052Z</time></trkpt><trkpt lat="45.664277" lon="11.6920992"><ele>53.666666666666664</ele><time>2026-04-26T12:47:59.052Z</time></trkpt><trkpt lat="45.6642322" lon="11.6921788"><ele>54.0</ele><time>2026-04-26T12:48:04.053Z</time></trkpt><trkpt lat="45.6642849" lon="11.6920831"><ele>54.0</ele><time>2026-04-26T12:48:28.053Z</time></trkpt><trkpt lat="45.6643265" lon="11.6920086"><ele>54.0</ele><time>2026-04-26T12:48:32.053Z</time></trkpt><trkpt lat="45.6643693" lon="11.6921215"><ele>54.0</ele><time>2026-04-26T12:48:41.052Z</time></trkpt><trkpt lat="45.6643815" lon="11.6922201"><ele>54.0</ele><time>2026-04-26T12:48:45.053Z</time></trkpt><trkpt lat="45.6643927" lon="11.6923306"><ele>54.0</ele><time>2026-04-26T12:49:19.086Z</time></trkpt><trkpt lat="45.6644061" lon="11.6924231"><ele>54.0</ele><time>2026-04-26T12:49:25.128Z</time></trkpt><trkpt lat="45.6644553" lon="11.6924942"><ele>54.0</ele><time>2026-04-26T12:49:32.054Z</time></trkpt><trkpt lat="45.6644162" lon="11.692419"><ele>54.0</ele><time>2026-04-26T12:51:48.056Z</time></trkpt><trkpt lat="45.6643805" lon="11.69234"><ele>54.0</ele><time>2026-04-26T12:51:56.055Z</time></trkpt><trkpt lat="45.6643677" lon="11.6922455"><ele>54.0</ele><time>2026-04-26T12:52:03.056Z</time></trkpt><trkpt lat="45.6643554" lon="11.6921504"><ele>54.0</ele><time>2026-04-26T12:52:09.056Z</time></trkpt><trkpt lat="45.6643455" lon="11.6920608"><ele>54.0</ele><time>2026-04-26T12:52:17.056Z</time></trkpt><trkpt lat="45.6642777" lon="11.6920805"><ele>54.0</ele><time>2026-04-26T12:52:36.055Z</time></trkpt><trkpt lat="45.6642421" lon="11.6921671"><ele>54.0</ele><time>2026-04-26T12:52:41.057Z</time></trkpt><trkpt lat="45.664195" lon="11.692255"><ele>54.0</ele><time>2026-04-26T12:52:45.057Z</time></trkpt><trkpt lat="45.6641519" lon="11.6923358"><ele>54.0</ele><time>2026-04-26T12:52:49.057Z</time></trkpt><trkpt lat="45.6641266" lon="11.6924288"><ele>54.0</ele><time>2026-04-26T12:52:54.057Z</time></trkpt><trkpt lat="45.6640995" lon="11.6925381"><ele>54.0</ele><time>2026-04-26T12:52:58.057Z</time></trkpt><trkpt lat="45.6640842" lon="11.6926288"><ele>54.0</ele><time>2026-04-26T12:53:00.057Z</time></trkpt><trkpt lat="45.6640716" lon="11.6927608"><ele>54.0</ele><time>2026-04-26T12:53:03.057Z</time></trkpt><trkpt lat="45.664056" lon="11.6928681"><ele>53.857142857142854</ele><time>2026-04-26T12:53:05.057Z</time></trkpt><trkpt lat="45.6640481" lon="11.6929844"><ele>53.71428571428571</ele><time>2026-04-26T12:53:07.057Z</time></trkpt><trkpt lat="45.6640349" lon="11.6930748"><ele>53.57142857142857</ele><time>2026-04-26T12:53:09.056Z</time></trkpt><trkpt lat="45.6640232" lon="11.6931647"><ele>53.42857142857143</ele><time>2026-04-26T12:53:11.057Z</time></trkpt><trkpt lat="45.6640096" lon="11.6932548"><ele>53.285714285714285</ele><time>2026-04-26T12:53:13.056Z</time></trkpt><trkpt lat="45.6639856" lon="11.6933395"><ele>53.142857142857146</ele><time>2026-04-26T12:53:15.057Z</time></trkpt><trkpt lat="45.6639559" lon="11.6934208"><ele>53.0</ele><time>2026-04-26T12:53:17.057Z</time></trkpt><trkpt lat="45.6639198" lon="11.6935088"><ele>53.142857142857146</ele><time>2026-04-26T12:53:19.057Z</time></trkpt><trkpt lat="45.6638861" lon="11.693608"><ele>53.285714285714285</ele><time>2026-04-26T12:53:22.057Z</time></trkpt><trkpt lat="45.6638458" lon="11.6936907"><ele>53.42857142857143</ele><time>2026-04-26T12:53:26.057Z</time></trkpt><trkpt lat="45.6637982" lon="11.6937613"><ele>53.57142857142857</ele><time>2026-04-26T12:53:33.057Z</time></trkpt><trkpt lat="45.6637634" lon="11.6938389"><ele>53.71428571428571</ele><time>2026-04-26T12:53:38.057Z</time></trkpt><trkpt lat="45.663784" lon="11.6939354"><ele>53.857142857142854</ele><time>2026-04-26T12:53:47.057Z</time></trkpt><trkpt lat="45.6638503" lon="11.6939729"><ele>54.0</ele><time>2026-04-26T12:53:53.058Z</time></trkpt><trkpt lat="45.6637827" lon="11.6939494"><ele>54.0</ele><time>2026-04-26T12:54:08.058Z</time></trkpt><trkpt lat="45.6637329" lon="11.6940231"><ele>54.0</ele><time>2026-04-26T12:54:16.058Z</time></trkpt><trkpt lat="45.663718" lon="11.6941204"><ele>54.0</ele><time>2026-04-26T12:54:20.059Z</time></trkpt><trkpt lat="45.6637385" lon="11.6942061"><ele>54.0</ele><time>2026-04-26T12:54:28.058Z</time></trkpt><trkpt lat="45.6637246" lon="11.6941124"><ele>54.0</ele><time>2026-04-26T12:54:53.059Z</time></trkpt><trkpt lat="45.6636491" lon="11.6941622"><ele>54.0</ele><time>2026-04-26T12:55:03.058Z</time></trkpt><trkpt lat="45.6636155" lon="11.6942432"><ele>54.0</ele><time>2026-04-26T12:55:09.058Z</time></trkpt><trkpt lat="45.6636247" lon="11.6943529"><ele>54.0</ele><time>2026-04-26T12:55:14.059Z</time></trkpt><trkpt lat="45.663668" lon="11.6944251"><ele>54.0</ele><time>2026-04-26T12:55:16.058Z</time></trkpt><trkpt lat="45.6636759" lon="11.6945146"><ele>54.0</ele><time>2026-04-26T12:55:19.059Z</time></trkpt><trkpt lat="45.6636769" lon="11.6946133"><ele>54.0</ele><time>2026-04-26T12:55:23.059Z</time></trkpt><trkpt lat="45.6636363" lon="11.6946832"><ele>54.0</ele><time>2026-04-26T12:55:27.059Z</time></trkpt><trkpt lat="45.6636112" lon="11.6947735"><ele>54.0</ele><time>2026-04-26T12:55:30.059Z</time></trkpt><trkpt lat="45.6636144" lon="11.6948766"><ele>54.0</ele><time>2026-04-26T12:55:34.059Z</time></trkpt><trkpt lat="45.6635867" lon="11.6949827"><ele>53.714285714285715</ele><time>2026-04-26T12:55:38.059Z</time></trkpt><trkpt lat="45.6635584" lon="11.6950831"><ele>53.42857142857143</ele><time>2026-04-26T12:55:40.059Z</time></trkpt><trkpt lat="45.6635274" lon="11.6951892"><ele>53.14285714285714</ele><time>2026-04-26T12:55:42.059Z</time></trkpt><trkpt lat="45.6635077" lon="11.6952767"><ele>52.85714285714286</ele><time>2026-04-26T12:55:44.059Z</time></trkpt><trkpt lat="45.6634807" lon="11.6953585"><ele>52.57142857142858</ele><time>2026-04-26T12:55:47.059Z</time></trkpt><trkpt lat="45.6634158" lon="11.6954161"><ele>52.285714285714285</ele><time>2026-04-26T12:55:51.059Z</time></trkpt><trkpt lat="45.663373" lon="11.6954891"><ele>52.0</ele><time>2026-04-26T12:56:03.058Z</time></trkpt><trkpt lat="45.6633665" lon="11.6956032"><ele>51.49999999999999</ele><time>2026-04-26T12:56:12.06Z</time></trkpt><trkpt lat="45.6633707" lon="11.6957008"><ele>51.0</ele><time>2026-04-26T12:56:16.06Z</time></trkpt><trkpt lat="45.6633581" lon="11.6958171"><ele>50.5</ele><time>2026-04-26T12:56:19.06Z</time></trkpt><trkpt lat="45.6632969" lon="11.6958859"><ele>50.0</ele><time>2026-04-26T12:56:24.06Z</time></trkpt><trkpt lat="45.663216" lon="11.6959496"><ele>49.49999999999999</ele><time>2026-04-26T12:56:26.06Z</time></trkpt><trkpt lat="45.6631492" lon="11.6959891"><ele>49.0</ele><time>2026-04-26T12:56:28.06Z</time></trkpt><trkpt lat="45.6630693" lon="11.6960343"><ele>49.0</ele><time>2026-04-26T12:56:31.06Z</time></trkpt><trkpt lat="45.6630214" lon="11.6961032"><ele>49.0</ele><time>2026-04-26T12:56:34.06Z</time></trkpt><trkpt lat="45.6629735" lon="11.6961679"><ele>49.0</ele><time>2026-04-26T12:56:39.06Z</time></trkpt><trkpt lat="45.663043" lon="11.696126"><ele>49.0</ele><time>2026-04-26T12:56:44.06Z</time></trkpt><trkpt lat="45.6630765" lon="11.696031"><ele>49.0</ele><time>2026-04-26T12:56:47.06Z</time></trkpt><trkpt lat="45.6631405" lon="11.6959973"><ele>49.0</ele><time>2026-04-26T12:56:51.06Z</time></trkpt><trkpt lat="45.6632027" lon="11.6960574"><ele>49.0</ele><time>2026-04-26T12:56:55.06Z</time></trkpt><trkpt lat="45.6632166" lon="11.6961661"><ele>48.99999999999999</ele><time>2026-04-26T12:56:59.06Z</time></trkpt><trkpt lat="45.6631972" lon="11.6962542"><ele>49.0</ele><time>2026-04-26T12:57:02.061Z</time></trkpt><trkpt lat="45.6631716" lon="11.6963742"><ele>49.0</ele><time>2026-04-26T12:57:05.06Z</time></trkpt><trkpt lat="45.6631403" lon="11.6964851"><ele>49.0</ele><time>2026-04-26T12:57:08.06Z</time></trkpt><trkpt lat="45.6631066" lon="11.6965844"><ele>48.99999999999999</ele><time>2026-04-26T12:57:11.06Z</time></trkpt><trkpt lat="45.6630802" lon="11.6966896"><ele>49.0</ele><time>2026-04-26T12:57:15.061Z</time></trkpt><trkpt lat="45.6630571" lon="11.6968124"><ele>49.0</ele><time>2026-04-26T12:57:18.061Z</time></trkpt><trkpt lat="45.6630369" lon="11.6969033"><ele>49.0</ele><time>2026-04-26T12:57:20.061Z</time></trkpt><trkpt lat="45.6629957" lon="11.6970107"><ele>49.0</ele><time>2026-04-26T12:57:23.061Z</time></trkpt><trkpt lat="45.6629458" lon="11.6971067"><ele>49.0</ele><time>2026-04-26T12:57:26.061Z</time></trkpt><trkpt lat="45.6629209" lon="11.6971968"><ele>49.0</ele><time>2026-04-26T12:57:32.061Z</time></trkpt><trkpt lat="45.6629555" lon="11.6972915"><ele>49.0</ele><time>2026-04-26T12:57:37.061Z</time></trkpt><trkpt lat="45.6630015" lon="11.6973592"><ele>49.0</ele><time>2026-04-26T12:57:47.06Z</time></trkpt><trkpt lat="45.6630646" lon="11.6974155"><ele>49.285714285714285</ele><time>2026-04-26T12:57:59.061Z</time></trkpt><trkpt lat="45.6630354" lon="11.6974956"><ele>49.57142857142857</ele><time>2026-04-26T12:58:04.061Z</time></trkpt><trkpt lat="45.6629843" lon="11.6975669"><ele>49.85714285714286</ele><time>2026-04-26T12:58:09.061Z</time></trkpt><trkpt lat="45.6629484" lon="11.6976576"><ele>50.14285714285714</ele><time>2026-04-26T12:58:16.061Z</time></trkpt><trkpt lat="45.6629144" lon="11.6977502"><ele>50.42857142857143</ele><time>2026-04-26T12:58:23.062Z</time></trkpt><trkpt lat="45.66289" lon="11.697852"><ele>50.714285714285715</ele><time>2026-04-26T12:58:28.062Z</time></trkpt><trkpt lat="45.6629248" lon="11.6979371"><ele>51.0</ele><time>2026-04-26T12:58:32.062Z</time></trkpt><trkpt lat="45.6629982" lon="11.6979873"><ele>51.0</ele><time>2026-04-26T12:58:36.062Z</time></trkpt><trkpt lat="45.6630454" lon="11.6980658"><ele>51.0</ele><time>2026-04-26T12:58:42.062Z</time></trkpt><trkpt lat="45.6630824" lon="11.6981508"><ele>51.0</ele><time>2026-04-26T12:58:46.062Z</time></trkpt><trkpt lat="45.6631402" lon="11.6982059"><ele>51.0</ele><time>2026-04-26T12:58:51.062Z</time></trkpt><trkpt lat="45.6631619" lon="11.6983062"><ele>51.0</ele><time>2026-04-26T12:59:02.062Z</time></trkpt><trkpt lat="45.6631777" lon="11.6984021"><ele>51.0</ele><time>2026-04-26T12:59:06.062Z</time></trkpt><trkpt lat="45.6631395" lon="11.6982965"><ele>51.0</ele><time>2026-04-26T12:59:42.063Z</time></trkpt><trkpt lat="45.6631254" lon="11.698202"><ele>51.0</ele><time>2026-04-26T12:59:46.062Z</time></trkpt><trkpt lat="45.6630591" lon="11.6982504"><ele>51.0</ele><time>2026-04-26T12:59:51.063Z</time></trkpt><trkpt lat="45.6629981" lon="11.6982914"><ele>51.0</ele><time>2026-04-26T12:59:55.063Z</time></trkpt><trkpt lat="45.6629684" lon="11.6983965"><ele>51.0</ele><time>2026-04-26T13:00:00.063Z</time></trkpt><trkpt lat="45.6629515" lon="11.6984898"><ele>51.0</ele><time>2026-04-26T13:00:05.062Z</time></trkpt><trkpt lat="45.6629035" lon="11.6985606"><ele>51.0</ele><time>2026-04-26T13:00:11.063Z</time></trkpt><trkpt lat="45.662852" lon="11.6986187"><ele>51.0</ele><time>2026-04-26T13:00:15.062Z</time></trkpt><trkpt lat="45.6628171" lon="11.6986983"><ele>50.85714285714286</ele><time>2026-04-26T13:00:21.063Z</time></trkpt><trkpt lat="45.6627629" lon="11.6987662"><ele>50.714285714285715</ele><time>2026-04-26T13:00:26.063Z</time></trkpt><trkpt lat="45.6627097" lon="11.6988422"><ele>50.57142857142857</ele><time>2026-04-26T13:00:31.063Z</time></trkpt><trkpt lat="45.6626583" lon="11.6989148"><ele>50.42857142857143</ele><time>2026-04-26T13:00:36.063Z</time></trkpt><trkpt lat="45.6626293" lon="11.6989976"><ele>50.285714285714285</ele><time>2026-04-26T13:00:47.064Z</time></trkpt><trkpt lat="45.6625849" lon="11.6990764"><ele>50.142857142857146</ele><time>2026-04-26T13:00:51.064Z</time></trkpt><trkpt lat="45.6625197" lon="11.6991222"><ele>50.0</ele><time>2026-04-26T13:00:58.064Z</time></trkpt><trkpt lat="45.6624735" lon="11.6992021"><ele>50.00000000000001</ele><time>2026-04-26T13:01:03.064Z</time></trkpt><trkpt lat="45.6624276" lon="11.6992697"><ele>50.0</ele><time>2026-04-26T13:01:12.064Z</time></trkpt><trkpt lat="45.6623913" lon="11.699348"><ele>50.0</ele><time>2026-04-26T13:01:17.064Z</time></trkpt><trkpt lat="45.6623195" lon="11.6993729"><ele>50.0</ele><time>2026-04-26T13:01:22.064Z</time></trkpt><trkpt lat="45.6622548" lon="11.6993633"><ele>50.0</ele><time>2026-04-26T13:01:29.064Z</time></trkpt><trkpt lat="45.6621816" lon="11.6994054"><ele>50.00000000000001</ele><time>2026-04-26T13:01:34.065Z</time></trkpt><trkpt lat="45.6621102" lon="11.699459"><ele>50.0</ele><time>2026-04-26T13:01:48.065Z</time></trkpt><trkpt lat="45.662048" lon="11.6995058"><ele>49.85714285714286</ele><time>2026-04-26T13:01:54.065Z</time></trkpt><trkpt lat="45.6620095" lon="11.699591"><ele>49.714285714285715</ele><time>2026-04-26T13:02:00.065Z</time></trkpt><trkpt lat="45.6619581" lon="11.6996497"><ele>49.57142857142857</ele><time>2026-04-26T13:02:06.064Z</time></trkpt><trkpt lat="45.6619831" lon="11.6997455"><ele>49.42857142857143</ele><time>2026-04-26T13:02:25.065Z</time></trkpt><trkpt lat="45.6620156" lon="11.6998389"><ele>49.285714285714285</ele><time>2026-04-26T13:02:29.066Z</time></trkpt><trkpt lat="45.6620163" lon="11.6999326"><ele>49.142857142857146</ele><time>2026-04-26T13:02:33.065Z</time></trkpt><trkpt lat="45.6620143" lon="11.7000357"><ele>49.0</ele><time>2026-04-26T13:02:37.066Z</time></trkpt><trkpt lat="45.6620005" lon="11.7001463"><ele>49.0</ele><time>2026-04-26T13:02:43.066Z</time></trkpt><trkpt lat="45.6619491" lon="11.700235"><ele>49.0</ele><time>2026-04-26T13:02:48.066Z</time></trkpt><trkpt lat="45.6618912" lon="11.7002748"><ele>49.0</ele><time>2026-04-26T13:02:52.065Z</time></trkpt><trkpt lat="45.6618985" lon="11.700386"><ele>49.0</ele><time>2026-04-26T13:02:57.066Z</time></trkpt><trkpt lat="45.6618999" lon="11.700487"><ele>49.0</ele><time>2026-04-26T13:03:01.066Z</time></trkpt><trkpt lat="45.6619072" lon="11.7005801"><ele>49.0</ele><time>2026-04-26T13:03:04.066Z</time></trkpt><trkpt lat="45.66192" lon="11.7006762"><ele>49.0</ele><time>2026-04-26T13:03:12.067Z</time></trkpt><trkpt lat="45.6619097" lon="11.7007964"><ele>49.0</ele><time>2026-04-26T13:03:22.067Z</time></trkpt><trkpt lat="45.6618753" lon="11.7008801"><ele>49.0</ele><time>2026-04-26T13:03:26.066Z</time></trkpt><trkpt lat="45.6618567" lon="11.7009678"><ele>49.0</ele><time>2026-04-26T13:03:28.066Z</time></trkpt><trkpt lat="45.661815" lon="11.7010555"><ele>49.0</ele><time>2026-04-26T13:03:33.066Z</time></trkpt><trkpt lat="45.6617862" lon="11.7011364"><ele>49.0</ele><time>2026-04-26T13:03:37.066Z</time></trkpt><trkpt lat="45.6618194" lon="11.7010325"><ele>49.0</ele><time>2026-04-26T13:04:32.067Z</time></trkpt><trkpt lat="45.6618539" lon="11.7009227"><ele>49.0</ele><time>2026-04-26T13:04:36.068Z</time></trkpt><trkpt lat="45.6618767" lon="11.7008364"><ele>49.142857142857146</ele><time>2026-04-26T13:04:41.067Z</time></trkpt><trkpt lat="45.6618955" lon="11.7007452"><ele>49.285714285714285</ele><time>2026-04-26T13:04:46.068Z</time></trkpt><trkpt lat="45.6619005" lon="11.7006476"><ele>49.42857142857143</ele><time>2026-04-26T13:04:50.068Z</time></trkpt><trkpt lat="45.6619003" lon="11.7005507"><ele>49.57142857142857</ele><time>2026-04-26T13:04:54.068Z</time></trkpt><trkpt lat="45.6618951" lon="11.7004181"><ele>49.714285714285715</ele><time>2026-04-26T13:04:58.068Z</time></trkpt><trkpt lat="45.661895" lon="11.7003146"><ele>49.85714285714286</ele><time>2026-04-26T13:05:02.068Z</time></trkpt><trkpt lat="45.6618924" lon="11.700214"><ele>50.0</ele><time>2026-04-26T13:05:06.068Z</time></trkpt><trkpt lat="45.6618746" lon="11.7001161"><ele>50.00000000000001</ele><time>2026-04-26T13:05:11.068Z</time></trkpt><trkpt lat="45.6618969" lon="11.7000278"><ele>50.0</ele><time>2026-04-26T13:05:17.067Z</time></trkpt><trkpt lat="45.6618756" lon="11.6999292"><ele>50.0</ele><time>2026-04-26T13:05:22.067Z</time></trkpt><trkpt lat="45.6618366" lon="11.6998426"><ele>50.0</ele><time>2026-04-26T13:05:26.068Z</time></trkpt><trkpt lat="45.6617949" lon="11.6997574"><ele>50.0</ele><time>2026-04-26T13:05:34.069Z</time></trkpt><trkpt lat="45.6617341" lon="11.6996877"><ele>50.00000000000001</ele><time>2026-04-26T13:05:38.068Z</time></trkpt><trkpt lat="45.6616754" lon="11.6996413"><ele>50.0</ele><time>2026-04-26T13:05:49.069Z</time></trkpt><trkpt lat="45.6616032" lon="11.6996241"><ele>50.00000000000001</ele><time>2026-04-26T13:05:55.069Z</time></trkpt><trkpt lat="45.6615532" lon="11.6996808"><ele>50.0</ele><time>2026-04-26T13:06:00.069Z</time></trkpt><trkpt lat="45.6614898" lon="11.6996541"><ele>50.0</ele><time>2026-04-26T13:06:05.068Z</time></trkpt><trkpt lat="45.6614247" lon="11.6996528"><ele>50.0</ele><time>2026-04-26T13:06:11.068Z</time></trkpt><trkpt lat="45.6613536" lon="11.6996609"><ele>50.0</ele><time>2026-04-26T13:06:16.069Z</time></trkpt><trkpt lat="45.6612952" lon="11.6996972"><ele>50.00000000000001</ele><time>2026-04-26T13:06:23.069Z</time></trkpt><trkpt lat="45.661227" lon="11.6997498"><ele>50.0</ele><time>2026-04-26T13:06:33.068Z</time></trkpt><trkpt lat="45.6611543" lon="11.6997701"><ele>50.16666666666667</ele><time>2026-04-26T13:06:37.068Z</time></trkpt><trkpt lat="45.6610876" lon="11.6998107"><ele>50.333333333333336</ele><time>2026-04-26T13:06:41.069Z</time></trkpt><trkpt lat="45.6610163" lon="11.6998476"><ele>50.5</ele><time>2026-04-26T13:06:46.069Z</time></trkpt><trkpt lat="45.6609548" lon="11.6998802"><ele>50.66666666666667</ele><time>2026-04-26T13:06:49.069Z</time></trkpt><trkpt lat="45.6608994" lon="11.6999766"><ele>50.833333333333336</ele><time>2026-04-26T13:06:53.068Z</time></trkpt><trkpt lat="45.6608683" lon="11.7000801"><ele>51.0</ele><time>2026-04-26T13:06:56.069Z</time></trkpt><trkpt lat="45.6608431" lon="11.7001841"><ele>51.0</ele><time>2026-04-26T13:07:00.068Z</time></trkpt><trkpt lat="45.6608304" lon="11.7002882"><ele>51.0</ele><time>2026-04-26T13:07:03.07Z</time></trkpt><trkpt lat="45.6608145" lon="11.7004283"><ele>51.0</ele><time>2026-04-26T13:07:08.07Z</time></trkpt><trkpt lat="45.6607824" lon="11.7005236"><ele>51.0</ele><time>2026-04-26T13:07:14.07Z</time></trkpt><trkpt lat="45.6607517" lon="11.7006229"><ele>51.0</ele><time>2026-04-26T13:07:18.07Z</time></trkpt><trkpt lat="45.6607443" lon="11.7007148"><ele>51.0</ele><time>2026-04-26T13:07:20.07Z</time></trkpt><trkpt lat="45.6607364" lon="11.7008143"><ele>51.0</ele><time>2026-04-26T13:07:22.069Z</time></trkpt><trkpt lat="45.6607026" lon="11.7009048"><ele>51.0</ele><time>2026-04-26T13:07:25.07Z</time></trkpt><trkpt lat="45.6606584" lon="11.7009864"><ele>51.0</ele><time>2026-04-26T13:07:29.07Z</time></trkpt><trkpt lat="45.6606472" lon="11.7010922"><ele>51.0</ele><time>2026-04-26T13:07:33.07Z</time></trkpt><trkpt lat="45.6606226" lon="11.7012016"><ele>51.0</ele><time>2026-04-26T13:07:37.07Z</time></trkpt><trkpt lat="45.6606108" lon="11.7013065"><ele>51.0</ele><time>2026-04-26T13:07:41.069Z</time></trkpt><trkpt lat="45.6606082" lon="11.7014064"><ele>51.0</ele><time>2026-04-26T13:07:44.07Z</time></trkpt><trkpt lat="45.6606057" lon="11.7015109"><ele>51.0</ele><time>2026-04-26T13:07:48.07Z</time></trkpt><trkpt lat="45.6605495" lon="11.7015856"><ele>51.0</ele><time>2026-04-26T13:07:53.07Z</time></trkpt><trkpt lat="45.6604805" lon="11.7016333"><ele>51.0</ele><time>2026-04-26T13:07:56.07Z</time></trkpt><trkpt lat="45.6604014" lon="11.7016708"><ele>51.0</ele><time>2026-04-26T13:07:59.07Z</time></trkpt><trkpt lat="45.6603322" lon="11.7016982"><ele>51.0</ele><time>2026-04-26T13:08:02.07Z</time></trkpt><trkpt lat="45.6602705" lon="11.7017189"><ele>51.0</ele><time>2026-04-26T13:08:04.07Z</time></trkpt><trkpt lat="45.660191" lon="11.7017756"><ele>51.142857142857146</ele><time>2026-04-26T13:08:07.07Z</time></trkpt><trkpt lat="45.6601208" lon="11.7018133"><ele>51.28571428571429</ele><time>2026-04-26T13:08:10.07Z</time></trkpt><trkpt lat="45.6600611" lon="11.7018459"><ele>51.42857142857143</ele><time>2026-04-26T13:08:13.07Z</time></trkpt><trkpt lat="45.660009" lon="11.7019163"><ele>51.57142857142857</ele><time>2026-04-26T13:08:17.071Z</time></trkpt><trkpt lat="45.6600355" lon="11.7020135"><ele>51.714285714285715</ele><time>2026-04-26T13:08:20.071Z</time></trkpt><trkpt lat="45.660061" lon="11.7021125"><ele>51.857142857142854</ele><time>2026-04-26T13:08:23.071Z</time></trkpt><trkpt lat="45.6600873" lon="11.7022226"><ele>52.0</ele><time>2026-04-26T13:08:28.071Z</time></trkpt><trkpt lat="45.6601271" lon="11.702307"><ele>52.0</ele><time>2026-04-26T13:08:33.071Z</time></trkpt><trkpt lat="45.6601867" lon="11.7023695"><ele>52.0</ele><time>2026-04-26T13:08:47.071Z</time></trkpt><trkpt lat="45.6602222" lon="11.7024505"><ele>52.0</ele><time>2026-04-26T13:08:55.071Z</time></trkpt><trkpt lat="45.6602616" lon="11.7025308"><ele>52.0</ele><time>2026-04-26T13:09:01.07Z</time></trkpt><trkpt lat="45.6602932" lon="11.7026227"><ele>52.0</ele><time>2026-04-26T13:09:06.071Z</time></trkpt><trkpt lat="45.6603158" lon="11.7027136"><ele>52.0</ele><time>2026-04-26T13:09:14.071Z</time></trkpt><trkpt lat="45.6603122" lon="11.7028103"><ele>52.0</ele><time>2026-04-26T13:09:22.07Z</time></trkpt><trkpt lat="45.6603216" lon="11.7029054"><ele>51.57142857142857</ele><time>2026-04-26T13:09:28.071Z</time></trkpt><trkpt lat="45.6603163" lon="11.7029955"><ele>51.142857142857146</ele><time>2026-04-26T13:09:34.072Z</time></trkpt><trkpt lat="45.6603432" lon="11.7030784"><ele>50.714285714285715</ele><time>2026-04-26T13:09:41.072Z</time></trkpt><trkpt lat="45.6603543" lon="11.7031752"><ele>50.285714285714285</ele><time>2026-04-26T13:09:48.072Z</time></trkpt><trkpt lat="45.6603921" lon="11.7032545"><ele>49.85714285714286</ele><time>2026-04-26T13:09:55.072Z</time></trkpt><trkpt lat="45.660421" lon="11.7033463"><ele>49.42857142857143</ele><time>2026-04-26T13:10:02.072Z</time></trkpt><trkpt lat="45.6604748" lon="11.7034077"><ele>49.0</ele><time>2026-04-26T13:10:10.071Z</time></trkpt><trkpt lat="45.6605072" lon="11.703485"><ele>49.0</ele><time>2026-04-26T13:10:19.072Z</time></trkpt><trkpt lat="45.6605287" lon="11.7033949"><ele>49.0</ele><time>2026-04-26T13:10:24.072Z</time></trkpt></trkseg><trkseg><trkpt lat="45.6605065" lon="11.7032715"><ele>49.0</ele><time>2026-04-26T14:19:30.136Z</time></trkpt><trkpt lat="45.6604893" lon="11.703182"><ele>49.0</ele><time>2026-04-26T14:19:56.136Z</time></trkpt><trkpt lat="45.6604531" lon="11.703096"><ele>49.0</ele><time>2026-04-26T14:20:01.136Z</time></trkpt><trkpt lat="45.6604266" lon="11.7030054"><ele>49.0</ele><time>2026-04-26T14:20:09.136Z</time></trkpt><trkpt lat="45.6604014" lon="11.7029161"><ele>49.0</ele><time>2026-04-26T14:20:16.136Z</time></trkpt><trkpt lat="45.6603752" lon="11.7028229"><ele>49.0</ele><time>2026-04-26T14:20:22.136Z</time></trkpt><trkpt lat="45.6603406" lon="11.7027334"><ele>49.0</ele><time>2026-04-26T14:20:28.137Z</time></trkpt><trkpt lat="45.6602985" lon="11.7026403"><ele>49.42857142857143</ele><time>2026-04-26T14:20:34.136Z</time></trkpt><trkpt lat="45.6602593" lon="11.7025697"><ele>49.85714285714286</ele><time>2026-04-26T14:20:40.137Z</time></trkpt><trkpt lat="45.6602308" lon="11.7024813"><ele>50.285714285714285</ele><time>2026-04-26T14:20:48.136Z</time></trkpt><trkpt lat="45.6601985" lon="11.7023903"><ele>50.714285714285715</ele><time>2026-04-26T14:20:53.137Z</time></trkpt><trkpt lat="45.6601585" lon="11.7023194"><ele>51.142857142857146</ele><time>2026-04-26T14:20:57.137Z</time></trkpt><trkpt lat="45.6601092" lon="11.702254"><ele>51.57142857142857</ele><time>2026-04-26T14:21:00.137Z</time></trkpt><trkpt lat="45.6600688" lon="11.702155"><ele>52.0</ele><time>2026-04-26T14:21:04.137Z</time></trkpt><trkpt lat="45.6600375" lon="11.7020733"><ele>51.99999999999999</ele><time>2026-04-26T14:21:08.137Z</time></trkpt><trkpt lat="45.6599893" lon="11.7020114"><ele>52.0</ele><time>2026-04-26T14:21:11.137Z</time></trkpt><trkpt lat="45.6599371" lon="11.7019548"><ele>52.0</ele><time>2026-04-26T14:21:14.137Z</time></trkpt><trkpt lat="45.6598654" lon="11.7018857"><ele>52.0</ele><time>2026-04-26T14:21:18.137Z</time></trkpt><trkpt lat="45.6597849" lon="11.7018636"><ele>51.99999999999999</ele><time>2026-04-26T14:21:21.137Z</time></trkpt><trkpt lat="45.6597039" lon="11.7018402"><ele>52.0</ele><time>2026-04-26T14:21:25.136Z</time></trkpt><trkpt lat="45.6596305" lon="11.701825"><ele>52.14285714285714</ele><time>2026-04-26T14:21:29.137Z</time></trkpt><trkpt lat="45.6595675" lon="11.7018005"><ele>52.28571428571429</ele><time>2026-04-26T14:21:32.137Z</time></trkpt><trkpt lat="45.6595005" lon="11.7017736"><ele>52.42857142857143</ele><time>2026-04-26T14:21:35.137Z</time></trkpt><trkpt lat="45.6594218" lon="11.7017751"><ele>52.57142857142857</ele><time>2026-04-26T14:21:39.137Z</time></trkpt><trkpt lat="45.6593428" lon="11.7017519"><ele>52.71428571428571</ele><time>2026-04-26T14:21:43.137Z</time></trkpt><trkpt lat="45.6592804" lon="11.701729"><ele>52.85714285714286</ele><time>2026-04-26T14:21:47.138Z</time></trkpt><trkpt lat="45.659201" lon="11.7017349"><ele>53.0</ele><time>2026-04-26T14:21:51.138Z</time></trkpt><trkpt lat="45.6591367" lon="11.7017365"><ele>53.00000000000001</ele><time>2026-04-26T14:21:55.138Z</time></trkpt><trkpt lat="45.6590725" lon="11.7017599"><ele>53.0</ele><time>2026-04-26T14:22:00.138Z</time></trkpt><trkpt lat="45.659006" lon="11.7017954"><ele>53.0</ele><time>2026-04-26T14:22:03.138Z</time></trkpt><trkpt lat="45.6589337" lon="11.701868"><ele>53.0</ele><time>2026-04-26T14:22:06.138Z</time></trkpt><trkpt lat="45.6588824" lon="11.701938"><ele>53.00000000000001</ele><time>2026-04-26T14:22:09.138Z</time></trkpt><trkpt lat="45.6588375" lon="11.7020349"><ele>53.0</ele><time>2026-04-26T14:22:12.138Z</time></trkpt><trkpt lat="45.6587555" lon="11.7020826"><ele>53.00000000000001</ele><time>2026-04-26T14:22:15.138Z</time></trkpt><trkpt lat="45.6586875" lon="11.7021516"><ele>53.0</ele><time>2026-04-26T14:22:18.138Z</time></trkpt><trkpt lat="45.6586194" lon="11.7022418"><ele>53.0</ele><time>2026-04-26T14:22:21.138Z</time></trkpt><trkpt lat="45.6585489" lon="11.7023253"><ele>53.0</ele><time>2026-04-26T14:22:24.138Z</time></trkpt><trkpt lat="45.6585003" lon="11.7023854"><ele>53.00000000000001</ele><time>2026-04-26T14:22:26.138Z</time></trkpt><trkpt lat="45.6584411" lon="11.7024808"><ele>53.0</ele><time>2026-04-26T14:22:29.138Z</time></trkpt><trkpt lat="45.6583707" lon="11.7025541"><ele>53.142857142857146</ele><time>2026-04-26T14:22:32.138Z</time></trkpt><trkpt lat="45.6583275" lon="11.7026229"><ele>53.285714285714285</ele><time>2026-04-26T14:22:34.138Z</time></trkpt><trkpt lat="45.6582869" lon="11.7026959"><ele>53.42857142857143</ele><time>2026-04-26T14:22:36.138Z</time></trkpt><trkpt lat="45.6582304" lon="11.7027852"><ele>53.57142857142857</ele><time>2026-04-26T14:22:39.138Z</time></trkpt><trkpt lat="45.6581822" lon="11.7028828"><ele>53.71428571428571</ele><time>2026-04-26T14:22:42.137Z</time></trkpt><trkpt lat="45.6581427" lon="11.7029648"><ele>53.857142857142854</ele><time>2026-04-26T14:22:44.138Z</time></trkpt><trkpt lat="45.658098" lon="11.7030577"><ele>54.0</ele><time>2026-04-26T14:22:46.138Z</time></trkpt><trkpt lat="45.6580548" lon="11.7031434"><ele>53.714285714285715</ele><time>2026-04-26T14:22:48.138Z</time></trkpt><trkpt lat="45.6580144" lon="11.7032211"><ele>53.42857142857143</ele><time>2026-04-26T14:22:50.138Z</time></trkpt><trkpt lat="45.6579795" lon="11.7033005"><ele>53.14285714285714</ele><time>2026-04-26T14:22:52.138Z</time></trkpt><trkpt lat="45.6579455" lon="11.703377"><ele>52.85714285714286</ele><time>2026-04-26T14:22:54.139Z</time></trkpt><trkpt lat="45.6579017" lon="11.7034866"><ele>52.57142857142858</ele><time>2026-04-26T14:22:57.139Z</time></trkpt><trkpt lat="45.6578682" lon="11.7035674"><ele>52.285714285714285</ele><time>2026-04-26T14:22:59.139Z</time></trkpt><trkpt lat="45.6578346" lon="11.7036461"><ele>52.0</ele><time>2026-04-26T14:23:01.138Z</time></trkpt><trkpt lat="45.6577962" lon="11.7037196"><ele>51.57142857142857</ele><time>2026-04-26T14:23:03.139Z</time></trkpt><trkpt lat="45.6577458" lon="11.7037852"><ele>51.142857142857146</ele><time>2026-04-26T14:23:05.139Z</time></trkpt><trkpt lat="45.6576981" lon="11.7038511"><ele>50.714285714285715</ele><time>2026-04-26T14:23:07.138Z</time></trkpt><trkpt lat="45.6576443" lon="11.7039104"><ele>50.285714285714285</ele><time>2026-04-26T14:23:09.139Z</time></trkpt><trkpt lat="45.6575847" lon="11.7039641"><ele>49.85714285714286</ele><time>2026-04-26T14:23:11.138Z</time></trkpt><trkpt lat="45.6575274" lon="11.7040142"><ele>49.42857142857143</ele><time>2026-04-26T14:23:13.138Z</time></trkpt><trkpt lat="45.6574786" lon="11.7040718"><ele>49.0</ele><time>2026-04-26T14:23:15.139Z</time></trkpt><trkpt lat="45.6574156" lon="11.7041604"><ele>48.99999999999999</ele><time>2026-04-26T14:23:18.139Z</time></trkpt><trkpt lat="45.6573679" lon="11.7042399"><ele>49.0</ele><time>2026-04-26T14:23:21.139Z</time></trkpt><trkpt lat="45.6572994" lon="11.7043392"><ele>49.0</ele><time>2026-04-26T14:23:24.139Z</time></trkpt><trkpt lat="45.6572529" lon="11.7044206"><ele>49.0</ele><time>2026-04-26T14:23:26.139Z</time></trkpt><trkpt lat="45.6571925" lon="11.7045247"><ele>48.99999999999999</ele><time>2026-04-26T14:23:29.139Z</time></trkpt><trkpt lat="45.6571483" lon="11.7045907"><ele>49.0</ele><time>2026-04-26T14:23:31.139Z</time></trkpt><trkpt lat="45.6570957" lon="11.7046793"><ele>49.166666666666664</ele><time>2026-04-26T14:23:34.139Z</time></trkpt><trkpt lat="45.6570435" lon="11.704748"><ele>49.33333333333333</ele><time>2026-04-26T14:23:39.139Z</time></trkpt><trkpt lat="45.6569897" lon="11.7048332"><ele>49.5</ele><time>2026-04-26T14:23:42.139Z</time></trkpt><trkpt lat="45.6569342" lon="11.7049254"><ele>49.66666666666667</ele><time>2026-04-26T14:23:45.139Z</time></trkpt><trkpt lat="45.6568906" lon="11.7050208"><ele>49.833333333333336</ele><time>2026-04-26T14:23:48.139Z</time></trkpt><trkpt lat="45.6568767" lon="11.7051212"><ele>50.0</ele><time>2026-04-26T14:23:52.139Z</time></trkpt><trkpt lat="45.6568333" lon="11.705223"><ele>49.66666666666667</ele><time>2026-04-26T14:23:56.139Z</time></trkpt><trkpt lat="45.6568021" lon="11.7053239"><ele>49.333333333333336</ele><time>2026-04-26T14:23:59.139Z</time></trkpt><trkpt lat="45.6567653" lon="11.7054365"><ele>49.0</ele><time>2026-04-26T14:24:03.14Z</time></trkpt><trkpt lat="45.6566949" lon="11.7055354"><ele>48.66666666666667</ele><time>2026-04-26T14:24:06.14Z</time></trkpt><trkpt lat="45.6566477" lon="11.7056101"><ele>48.333333333333336</ele><time>2026-04-26T14:24:08.14Z</time></trkpt><trkpt lat="45.6565927" lon="11.7057148"><ele>48.0</ele><time>2026-04-26T14:24:11.14Z</time></trkpt><trkpt lat="45.6565338" lon="11.7058065"><ele>47.99999999999999</ele><time>2026-04-26T14:24:14.14Z</time></trkpt><trkpt lat="45.6564862" lon="11.7058898"><ele>48.0</ele><time>2026-04-26T14:24:17.139Z</time></trkpt><trkpt lat="45.6564251" lon="11.705938"><ele>48.0</ele><time>2026-04-26T14:24:21.14Z</time></trkpt><trkpt lat="45.6563582" lon="11.7059804"><ele>48.0</ele><time>2026-04-26T14:24:26.139Z</time></trkpt><trkpt lat="45.6562883" lon="11.7060294"><ele>48.0</ele><time>2026-04-26T14:24:30.14Z</time></trkpt><trkpt lat="45.6562143" lon="11.7060494"><ele>47.99999999999999</ele><time>2026-04-26T14:24:34.139Z</time></trkpt><trkpt lat="45.6561435" lon="11.706083"><ele>48.0</ele><time>2026-04-26T14:24:40.14Z</time></trkpt><trkpt lat="45.6560943" lon="11.7061643"><ele>47.833333333333336</ele><time>2026-04-26T14:24:43.14Z</time></trkpt><trkpt lat="45.6560442" lon="11.706261"><ele>47.666666666666664</ele><time>2026-04-26T14:24:46.14Z</time></trkpt><trkpt lat="45.655997" lon="11.7063441"><ele>47.5</ele><time>2026-04-26T14:24:49.14Z</time></trkpt><trkpt lat="45.655945" lon="11.7064425"><ele>47.33333333333333</ele><time>2026-04-26T14:24:52.14Z</time></trkpt><trkpt lat="45.6558864" lon="11.7065489"><ele>47.166666666666664</ele><time>2026-04-26T14:24:55.14Z</time></trkpt><trkpt lat="45.655844" lon="11.7066231"><ele>47.0</ele><time>2026-04-26T14:24:57.14Z</time></trkpt><trkpt lat="45.6558079" lon="11.7066989"><ele>47.0</ele><time>2026-04-26T14:24:59.14Z</time></trkpt><trkpt lat="45.6557616" lon="11.7068122"><ele>47.0</ele><time>2026-04-26T14:25:02.14Z</time></trkpt><trkpt lat="45.6557089" lon="11.70691"><ele>47.0</ele><time>2026-04-26T14:25:05.14Z</time></trkpt><trkpt lat="45.6556692" lon="11.7069827"><ele>47.0</ele><time>2026-04-26T14:25:07.14Z</time></trkpt><trkpt lat="45.6556192" lon="11.7070905"><ele>47.0</ele><time>2026-04-26T14:25:10.141Z</time></trkpt><trkpt lat="45.6555779" lon="11.7072042"><ele>47.0</ele><time>2026-04-26T14:25:13.141Z</time></trkpt><trkpt lat="45.6555287" lon="11.707318"><ele>46.83333333333333</ele><time>2026-04-26T14:25:16.141Z</time></trkpt><trkpt lat="45.6554892" lon="11.7074323"><ele>46.666666666666664</ele><time>2026-04-26T14:25:19.141Z</time></trkpt><trkpt lat="45.6554745" lon="11.7075369"><ele>46.5</ele><time>2026-04-26T14:25:22.141Z</time></trkpt><trkpt lat="45.6554796" lon="11.7076549"><ele>46.333333333333336</ele><time>2026-04-26T14:25:25.141Z</time></trkpt><trkpt lat="45.6554599" lon="11.7077464"><ele>46.16666666666667</ele><time>2026-04-26T14:25:30.141Z</time></trkpt><trkpt lat="45.6554318" lon="11.7078272"><ele>46.0</ele><time>2026-04-26T14:25:34.141Z</time></trkpt><trkpt lat="45.6553812" lon="11.7079216"><ele>45.833333333333336</ele><time>2026-04-26T14:25:37.141Z</time></trkpt><trkpt lat="45.6553355" lon="11.7079925"><ele>45.66666666666667</ele><time>2026-04-26T14:25:39.141Z</time></trkpt><trkpt lat="45.6552906" lon="11.7080605"><ele>45.5</ele><time>2026-04-26T14:25:41.141Z</time></trkpt><trkpt lat="45.65525" lon="11.708164"><ele>45.333333333333336</ele><time>2026-04-26T14:25:44.141Z</time></trkpt><trkpt lat="45.6552042" lon="11.7082752"><ele>45.166666666666664</ele><time>2026-04-26T14:25:47.141Z</time></trkpt><trkpt lat="45.6551667" lon="11.7083633"><ele>45.0</ele><time>2026-04-26T14:25:49.141Z</time></trkpt><trkpt lat="45.6551231" lon="11.7084635"><ele>44.833333333333336</ele><time>2026-04-26T14:25:51.141Z</time></trkpt><trkpt lat="45.6550778" lon="11.7085659"><ele>44.666666666666664</ele><time>2026-04-26T14:25:53.141Z</time></trkpt><trkpt lat="45.6550346" lon="11.7086622"><ele>44.5</ele><time>2026-04-26T14:25:55.141Z</time></trkpt><trkpt lat="45.6549852" lon="11.7087325"><ele>44.33333333333333</ele><time>2026-04-26T14:25:57.141Z</time></trkpt><trkpt lat="45.6549103" lon="11.7088143"><ele>44.166666666666664</ele><time>2026-04-26T14:26:00.141Z</time></trkpt><trkpt lat="45.6548541" lon="11.7088987"><ele>44.0</ele><time>2026-04-26T14:26:03.141Z</time></trkpt><trkpt lat="45.654804" lon="11.7090105"><ele>44.33333333333333</ele><time>2026-04-26T14:26:06.141Z</time></trkpt><trkpt lat="45.6547726" lon="11.7090921"><ele>44.666666666666664</ele><time>2026-04-26T14:26:08.14Z</time></trkpt><trkpt lat="45.6547117" lon="11.7091971"><ele>45.0</ele><time>2026-04-26T14:26:11.14Z</time></trkpt><trkpt lat="45.6546653" lon="11.7092771"><ele>45.333333333333336</ele><time>2026-04-26T14:26:13.141Z</time></trkpt><trkpt lat="45.6546242" lon="11.7093671"><ele>45.66666666666667</ele><time>2026-04-26T14:26:15.141Z</time></trkpt><trkpt lat="45.6545889" lon="11.7094629"><ele>46.0</ele><time>2026-04-26T14:26:17.142Z</time></trkpt><trkpt lat="45.6545412" lon="11.7095446"><ele>46.0</ele><time>2026-04-26T14:26:19.142Z</time></trkpt><trkpt lat="45.6544839" lon="11.709613"><ele>46.0</ele><time>2026-04-26T14:26:21.142Z</time></trkpt><trkpt lat="45.6544322" lon="11.7096884"><ele>46.0</ele><time>2026-04-26T14:26:23.142Z</time></trkpt><trkpt lat="45.6543762" lon="11.7097637"><ele>46.0</ele><time>2026-04-26T14:26:25.142Z</time></trkpt><trkpt lat="45.6543138" lon="11.7098268"><ele>46.0</ele><time>2026-04-26T14:26:27.142Z</time></trkpt><trkpt lat="45.654251" lon="11.709894"><ele>46.0</ele><time>2026-04-26T14:26:29.142Z</time></trkpt><trkpt lat="45.6541928" lon="11.7099635"><ele>46.16666666666667</ele><time>2026-04-26T14:26:31.142Z</time></trkpt><trkpt lat="45.6541431" lon="11.7100244"><ele>46.333333333333336</ele><time>2026-04-26T14:26:33.142Z</time></trkpt><trkpt lat="45.6540708" lon="11.7101125"><ele>46.5</ele><time>2026-04-26T14:26:36.142Z</time></trkpt><trkpt lat="45.6540051" lon="11.7101978"><ele>46.666666666666664</ele><time>2026-04-26T14:26:38.142Z</time></trkpt><trkpt lat="45.6539408" lon="11.7102801"><ele>46.83333333333333</ele><time>2026-04-26T14:26:40.142Z</time></trkpt><trkpt lat="45.6538864" lon="11.7103551"><ele>47.0</ele><time>2026-04-26T14:26:42.141Z</time></trkpt><trkpt lat="45.6538395" lon="11.7104264"><ele>46.666666666666664</ele><time>2026-04-26T14:26:44.141Z</time></trkpt><trkpt lat="45.6537928" lon="11.7105076"><ele>46.33333333333333</ele><time>2026-04-26T14:26:46.142Z</time></trkpt><trkpt lat="45.6537476" lon="11.7105839"><ele>46.0</ele><time>2026-04-26T14:26:48.141Z</time></trkpt><trkpt lat="45.6537032" lon="11.7106586"><ele>45.666666666666664</ele><time>2026-04-26T14:26:50.142Z</time></trkpt><trkpt lat="45.6536537" lon="11.710722"><ele>45.333333333333336</ele><time>2026-04-26T14:26:52.142Z</time></trkpt><trkpt lat="45.65359" lon="11.7108137"><ele>45.0</ele><time>2026-04-26T14:26:55.142Z</time></trkpt><trkpt lat="45.6535136" lon="11.710896"><ele>45.0</ele><time>2026-04-26T14:26:57.142Z</time></trkpt><trkpt lat="45.6534541" lon="11.7109946"><ele>45.0</ele><time>2026-04-26T14:26:59.142Z</time></trkpt><trkpt lat="45.6534182" lon="11.7110826"><ele>45.0</ele><time>2026-04-26T14:27:01.142Z</time></trkpt><trkpt lat="45.6533822" lon="11.7111661"><ele>45.0</ele><time>2026-04-26T14:27:03.142Z</time></trkpt><trkpt lat="45.6533385" lon="11.7112568"><ele>45.0</ele><time>2026-04-26T14:27:05.142Z</time></trkpt><trkpt lat="45.6532982" lon="11.7113542"><ele>45.0</ele><time>2026-04-26T14:27:07.142Z</time></trkpt><trkpt lat="45.6532572" lon="11.7114522"><ele>45.333333333333336</ele><time>2026-04-26T14:27:09.142Z</time></trkpt><trkpt lat="45.6532131" lon="11.711533"><ele>45.666666666666664</ele><time>2026-04-26T14:27:11.142Z</time></trkpt><trkpt lat="45.6531632" lon="11.7116198"><ele>46.0</ele><time>2026-04-26T14:27:13.142Z</time></trkpt><trkpt lat="45.6531161" lon="11.7117161"><ele>46.33333333333333</ele><time>2026-04-26T14:27:15.142Z</time></trkpt><trkpt lat="45.6530736" lon="11.7118076"><ele>46.666666666666664</ele><time>2026-04-26T14:27:17.142Z</time></trkpt><trkpt lat="45.6530367" lon="11.711884"><ele>47.0</ele><time>2026-04-26T14:27:19.142Z</time></trkpt><trkpt lat="45.6529844" lon="11.7120039"><ele>47.0</ele><time>2026-04-26T14:27:22.142Z</time></trkpt><trkpt lat="45.6529426" lon="11.7120947"><ele>47.0</ele><time>2026-04-26T14:27:24.142Z</time></trkpt><trkpt lat="45.6528994" lon="11.7121828"><ele>47.0</ele><time>2026-04-26T14:27:26.142Z</time></trkpt><trkpt lat="45.6528631" lon="11.7122796"><ele>47.0</ele><time>2026-04-26T14:27:28.143Z</time></trkpt><trkpt lat="45.6528282" lon="11.7123731"><ele>47.0</ele><time>2026-04-26T14:27:30.143Z</time></trkpt><trkpt lat="45.6527921" lon="11.7124642"><ele>47.0</ele><time>2026-04-26T14:27:32.143Z</time></trkpt><trkpt lat="45.6527565" lon="11.7125584"><ele>46.666666666666664</ele><time>2026-04-26T14:27:34.142Z</time></trkpt><trkpt lat="45.6527226" lon="11.7126511"><ele>46.33333333333333</ele><time>2026-04-26T14:27:36.143Z</time></trkpt><trkpt lat="45.6526818" lon="11.7127519"><ele>46.0</ele><time>2026-04-26T14:27:38.143Z</time></trkpt><trkpt lat="45.6526417" lon="11.7128411"><ele>45.666666666666664</ele><time>2026-04-26T14:27:40.143Z</time></trkpt><trkpt lat="45.6525975" lon="11.7129257"><ele>45.333333333333336</ele><time>2026-04-26T14:27:42.143Z</time></trkpt><trkpt lat="45.652548" lon="11.7130041"><ele>45.0</ele><time>2026-04-26T14:27:44.143Z</time></trkpt><trkpt lat="45.6524915" lon="11.7130979"><ele>45.0</ele><time>2026-04-26T14:27:46.143Z</time></trkpt><trkpt lat="45.6524283" lon="11.7131969"><ele>45.0</ele><time>2026-04-26T14:27:48.143Z</time></trkpt><trkpt lat="45.6523655" lon="11.713285"><ele>45.0</ele><time>2026-04-26T14:27:50.143Z</time></trkpt><trkpt lat="45.6523078" lon="11.7133655"><ele>45.0</ele><time>2026-04-26T14:27:52.142Z</time></trkpt><trkpt lat="45.6522468" lon="11.7134483"><ele>45.0</ele><time>2026-04-26T14:27:54.143Z</time></trkpt><trkpt lat="45.6521849" lon="11.7135262"><ele>45.0</ele><time>2026-04-26T14:27:56.143Z</time></trkpt><trkpt lat="45.6521232" lon="11.7136031"><ele>44.833333333333336</ele><time>2026-04-26T14:27:58.143Z</time></trkpt><trkpt lat="45.6520589" lon="11.7136792"><ele>44.666666666666664</ele><time>2026-04-26T14:28:00.143Z</time></trkpt><trkpt lat="45.6519883" lon="11.7137413"><ele>44.5</ele><time>2026-04-26T14:28:02.143Z</time></trkpt><trkpt lat="45.6519142" lon="11.7137931"><ele>44.33333333333333</ele><time>2026-04-26T14:28:04.143Z</time></trkpt><trkpt lat="45.6518381" lon="11.7138388"><ele>44.166666666666664</ele><time>2026-04-26T14:28:06.143Z</time></trkpt><trkpt lat="45.6517645" lon="11.7138918"><ele>44.0</ele><time>2026-04-26T14:28:08.143Z</time></trkpt><trkpt lat="45.6516855" lon="11.7139343"><ele>44.0</ele><time>2026-04-26T14:28:10.143Z</time></trkpt><trkpt lat="45.6516096" lon="11.7139699"><ele>44.0</ele><time>2026-04-26T14:28:12.143Z</time></trkpt><trkpt lat="45.6515359" lon="11.7139977"><ele>44.0</ele><time>2026-04-26T14:28:14.143Z</time></trkpt><trkpt lat="45.6514634" lon="11.7140104"><ele>44.0</ele><time>2026-04-26T14:28:16.143Z</time></trkpt><trkpt lat="45.6513921" lon="11.7140298"><ele>44.0</ele><time>2026-04-26T14:28:18.143Z</time></trkpt><trkpt lat="45.6513172" lon="11.7140359"><ele>44.0</ele><time>2026-04-26T14:28:20.143Z</time></trkpt><trkpt lat="45.6512486" lon="11.714037"><ele>44.0</ele><time>2026-04-26T14:28:22.143Z</time></trkpt><trkpt lat="45.6511819" lon="11.7140597"><ele>43.83333333333333</ele><time>2026-04-26T14:28:24.143Z</time></trkpt><trkpt lat="45.6511102" lon="11.7140511"><ele>43.666666666666664</ele><time>2026-04-26T14:28:26.143Z</time></trkpt><trkpt lat="45.6510429" lon="11.7140441"><ele>43.5</ele><time>2026-04-26T14:28:28.143Z</time></trkpt><trkpt lat="45.6509676" lon="11.7140667"><ele>43.333333333333336</ele><time>2026-04-26T14:28:30.143Z</time></trkpt><trkpt lat="45.6508834" lon="11.7140829"><ele>43.16666666666667</ele><time>2026-04-26T14:28:32.143Z</time></trkpt><trkpt lat="45.6508064" lon="11.714089"><ele>43.0</ele><time>2026-04-26T14:28:34.144Z</time></trkpt><trkpt lat="45.6507312" lon="11.7140976"><ele>43.0</ele><time>2026-04-26T14:28:36.144Z</time></trkpt><trkpt lat="45.6506616" lon="11.7141182"><ele>43.0</ele><time>2026-04-26T14:28:38.144Z</time></trkpt><trkpt lat="45.6505889" lon="11.7141367"><ele>43.0</ele><time>2026-04-26T14:28:40.144Z</time></trkpt><trkpt lat="45.6505119" lon="11.7141426"><ele>43.0</ele><time>2026-04-26T14:28:42.144Z</time></trkpt><trkpt lat="45.6504295" lon="11.7141403"><ele>43.0</ele><time>2026-04-26T14:28:44.144Z</time></trkpt><trkpt lat="45.6503482" lon="11.7141501"><ele>43.0</ele><time>2026-04-26T14:28:46.144Z</time></trkpt><trkpt lat="45.650265" lon="11.7141537"><ele>43.16666666666667</ele><time>2026-04-26T14:28:48.144Z</time></trkpt><trkpt lat="45.6501867" lon="11.7141677"><ele>43.333333333333336</ele><time>2026-04-26T14:28:50.144Z</time></trkpt><trkpt lat="45.6501171" lon="11.7141839"><ele>43.5</ele><time>2026-04-26T14:28:52.144Z</time></trkpt><trkpt lat="45.6500479" lon="11.7141921"><ele>43.666666666666664</ele><time>2026-04-26T14:28:54.144Z</time></trkpt><trkpt lat="45.6499729" lon="11.7141926"><ele>43.83333333333333</ele><time>2026-04-26T14:28:56.144Z</time></trkpt><trkpt lat="45.6498897" lon="11.7141972"><ele>44.0</ele><time>2026-04-26T14:28:58.144Z</time></trkpt><trkpt lat="45.6498089" lon="11.7142096"><ele>44.0</ele><time>2026-04-26T14:29:00.144Z</time></trkpt><trkpt lat="45.6497295" lon="11.7142156"><ele>44.0</ele><time>2026-04-26T14:29:02.144Z</time></trkpt><trkpt lat="45.6496513" lon="11.7142179"><ele>44.0</ele><time>2026-04-26T14:29:04.144Z</time></trkpt><trkpt lat="45.6495768" lon="11.7142232"><ele>44.0</ele><time>2026-04-26T14:29:06.144Z</time></trkpt><trkpt lat="45.6495004" lon="11.7142305"><ele>44.0</ele><time>2026-04-26T14:29:08.144Z</time></trkpt><trkpt lat="45.6494271" lon="11.7142405"><ele>44.0</ele><time>2026-04-26T14:29:10.144Z</time></trkpt><trkpt lat="45.6493553" lon="11.7142425"><ele>44.0</ele><time>2026-04-26T14:29:12.144Z</time></trkpt><trkpt lat="45.6492804" lon="11.7142528"><ele>44.0</ele><time>2026-04-26T14:29:14.144Z</time></trkpt><trkpt lat="45.649203" lon="11.7142599"><ele>44.0</ele><time>2026-04-26T14:29:16.144Z</time></trkpt><trkpt lat="45.649129" lon="11.7142599"><ele>44.0</ele><time>2026-04-26T14:29:18.143Z</time></trkpt><trkpt lat="45.6490601" lon="11.7142651"><ele>44.0</ele><time>2026-04-26T14:29:20.144Z</time></trkpt><trkpt lat="45.6489883" lon="11.7142689"><ele>44.0</ele><time>2026-04-26T14:29:22.144Z</time></trkpt><trkpt lat="45.6489123" lon="11.7142756"><ele>44.0</ele><time>2026-04-26T14:29:24.144Z</time></trkpt><trkpt lat="45.6488357" lon="11.714288"><ele>44.0</ele><time>2026-04-26T14:29:26.144Z</time></trkpt><trkpt lat="45.6487607" lon="11.7142951"><ele>44.0</ele><time>2026-04-26T14:29:28.144Z</time></trkpt><trkpt lat="45.6486886" lon="11.7142942"><ele>44.0</ele><time>2026-04-26T14:29:30.144Z</time></trkpt><trkpt lat="45.6486202" lon="11.7142973"><ele>44.0</ele><time>2026-04-26T14:29:32.144Z</time></trkpt><trkpt lat="45.64855" lon="11.7143036"><ele>44.0</ele><time>2026-04-26T14:29:34.144Z</time></trkpt><trkpt lat="45.6484739" lon="11.7143071"><ele>44.0</ele><time>2026-04-26T14:29:36.145Z</time></trkpt><trkpt lat="45.6483995" lon="11.7143082"><ele>44.0</ele><time>2026-04-26T14:29:38.143Z</time></trkpt><trkpt lat="45.6483254" lon="11.7143124"><ele>44.142857142857146</ele><time>2026-04-26T14:29:40.143Z</time></trkpt><trkpt lat="45.6482545" lon="11.7143186"><ele>44.285714285714285</ele><time>2026-04-26T14:29:42.145Z</time></trkpt><trkpt lat="45.6481855" lon="11.7143248"><ele>44.42857142857143</ele><time>2026-04-26T14:29:44.144Z</time></trkpt><trkpt lat="45.6481117" lon="11.7143225"><ele>44.57142857142857</ele><time>2026-04-26T14:29:46.145Z</time></trkpt><trkpt lat="45.6480355" lon="11.7143238"><ele>44.714285714285715</ele><time>2026-04-26T14:29:48.145Z</time></trkpt><trkpt lat="45.6479617" lon="11.7143349"><ele>44.857142857142854</ele><time>2026-04-26T14:29:50.145Z</time></trkpt><trkpt lat="45.6478847" lon="11.7143408"><ele>45.0</ele><time>2026-04-26T14:29:52.145Z</time></trkpt><trkpt lat="45.647808" lon="11.7143448"><ele>45.14285714285714</ele><time>2026-04-26T14:29:54.145Z</time></trkpt><trkpt lat="45.6477406" lon="11.7143524"><ele>45.28571428571429</ele><time>2026-04-26T14:29:56.145Z</time></trkpt><trkpt lat="45.6476649" lon="11.7143629"><ele>45.42857142857143</ele><time>2026-04-26T14:29:58.145Z</time></trkpt><trkpt lat="45.6475889" lon="11.7143564"><ele>45.57142857142857</ele><time>2026-04-26T14:30:00.145Z</time></trkpt><trkpt lat="45.6475175" lon="11.7143485"><ele>45.71428571428571</ele><time>2026-04-26T14:30:02.144Z</time></trkpt><trkpt lat="45.6474449" lon="11.7143495"><ele>45.85714285714286</ele><time>2026-04-26T14:30:04.144Z</time></trkpt><trkpt lat="45.6473734" lon="11.714362"><ele>46.0</ele><time>2026-04-26T14:30:06.145Z</time></trkpt><trkpt lat="45.6473059" lon="11.7143807"><ele>46.0</ele><time>2026-04-26T14:30:08.145Z</time></trkpt><trkpt lat="45.647238" lon="11.7143803"><ele>46.0</ele><time>2026-04-26T14:30:10.145Z</time></trkpt><trkpt lat="45.6471632" lon="11.7143877"><ele>46.0</ele><time>2026-04-26T14:30:12.145Z</time></trkpt><trkpt lat="45.647091" lon="11.7143656"><ele>46.0</ele><time>2026-04-26T14:30:14.144Z</time></trkpt><trkpt lat="45.6470167" lon="11.714365"><ele>46.0</ele><time>2026-04-26T14:30:16.145Z</time></trkpt><trkpt lat="45.6469433" lon="11.7143745"><ele>46.0</ele><time>2026-04-26T14:30:18.145Z</time></trkpt><trkpt lat="45.6468632" lon="11.7143751"><ele>46.0</ele><time>2026-04-26T14:30:20.144Z</time></trkpt><trkpt lat="45.6467855" lon="11.7143742"><ele>46.142857142857146</ele><time>2026-04-26T14:30:22.145Z</time></trkpt><trkpt lat="45.6467165" lon="11.7143583"><ele>46.285714285714285</ele><time>2026-04-26T14:30:24.144Z</time></trkpt><trkpt lat="45.6466426" lon="11.7143427"><ele>46.42857142857143</ele><time>2026-04-26T14:30:26.145Z</time></trkpt><trkpt lat="45.6465697" lon="11.7143475"><ele>46.57142857142857</ele><time>2026-04-26T14:30:28.145Z</time></trkpt><trkpt lat="45.6464971" lon="11.7143469"><ele>46.71428571428571</ele><time>2026-04-26T14:30:30.145Z</time></trkpt><trkpt lat="45.6464224" lon="11.7143315"><ele>46.857142857142854</ele><time>2026-04-26T14:30:32.144Z</time></trkpt><trkpt lat="45.6463481" lon="11.7143026"><ele>47.0</ele><time>2026-04-26T14:30:34.145Z</time></trkpt><trkpt lat="45.6462775" lon="11.7142813"><ele>47.0</ele><time>2026-04-26T14:30:36.145Z</time></trkpt><trkpt lat="45.6462033" lon="11.71427"><ele>47.0</ele><time>2026-04-26T14:30:38.145Z</time></trkpt><trkpt lat="45.6461321" lon="11.7142625"><ele>47.0</ele><time>2026-04-26T14:30:40.145Z</time></trkpt><trkpt lat="45.6460581" lon="11.7142514"><ele>47.0</ele><time>2026-04-26T14:30:42.145Z</time></trkpt><trkpt lat="45.6459848" lon="11.7142429"><ele>47.0</ele><time>2026-04-26T14:30:44.144Z</time></trkpt><trkpt lat="45.6459088" lon="11.7142264"><ele>47.0</ele><time>2026-04-26T14:30:46.146Z</time></trkpt><trkpt lat="45.6458326" lon="11.7142108"><ele>47.0</ele><time>2026-04-26T14:30:48.146Z</time></trkpt><trkpt lat="45.645759" lon="11.7141995"><ele>46.57142857142857</ele><time>2026-04-26T14:30:50.146Z</time></trkpt><trkpt lat="45.6456912" lon="11.7141686"><ele>46.14285714285714</ele><time>2026-04-26T14:30:52.145Z</time></trkpt><trkpt lat="45.6456296" lon="11.7141432"><ele>45.714285714285715</ele><time>2026-04-26T14:30:54.146Z</time></trkpt><trkpt lat="45.6455634" lon="11.7141178"><ele>45.285714285714285</ele><time>2026-04-26T14:30:56.146Z</time></trkpt><trkpt lat="45.6454932" lon="11.7141047"><ele>44.857142857142854</ele><time>2026-04-26T14:30:58.146Z</time></trkpt><trkpt lat="45.6454287" lon="11.7140865"><ele>44.42857142857143</ele><time>2026-04-26T14:31:00.146Z</time></trkpt><trkpt lat="45.6453565" lon="11.7140626"><ele>44.0</ele><time>2026-04-26T14:31:02.146Z</time></trkpt><trkpt lat="45.6452888" lon="11.7140339"><ele>43.714285714285715</ele><time>2026-04-26T14:31:04.146Z</time></trkpt><trkpt lat="45.6452167" lon="11.7140132"><ele>43.42857142857143</ele><time>2026-04-26T14:31:06.146Z</time></trkpt><trkpt lat="45.6451459" lon="11.7139859"><ele>43.14285714285714</ele><time>2026-04-26T14:31:08.146Z</time></trkpt><trkpt lat="45.6450801" lon="11.7139626"><ele>42.85714285714286</ele><time>2026-04-26T14:31:10.146Z</time></trkpt><trkpt lat="45.645011" lon="11.7139434"><ele>42.57142857142857</ele><time>2026-04-26T14:31:12.146Z</time></trkpt><trkpt lat="45.6449419" lon="11.7139186"><ele>42.285714285714285</ele><time>2026-04-26T14:31:14.146Z</time></trkpt><trkpt lat="45.6448738" lon="11.7138989"><ele>42.0</ele><time>2026-04-26T14:31:16.146Z</time></trkpt><trkpt lat="45.6448076" lon="11.7138736"><ele>42.0</ele><time>2026-04-26T14:31:18.146Z</time></trkpt><trkpt lat="45.6447401" lon="11.713871"><ele>42.0</ele><time>2026-04-26T14:31:20.146Z</time></trkpt><trkpt lat="45.6446556" lon="11.7139068"><ele>42.0</ele><time>2026-04-26T14:31:23.145Z</time></trkpt><trkpt lat="45.6445898" lon="11.7139269"><ele>42.0</ele><time>2026-04-26T14:31:25.146Z</time></trkpt><trkpt lat="45.6445114" lon="11.7139395"><ele>42.0</ele><time>2026-04-26T14:31:27.146Z</time></trkpt><trkpt lat="45.6444223" lon="11.7139343"><ele>42.0</ele><time>2026-04-26T14:31:29.146Z</time></trkpt><trkpt lat="45.6443308" lon="11.7139059"><ele>41.833333333333336</ele><time>2026-04-26T14:31:31.146Z</time></trkpt><trkpt lat="45.6442508" lon="11.7138762"><ele>41.666666666666664</ele><time>2026-04-26T14:31:33.146Z</time></trkpt><trkpt lat="45.6441642" lon="11.7138455"><ele>41.5</ele><time>2026-04-26T14:31:35.146Z</time></trkpt><trkpt lat="45.6440877" lon="11.7138249"><ele>41.33333333333333</ele><time>2026-04-26T14:31:37.146Z</time></trkpt><trkpt lat="45.6440109" lon="11.7138088"><ele>41.166666666666664</ele><time>2026-04-26T14:31:39.145Z</time></trkpt><trkpt lat="45.6439278" lon="11.7137918"><ele>41.0</ele><time>2026-04-26T14:31:41.145Z</time></trkpt><trkpt lat="45.6438421" lon="11.7137644"><ele>41.0</ele><time>2026-04-26T14:31:43.146Z</time></trkpt><trkpt lat="45.6437609" lon="11.7137424"><ele>41.0</ele><time>2026-04-26T14:31:45.146Z</time></trkpt><trkpt lat="45.6436905" lon="11.7137154"><ele>41.0</ele><time>2026-04-26T14:31:47.146Z</time></trkpt><trkpt lat="45.6436234" lon="11.7136887"><ele>41.0</ele><time>2026-04-26T14:31:49.146Z</time></trkpt><trkpt lat="45.6435541" lon="11.713673"><ele>41.0</ele><time>2026-04-26T14:31:51.147Z</time></trkpt><trkpt lat="45.6434665" lon="11.7136435"><ele>41.0</ele><time>2026-04-26T14:31:53.147Z</time></trkpt><trkpt lat="45.6433896" lon="11.7136199"><ele>41.14285714285714</ele><time>2026-04-26T14:31:55.147Z</time></trkpt><trkpt lat="45.6433117" lon="11.7136037"><ele>41.285714285714285</ele><time>2026-04-26T14:31:57.147Z</time></trkpt><trkpt lat="45.6432385" lon="11.7135883"><ele>41.42857142857143</ele><time>2026-04-26T14:31:59.147Z</time></trkpt><trkpt lat="45.6431699" lon="11.7135789"><ele>41.57142857142857</ele><time>2026-04-26T14:32:01.147Z</time></trkpt><trkpt lat="45.6431035" lon="11.7135671"><ele>41.714285714285715</ele><time>2026-04-26T14:32:03.147Z</time></trkpt><trkpt lat="45.6430256" lon="11.7135538"><ele>41.857142857142854</ele><time>2026-04-26T14:32:05.147Z</time></trkpt><trkpt lat="45.6429471" lon="11.7135526"><ele>42.0</ele><time>2026-04-26T14:32:07.147Z</time></trkpt><trkpt lat="45.6428655" lon="11.7135499"><ele>42.142857142857146</ele><time>2026-04-26T14:32:09.147Z</time></trkpt><trkpt lat="45.6427887" lon="11.7135578"><ele>42.285714285714285</ele><time>2026-04-26T14:32:11.146Z</time></trkpt><trkpt lat="45.6427237" lon="11.7135605"><ele>42.42857142857143</ele><time>2026-04-26T14:32:14.147Z</time></trkpt><trkpt lat="45.6426488" lon="11.7135605"><ele>42.57142857142857</ele><time>2026-04-26T14:32:18.147Z</time></trkpt><trkpt lat="45.6425605" lon="11.7135536"><ele>42.714285714285715</ele><time>2026-04-26T14:32:21.146Z</time></trkpt><trkpt lat="45.6424969" lon="11.7135468"><ele>42.85714285714286</ele><time>2026-04-26T14:32:23.147Z</time></trkpt><trkpt lat="45.6424322" lon="11.7135607"><ele>43.0</ele><time>2026-04-26T14:32:25.147Z</time></trkpt><trkpt lat="45.6423683" lon="11.7136158"><ele>43.0</ele><time>2026-04-26T14:32:27.147Z</time></trkpt><trkpt lat="45.6423068" lon="11.7136975"><ele>43.0</ele><time>2026-04-26T14:32:29.147Z</time></trkpt><trkpt lat="45.6422318" lon="11.7137937"><ele>43.0</ele><time>2026-04-26T14:32:31.146Z</time></trkpt><trkpt lat="45.6421548" lon="11.7138528"><ele>43.0</ele><time>2026-04-26T14:32:33.147Z</time></trkpt><trkpt lat="45.6420746" lon="11.7138548"><ele>43.0</ele><time>2026-04-26T14:32:35.147Z</time></trkpt><trkpt lat="45.6419956" lon="11.7138358"><ele>43.0</ele><time>2026-04-26T14:32:37.147Z</time></trkpt><trkpt lat="45.6419138" lon="11.7138238"><ele>43.0</ele><time>2026-04-26T14:32:39.147Z</time></trkpt><trkpt lat="45.6418283" lon="11.7138142"><ele>43.0</ele><time>2026-04-26T14:32:41.146Z</time></trkpt><trkpt lat="45.6417467" lon="11.7138086"><ele>43.0</ele><time>2026-04-26T14:32:43.147Z</time></trkpt><trkpt lat="45.6416597" lon="11.7137981"><ele>43.0</ele><time>2026-04-26T14:32:45.147Z</time></trkpt><trkpt lat="45.6415699" lon="11.7137971"><ele>43.0</ele><time>2026-04-26T14:32:47.147Z</time></trkpt><trkpt lat="45.641482" lon="11.713799"><ele>43.0</ele><time>2026-04-26T14:32:49.147Z</time></trkpt><trkpt lat="45.641392" lon="11.7138167"><ele>43.0</ele><time>2026-04-26T14:32:51.147Z</time></trkpt><trkpt lat="45.6413128" lon="11.7138407"><ele>43.0</ele><time>2026-04-26T14:32:53.147Z</time></trkpt><trkpt lat="45.6412443" lon="11.7138816"><ele>43.0</ele><time>2026-04-26T14:32:55.148Z</time></trkpt><trkpt lat="45.6411847" lon="11.7139364"><ele>43.0</ele><time>2026-04-26T14:32:57.148Z</time></trkpt><trkpt lat="45.6411306" lon="11.7140001"><ele>43.0</ele><time>2026-04-26T14:32:59.147Z</time></trkpt><trkpt lat="45.6410716" lon="11.7140708"><ele>43.0</ele><time>2026-04-26T14:33:01.148Z</time></trkpt><trkpt lat="45.6410097" lon="11.7141417"><ele>43.0</ele><time>2026-04-26T14:33:03.148Z</time></trkpt><trkpt lat="45.6409526" lon="11.7142269"><ele>43.0</ele><time>2026-04-26T14:33:05.147Z</time></trkpt><trkpt lat="45.6409044" lon="11.7143161"><ele>43.0</ele><time>2026-04-26T14:33:07.147Z</time></trkpt><trkpt lat="45.640862" lon="11.7144179"><ele>43.0</ele><time>2026-04-26T14:33:09.148Z</time></trkpt><trkpt lat="45.6408141" lon="11.7145278"><ele>43.0</ele><time>2026-04-26T14:33:11.148Z</time></trkpt><trkpt lat="45.6407644" lon="11.714625"><ele>43.0</ele><time>2026-04-26T14:33:13.147Z</time></trkpt><trkpt lat="45.6407176" lon="11.7147084"><ele>43.0</ele><time>2026-04-26T14:33:15.148Z</time></trkpt><trkpt lat="45.6406766" lon="11.7147943"><ele>43.0</ele><time>2026-04-26T14:33:17.148Z</time></trkpt><trkpt lat="45.640636" lon="11.7148895"><ele>43.0</ele><time>2026-04-26T14:33:19.148Z</time></trkpt><trkpt lat="45.6405954" lon="11.7149929"><ele>43.0</ele><time>2026-04-26T14:33:21.148Z</time></trkpt><trkpt lat="45.6405529" lon="11.7150963"><ele>43.0</ele><time>2026-04-26T14:33:23.148Z</time></trkpt><trkpt lat="45.6405017" lon="11.7151981"><ele>43.0</ele><time>2026-04-26T14:33:25.148Z</time></trkpt><trkpt lat="45.6404464" lon="11.7153117"><ele>43.0</ele><time>2026-04-26T14:33:27.147Z</time></trkpt><trkpt lat="45.6403905" lon="11.715418"><ele>43.0</ele><time>2026-04-26T14:33:29.148Z</time></trkpt><trkpt lat="45.6403371" lon="11.7155049"><ele>43.0</ele><time>2026-04-26T14:33:31.148Z</time></trkpt><trkpt lat="45.6402919" lon="11.7155969"><ele>43.0</ele><time>2026-04-26T14:33:33.147Z</time></trkpt><trkpt lat="45.640252" lon="11.7157005"><ele>43.0</ele><time>2026-04-26T14:33:35.148Z</time></trkpt><trkpt lat="45.6402013" lon="11.7158072"><ele>43.0</ele><time>2026-04-26T14:33:37.148Z</time></trkpt><trkpt lat="45.6401335" lon="11.7158909"><ele>43.0</ele><time>2026-04-26T14:33:39.148Z</time></trkpt><trkpt lat="45.6400546" lon="11.7159493"><ele>43.0</ele><time>2026-04-26T14:33:41.148Z</time></trkpt><trkpt lat="45.6399611" lon="11.7159601"><ele>43.0</ele><time>2026-04-26T14:33:43.148Z</time></trkpt><trkpt lat="45.6398838" lon="11.7159539"><ele>43.0</ele><time>2026-04-26T14:33:45.148Z</time></trkpt><trkpt lat="45.6398197" lon="11.7159567"><ele>43.0</ele><time>2026-04-26T14:33:47.148Z</time></trkpt><trkpt lat="45.6397504" lon="11.7159827"><ele>43.0</ele><time>2026-04-26T14:33:49.148Z</time></trkpt><trkpt lat="45.6396852" lon="11.7160401"><ele>43.2</ele><time>2026-04-26T14:33:51.148Z</time></trkpt><trkpt lat="45.6396244" lon="11.716134"><ele>43.4</ele><time>2026-04-26T14:33:53.148Z</time></trkpt><trkpt lat="45.6395502" lon="11.7162654"><ele>43.6</ele><time>2026-04-26T14:33:55.148Z</time></trkpt><trkpt lat="45.6395057" lon="11.7163371"><ele>43.800000000000004</ele><time>2026-04-26T14:33:56.147Z</time></trkpt><trkpt lat="45.6394601" lon="11.7164103"><ele>44.0</ele><time>2026-04-26T14:33:57.149Z</time></trkpt><trkpt lat="45.6393846" lon="11.7165413"><ele>44.0</ele><time>2026-04-26T14:33:59.149Z</time></trkpt><trkpt lat="45.6393187" lon="11.7166599"><ele>44.0</ele><time>2026-04-26T14:34:01.149Z</time></trkpt><trkpt lat="45.6392615" lon="11.7167704"><ele>44.0</ele><time>2026-04-26T14:34:03.148Z</time></trkpt><trkpt lat="45.6392105" lon="11.7168898"><ele>44.0</ele><time>2026-04-26T14:34:05.149Z</time></trkpt><trkpt lat="45.6391547" lon="11.7170164"><ele>44.0</ele><time>2026-04-26T14:34:07.149Z</time></trkpt><trkpt lat="45.6391034" lon="11.7171504"><ele>43.800000000000004</ele><time>2026-04-26T14:34:09.149Z</time></trkpt><trkpt lat="45.6390535" lon="11.7172707"><ele>43.6</ele><time>2026-04-26T14:34:11.149Z</time></trkpt><trkpt lat="45.6390037" lon="11.7173816"><ele>43.4</ele><time>2026-04-26T14:34:13.149Z</time></trkpt><trkpt lat="45.6389472" lon="11.7174917"><ele>43.2</ele><time>2026-04-26T14:34:15.149Z</time></trkpt><trkpt lat="45.6388923" lon="11.7176064"><ele>43.0</ele><time>2026-04-26T14:34:17.149Z</time></trkpt><trkpt lat="45.6388399" lon="11.7177197"><ele>42.8</ele><time>2026-04-26T14:34:19.149Z</time></trkpt><trkpt lat="45.6387833" lon="11.717829"><ele>42.599999999999994</ele><time>2026-04-26T14:34:21.149Z</time></trkpt><trkpt lat="45.6387249" lon="11.7179403"><ele>42.400000000000006</ele><time>2026-04-26T14:34:23.149Z</time></trkpt><trkpt lat="45.6386721" lon="11.7180669"><ele>42.2</ele><time>2026-04-26T14:34:25.149Z</time></trkpt><trkpt lat="45.6386188" lon="11.7181847"><ele>42.0</ele><time>2026-04-26T14:34:27.149Z</time></trkpt><trkpt lat="45.6385653" lon="11.718297"><ele>41.8</ele><time>2026-04-26T14:34:29.149Z</time></trkpt><trkpt lat="45.638509" lon="11.7184123"><ele>41.6</ele><time>2026-04-26T14:34:31.149Z</time></trkpt><trkpt lat="45.6384494" lon="11.7185406"><ele>41.4</ele><time>2026-04-26T14:34:33.148Z</time></trkpt><trkpt lat="45.6383971" lon="11.7186741"><ele>41.199999999999996</ele><time>2026-04-26T14:34:35.149Z</time></trkpt><trkpt lat="45.6383466" lon="11.7187996"><ele>41.0</ele><time>2026-04-26T14:34:37.149Z</time></trkpt><trkpt lat="45.6382961" lon="11.7189262"><ele>40.8</ele><time>2026-04-26T14:34:39.149Z</time></trkpt><trkpt lat="45.6382443" lon="11.7190505"><ele>40.599999999999994</ele><time>2026-04-26T14:34:41.149Z</time></trkpt><trkpt lat="45.6381847" lon="11.7191666"><ele>40.4</ele><time>2026-04-26T14:34:43.149Z</time></trkpt><trkpt lat="45.6381222" lon="11.7192759"><ele>40.2</ele><time>2026-04-26T14:34:45.149Z</time></trkpt><trkpt lat="45.638069" lon="11.7193933"><ele>40.0</ele><time>2026-04-26T14:34:47.149Z</time></trkpt><trkpt lat="45.6380229" lon="11.719513"><ele>40.0</ele><time>2026-04-26T14:34:49.149Z</time></trkpt><trkpt lat="45.6379721" lon="11.7196465"><ele>40.0</ele><time>2026-04-26T14:34:51.149Z</time></trkpt><trkpt lat="45.6379121" lon="11.7197698"><ele>40.0</ele><time>2026-04-26T14:34:53.148Z</time></trkpt><trkpt lat="45.6378576" lon="11.7198928"><ele>40.0</ele><time>2026-04-26T14:34:55.149Z</time></trkpt><trkpt lat="45.6378086" lon="11.7200191"><ele>40.0</ele><time>2026-04-26T14:34:57.149Z</time></trkpt><trkpt lat="45.6377599" lon="11.7201337"><ele>40.4</ele><time>2026-04-26T14:34:59.149Z</time></trkpt><trkpt lat="45.6377063" lon="11.7202458"><ele>40.8</ele><time>2026-04-26T14:35:01.149Z</time></trkpt><trkpt lat="45.6376576" lon="11.7203656"><ele>41.2</ele><time>2026-04-26T14:35:03.149Z</time></trkpt><trkpt lat="45.6376097" lon="11.7204871"><ele>41.6</ele><time>2026-04-26T14:35:05.15Z</time></trkpt><trkpt lat="45.6375607" lon="11.7206054"><ele>42.0</ele><time>2026-04-26T14:35:07.15Z</time></trkpt><trkpt lat="45.6375115" lon="11.720717"><ele>42.0</ele><time>2026-04-26T14:35:09.149Z</time></trkpt><trkpt lat="45.6374546" lon="11.7208215"><ele>42.0</ele><time>2026-04-26T14:35:11.15Z</time></trkpt><trkpt lat="45.6374048" lon="11.7209313"><ele>42.0</ele><time>2026-04-26T14:35:13.15Z</time></trkpt><trkpt lat="45.637351" lon="11.7210276"><ele>42.0</ele><time>2026-04-26T14:35:15.149Z</time></trkpt><trkpt lat="45.6372908" lon="11.72112"><ele>42.0</ele><time>2026-04-26T14:35:17.15Z</time></trkpt><trkpt lat="45.6372397" lon="11.7212127"><ele>42.0</ele><time>2026-04-26T14:35:19.15Z</time></trkpt><trkpt lat="45.6371698" lon="11.7212936"><ele>41.6</ele><time>2026-04-26T14:35:21.15Z</time></trkpt><trkpt lat="45.6370942" lon="11.7213839"><ele>41.2</ele><time>2026-04-26T14:35:23.15Z</time></trkpt><trkpt lat="45.637012" lon="11.7214672"><ele>40.8</ele><time>2026-04-26T14:35:25.15Z</time></trkpt><trkpt lat="45.636932" lon="11.7215348"><ele>40.4</ele><time>2026-04-26T14:35:27.149Z</time></trkpt><trkpt lat="45.6368578" lon="11.7216112"><ele>40.0</ele><time>2026-04-26T14:35:29.15Z</time></trkpt><trkpt lat="45.6367836" lon="11.7217063"><ele>40.2</ele><time>2026-04-26T14:35:31.15Z</time></trkpt><trkpt lat="45.6367124" lon="11.7217881"><ele>40.4</ele><time>2026-04-26T14:35:33.15Z</time></trkpt><trkpt lat="45.6366287" lon="11.7218738"><ele>40.599999999999994</ele><time>2026-04-26T14:35:35.152Z</time></trkpt><trkpt lat="45.6365369" lon="11.7219557"><ele>40.8</ele><time>2026-04-26T14:35:37.15Z</time></trkpt><trkpt lat="45.6364469" lon="11.7220109"><ele>41.0</ele><time>2026-04-26T14:35:39.149Z</time></trkpt><trkpt lat="45.6363496" lon="11.7220633"><ele>41.0</ele><time>2026-04-26T14:35:41.15Z</time></trkpt><trkpt lat="45.6362485" lon="11.7221249"><ele>41.0</ele><time>2026-04-26T14:35:43.15Z</time></trkpt><trkpt lat="45.6361528" lon="11.7222067"><ele>41.0</ele><time>2026-04-26T14:35:45.149Z</time></trkpt><trkpt lat="45.6360688" lon="11.7222974"><ele>41.0</ele><time>2026-04-26T14:35:47.15Z</time></trkpt><trkpt lat="45.6359925" lon="11.7223832"><ele>41.0</ele><time>2026-04-26T14:35:49.15Z</time></trkpt><trkpt lat="45.6359197" lon="11.722468"><ele>41.83333333333333</ele><time>2026-04-26T14:35:51.15Z</time></trkpt><trkpt lat="45.6358567" lon="11.7225377"><ele>42.666666666666664</ele><time>2026-04-26T14:35:53.15Z</time></trkpt><trkpt lat="45.6357931" lon="11.7226018"><ele>43.5</ele><time>2026-04-26T14:35:55.15Z</time></trkpt><trkpt lat="45.6357322" lon="11.7226501"><ele>44.333333333333336</ele><time>2026-04-26T14:35:57.15Z</time></trkpt><trkpt lat="45.6356559" lon="11.7227057"><ele>45.16666666666667</ele><time>2026-04-26T14:35:59.15Z</time></trkpt><trkpt lat="45.635576" lon="11.7227681"><ele>46.0</ele><time>2026-04-26T14:36:01.15Z</time></trkpt><trkpt lat="45.6355013" lon="11.7228288"><ele>46.0</ele><time>2026-04-26T14:36:03.15Z</time></trkpt><trkpt lat="45.6354243" lon="11.7228768"><ele>46.0</ele><time>2026-04-26T14:36:05.151Z</time></trkpt><trkpt lat="45.6353453" lon="11.7229217"><ele>46.0</ele><time>2026-04-26T14:36:07.151Z</time></trkpt><trkpt lat="45.6352738" lon="11.7229445"><ele>46.0</ele><time>2026-04-26T14:36:09.15Z</time></trkpt><trkpt lat="45.6352148" lon="11.7229892"><ele>46.0</ele><time>2026-04-26T14:36:11.151Z</time></trkpt><trkpt lat="45.6351392" lon="11.7230564"><ele>46.0</ele><time>2026-04-26T14:36:13.151Z</time></trkpt><trkpt lat="45.6350636" lon="11.7231216"><ele>46.0</ele><time>2026-04-26T14:36:15.15Z</time></trkpt><trkpt lat="45.6349865" lon="11.7232114"><ele>46.0</ele><time>2026-04-26T14:36:17.151Z</time></trkpt><trkpt lat="45.6349261" lon="11.7232823"><ele>46.0</ele><time>2026-04-26T14:36:19.15Z</time></trkpt><trkpt lat="45.6348558" lon="11.7233325"><ele>46.0</ele><time>2026-04-26T14:36:21.15Z</time></trkpt><trkpt lat="45.6347835" lon="11.7234079"><ele>46.0</ele><time>2026-04-26T14:36:23.151Z</time></trkpt><trkpt lat="45.6347143" lon="11.7234483"><ele>46.0</ele><time>2026-04-26T14:36:25.151Z</time></trkpt><trkpt lat="45.6346402" lon="11.723481"><ele>46.0</ele><time>2026-04-26T14:36:27.151Z</time></trkpt><trkpt lat="45.6345669" lon="11.7234978"><ele>46.0</ele><time>2026-04-26T14:36:29.151Z</time></trkpt><trkpt lat="45.6344855" lon="11.7235213"><ele>46.0</ele><time>2026-04-26T14:36:32.151Z</time></trkpt><trkpt lat="45.6344215" lon="11.7235483"><ele>46.0</ele><time>2026-04-26T14:36:34.151Z</time></trkpt><trkpt lat="45.6343514" lon="11.7235615"><ele>46.0</ele><time>2026-04-26T14:36:36.151Z</time></trkpt><trkpt lat="45.6342798" lon="11.7235706"><ele>46.0</ele><time>2026-04-26T14:36:38.15Z</time></trkpt><trkpt lat="45.6342126" lon="11.7235739"><ele>46.0</ele><time>2026-04-26T14:36:40.151Z</time></trkpt><trkpt lat="45.6341483" lon="11.7236164"><ele>45.5</ele><time>2026-04-26T14:36:43.151Z</time></trkpt><trkpt lat="45.6341266" lon="11.7237267"><ele>45.0</ele><time>2026-04-26T14:36:46.15Z</time></trkpt><trkpt lat="45.6341009" lon="11.7238248"><ele>44.5</ele><time>2026-04-26T14:36:49.151Z</time></trkpt><trkpt lat="45.6340778" lon="11.7239296"><ele>44.0</ele><time>2026-04-26T14:36:52.15Z</time></trkpt><trkpt lat="45.6340784" lon="11.7240328"><ele>43.5</ele><time>2026-04-26T14:36:55.151Z</time></trkpt><trkpt lat="45.6340696" lon="11.7241527"><ele>43.0</ele><time>2026-04-26T14:36:58.15Z</time></trkpt><trkpt lat="45.6340575" lon="11.7242788"><ele>43.0</ele><time>2026-04-26T14:37:01.151Z</time></trkpt><trkpt lat="45.634056" lon="11.7243697"><ele>43.0</ele><time>2026-04-26T14:37:03.151Z</time></trkpt><trkpt lat="45.6340425" lon="11.72446"><ele>43.0</ele><time>2026-04-26T14:37:05.151Z</time></trkpt><trkpt lat="45.6340253" lon="11.724562"><ele>43.0</ele><time>2026-04-26T14:37:07.151Z</time></trkpt><trkpt lat="45.6340068" lon="11.724665"><ele>43.0</ele><time>2026-04-26T14:37:09.151Z</time></trkpt><trkpt lat="45.6339726" lon="11.7247839"><ele>43.0</ele><time>2026-04-26T14:37:11.152Z</time></trkpt><trkpt lat="45.6339457" lon="11.7248988"><ele>43.0</ele><time>2026-04-26T14:37:13.152Z</time></trkpt><trkpt lat="45.6339261" lon="11.7250252"><ele>43.0</ele><time>2026-04-26T14:37:15.152Z</time></trkpt><trkpt lat="45.6338948" lon="11.7251545"><ele>43.0</ele><time>2026-04-26T14:37:17.152Z</time></trkpt><trkpt lat="45.6338675" lon="11.7252891"><ele>43.0</ele><time>2026-04-26T14:37:19.152Z</time></trkpt><trkpt lat="45.6338377" lon="11.7254122"><ele>43.0</ele><time>2026-04-26T14:37:21.152Z</time></trkpt><trkpt lat="45.6338121" lon="11.7255278"><ele>43.0</ele><time>2026-04-26T14:37:23.152Z</time></trkpt><trkpt lat="45.6337735" lon="11.7256432"><ele>43.0</ele><time>2026-04-26T14:37:25.152Z</time></trkpt><trkpt lat="45.6337414" lon="11.7257513"><ele>43.0</ele><time>2026-04-26T14:37:27.151Z</time></trkpt><trkpt lat="45.6337024" lon="11.7258359"><ele>43.0</ele><time>2026-04-26T14:37:29.152Z</time></trkpt><trkpt lat="45.6336565" lon="11.7259272"><ele>43.0</ele><time>2026-04-26T14:37:31.152Z</time></trkpt><trkpt lat="45.6336093" lon="11.7260344"><ele>43.0</ele><time>2026-04-26T14:37:33.152Z</time></trkpt><trkpt lat="45.6335579" lon="11.7261429"><ele>42.66666666666667</ele><time>2026-04-26T14:37:35.152Z</time></trkpt><trkpt lat="45.6334981" lon="11.7262285"><ele>42.333333333333336</ele><time>2026-04-26T14:37:37.152Z</time></trkpt><trkpt lat="45.6334403" lon="11.7263029"><ele>42.0</ele><time>2026-04-26T14:37:39.152Z</time></trkpt><trkpt lat="45.6333978" lon="11.7263892"><ele>41.666666666666664</ele><time>2026-04-26T14:37:41.152Z</time></trkpt><trkpt lat="45.6333528" lon="11.7264706"><ele>41.33333333333333</ele><time>2026-04-26T14:37:43.152Z</time></trkpt><trkpt lat="45.6333067" lon="11.7265566"><ele>41.0</ele><time>2026-04-26T14:37:45.152Z</time></trkpt><trkpt lat="45.6332679" lon="11.7266564"><ele>41.0</ele><time>2026-04-26T14:37:47.152Z</time></trkpt><trkpt lat="45.633216" lon="11.726749"><ele>41.0</ele><time>2026-04-26T14:37:49.152Z</time></trkpt><trkpt lat="45.633157" lon="11.7268298"><ele>41.0</ele><time>2026-04-26T14:37:51.152Z</time></trkpt><trkpt lat="45.6331055" lon="11.7269143"><ele>41.0</ele><time>2026-04-26T14:37:53.152Z</time></trkpt><trkpt lat="45.6330537" lon="11.7269958"><ele>41.0</ele><time>2026-04-26T14:37:55.152Z</time></trkpt><trkpt lat="45.6330026" lon="11.7270762"><ele>41.0</ele><time>2026-04-26T14:37:57.151Z</time></trkpt><trkpt lat="45.6329444" lon="11.7271542"><ele>41.0</ele><time>2026-04-26T14:37:59.152Z</time></trkpt><trkpt lat="45.6328861" lon="11.7272373"><ele>41.0</ele><time>2026-04-26T14:38:01.152Z</time></trkpt><trkpt lat="45.6328355" lon="11.7273287"><ele>41.0</ele><time>2026-04-26T14:38:03.151Z</time></trkpt><trkpt lat="45.6327852" lon="11.7274165"><ele>41.0</ele><time>2026-04-26T14:38:05.152Z</time></trkpt><trkpt lat="45.6327286" lon="11.7274989"><ele>41.0</ele><time>2026-04-26T14:38:07.152Z</time></trkpt><trkpt lat="45.6326775" lon="11.7275883"><ele>41.0</ele><time>2026-04-26T14:38:09.152Z</time></trkpt><trkpt lat="45.6326285" lon="11.7276806"><ele>41.0</ele><time>2026-04-26T14:38:11.152Z</time></trkpt><trkpt lat="45.6325761" lon="11.7277698"><ele>41.0</ele><time>2026-04-26T14:38:13.152Z</time></trkpt><trkpt lat="45.6325297" lon="11.7278648"><ele>41.0</ele><time>2026-04-26T14:38:15.153Z</time></trkpt><trkpt lat="45.6324805" lon="11.727947"><ele>41.0</ele><time>2026-04-26T14:38:17.153Z</time></trkpt><trkpt lat="45.6324316" lon="11.7280257"><ele>41.0</ele><time>2026-04-26T14:38:19.153Z</time></trkpt><trkpt lat="45.6323872" lon="11.7281042"><ele>41.0</ele><time>2026-04-26T14:38:21.153Z</time></trkpt><trkpt lat="45.6323618" lon="11.7282098"><ele>41.0</ele><time>2026-04-26T14:38:24.153Z</time></trkpt><trkpt lat="45.6324008" lon="11.7282948"><ele>41.0</ele><time>2026-04-26T14:38:27.153Z</time></trkpt><trkpt lat="45.6324713" lon="11.7283544"><ele>41.0</ele><time>2026-04-26T14:38:30.153Z</time></trkpt><trkpt lat="45.632528" lon="11.7284312"><ele>41.0</ele><time>2026-04-26T14:38:34.153Z</time></trkpt><trkpt lat="45.6325967" lon="11.7284922"><ele>41.0</ele><time>2026-04-26T14:38:38.153Z</time></trkpt><trkpt lat="45.6326498" lon="11.7285556"><ele>41.0</ele><time>2026-04-26T14:38:42.153Z</time></trkpt><trkpt lat="45.6327064" lon="11.7286316"><ele>41.14285714285714</ele><time>2026-04-26T14:38:45.153Z</time></trkpt><trkpt lat="45.6327612" lon="11.7286999"><ele>41.285714285714285</ele><time>2026-04-26T14:38:47.153Z</time></trkpt><trkpt lat="45.6328149" lon="11.728775"><ele>41.42857142857143</ele><time>2026-04-26T14:38:49.152Z</time></trkpt><trkpt lat="45.632841" lon="11.7288708"><ele>41.57142857142857</ele><time>2026-04-26T14:38:51.153Z</time></trkpt><trkpt lat="45.6328372" lon="11.7289665"><ele>41.714285714285715</ele><time>2026-04-26T14:38:53.152Z</time></trkpt><trkpt lat="45.6328156" lon="11.7290603"><ele>41.857142857142854</ele><time>2026-04-26T14:38:55.153Z</time></trkpt><trkpt lat="45.6327827" lon="11.7291724"><ele>42.0</ele><time>2026-04-26T14:38:58.153Z</time></trkpt><trkpt lat="45.6327587" lon="11.7292839"><ele>42.0</ele><time>2026-04-26T14:39:01.153Z</time></trkpt><trkpt lat="45.6327488" lon="11.7294078"><ele>42.0</ele><time>2026-04-26T14:39:04.153Z</time></trkpt><trkpt lat="45.6327188" lon="11.7295083"><ele>42.0</ele><time>2026-04-26T14:39:06.152Z</time></trkpt><trkpt lat="45.6326923" lon="11.7296179"><ele>42.0</ele><time>2026-04-26T14:39:08.153Z</time></trkpt><trkpt lat="45.6326883" lon="11.7297133"><ele>42.0</ele><time>2026-04-26T14:39:10.153Z</time></trkpt><trkpt lat="45.632746" lon="11.729826"><ele>42.0</ele><time>2026-04-26T14:39:13.153Z</time></trkpt><trkpt lat="45.6327737" lon="11.7299134"><ele>42.0</ele><time>2026-04-26T14:39:15.153Z</time></trkpt><trkpt lat="45.6327571" lon="11.7300103"><ele>42.0</ele><time>2026-04-26T14:39:18.153Z</time></trkpt><trkpt lat="45.6327154" lon="11.7300946"><ele>42.0</ele><time>2026-04-26T14:39:20.153Z</time></trkpt><trkpt lat="45.6326677" lon="11.7301643"><ele>42.0</ele><time>2026-04-26T14:39:22.153Z</time></trkpt><trkpt lat="45.6326013" lon="11.7302418"><ele>42.0</ele><time>2026-04-26T14:39:25.154Z</time></trkpt><trkpt lat="45.6325459" lon="11.7303007"><ele>42.0</ele><time>2026-04-26T14:39:28.154Z</time></trkpt><trkpt lat="45.6324986" lon="11.7303663"><ele>42.0</ele><time>2026-04-26T14:39:33.154Z</time></trkpt><trkpt lat="45.6324474" lon="11.7304303"><ele>41.0</ele><time>2026-04-26T14:39:38.154Z</time></trkpt><trkpt lat="45.6324083" lon="11.7305295"><ele>40.0</ele><time>2026-04-26T14:39:42.154Z</time></trkpt><trkpt lat="45.6323812" lon="11.7306224"><ele>39.0</ele><time>2026-04-26T14:39:45.154Z</time></trkpt><trkpt lat="45.6323272" lon="11.7306966"><ele>38.0</ele><time>2026-04-26T14:39:48.154Z</time></trkpt><trkpt lat="45.6322827" lon="11.7308009"><ele>37.0</ele><time>2026-04-26T14:39:52.154Z</time></trkpt><trkpt lat="45.6322131" lon="11.7308749"><ele>36.0</ele><time>2026-04-26T14:39:56.154Z</time></trkpt><trkpt lat="45.6321552" lon="11.7309829"><ele>35.666666666666664</ele><time>2026-04-26T14:39:59.154Z</time></trkpt><trkpt lat="45.6321084" lon="11.731075"><ele>35.333333333333336</ele><time>2026-04-26T14:40:02.154Z</time></trkpt><trkpt lat="45.6320576" lon="11.7311741"><ele>35.0</ele><time>2026-04-26T14:40:05.154Z</time></trkpt><trkpt lat="45.6320043" lon="11.7312611"><ele>34.66666666666667</ele><time>2026-04-26T14:40:07.154Z</time></trkpt><trkpt lat="45.6319565" lon="11.7313528"><ele>34.333333333333336</ele><time>2026-04-26T14:40:09.154Z</time></trkpt><trkpt lat="45.6319276" lon="11.7314421"><ele>34.0</ele><time>2026-04-26T14:40:11.154Z</time></trkpt><trkpt lat="45.6318694" lon="11.7315313"><ele>35.5</ele><time>2026-04-26T14:40:14.154Z</time></trkpt><trkpt lat="45.6318081" lon="11.731586"><ele>37.0</ele><time>2026-04-26T14:40:16.153Z</time></trkpt><trkpt lat="45.6317313" lon="11.7316689"><ele>38.5</ele><time>2026-04-26T14:40:19.154Z</time></trkpt><trkpt lat="45.6316795" lon="11.7317376"><ele>40.0</ele><time>2026-04-26T14:40:21.153Z</time></trkpt><trkpt lat="45.6316243" lon="11.7318022"><ele>41.5</ele><time>2026-04-26T14:40:23.154Z</time></trkpt><trkpt lat="45.6315657" lon="11.73188"><ele>43.0</ele><time>2026-04-26T14:40:25.154Z</time></trkpt><trkpt lat="45.6315134" lon="11.7319748"><ele>43.0</ele><time>2026-04-26T14:40:27.154Z</time></trkpt><trkpt lat="45.6314753" lon="11.7320781"><ele>43.0</ele><time>2026-04-26T14:40:29.154Z</time></trkpt><trkpt lat="45.631445" lon="11.7321608"><ele>43.0</ele><time>2026-04-26T14:40:31.154Z</time></trkpt><trkpt lat="45.6313992" lon="11.7322609"><ele>43.0</ele><time>2026-04-26T14:40:34.154Z</time></trkpt><trkpt lat="45.631348" lon="11.7323297"><ele>43.0</ele><time>2026-04-26T14:40:36.154Z</time></trkpt><trkpt lat="45.6312819" lon="11.7323874"><ele>43.0</ele><time>2026-04-26T14:40:38.154Z</time></trkpt><trkpt lat="45.6312037" lon="11.7324384"><ele>43.333333333333336</ele><time>2026-04-26T14:40:40.155Z</time></trkpt><trkpt lat="45.6311299" lon="11.7325126"><ele>43.66666666666667</ele><time>2026-04-26T14:40:42.155Z</time></trkpt><trkpt lat="45.6310633" lon="11.7325928"><ele>44.0</ele><time>2026-04-26T14:40:44.155Z</time></trkpt><trkpt lat="45.6310105" lon="11.7326821"><ele>44.333333333333336</ele><time>2026-04-26T14:40:46.155Z</time></trkpt><trkpt lat="45.6309596" lon="11.7327745"><ele>44.666666666666664</ele><time>2026-04-26T14:40:48.155Z</time></trkpt><trkpt lat="45.6309213" lon="11.7328674"><ele>45.0</ele><time>2026-04-26T14:40:50.155Z</time></trkpt><trkpt lat="45.6308731" lon="11.7329547"><ele>44.285714285714285</ele><time>2026-04-26T14:40:52.155Z</time></trkpt><trkpt lat="45.6308286" lon="11.7330436"><ele>43.57142857142858</ele><time>2026-04-26T14:40:54.155Z</time></trkpt><trkpt lat="45.6307934" lon="11.7331298"><ele>42.85714285714286</ele><time>2026-04-26T14:40:56.155Z</time></trkpt><trkpt lat="45.6307636" lon="11.7332145"><ele>42.14285714285714</ele><time>2026-04-26T14:40:58.155Z</time></trkpt><trkpt lat="45.6307195" lon="11.733329"><ele>41.42857142857143</ele><time>2026-04-26T14:41:01.154Z</time></trkpt><trkpt lat="45.6306867" lon="11.733412"><ele>40.714285714285715</ele><time>2026-04-26T14:41:03.155Z</time></trkpt><trkpt lat="45.630658" lon="11.7335078"><ele>40.0</ele><time>2026-04-26T14:41:05.155Z</time></trkpt><trkpt lat="45.6306326" lon="11.7336022"><ele>39.66666666666667</ele><time>2026-04-26T14:41:07.155Z</time></trkpt><trkpt lat="45.6305973" lon="11.7336879"><ele>39.333333333333336</ele><time>2026-04-26T14:41:09.155Z</time></trkpt><trkpt lat="45.6305655" lon="11.7337726"><ele>39.0</ele><time>2026-04-26T14:41:11.155Z</time></trkpt><trkpt lat="45.6305403" lon="11.7338628"><ele>38.666666666666664</ele><time>2026-04-26T14:41:13.155Z</time></trkpt><trkpt lat="45.6305041" lon="11.7339769"><ele>38.33333333333333</ele><time>2026-04-26T14:41:15.155Z</time></trkpt><trkpt lat="45.6304638" lon="11.7340834"><ele>38.0</ele><time>2026-04-26T14:41:17.154Z</time></trkpt><trkpt lat="45.6304176" lon="11.734201"><ele>38.0</ele><time>2026-04-26T14:41:19.155Z</time></trkpt><trkpt lat="45.63037" lon="11.734299"><ele>38.0</ele><time>2026-04-26T14:41:21.155Z</time></trkpt><trkpt lat="45.6303289" lon="11.7343796"><ele>38.0</ele><time>2026-04-26T14:41:23.154Z</time></trkpt><trkpt lat="45.6302854" lon="11.7344579"><ele>38.0</ele><time>2026-04-26T14:41:25.155Z</time></trkpt><trkpt lat="45.630226" lon="11.7345644"><ele>38.0</ele><time>2026-04-26T14:41:28.155Z</time></trkpt><trkpt lat="45.6301788" lon="11.7346347"><ele>38.0</ele><time>2026-04-26T14:41:30.155Z</time></trkpt><trkpt lat="45.6301334" lon="11.7347045"><ele>38.33333333333333</ele><time>2026-04-26T14:41:32.155Z</time></trkpt><trkpt lat="45.6300867" lon="11.7347822"><ele>38.666666666666664</ele><time>2026-04-26T14:41:34.155Z</time></trkpt><trkpt lat="45.6300266" lon="11.734858"><ele>39.0</ele><time>2026-04-26T14:41:36.155Z</time></trkpt><trkpt lat="45.6299616" lon="11.7349225"><ele>39.333333333333336</ele><time>2026-04-26T14:41:38.155Z</time></trkpt><trkpt lat="45.6299144" lon="11.7350012"><ele>39.66666666666667</ele><time>2026-04-26T14:41:40.155Z</time></trkpt><trkpt lat="45.6298635" lon="11.7350832"><ele>40.0</ele><time>2026-04-26T14:41:42.155Z</time></trkpt><trkpt lat="45.6297961" lon="11.7351601"><ele>39.57142857142857</ele><time>2026-04-26T14:41:44.155Z</time></trkpt><trkpt lat="45.6297368" lon="11.7352383"><ele>39.142857142857146</ele><time>2026-04-26T14:41:46.155Z</time></trkpt><trkpt lat="45.6296875" lon="11.7353281"><ele>38.714285714285715</ele><time>2026-04-26T14:41:48.155Z</time></trkpt><trkpt lat="45.6296406" lon="11.7354017"><ele>38.285714285714285</ele><time>2026-04-26T14:41:50.156Z</time></trkpt><trkpt lat="45.6295897" lon="11.7354689"><ele>37.857142857142854</ele><time>2026-04-26T14:41:52.155Z</time></trkpt><trkpt lat="45.6295419" lon="11.7355524"><ele>37.42857142857143</ele><time>2026-04-26T14:41:54.156Z</time></trkpt><trkpt lat="45.6295001" lon="11.7356372"><ele>37.0</ele><time>2026-04-26T14:41:56.156Z</time></trkpt><trkpt lat="45.6294526" lon="11.7357126"><ele>37.0</ele><time>2026-04-26T14:41:58.155Z</time></trkpt><trkpt lat="45.6293936" lon="11.7357757"><ele>37.0</ele><time>2026-04-26T14:42:00.156Z</time></trkpt><trkpt lat="45.6293199" lon="11.7357287"><ele>37.0</ele><time>2026-04-26T14:42:03.155Z</time></trkpt><trkpt lat="45.6292883" lon="11.7356234"><ele>37.0</ele><time>2026-04-26T14:42:06.155Z</time></trkpt><trkpt lat="45.6292311" lon="11.7355606"><ele>37.0</ele><time>2026-04-26T14:42:09.155Z</time></trkpt><trkpt lat="45.6291705" lon="11.7355097"><ele>37.0</ele><time>2026-04-26T14:42:13.156Z</time></trkpt><trkpt lat="45.629151" lon="11.7354211"><ele>37.0</ele><time>2026-04-26T14:42:17.156Z</time></trkpt><trkpt lat="45.629145" lon="11.7353248"><ele>37.0</ele><time>2026-04-26T14:42:20.156Z</time></trkpt><trkpt lat="45.6292149" lon="11.7352828"><ele>37.0</ele><time>2026-04-26T14:42:22.156Z</time></trkpt><trkpt lat="45.6292982" lon="11.7352542"><ele>37.0</ele><time>2026-04-26T14:42:26.156Z</time></trkpt><trkpt lat="45.6293637" lon="11.7351814"><ele>37.0</ele><time>2026-04-26T14:42:28.155Z</time></trkpt><trkpt lat="45.6294001" lon="11.7350914"><ele>37.0</ele><time>2026-04-26T14:42:30.156Z</time></trkpt><trkpt lat="45.6294078" lon="11.7349856"><ele>37.0</ele><time>2026-04-26T14:42:32.155Z</time></trkpt><trkpt lat="45.6293942" lon="11.7348934"><ele>37.57142857142857</ele><time>2026-04-26T14:42:34.156Z</time></trkpt><trkpt lat="45.6293668" lon="11.7348061"><ele>38.14285714285714</ele><time>2026-04-26T14:42:36.156Z</time></trkpt><trkpt lat="45.6293257" lon="11.7347265"><ele>38.71428571428571</ele><time>2026-04-26T14:42:38.156Z</time></trkpt><trkpt lat="45.6292873" lon="11.7346398"><ele>39.285714285714285</ele><time>2026-04-26T14:42:40.155Z</time></trkpt><trkpt lat="45.6292511" lon="11.7345498"><ele>39.857142857142854</ele><time>2026-04-26T14:42:42.156Z</time></trkpt><trkpt lat="45.6292077" lon="11.7344611"><ele>40.42857142857142</ele><time>2026-04-26T14:42:44.156Z</time></trkpt><trkpt lat="45.6291695" lon="11.7343734"><ele>41.0</ele><time>2026-04-26T14:42:46.156Z</time></trkpt><trkpt lat="45.629138" lon="11.7342852"><ele>41.0</ele><time>2026-04-26T14:42:48.156Z</time></trkpt><trkpt lat="45.6290973" lon="11.7341976"><ele>41.0</ele><time>2026-04-26T14:42:50.155Z</time></trkpt><trkpt lat="45.6290552" lon="11.7340998"><ele>41.0</ele><time>2026-04-26T14:42:52.156Z</time></trkpt><trkpt lat="45.6290187" lon="11.7340117"><ele>41.0</ele><time>2026-04-26T14:42:54.157Z</time></trkpt><trkpt lat="45.6289764" lon="11.7339215"><ele>41.0</ele><time>2026-04-26T14:42:56.157Z</time></trkpt><trkpt lat="45.6289346" lon="11.7338276"><ele>41.0</ele><time>2026-04-26T14:42:58.157Z</time></trkpt><trkpt lat="45.6288939" lon="11.7337394"><ele>41.0</ele><time>2026-04-26T14:43:00.177Z</time></trkpt><trkpt lat="45.6288523" lon="11.7336419"><ele>41.0</ele><time>2026-04-26T14:43:02.19Z</time></trkpt><trkpt lat="45.6288167" lon="11.73354"><ele>41.0</ele><time>2026-04-26T14:43:04.203Z</time></trkpt><trkpt lat="45.6287851" lon="11.7334393"><ele>41.0</ele><time>2026-04-26T14:43:06.217Z</time></trkpt><trkpt lat="45.6287709" lon="11.7333345"><ele>41.0</ele><time>2026-04-26T14:43:08.23Z</time></trkpt><trkpt lat="45.6287745" lon="11.7332365"><ele>41.0</ele><time>2026-04-26T14:43:10.244Z</time></trkpt><trkpt lat="45.6288067" lon="11.7331481"><ele>41.0</ele><time>2026-04-26T14:43:12.157Z</time></trkpt><trkpt lat="45.6288621" lon="11.733076"><ele>41.0</ele><time>2026-04-26T14:43:14.17Z</time></trkpt><trkpt lat="45.6289391" lon="11.7330024"><ele>41.0</ele><time>2026-04-26T14:43:17.19Z</time></trkpt><trkpt lat="45.6289831" lon="11.7328816"><ele>41.0</ele><time>2026-04-26T14:43:20.272Z</time></trkpt><trkpt lat="45.628968" lon="11.7327895"><ele>41.0</ele><time>2026-04-26T14:43:22.224Z</time></trkpt><trkpt lat="45.6289361" lon="11.7326977"><ele>41.0</ele><time>2026-04-26T14:43:24.237Z</time></trkpt><trkpt lat="45.6288955" lon="11.7326015"><ele>40.83333333333333</ele><time>2026-04-26T14:43:26.251Z</time></trkpt><trkpt lat="45.6288521" lon="11.7325013"><ele>40.666666666666664</ele><time>2026-04-26T14:43:28.163Z</time></trkpt><trkpt lat="45.628801" lon="11.7323988"><ele>40.5</ele><time>2026-04-26T14:43:30.177Z</time></trkpt><trkpt lat="45.6287483" lon="11.7322916"><ele>40.333333333333336</ele><time>2026-04-26T14:43:32.203Z</time></trkpt><trkpt lat="45.6286909" lon="11.7321884"><ele>40.16666666666667</ele><time>2026-04-26T14:43:34.157Z</time></trkpt><trkpt lat="45.6286508" lon="11.7321089"><ele>40.0</ele><time>2026-04-26T14:43:36.226Z</time></trkpt><trkpt lat="45.6286029" lon="11.731976"><ele>40.4</ele><time>2026-04-26T14:43:38.239Z</time></trkpt><trkpt lat="45.6285485" lon="11.7318831"><ele>40.8</ele><time>2026-04-26T14:43:40.157Z</time></trkpt><trkpt lat="45.6284982" lon="11.7317751"><ele>41.2</ele><time>2026-04-26T14:43:42.157Z</time></trkpt><trkpt lat="45.6284514" lon="11.7316671"><ele>41.6</ele><time>2026-04-26T14:43:44.157Z</time></trkpt><trkpt lat="45.6283871" lon="11.731558"><ele>42.0</ele><time>2026-04-26T14:43:46.157Z</time></trkpt><trkpt lat="45.628333" lon="11.7314405"><ele>42.0</ele><time>2026-04-26T14:43:48.157Z</time></trkpt><trkpt lat="45.6282751" lon="11.7313133"><ele>42.0</ele><time>2026-04-26T14:43:50.157Z</time></trkpt><trkpt lat="45.6282116" lon="11.731184"><ele>42.0</ele><time>2026-04-26T14:43:52.157Z</time></trkpt><trkpt lat="45.6281442" lon="11.7310566"><ele>42.0</ele><time>2026-04-26T14:43:54.157Z</time></trkpt><trkpt lat="45.6280775" lon="11.73092"><ele>42.0</ele><time>2026-04-26T14:43:56.158Z</time></trkpt><trkpt lat="45.6280131" lon="11.7307888"><ele>42.0</ele><time>2026-04-26T14:43:58.158Z</time></trkpt><trkpt lat="45.6279547" lon="11.7306648"><ele>42.0</ele><time>2026-04-26T14:44:00.158Z</time></trkpt><trkpt lat="45.6278947" lon="11.7305485"><ele>42.0</ele><time>2026-04-26T14:44:02.158Z</time></trkpt><trkpt lat="45.6278371" lon="11.7304283"><ele>42.0</ele><time>2026-04-26T14:44:04.158Z</time></trkpt><trkpt lat="45.6277817" lon="11.7303086"><ele>42.0</ele><time>2026-04-26T14:44:06.158Z</time></trkpt><trkpt lat="45.6277293" lon="11.7301886"><ele>41.8</ele><time>2026-04-26T14:44:08.157Z</time></trkpt><trkpt lat="45.6276758" lon="11.7300666"><ele>41.6</ele><time>2026-04-26T14:44:10.158Z</time></trkpt><trkpt lat="45.6276278" lon="11.7299441"><ele>41.4</ele><time>2026-04-26T14:44:12.158Z</time></trkpt><trkpt lat="45.6275758" lon="11.7298201"><ele>41.199999999999996</ele><time>2026-04-26T14:44:14.158Z</time></trkpt><trkpt lat="45.6275351" lon="11.7296956"><ele>41.0</ele><time>2026-04-26T14:44:16.157Z</time></trkpt><trkpt lat="45.627503" lon="11.7295706"><ele>41.0</ele><time>2026-04-26T14:44:18.158Z</time></trkpt><trkpt lat="45.6274446" lon="11.7294681"><ele>41.0</ele><time>2026-04-26T14:44:20.158Z</time></trkpt><trkpt lat="45.6273996" lon="11.7293481"><ele>41.0</ele><time>2026-04-26T14:44:22.158Z</time></trkpt><trkpt lat="45.627348" lon="11.7292183"><ele>41.0</ele><time>2026-04-26T14:44:24.158Z</time></trkpt><trkpt lat="45.6272924" lon="11.7290902"><ele>41.0</ele><time>2026-04-26T14:44:26.158Z</time></trkpt><trkpt lat="45.6272344" lon="11.7289623"><ele>40.599999999999994</ele><time>2026-04-26T14:44:28.158Z</time></trkpt><trkpt lat="45.6271794" lon="11.7288276"><ele>40.199999999999996</ele><time>2026-04-26T14:44:30.158Z</time></trkpt><trkpt lat="45.6271367" lon="11.7286995"><ele>39.8</ele><time>2026-04-26T14:44:32.158Z</time></trkpt><trkpt lat="45.6270805" lon="11.7285607"><ele>39.4</ele><time>2026-04-26T14:44:34.158Z</time></trkpt><trkpt lat="45.6270269" lon="11.7284254"><ele>39.0</ele><time>2026-04-26T14:44:36.158Z</time></trkpt><trkpt lat="45.62698" lon="11.7282823"><ele>39.0</ele><time>2026-04-26T14:44:38.157Z</time></trkpt><trkpt lat="45.6269261" lon="11.7281506"><ele>39.0</ele><time>2026-04-26T14:44:40.158Z</time></trkpt><trkpt lat="45.6268787" lon="11.7280282"><ele>39.0</ele><time>2026-04-26T14:44:42.158Z</time></trkpt><trkpt lat="45.6268337" lon="11.7279111"><ele>39.0</ele><time>2026-04-26T14:44:44.157Z</time></trkpt><trkpt lat="45.6267868" lon="11.7277944"><ele>39.0</ele><time>2026-04-26T14:44:46.158Z</time></trkpt><trkpt lat="45.6267439" lon="11.7276808"><ele>39.2</ele><time>2026-04-26T14:44:48.158Z</time></trkpt><trkpt lat="45.6267015" lon="11.7275624"><ele>39.4</ele><time>2026-04-26T14:44:50.157Z</time></trkpt><trkpt lat="45.6266529" lon="11.7274462"><ele>39.6</ele><time>2026-04-26T14:44:52.158Z</time></trkpt><trkpt lat="45.6266075" lon="11.7273227"><ele>39.8</ele><time>2026-04-26T14:44:54.158Z</time></trkpt><trkpt lat="45.6265594" lon="11.7272054"><ele>40.0</ele><time>2026-04-26T14:44:56.158Z</time></trkpt><trkpt lat="45.6265184" lon="11.7270922"><ele>40.0</ele><time>2026-04-26T14:44:58.157Z</time></trkpt><trkpt lat="45.6264687" lon="11.7269805"><ele>40.0</ele><time>2026-04-26T14:45:00.157Z</time></trkpt><trkpt lat="45.6264187" lon="11.7268725"><ele>40.0</ele><time>2026-04-26T14:45:02.158Z</time></trkpt><trkpt lat="45.6263713" lon="11.7267609"><ele>40.0</ele><time>2026-04-26T14:45:04.158Z</time></trkpt><trkpt lat="45.6263353" lon="11.7266473"><ele>40.0</ele><time>2026-04-26T14:45:06.158Z</time></trkpt><trkpt lat="45.626304" lon="11.7265435"><ele>40.0</ele><time>2026-04-26T14:45:08.159Z</time></trkpt><trkpt lat="45.626315" lon="11.7264231"><ele>39.5</ele><time>2026-04-26T14:45:10.159Z</time></trkpt><trkpt lat="45.6263314" lon="11.7263121"><ele>39.0</ele><time>2026-04-26T14:45:12.159Z</time></trkpt><trkpt lat="45.6263598" lon="11.7262163"><ele>38.5</ele><time>2026-04-26T14:45:14.159Z</time></trkpt><trkpt lat="45.626417" lon="11.7261386"><ele>38.0</ele><time>2026-04-26T14:45:16.159Z</time></trkpt><trkpt lat="45.6264969" lon="11.7261064"><ele>37.5</ele><time>2026-04-26T14:45:18.159Z</time></trkpt><trkpt lat="45.6265862" lon="11.7261034"><ele>37.0</ele><time>2026-04-26T14:45:20.159Z</time></trkpt><trkpt lat="45.6266611" lon="11.7261198"><ele>37.0</ele><time>2026-04-26T14:45:22.159Z</time></trkpt><trkpt lat="45.6267258" lon="11.7261387"><ele>37.0</ele><time>2026-04-26T14:45:24.159Z</time></trkpt><trkpt lat="45.6268112" lon="11.7261478"><ele>37.0</ele><time>2026-04-26T14:45:27.159Z</time></trkpt><trkpt lat="45.6268894" lon="11.7261202"><ele>37.0</ele><time>2026-04-26T14:45:30.159Z</time></trkpt><trkpt lat="45.6269681" lon="11.7260782"><ele>37.0</ele><time>2026-04-26T14:45:33.159Z</time></trkpt><trkpt lat="45.6269206" lon="11.7259837"><ele>37.0</ele><time>2026-04-26T14:45:35.159Z</time></trkpt><trkpt lat="45.6268021" lon="11.7259654"><ele>37.2</ele><time>2026-04-26T14:45:37.159Z</time></trkpt><trkpt lat="45.6266929" lon="11.7259432"><ele>37.400000000000006</ele><time>2026-04-26T14:45:39.159Z</time></trkpt><trkpt lat="45.6265916" lon="11.7259087"><ele>37.599999999999994</ele><time>2026-04-26T14:45:41.159Z</time></trkpt><trkpt lat="45.6264896" lon="11.7258675"><ele>37.8</ele><time>2026-04-26T14:45:43.158Z</time></trkpt><trkpt lat="45.626391" lon="11.7258191"><ele>38.0</ele><time>2026-04-26T14:45:45.159Z</time></trkpt><trkpt lat="45.6262948" lon="11.7257577"><ele>38.0</ele><time>2026-04-26T14:45:47.159Z</time></trkpt><trkpt lat="45.6262041" lon="11.725681"><ele>38.0</ele><time>2026-04-26T14:45:49.159Z</time></trkpt><trkpt lat="45.6261177" lon="11.725601"><ele>38.0</ele><time>2026-04-26T14:45:51.159Z</time></trkpt><trkpt lat="45.6260355" lon="11.7255081"><ele>38.0</ele><time>2026-04-26T14:45:53.159Z</time></trkpt><trkpt lat="45.6259509" lon="11.7254036"><ele>38.0</ele><time>2026-04-26T14:45:55.159Z</time></trkpt><trkpt lat="45.6258722" lon="11.7252984"><ele>38.4</ele><time>2026-04-26T14:45:57.159Z</time></trkpt><trkpt lat="45.6258025" lon="11.7251871"><ele>38.8</ele><time>2026-04-26T14:45:59.158Z</time></trkpt><trkpt lat="45.6257456" lon="11.7250562"><ele>39.2</ele><time>2026-04-26T14:46:01.159Z</time></trkpt><trkpt lat="45.6256878" lon="11.7249212"><ele>39.6</ele><time>2026-04-26T14:46:03.159Z</time></trkpt><trkpt lat="45.6256371" lon="11.7247916"><ele>40.0</ele><time>2026-04-26T14:46:05.159Z</time></trkpt><trkpt lat="45.6255855" lon="11.7246626"><ele>40.0</ele><time>2026-04-26T14:46:07.159Z</time></trkpt><trkpt lat="45.625533" lon="11.7245319"><ele>40.0</ele><time>2026-04-26T14:46:09.159Z</time></trkpt><trkpt lat="45.6254862" lon="11.7243994"><ele>40.0</ele><time>2026-04-26T14:46:11.159Z</time></trkpt><trkpt lat="45.6254409" lon="11.7242706"><ele>40.0</ele><time>2026-04-26T14:46:13.159Z</time></trkpt><trkpt lat="45.6253913" lon="11.7241404"><ele>40.0</ele><time>2026-04-26T14:46:15.159Z</time></trkpt><trkpt lat="45.6253466" lon="11.7240064"><ele>39.6</ele><time>2026-04-26T14:46:17.159Z</time></trkpt><trkpt lat="45.6253044" lon="11.723876"><ele>39.2</ele><time>2026-04-26T14:46:19.16Z</time></trkpt><trkpt lat="45.6252519" lon="11.7237492"><ele>38.8</ele><time>2026-04-26T14:46:21.16Z</time></trkpt><trkpt lat="45.6251985" lon="11.723619"><ele>38.4</ele><time>2026-04-26T14:46:23.16Z</time></trkpt><trkpt lat="45.6251504" lon="11.7234984"><ele>38.0</ele><time>2026-04-26T14:46:25.16Z</time></trkpt><trkpt lat="45.6251107" lon="11.7233831"><ele>37.8</ele><time>2026-04-26T14:46:27.16Z</time></trkpt><trkpt lat="45.6251071" lon="11.723257"><ele>37.599999999999994</ele><time>2026-04-26T14:46:29.16Z</time></trkpt><trkpt lat="45.6251636" lon="11.7231171"><ele>37.400000000000006</ele><time>2026-04-26T14:46:31.16Z</time></trkpt><trkpt lat="45.6252462" lon="11.7230398"><ele>37.2</ele><time>2026-04-26T14:46:33.16Z</time></trkpt><trkpt lat="45.6253689" lon="11.7230338"><ele>37.0</ele><time>2026-04-26T14:46:35.16Z</time></trkpt><trkpt lat="45.6254878" lon="11.7230447"><ele>37.4</ele><time>2026-04-26T14:46:37.159Z</time></trkpt><trkpt lat="45.6255972" lon="11.7230527"><ele>37.800000000000004</ele><time>2026-04-26T14:46:39.159Z</time></trkpt><trkpt lat="45.6257009" lon="11.7230618"><ele>38.2</ele><time>2026-04-26T14:46:41.159Z</time></trkpt><trkpt lat="45.6257966" lon="11.723068"><ele>38.6</ele><time>2026-04-26T14:46:43.16Z</time></trkpt><trkpt lat="45.625886" lon="11.7230771"><ele>39.0</ele><time>2026-04-26T14:46:45.16Z</time></trkpt><trkpt lat="45.6259774" lon="11.7230726"><ele>39.0</ele><time>2026-04-26T14:46:47.16Z</time></trkpt><trkpt lat="45.6260738" lon="11.7230592"><ele>39.0</ele><time>2026-04-26T14:46:49.16Z</time></trkpt><trkpt lat="45.626158" lon="11.7229885"><ele>39.0</ele><time>2026-04-26T14:46:51.159Z</time></trkpt><trkpt lat="45.6262233" lon="11.7228554"><ele>39.0</ele><time>2026-04-26T14:46:53.16Z</time></trkpt><trkpt lat="45.626277" lon="11.7227171"><ele>39.0</ele><time>2026-04-26T14:46:55.16Z</time></trkpt><trkpt lat="45.6263224" lon="11.7225767"><ele>39.2</ele><time>2026-04-26T14:46:57.159Z</time></trkpt><trkpt lat="45.6263696" lon="11.7224384"><ele>39.4</ele><time>2026-04-26T14:46:59.16Z</time></trkpt><trkpt lat="45.6264147" lon="11.7223003"><ele>39.6</ele><time>2026-04-26T14:47:01.16Z</time></trkpt><trkpt lat="45.6264602" lon="11.7221682"><ele>39.8</ele><time>2026-04-26T14:47:03.16Z</time></trkpt><trkpt lat="45.6265056" lon="11.722036"><ele>40.0</ele><time>2026-04-26T14:47:05.16Z</time></trkpt><trkpt lat="45.6265562" lon="11.72191"><ele>40.2</ele><time>2026-04-26T14:47:07.159Z</time></trkpt><trkpt lat="45.6266029" lon="11.7217812"><ele>40.4</ele><time>2026-04-26T14:47:09.16Z</time></trkpt><trkpt lat="45.6266516" lon="11.7216443"><ele>40.599999999999994</ele><time>2026-04-26T14:47:11.16Z</time></trkpt><trkpt lat="45.6267047" lon="11.7215158"><ele>40.8</ele><time>2026-04-26T14:47:13.16Z</time></trkpt><trkpt lat="45.6267629" lon="11.7214038"><ele>41.0</ele><time>2026-04-26T14:47:15.16Z</time></trkpt><trkpt lat="45.6268245" lon="11.7212887"><ele>41.0</ele><time>2026-04-26T14:47:17.159Z</time></trkpt><trkpt lat="45.6268901" lon="11.7211781"><ele>41.0</ele><time>2026-04-26T14:47:19.159Z</time></trkpt><trkpt lat="45.6269528" lon="11.7210684"><ele>41.0</ele><time>2026-04-26T14:47:21.159Z</time></trkpt><trkpt lat="45.627012" lon="11.7209563"><ele>41.0</ele><time>2026-04-26T14:47:23.161Z</time></trkpt><trkpt lat="45.6270762" lon="11.7208417"><ele>41.0</ele><time>2026-04-26T14:47:25.161Z</time></trkpt><trkpt lat="45.6271479" lon="11.7207244"><ele>40.75</ele><time>2026-04-26T14:47:27.161Z</time></trkpt><trkpt lat="45.6272158" lon="11.7206027"><ele>40.5</ele><time>2026-04-26T14:47:29.161Z</time></trkpt><trkpt lat="45.6272927" lon="11.7204765"><ele>40.25</ele><time>2026-04-26T14:47:31.161Z</time></trkpt><trkpt lat="45.6273731" lon="11.7203593"><ele>40.0</ele><time>2026-04-26T14:47:33.161Z</time></trkpt><trkpt lat="45.6274534" lon="11.7202474"><ele>40.25</ele><time>2026-04-26T14:47:35.161Z</time></trkpt><trkpt lat="45.6275309" lon="11.7201233"><ele>40.5</ele><time>2026-04-26T14:47:37.161Z</time></trkpt><trkpt lat="45.6276084" lon="11.7200004"><ele>40.75</ele><time>2026-04-26T14:47:39.161Z</time></trkpt><trkpt lat="45.6276853" lon="11.7198872"><ele>41.0</ele><time>2026-04-26T14:47:41.161Z</time></trkpt><trkpt lat="45.6277712" lon="11.7197805"><ele>41.0</ele><time>2026-04-26T14:47:43.161Z</time></trkpt><trkpt lat="45.6278704" lon="11.7196987"><ele>41.0</ele><time>2026-04-26T14:47:45.161Z</time></trkpt><trkpt lat="45.6279662" lon="11.7196187"><ele>41.0</ele><time>2026-04-26T14:47:47.161Z</time></trkpt><trkpt lat="45.6280587" lon="11.7195361"><ele>41.0</ele><time>2026-04-26T14:47:49.161Z</time></trkpt><trkpt lat="45.6281573" lon="11.7194522"><ele>41.0</ele><time>2026-04-26T14:47:51.161Z</time></trkpt><trkpt lat="45.6282523" lon="11.7193574"><ele>40.75</ele><time>2026-04-26T14:47:53.161Z</time></trkpt><trkpt lat="45.6283391" lon="11.7192526"><ele>40.5</ele><time>2026-04-26T14:47:55.161Z</time></trkpt><trkpt lat="45.6284226" lon="11.7191401"><ele>40.25</ele><time>2026-04-26T14:47:57.161Z</time></trkpt><trkpt lat="45.6285022" lon="11.7190383"><ele>40.0</ele><time>2026-04-26T14:47:59.161Z</time></trkpt><trkpt lat="45.6285983" lon="11.7189251"><ele>39.75</ele><time>2026-04-26T14:48:01.16Z</time></trkpt><trkpt lat="45.6287005" lon="11.7188316"><ele>39.5</ele><time>2026-04-26T14:48:03.161Z</time></trkpt><trkpt lat="45.6287958" lon="11.7187435"><ele>39.25</ele><time>2026-04-26T14:48:05.161Z</time></trkpt><trkpt lat="45.6288923" lon="11.7186663"><ele>39.0</ele><time>2026-04-26T14:48:07.16Z</time></trkpt><trkpt lat="45.6289922" lon="11.7185903"><ele>39.25</ele><time>2026-04-26T14:48:09.161Z</time></trkpt><trkpt lat="45.629094" lon="11.7185192"><ele>39.5</ele><time>2026-04-26T14:48:11.161Z</time></trkpt><trkpt lat="45.6291947" lon="11.7184443"><ele>39.75</ele><time>2026-04-26T14:48:13.161Z</time></trkpt><trkpt lat="45.629298" lon="11.7183734"><ele>40.0</ele><time>2026-04-26T14:48:15.161Z</time></trkpt><trkpt lat="45.6294103" lon="11.718307"><ele>40.4</ele><time>2026-04-26T14:48:17.161Z</time></trkpt><trkpt lat="45.6295107" lon="11.7182367"><ele>40.8</ele><time>2026-04-26T14:48:19.161Z</time></trkpt><trkpt lat="45.6296022" lon="11.7181603"><ele>41.2</ele><time>2026-04-26T14:48:21.161Z</time></trkpt><trkpt lat="45.6296812" lon="11.7180668"><ele>41.6</ele><time>2026-04-26T14:48:23.161Z</time></trkpt><trkpt lat="45.6297258" lon="11.7179354"><ele>42.0</ele><time>2026-04-26T14:48:25.161Z</time></trkpt><trkpt lat="45.6297543" lon="11.7177832"><ele>42.0</ele><time>2026-04-26T14:48:27.162Z</time></trkpt><trkpt lat="45.6297933" lon="11.717635"><ele>42.0</ele><time>2026-04-26T14:48:29.162Z</time></trkpt><trkpt lat="45.6298414" lon="11.7174855"><ele>42.0</ele><time>2026-04-26T14:48:31.162Z</time></trkpt><trkpt lat="45.6299025" lon="11.7173415"><ele>42.0</ele><time>2026-04-26T14:48:33.162Z</time></trkpt><trkpt lat="45.6299615" lon="11.7172105"><ele>42.0</ele><time>2026-04-26T14:48:35.162Z</time></trkpt><trkpt lat="45.6300208" lon="11.717082"><ele>42.0</ele><time>2026-04-26T14:48:37.162Z</time></trkpt><trkpt lat="45.6300878" lon="11.7169577"><ele>42.0</ele><time>2026-04-26T14:48:39.162Z</time></trkpt><trkpt lat="45.6301512" lon="11.716836"><ele>42.0</ele><time>2026-04-26T14:48:41.162Z</time></trkpt><trkpt lat="45.6302087" lon="11.7167073"><ele>42.0</ele><time>2026-04-26T14:48:43.161Z</time></trkpt><trkpt lat="45.6302612" lon="11.7165692"><ele>41.8</ele><time>2026-04-26T14:48:45.161Z</time></trkpt><trkpt lat="45.6302937" lon="11.7164219"><ele>41.6</ele><time>2026-04-26T14:48:47.162Z</time></trkpt><trkpt lat="45.6302939" lon="11.7162786"><ele>41.4</ele><time>2026-04-26T14:48:49.162Z</time></trkpt><trkpt lat="45.6302647" lon="11.7161301"><ele>41.199999999999996</ele><time>2026-04-26T14:48:51.162Z</time></trkpt><trkpt lat="45.6302294" lon="11.7159828"><ele>41.0</ele><time>2026-04-26T14:48:53.162Z</time></trkpt><trkpt lat="45.6301905" lon="11.7158393"><ele>41.0</ele><time>2026-04-26T14:48:55.162Z</time></trkpt><trkpt lat="45.6301539" lon="11.715689"><ele>41.0</ele><time>2026-04-26T14:48:57.162Z</time></trkpt><trkpt lat="45.6301206" lon="11.7155354"><ele>41.0</ele><time>2026-04-26T14:48:59.162Z</time></trkpt><trkpt lat="45.6300899" lon="11.7153881"><ele>41.0</ele><time>2026-04-26T14:49:01.161Z</time></trkpt><trkpt lat="45.6300558" lon="11.7152453"><ele>41.0</ele><time>2026-04-26T14:49:03.162Z</time></trkpt><trkpt lat="45.6300241" lon="11.7151006"><ele>41.199999999999996</ele><time>2026-04-26T14:49:05.162Z</time></trkpt><trkpt lat="45.6299999" lon="11.7149553"><ele>41.4</ele><time>2026-04-26T14:49:07.162Z</time></trkpt><trkpt lat="45.6299726" lon="11.7148163"><ele>41.6</ele><time>2026-04-26T14:49:09.161Z</time></trkpt><trkpt lat="45.629949" lon="11.7146728"><ele>41.8</ele><time>2026-04-26T14:49:11.162Z</time></trkpt><trkpt lat="45.6299359" lon="11.7145375"><ele>42.0</ele><time>2026-04-26T14:49:13.162Z</time></trkpt><trkpt lat="45.6299256" lon="11.7144136"><ele>42.0</ele><time>2026-04-26T14:49:15.162Z</time></trkpt><trkpt lat="45.6299087" lon="11.7142772"><ele>42.0</ele><time>2026-04-26T14:49:17.162Z</time></trkpt><trkpt lat="45.6299005" lon="11.7141631"><ele>42.0</ele><time>2026-04-26T14:49:19.162Z</time></trkpt><trkpt lat="45.6299103" lon="11.7140606"><ele>42.0</ele><time>2026-04-26T14:49:21.161Z</time></trkpt><trkpt lat="45.6299096" lon="11.7139677"><ele>42.0</ele><time>2026-04-26T14:49:23.162Z</time></trkpt><trkpt lat="45.6298703" lon="11.7138794"><ele>42.0</ele><time>2026-04-26T14:49:25.162Z</time></trkpt><trkpt lat="45.6298025" lon="11.7138065"><ele>42.0</ele><time>2026-04-26T14:49:27.162Z</time></trkpt><trkpt lat="45.6297589" lon="11.7136905"><ele>42.0</ele><time>2026-04-26T14:49:29.161Z</time></trkpt><trkpt lat="45.6297196" lon="11.7135717"><ele>42.0</ele><time>2026-04-26T14:49:31.163Z</time></trkpt><trkpt lat="45.6296839" lon="11.7134649"><ele>42.0</ele><time>2026-04-26T14:49:33.163Z</time></trkpt><trkpt lat="45.6296444" lon="11.7133537"><ele>42.0</ele><time>2026-04-26T14:49:35.163Z</time></trkpt><trkpt lat="45.6296398" lon="11.713241"><ele>42.0</ele><time>2026-04-26T14:49:37.163Z</time></trkpt><trkpt lat="45.62964" lon="11.7131294"><ele>42.0</ele><time>2026-04-26T14:49:39.163Z</time></trkpt><trkpt lat="45.6296104" lon="11.713015"><ele>42.0</ele><time>2026-04-26T14:49:41.163Z</time></trkpt><trkpt lat="45.6295472" lon="11.7129354"><ele>42.0</ele><time>2026-04-26T14:49:43.163Z</time></trkpt><trkpt lat="45.6294544" lon="11.7129047"><ele>42.0</ele><time>2026-04-26T14:49:45.163Z</time></trkpt><trkpt lat="45.6293846" lon="11.7128247"><ele>42.0</ele><time>2026-04-26T14:49:47.163Z</time></trkpt><trkpt lat="45.6293254" lon="11.712705"><ele>42.0</ele><time>2026-04-26T14:49:49.163Z</time></trkpt><trkpt lat="45.6292563" lon="11.7125975"><ele>42.0</ele><time>2026-04-26T14:49:51.163Z</time></trkpt><trkpt lat="45.629195" lon="11.7124795"><ele>42.0</ele><time>2026-04-26T14:49:53.163Z</time></trkpt><trkpt lat="45.6291353" lon="11.7123716"><ele>42.0</ele><time>2026-04-26T14:49:55.163Z</time></trkpt><trkpt lat="45.6290698" lon="11.7122573"><ele>42.0</ele><time>2026-04-26T14:49:57.163Z</time></trkpt><trkpt lat="45.6290078" lon="11.7121325"><ele>42.0</ele><time>2026-04-26T14:49:59.163Z</time></trkpt><trkpt lat="45.628946" lon="11.7120019"><ele>42.0</ele><time>2026-04-26T14:50:01.163Z</time></trkpt><trkpt lat="45.6288773" lon="11.7118875"><ele>42.0</ele><time>2026-04-26T14:50:03.163Z</time></trkpt><trkpt lat="45.6287862" lon="11.7117972"><ele>42.0</ele><time>2026-04-26T14:50:05.163Z</time></trkpt><trkpt lat="45.6286982" lon="11.7117291"><ele>42.0</ele><time>2026-04-26T14:50:07.163Z</time></trkpt><trkpt lat="45.6286466" lon="11.711605"><ele>41.6</ele><time>2026-04-26T14:50:09.163Z</time></trkpt><trkpt lat="45.628577" lon="11.7114947"><ele>41.2</ele><time>2026-04-26T14:50:11.162Z</time></trkpt><trkpt lat="45.6285179" lon="11.7113799"><ele>40.8</ele><time>2026-04-26T14:50:13.163Z</time></trkpt><trkpt lat="45.6284625" lon="11.7112741"><ele>40.4</ele><time>2026-04-26T14:50:15.163Z</time></trkpt><trkpt lat="45.6284136" lon="11.7111692"><ele>40.0</ele><time>2026-04-26T14:50:17.162Z</time></trkpt><trkpt lat="45.6283628" lon="11.7110743"><ele>40.4</ele><time>2026-04-26T14:50:19.162Z</time></trkpt><trkpt lat="45.6283144" lon="11.7109787"><ele>40.8</ele><time>2026-04-26T14:50:21.163Z</time></trkpt><trkpt lat="45.6282487" lon="11.7108576"><ele>41.2</ele><time>2026-04-26T14:50:23.162Z</time></trkpt><trkpt lat="45.6281758" lon="11.7107314"><ele>41.6</ele><time>2026-04-26T14:50:25.163Z</time></trkpt><trkpt lat="45.6281147" lon="11.7106137"><ele>42.0</ele><time>2026-04-26T14:50:27.163Z</time></trkpt><trkpt lat="45.6280612" lon="11.7105026"><ele>42.0</ele><time>2026-04-26T14:50:29.162Z</time></trkpt><trkpt lat="45.6280041" lon="11.7103991"><ele>42.0</ele><time>2026-04-26T14:50:31.164Z</time></trkpt><trkpt lat="45.6279503" lon="11.7103005"><ele>42.0</ele><time>2026-04-26T14:50:33.164Z</time></trkpt><trkpt lat="45.6279035" lon="11.7102045"><ele>42.0</ele><time>2026-04-26T14:50:35.164Z</time></trkpt><trkpt lat="45.6278567" lon="11.7101179"><ele>42.0</ele><time>2026-04-26T14:50:37.164Z</time></trkpt><trkpt lat="45.6278157" lon="11.7100347"><ele>42.0</ele><time>2026-04-26T14:50:39.164Z</time></trkpt><trkpt lat="45.6277807" lon="11.7099541"><ele>41.4</ele><time>2026-04-26T14:50:41.164Z</time></trkpt><trkpt lat="45.6277458" lon="11.7098767"><ele>40.800000000000004</ele><time>2026-04-26T14:50:43.164Z</time></trkpt><trkpt lat="45.6276878" lon="11.7097532"><ele>40.2</ele><time>2026-04-26T14:50:45.164Z</time></trkpt><trkpt lat="45.6276142" lon="11.7096251"><ele>39.6</ele><time>2026-04-26T14:50:47.164Z</time></trkpt><trkpt lat="45.6275442" lon="11.7095198"><ele>39.0</ele><time>2026-04-26T14:50:49.164Z</time></trkpt><trkpt lat="45.6274861" lon="11.7094097"><ele>39.4</ele><time>2026-04-26T14:50:51.164Z</time></trkpt><trkpt lat="45.6274278" lon="11.7093034"><ele>39.8</ele><time>2026-04-26T14:50:53.164Z</time></trkpt><trkpt lat="45.6273816" lon="11.7092066"><ele>40.199999999999996</ele><time>2026-04-26T14:50:55.164Z</time></trkpt><trkpt lat="45.6273389" lon="11.7090919"><ele>40.599999999999994</ele><time>2026-04-26T14:50:57.164Z</time></trkpt><trkpt lat="45.6272588" lon="11.7089653"><ele>41.0</ele><time>2026-04-26T14:50:59.164Z</time></trkpt><trkpt lat="45.6271925" lon="11.7088435"><ele>41.0</ele><time>2026-04-26T14:51:01.164Z</time></trkpt><trkpt lat="45.6271421" lon="11.7087347"><ele>41.0</ele><time>2026-04-26T14:51:03.163Z</time></trkpt><trkpt lat="45.6270881" lon="11.7086266"><ele>41.0</ele><time>2026-04-26T14:51:05.163Z</time></trkpt><trkpt lat="45.6270287" lon="11.7085089"><ele>41.0</ele><time>2026-04-26T14:51:07.163Z</time></trkpt><trkpt lat="45.6269684" lon="11.7083975"><ele>41.0</ele><time>2026-04-26T14:51:09.164Z</time></trkpt><trkpt lat="45.6269192" lon="11.7082939"><ele>41.199999999999996</ele><time>2026-04-26T14:51:11.164Z</time></trkpt><trkpt lat="45.626873" lon="11.708204"><ele>41.4</ele><time>2026-04-26T14:51:13.164Z</time></trkpt><trkpt lat="45.6268103" lon="11.7080956"><ele>41.6</ele><time>2026-04-26T14:51:15.164Z</time></trkpt><trkpt lat="45.6267503" lon="11.7079661"><ele>41.8</ele><time>2026-04-26T14:51:17.164Z</time></trkpt><trkpt lat="45.6266965" lon="11.7078445"><ele>42.0</ele><time>2026-04-26T14:51:19.163Z</time></trkpt><trkpt lat="45.6266386" lon="11.7077356"><ele>42.0</ele><time>2026-04-26T14:51:21.164Z</time></trkpt><trkpt lat="45.6265839" lon="11.7076381"><ele>42.0</ele><time>2026-04-26T14:51:23.164Z</time></trkpt><trkpt lat="45.6265289" lon="11.7075435"><ele>42.0</ele><time>2026-04-26T14:51:25.163Z</time></trkpt><trkpt lat="45.6264751" lon="11.7074538"><ele>42.0</ele><time>2026-04-26T14:51:27.164Z</time></trkpt><trkpt lat="45.626428" lon="11.707364"><ele>42.0</ele><time>2026-04-26T14:51:29.163Z</time></trkpt><trkpt lat="45.6263966" lon="11.7072708"><ele>42.0</ele><time>2026-04-26T14:51:31.164Z</time></trkpt><trkpt lat="45.6263749" lon="11.7071684"><ele>42.0</ele><time>2026-04-26T14:51:33.164Z</time></trkpt><trkpt lat="45.6263764" lon="11.7070317"><ele>42.0</ele><time>2026-04-26T14:51:35.163Z</time></trkpt><trkpt lat="45.6263459" lon="11.7068869"><ele>42.0</ele><time>2026-04-26T14:51:37.165Z</time></trkpt><trkpt lat="45.6262872" lon="11.7067497"><ele>42.0</ele><time>2026-04-26T14:51:39.164Z</time></trkpt><trkpt lat="45.6262532" lon="11.7066204"><ele>42.0</ele><time>2026-04-26T14:51:41.165Z</time></trkpt><trkpt lat="45.6262462" lon="11.7064981"><ele>42.0</ele><time>2026-04-26T14:51:43.164Z</time></trkpt><trkpt lat="45.6262592" lon="11.7063789"><ele>42.0</ele><time>2026-04-26T14:51:45.164Z</time></trkpt><trkpt lat="45.6262174" lon="11.7062718"><ele>42.0</ele><time>2026-04-26T14:51:47.165Z</time></trkpt><trkpt lat="45.6261363" lon="11.7061752"><ele>42.0</ele><time>2026-04-26T14:51:49.164Z</time></trkpt><trkpt lat="45.6260598" lon="11.7060396"><ele>42.0</ele><time>2026-04-26T14:51:51.164Z</time></trkpt><trkpt lat="45.6260434" lon="11.7059497"><ele>42.0</ele><time>2026-04-26T14:51:52.165Z</time></trkpt><trkpt lat="45.626034" lon="11.7058596"><ele>42.0</ele><time>2026-04-26T14:51:53.164Z</time></trkpt><trkpt lat="45.6260167" lon="11.7057"><ele>42.0</ele><time>2026-04-26T14:51:55.165Z</time></trkpt><trkpt lat="45.6259987" lon="11.7055494"><ele>42.0</ele><time>2026-04-26T14:51:57.165Z</time></trkpt><trkpt lat="45.6259757" lon="11.7054073"><ele>42.0</ele><time>2026-04-26T14:51:59.165Z</time></trkpt><trkpt lat="45.625959" lon="11.7052755"><ele>42.0</ele><time>2026-04-26T14:52:01.165Z</time></trkpt><trkpt lat="45.6259461" lon="11.7051415"><ele>42.0</ele><time>2026-04-26T14:52:03.165Z</time></trkpt><trkpt lat="45.6259413" lon="11.7050245"><ele>42.0</ele><time>2026-04-26T14:52:05.165Z</time></trkpt><trkpt lat="45.6259292" lon="11.7049117"><ele>42.0</ele><time>2026-04-26T14:52:07.165Z</time></trkpt><trkpt lat="45.6259022" lon="11.7047837"><ele>42.0</ele><time>2026-04-26T14:52:09.165Z</time></trkpt><trkpt lat="45.6258891" lon="11.7046459"><ele>42.0</ele><time>2026-04-26T14:52:11.164Z</time></trkpt><trkpt lat="45.6259202" lon="11.7045009"><ele>42.0</ele><time>2026-04-26T14:52:13.165Z</time></trkpt><trkpt lat="45.6260021" lon="11.7044004"><ele>42.0</ele><time>2026-04-26T14:52:15.165Z</time></trkpt><trkpt lat="45.6260932" lon="11.7043163"><ele>42.0</ele><time>2026-04-26T14:52:17.165Z</time></trkpt><trkpt lat="45.6261728" lon="11.7042192"><ele>42.0</ele><time>2026-04-26T14:52:19.165Z</time></trkpt><trkpt lat="45.6262538" lon="11.7041247"><ele>42.0</ele><time>2026-04-26T14:52:21.165Z</time></trkpt><trkpt lat="45.6263331" lon="11.7040355"><ele>42.0</ele><time>2026-04-26T14:52:23.165Z</time></trkpt><trkpt lat="45.6264138" lon="11.7039484"><ele>42.0</ele><time>2026-04-26T14:52:25.165Z</time></trkpt><trkpt lat="45.6264933" lon="11.7038536"><ele>42.0</ele><time>2026-04-26T14:52:27.165Z</time></trkpt><trkpt lat="45.6265711" lon="11.7037646"><ele>42.0</ele><time>2026-04-26T14:52:29.165Z</time></trkpt><trkpt lat="45.6266522" lon="11.7036798"><ele>42.0</ele><time>2026-04-26T14:52:31.165Z</time></trkpt><trkpt lat="45.6267269" lon="11.7035876"><ele>42.2</ele><time>2026-04-26T14:52:33.165Z</time></trkpt><trkpt lat="45.6268" lon="11.7035011"><ele>42.400000000000006</ele><time>2026-04-26T14:52:35.164Z</time></trkpt><trkpt lat="45.6268729" lon="11.7034105"><ele>42.599999999999994</ele><time>2026-04-26T14:52:37.165Z</time></trkpt><trkpt lat="45.6269474" lon="11.7033251"><ele>42.8</ele><time>2026-04-26T14:52:39.166Z</time></trkpt><trkpt lat="45.6270243" lon="11.7032414"><ele>43.0</ele><time>2026-04-26T14:52:41.166Z</time></trkpt><trkpt lat="45.6271025" lon="11.7031538"><ele>43.0</ele><time>2026-04-26T14:52:43.165Z</time></trkpt><trkpt lat="45.6271783" lon="11.7030723"><ele>43.0</ele><time>2026-04-26T14:52:45.166Z</time></trkpt><trkpt lat="45.6272481" lon="11.7029873"><ele>43.0</ele><time>2026-04-26T14:52:47.166Z</time></trkpt><trkpt lat="45.6273211" lon="11.7029041"><ele>43.0</ele><time>2026-04-26T14:52:49.165Z</time></trkpt><trkpt lat="45.6273857" lon="11.7028026"><ele>43.0</ele><time>2026-04-26T14:52:51.165Z</time></trkpt><trkpt lat="45.62745" lon="11.7027059"><ele>43.0</ele><time>2026-04-26T14:52:53.166Z</time></trkpt><trkpt lat="45.6275073" lon="11.702603"><ele>43.0</ele><time>2026-04-26T14:52:55.165Z</time></trkpt><trkpt lat="45.6275364" lon="11.702472"><ele>43.0</ele><time>2026-04-26T14:52:57.166Z</time></trkpt><trkpt lat="45.6275354" lon="11.7023271"><ele>43.0</ele><time>2026-04-26T14:52:59.166Z</time></trkpt><trkpt lat="45.627502" lon="11.7021919"><ele>43.0</ele><time>2026-04-26T14:53:01.166Z</time></trkpt><trkpt lat="45.6274695" lon="11.7020538"><ele>43.0</ele><time>2026-04-26T14:53:03.166Z</time></trkpt><trkpt lat="45.6274408" lon="11.7019058"><ele>43.0</ele><time>2026-04-26T14:53:05.166Z</time></trkpt><trkpt lat="45.6274023" lon="11.7017736"><ele>43.0</ele><time>2026-04-26T14:53:07.166Z</time></trkpt><trkpt lat="45.6273709" lon="11.7016409"><ele>43.0</ele><time>2026-04-26T14:53:09.166Z</time></trkpt><trkpt lat="45.6273388" lon="11.7014985"><ele>43.0</ele><time>2026-04-26T14:53:11.166Z</time></trkpt><trkpt lat="45.6273114" lon="11.7013514"><ele>43.0</ele><time>2026-04-26T14:53:13.166Z</time></trkpt><trkpt lat="45.62727" lon="11.7012114"><ele>43.0</ele><time>2026-04-26T14:53:15.166Z</time></trkpt><trkpt lat="45.6272318" lon="11.7010716"><ele>43.0</ele><time>2026-04-26T14:53:17.166Z</time></trkpt><trkpt lat="45.6271966" lon="11.7009207"><ele>43.0</ele><time>2026-04-26T14:53:19.166Z</time></trkpt><trkpt lat="45.6271531" lon="11.7007873"><ele>43.0</ele><time>2026-04-26T14:53:21.166Z</time></trkpt><trkpt lat="45.6271166" lon="11.7006521"><ele>43.0</ele><time>2026-04-26T14:53:23.166Z</time></trkpt><trkpt lat="45.6270806" lon="11.7005167"><ele>43.0</ele><time>2026-04-26T14:53:25.166Z</time></trkpt><trkpt lat="45.6270516" lon="11.7003829"><ele>43.0</ele><time>2026-04-26T14:53:27.165Z</time></trkpt><trkpt lat="45.6270284" lon="11.7002463"><ele>43.0</ele><time>2026-04-26T14:53:29.165Z</time></trkpt><trkpt lat="45.6270041" lon="11.7001111"><ele>43.0</ele><time>2026-04-26T14:53:31.165Z</time></trkpt><trkpt lat="45.6269904" lon="11.6999756"><ele>43.2</ele><time>2026-04-26T14:53:33.166Z</time></trkpt><trkpt lat="45.6269668" lon="11.6998322"><ele>43.4</ele><time>2026-04-26T14:53:35.166Z</time></trkpt><trkpt lat="45.6269457" lon="11.6996985"><ele>43.6</ele><time>2026-04-26T14:53:37.166Z</time></trkpt><trkpt lat="45.6269233" lon="11.6995582"><ele>43.800000000000004</ele><time>2026-04-26T14:53:39.166Z</time></trkpt><trkpt lat="45.6268958" lon="11.6994227"><ele>44.0</ele><time>2026-04-26T14:53:41.166Z</time></trkpt><trkpt lat="45.6268579" lon="11.6992877"><ele>43.6</ele><time>2026-04-26T14:53:43.167Z</time></trkpt><trkpt lat="45.6268226" lon="11.6991503"><ele>43.2</ele><time>2026-04-26T14:53:45.167Z</time></trkpt><trkpt lat="45.6267927" lon="11.6990304"><ele>42.800000000000004</ele><time>2026-04-26T14:53:47.166Z</time></trkpt><trkpt lat="45.6267915" lon="11.6989091"><ele>42.400000000000006</ele><time>2026-04-26T14:53:49.167Z</time></trkpt><trkpt lat="45.6268501" lon="11.6988174"><ele>42.0</ele><time>2026-04-26T14:53:51.167Z</time></trkpt><trkpt lat="45.6269405" lon="11.6987871"><ele>42.400000000000006</ele><time>2026-04-26T14:53:53.167Z</time></trkpt><trkpt lat="45.6270521" lon="11.6987767"><ele>42.800000000000004</ele><time>2026-04-26T14:53:55.167Z</time></trkpt><trkpt lat="45.62716" lon="11.6987598"><ele>43.2</ele><time>2026-04-26T14:53:57.166Z</time></trkpt><trkpt lat="45.6272616" lon="11.6987422"><ele>43.6</ele><time>2026-04-26T14:53:59.166Z</time></trkpt><trkpt lat="45.627358" lon="11.6987442"><ele>44.0</ele><time>2026-04-26T14:54:01.167Z</time></trkpt><trkpt lat="45.6274647" lon="11.6987427"><ele>44.0</ele><time>2026-04-26T14:54:03.167Z</time></trkpt><trkpt lat="45.6275722" lon="11.6987422"><ele>44.0</ele><time>2026-04-26T14:54:05.167Z</time></trkpt><trkpt lat="45.6276796" lon="11.698731"><ele>44.0</ele><time>2026-04-26T14:54:07.166Z</time></trkpt><trkpt lat="45.6277931" lon="11.6987138"><ele>44.0</ele><time>2026-04-26T14:54:09.167Z</time></trkpt><trkpt lat="45.6279021" lon="11.6986954"><ele>44.0</ele><time>2026-04-26T14:54:11.167Z</time></trkpt><trkpt lat="45.6280072" lon="11.6986699"><ele>44.400000000000006</ele><time>2026-04-26T14:54:13.166Z</time></trkpt><trkpt lat="45.6281052" lon="11.6986505"><ele>44.8</ele><time>2026-04-26T14:54:15.167Z</time></trkpt><trkpt lat="45.6281996" lon="11.6986348"><ele>45.2</ele><time>2026-04-26T14:54:17.167Z</time></trkpt><trkpt lat="45.6283046" lon="11.698608"><ele>45.599999999999994</ele><time>2026-04-26T14:54:19.167Z</time></trkpt><trkpt lat="45.6284144" lon="11.6985811"><ele>46.0</ele><time>2026-04-26T14:54:21.167Z</time></trkpt><trkpt lat="45.6285097" lon="11.698607"><ele>46.0</ele><time>2026-04-26T14:54:23.167Z</time></trkpt><trkpt lat="45.628589" lon="11.6986353"><ele>46.0</ele><time>2026-04-26T14:54:25.167Z</time></trkpt><trkpt lat="45.6286763" lon="11.6986097"><ele>46.0</ele><time>2026-04-26T14:54:27.167Z</time></trkpt><trkpt lat="45.62877" lon="11.6985876"><ele>46.0</ele><time>2026-04-26T14:54:29.167Z</time></trkpt><trkpt lat="45.6288751" lon="11.6985629"><ele>46.0</ele><time>2026-04-26T14:54:31.166Z</time></trkpt><trkpt lat="45.6289768" lon="11.6985475"><ele>46.0</ele><time>2026-04-26T14:54:33.167Z</time></trkpt><trkpt lat="45.6290731" lon="11.698537"><ele>46.0</ele><time>2026-04-26T14:54:35.167Z</time></trkpt><trkpt lat="45.6291739" lon="11.6985312"><ele>46.0</ele><time>2026-04-26T14:54:37.167Z</time></trkpt><trkpt lat="45.6292835" lon="11.6985201"><ele>46.0</ele><time>2026-04-26T14:54:39.167Z</time></trkpt><trkpt lat="45.6293843" lon="11.6985148"><ele>46.0</ele><time>2026-04-26T14:54:41.167Z</time></trkpt><trkpt lat="45.6294895" lon="11.6985149"><ele>45.8</ele><time>2026-04-26T14:54:43.167Z</time></trkpt><trkpt lat="45.6295901" lon="11.6985004"><ele>45.599999999999994</ele><time>2026-04-26T14:54:45.168Z</time></trkpt><trkpt lat="45.6296928" lon="11.6984878"><ele>45.4</ele><time>2026-04-26T14:54:47.168Z</time></trkpt><trkpt lat="45.6297955" lon="11.6984803"><ele>45.2</ele><time>2026-04-26T14:54:49.168Z</time></trkpt><trkpt lat="45.6299015" lon="11.6984692"><ele>45.0</ele><time>2026-04-26T14:54:51.168Z</time></trkpt><trkpt lat="45.6300055" lon="11.6984598"><ele>45.0</ele><time>2026-04-26T14:54:53.167Z</time></trkpt><trkpt lat="45.6301103" lon="11.6984476"><ele>45.0</ele><time>2026-04-26T14:54:55.168Z</time></trkpt><trkpt lat="45.6302082" lon="11.698438"><ele>45.0</ele><time>2026-04-26T14:54:57.168Z</time></trkpt><trkpt lat="45.6303022" lon="11.6984271"><ele>45.0</ele><time>2026-04-26T14:54:59.168Z</time></trkpt><trkpt lat="45.6303994" lon="11.6984225"><ele>45.0</ele><time>2026-04-26T14:55:01.168Z</time></trkpt><trkpt lat="45.6305023" lon="11.6984249"><ele>44.8</ele><time>2026-04-26T14:55:03.168Z</time></trkpt><trkpt lat="45.6306071" lon="11.6984164"><ele>44.6</ele><time>2026-04-26T14:55:05.167Z</time></trkpt><trkpt lat="45.6307085" lon="11.6984045"><ele>44.400000000000006</ele><time>2026-04-26T14:55:07.168Z</time></trkpt><trkpt lat="45.6308181" lon="11.6983959"><ele>44.2</ele><time>2026-04-26T14:55:09.168Z</time></trkpt><trkpt lat="45.6309348" lon="11.6984094"><ele>44.0</ele><time>2026-04-26T14:55:11.168Z</time></trkpt><trkpt lat="45.6310503" lon="11.6984166"><ele>44.0</ele><time>2026-04-26T14:55:13.168Z</time></trkpt><trkpt lat="45.6311578" lon="11.6984053"><ele>44.0</ele><time>2026-04-26T14:55:15.168Z</time></trkpt><trkpt lat="45.6312641" lon="11.6983994"><ele>44.0</ele><time>2026-04-26T14:55:17.168Z</time></trkpt><trkpt lat="45.6313732" lon="11.6983819"><ele>44.0</ele><time>2026-04-26T14:55:19.168Z</time></trkpt><trkpt lat="45.6314845" lon="11.6983692"><ele>44.0</ele><time>2026-04-26T14:55:21.168Z</time></trkpt><trkpt lat="45.6315945" lon="11.6983564"><ele>44.0</ele><time>2026-04-26T14:55:23.168Z</time></trkpt><trkpt lat="45.631713" lon="11.698347"><ele>44.0</ele><time>2026-04-26T14:55:25.168Z</time></trkpt><trkpt lat="45.6318301" lon="11.6983356"><ele>44.0</ele><time>2026-04-26T14:55:27.168Z</time></trkpt><trkpt lat="45.6319464" lon="11.6983249"><ele>44.0</ele><time>2026-04-26T14:55:29.168Z</time></trkpt><trkpt lat="45.6320427" lon="11.6983222"><ele>44.0</ele><time>2026-04-26T14:55:31.168Z</time></trkpt><trkpt lat="45.6321404" lon="11.6983083"><ele>44.6</ele><time>2026-04-26T14:55:33.168Z</time></trkpt><trkpt lat="45.6322266" lon="11.6982991"><ele>45.2</ele><time>2026-04-26T14:55:35.167Z</time></trkpt><trkpt lat="45.6323218" lon="11.6982865"><ele>45.800000000000004</ele><time>2026-04-26T14:55:37.168Z</time></trkpt><trkpt lat="45.6324257" lon="11.6982698"><ele>46.400000000000006</ele><time>2026-04-26T14:55:39.168Z</time></trkpt><trkpt lat="45.6325487" lon="11.6982586"><ele>47.0</ele><time>2026-04-26T14:55:41.168Z</time></trkpt><trkpt lat="45.6326564" lon="11.6982642"><ele>47.0</ele><time>2026-04-26T14:55:43.168Z</time></trkpt><trkpt lat="45.63276" lon="11.6982537"><ele>47.0</ele><time>2026-04-26T14:55:45.168Z</time></trkpt><trkpt lat="45.6328536" lon="11.6982625"><ele>47.0</ele><time>2026-04-26T14:55:47.169Z</time></trkpt><trkpt lat="45.6329315" lon="11.6983285"><ele>47.0</ele><time>2026-04-26T14:55:49.169Z</time></trkpt><trkpt lat="45.6329951" lon="11.6984165"><ele>47.0</ele><time>2026-04-26T14:55:51.169Z</time></trkpt><trkpt lat="45.6330957" lon="11.6983955"><ele>47.25</ele><time>2026-04-26T14:55:53.169Z</time></trkpt><trkpt lat="45.6331825" lon="11.6982793"><ele>47.5</ele><time>2026-04-26T14:55:55.169Z</time></trkpt><trkpt lat="45.6332182" lon="11.6981044"><ele>47.75</ele><time>2026-04-26T14:55:57.168Z</time></trkpt><trkpt lat="45.6332278" lon="11.6979353"><ele>48.0</ele><time>2026-04-26T14:55:59.169Z</time></trkpt><trkpt lat="45.633221" lon="11.6977931"><ele>47.599999999999994</ele><time>2026-04-26T14:56:01.169Z</time></trkpt><trkpt lat="45.6332123" lon="11.6976611"><ele>47.199999999999996</ele><time>2026-04-26T14:56:03.169Z</time></trkpt><trkpt lat="45.6332155" lon="11.6975413"><ele>46.8</ele><time>2026-04-26T14:56:05.169Z</time></trkpt><trkpt lat="45.6332054" lon="11.6973904"><ele>46.4</ele><time>2026-04-26T14:56:07.168Z</time></trkpt><trkpt lat="45.6332066" lon="11.697258"><ele>46.0</ele><time>2026-04-26T14:56:09.169Z</time></trkpt><trkpt lat="45.6331994" lon="11.6971383"><ele>46.0</ele><time>2026-04-26T14:56:11.169Z</time></trkpt><trkpt lat="45.6332033" lon="11.6970183"><ele>46.0</ele><time>2026-04-26T14:56:13.169Z</time></trkpt><trkpt lat="45.6332429" lon="11.6969295"><ele>46.0</ele><time>2026-04-26T14:56:15.169Z</time></trkpt><trkpt lat="45.6333146" lon="11.6968777"><ele>46.0</ele><time>2026-04-26T14:56:17.169Z</time></trkpt><trkpt lat="45.6334298" lon="11.6968367"><ele>46.0</ele><time>2026-04-26T14:56:19.169Z</time></trkpt><trkpt lat="45.6335359" lon="11.6968065"><ele>46.0</ele><time>2026-04-26T14:56:21.169Z</time></trkpt><trkpt lat="45.6336373" lon="11.6967777"><ele>46.0</ele><time>2026-04-26T14:56:23.169Z</time></trkpt><trkpt lat="45.633742" lon="11.6967183"><ele>46.0</ele><time>2026-04-26T14:56:25.169Z</time></trkpt><trkpt lat="45.6338391" lon="11.6966751"><ele>46.0</ele><time>2026-04-26T14:56:27.169Z</time></trkpt><trkpt lat="45.6339364" lon="11.6966341"><ele>46.0</ele><time>2026-04-26T14:56:29.169Z</time></trkpt><trkpt lat="45.6340368" lon="11.6965885"><ele>46.0</ele><time>2026-04-26T14:56:31.169Z</time></trkpt><trkpt lat="45.6341247" lon="11.6965504"><ele>46.0</ele><time>2026-04-26T14:56:33.169Z</time></trkpt><trkpt lat="45.6342205" lon="11.6965089"><ele>46.0</ele><time>2026-04-26T14:56:35.169Z</time></trkpt><trkpt lat="45.6343184" lon="11.6964621"><ele>46.0</ele><time>2026-04-26T14:56:37.169Z</time></trkpt><trkpt lat="45.6344071" lon="11.6964187"><ele>46.0</ele><time>2026-04-26T14:56:39.169Z</time></trkpt><trkpt lat="45.6344889" lon="11.6963775"><ele>45.8</ele><time>2026-04-26T14:56:41.169Z</time></trkpt><trkpt lat="45.6345788" lon="11.6963368"><ele>45.599999999999994</ele><time>2026-04-26T14:56:43.168Z</time></trkpt><trkpt lat="45.6346726" lon="11.6962973"><ele>45.4</ele><time>2026-04-26T14:56:45.169Z</time></trkpt><trkpt lat="45.6347614" lon="11.6962573"><ele>45.2</ele><time>2026-04-26T14:56:47.168Z</time></trkpt><trkpt lat="45.6348519" lon="11.6962108"><ele>45.0</ele><time>2026-04-26T14:56:49.169Z</time></trkpt><trkpt lat="45.6349426" lon="11.6961679"><ele>45.0</ele><time>2026-04-26T14:56:51.169Z</time></trkpt><trkpt lat="45.6350331" lon="11.6961183"><ele>45.0</ele><time>2026-04-26T14:56:53.17Z</time></trkpt><trkpt lat="45.635127" lon="11.6960771"><ele>45.0</ele><time>2026-04-26T14:56:55.17Z</time></trkpt><trkpt lat="45.6352194" lon="11.696033"><ele>45.0</ele><time>2026-04-26T14:56:57.17Z</time></trkpt><trkpt lat="45.6353102" lon="11.6959838"><ele>45.0</ele><time>2026-04-26T14:56:59.17Z</time></trkpt><trkpt lat="45.6353998" lon="11.6959409"><ele>45.4</ele><time>2026-04-26T14:57:01.17Z</time></trkpt><trkpt lat="45.6354886" lon="11.695897"><ele>45.8</ele><time>2026-04-26T14:57:03.17Z</time></trkpt><trkpt lat="45.6355775" lon="11.6958644"><ele>46.2</ele><time>2026-04-26T14:57:05.17Z</time></trkpt><trkpt lat="45.6356697" lon="11.695826"><ele>46.6</ele><time>2026-04-26T14:57:07.17Z</time></trkpt><trkpt lat="45.6357674" lon="11.6957921"><ele>47.0</ele><time>2026-04-26T14:57:09.169Z</time></trkpt><trkpt lat="45.6358569" lon="11.6957495"><ele>47.0</ele><time>2026-04-26T14:57:11.17Z</time></trkpt><trkpt lat="45.6359485" lon="11.6957064"><ele>47.0</ele><time>2026-04-26T14:57:13.17Z</time></trkpt><trkpt lat="45.6360493" lon="11.6956504"><ele>47.0</ele><time>2026-04-26T14:57:15.17Z</time></trkpt><trkpt lat="45.6361448" lon="11.6956027"><ele>47.0</ele><time>2026-04-26T14:57:17.17Z</time></trkpt><trkpt lat="45.6362394" lon="11.6955622"><ele>47.0</ele><time>2026-04-26T14:57:19.169Z</time></trkpt><trkpt lat="45.6363304" lon="11.695521"><ele>46.8</ele><time>2026-04-26T14:57:21.17Z</time></trkpt><trkpt lat="45.6364209" lon="11.695473"><ele>46.6</ele><time>2026-04-26T14:57:23.17Z</time></trkpt><trkpt lat="45.6365106" lon="11.6954324"><ele>46.4</ele><time>2026-04-26T14:57:25.17Z</time></trkpt><trkpt lat="45.6366043" lon="11.6953805"><ele>46.199999999999996</ele><time>2026-04-26T14:57:27.17Z</time></trkpt><trkpt lat="45.6367038" lon="11.6953315"><ele>46.0</ele><time>2026-04-26T14:57:29.17Z</time></trkpt><trkpt lat="45.6367935" lon="11.6952922"><ele>46.0</ele><time>2026-04-26T14:57:31.169Z</time></trkpt><trkpt lat="45.6368972" lon="11.6952503"><ele>46.0</ele><time>2026-04-26T14:57:33.17Z</time></trkpt><trkpt lat="45.6369946" lon="11.6951895"><ele>46.0</ele><time>2026-04-26T14:57:35.169Z</time></trkpt><trkpt lat="45.6370809" lon="11.6951567"><ele>46.0</ele><time>2026-04-26T14:57:37.17Z</time></trkpt><trkpt lat="45.637178" lon="11.6951171"><ele>46.0</ele><time>2026-04-26T14:57:39.169Z</time></trkpt><trkpt lat="45.6372776" lon="11.6950776"><ele>46.199999999999996</ele><time>2026-04-26T14:57:41.17Z</time></trkpt><trkpt lat="45.6373734" lon="11.6950335"><ele>46.4</ele><time>2026-04-26T14:57:43.17Z</time></trkpt><trkpt lat="45.6374659" lon="11.6949892"><ele>46.6</ele><time>2026-04-26T14:57:45.17Z</time></trkpt><trkpt lat="45.6375648" lon="11.6949487"><ele>46.8</ele><time>2026-04-26T14:57:47.17Z</time></trkpt><trkpt lat="45.6376624" lon="11.6949008"><ele>47.0</ele><time>2026-04-26T14:57:49.17Z</time></trkpt><trkpt lat="45.6377565" lon="11.6948533"><ele>46.6</ele><time>2026-04-26T14:57:51.17Z</time></trkpt><trkpt lat="45.6378562" lon="11.6948161"><ele>46.2</ele><time>2026-04-26T14:57:53.17Z</time></trkpt><trkpt lat="45.6379506" lon="11.6947677"><ele>45.8</ele><time>2026-04-26T14:57:55.171Z</time></trkpt><trkpt lat="45.6380452" lon="11.6947181"><ele>45.4</ele><time>2026-04-26T14:57:57.171Z</time></trkpt><trkpt lat="45.6381425" lon="11.6946816"><ele>45.0</ele><time>2026-04-26T14:57:59.171Z</time></trkpt><trkpt lat="45.6382385" lon="11.6946309"><ele>45.0</ele><time>2026-04-26T14:58:01.171Z</time></trkpt><trkpt lat="45.6383348" lon="11.694589"><ele>45.0</ele><time>2026-04-26T14:58:03.171Z</time></trkpt><trkpt lat="45.6384348" lon="11.6945476"><ele>45.0</ele><time>2026-04-26T14:58:05.171Z</time></trkpt><trkpt lat="45.6385329" lon="11.6945072"><ele>45.0</ele><time>2026-04-26T14:58:07.171Z</time></trkpt><trkpt lat="45.6386308" lon="11.6944604"><ele>45.0</ele><time>2026-04-26T14:58:09.171Z</time></trkpt><trkpt lat="45.6387308" lon="11.6944099"><ele>45.4</ele><time>2026-04-26T14:58:11.17Z</time></trkpt><trkpt lat="45.6388279" lon="11.6943451"><ele>45.8</ele><time>2026-04-26T14:58:13.171Z</time></trkpt><trkpt lat="45.6389159" lon="11.6942659"><ele>46.2</ele><time>2026-04-26T14:58:15.171Z</time></trkpt><trkpt lat="45.6389962" lon="11.6941727"><ele>46.6</ele><time>2026-04-26T14:58:17.17Z</time></trkpt><trkpt lat="45.6390743" lon="11.6940805"><ele>47.0</ele><time>2026-04-26T14:58:19.171Z</time></trkpt><trkpt lat="45.6391502" lon="11.6939944"><ele>47.0</ele><time>2026-04-26T14:58:21.171Z</time></trkpt><trkpt lat="45.6392247" lon="11.6939044"><ele>47.0</ele><time>2026-04-26T14:58:23.171Z</time></trkpt><trkpt lat="45.6393026" lon="11.6938164"><ele>47.0</ele><time>2026-04-26T14:58:25.171Z</time></trkpt><trkpt lat="45.6393792" lon="11.693732"><ele>47.0</ele><time>2026-04-26T14:58:27.17Z</time></trkpt><trkpt lat="45.6394631" lon="11.6936436"><ele>47.0</ele><time>2026-04-26T14:58:29.171Z</time></trkpt><trkpt lat="45.639544" lon="11.6935546"><ele>47.2</ele><time>2026-04-26T14:58:31.171Z</time></trkpt><trkpt lat="45.6396281" lon="11.6934694"><ele>47.400000000000006</ele><time>2026-04-26T14:58:33.171Z</time></trkpt><trkpt lat="45.6397167" lon="11.6933663"><ele>47.599999999999994</ele><time>2026-04-26T14:58:35.171Z</time></trkpt><trkpt lat="45.6398056" lon="11.6932669"><ele>47.8</ele><time>2026-04-26T14:58:37.171Z</time></trkpt><trkpt lat="45.6398936" lon="11.6931672"><ele>48.0</ele><time>2026-04-26T14:58:39.171Z</time></trkpt><trkpt lat="45.6399811" lon="11.6930705"><ele>48.0</ele><time>2026-04-26T14:58:41.171Z</time></trkpt><trkpt lat="45.6400644" lon="11.692973"><ele>48.0</ele><time>2026-04-26T14:58:43.171Z</time></trkpt><trkpt lat="45.6401542" lon="11.6928922"><ele>48.0</ele><time>2026-04-26T14:58:45.17Z</time></trkpt><trkpt lat="45.6402428" lon="11.6928163"><ele>48.0</ele><time>2026-04-26T14:58:47.171Z</time></trkpt><trkpt lat="45.6403337" lon="11.6927467"><ele>48.0</ele><time>2026-04-26T14:58:49.171Z</time></trkpt><trkpt lat="45.6404285" lon="11.6926847"><ele>48.2</ele><time>2026-04-26T14:58:51.171Z</time></trkpt><trkpt lat="45.6405218" lon="11.6926246"><ele>48.4</ele><time>2026-04-26T14:58:53.17Z</time></trkpt><trkpt lat="45.6406153" lon="11.6925636"><ele>48.6</ele><time>2026-04-26T14:58:55.172Z</time></trkpt><trkpt lat="45.6407023" lon="11.6925121"><ele>48.800000000000004</ele><time>2026-04-26T14:58:57.172Z</time></trkpt><trkpt lat="45.6407858" lon="11.6924624"><ele>49.0</ele><time>2026-04-26T14:58:59.172Z</time></trkpt><trkpt lat="45.6408752" lon="11.6924057"><ele>49.0</ele><time>2026-04-26T14:59:01.172Z</time></trkpt><trkpt lat="45.6409672" lon="11.6923648"><ele>49.0</ele><time>2026-04-26T14:59:03.172Z</time></trkpt><trkpt lat="45.6410591" lon="11.6923138"><ele>49.0</ele><time>2026-04-26T14:59:05.172Z</time></trkpt><trkpt lat="45.6411465" lon="11.6922657"><ele>49.0</ele><time>2026-04-26T14:59:07.172Z</time></trkpt><trkpt lat="45.6412297" lon="11.6922276"><ele>49.0</ele><time>2026-04-26T14:59:09.172Z</time></trkpt><trkpt lat="45.6413126" lon="11.6921795"><ele>49.0</ele><time>2026-04-26T14:59:11.172Z</time></trkpt><trkpt lat="45.6413805" lon="11.6921361"><ele>49.0</ele><time>2026-04-26T14:59:13.172Z</time></trkpt><trkpt lat="45.6414715" lon="11.6920758"><ele>49.0</ele><time>2026-04-26T14:59:15.172Z</time></trkpt><trkpt lat="45.6415665" lon="11.6920136"><ele>49.0</ele><time>2026-04-26T14:59:17.171Z</time></trkpt><trkpt lat="45.6416596" lon="11.6919489"><ele>49.0</ele><time>2026-04-26T14:59:19.172Z</time></trkpt><trkpt lat="45.6417379" lon="11.6918904"><ele>49.0</ele><time>2026-04-26T14:59:21.172Z</time></trkpt><trkpt lat="45.641835" lon="11.6918176"><ele>49.0</ele><time>2026-04-26T14:59:23.172Z</time></trkpt><trkpt lat="45.6419263" lon="11.691763"><ele>49.0</ele><time>2026-04-26T14:59:25.172Z</time></trkpt><trkpt lat="45.6420127" lon="11.6917024"><ele>49.0</ele><time>2026-04-26T14:59:27.171Z</time></trkpt><trkpt lat="45.6420995" lon="11.691639"><ele>49.0</ele><time>2026-04-26T14:59:29.172Z</time></trkpt><trkpt lat="45.6421836" lon="11.6915907"><ele>48.800000000000004</ele><time>2026-04-26T14:59:31.172Z</time></trkpt><trkpt lat="45.6422709" lon="11.6915292"><ele>48.6</ele><time>2026-04-26T14:59:33.172Z</time></trkpt><trkpt lat="45.6423635" lon="11.6914707"><ele>48.4</ele><time>2026-04-26T14:59:35.172Z</time></trkpt><trkpt lat="45.6424569" lon="11.6914143"><ele>48.2</ele><time>2026-04-26T14:59:37.172Z</time></trkpt><trkpt lat="45.642549" lon="11.6913489"><ele>48.0</ele><time>2026-04-26T14:59:39.172Z</time></trkpt><trkpt lat="45.6426461" lon="11.6912894"><ele>48.0</ele><time>2026-04-26T14:59:41.172Z</time></trkpt><trkpt lat="45.6427476" lon="11.6912366"><ele>48.0</ele><time>2026-04-26T14:59:43.172Z</time></trkpt><trkpt lat="45.6428443" lon="11.6911852"><ele>48.0</ele><time>2026-04-26T14:59:45.172Z</time></trkpt><trkpt lat="45.6429356" lon="11.6911364"><ele>48.0</ele><time>2026-04-26T14:59:47.172Z</time></trkpt><trkpt lat="45.6430203" lon="11.6910909"><ele>48.0</ele><time>2026-04-26T14:59:49.172Z</time></trkpt><trkpt lat="45.6430953" lon="11.6910351"><ele>48.5</ele><time>2026-04-26T14:59:51.172Z</time></trkpt><trkpt lat="45.6431668" lon="11.6909743"><ele>49.0</ele><time>2026-04-26T14:59:53.172Z</time></trkpt><trkpt lat="45.643244" lon="11.6909095"><ele>49.5</ele><time>2026-04-26T14:59:55.172Z</time></trkpt><trkpt lat="45.6433293" lon="11.6908525"><ele>50.0</ele><time>2026-04-26T14:59:57.172Z</time></trkpt><trkpt lat="45.643403" lon="11.6907859"><ele>50.5</ele><time>2026-04-26T14:59:59.173Z</time></trkpt><trkpt lat="45.6434772" lon="11.6907088"><ele>51.0</ele><time>2026-04-26T15:00:01.172Z</time></trkpt><trkpt lat="45.6435493" lon="11.6906294"><ele>51.0</ele><time>2026-04-26T15:00:03.172Z</time></trkpt><trkpt lat="45.6436276" lon="11.6905491"><ele>51.0</ele><time>2026-04-26T15:00:05.173Z</time></trkpt><trkpt lat="45.6437084" lon="11.6904636"><ele>51.0</ele><time>2026-04-26T15:00:07.172Z</time></trkpt><trkpt lat="45.6437886" lon="11.6903748"><ele>51.0</ele><time>2026-04-26T15:00:09.173Z</time></trkpt><trkpt lat="45.643874" lon="11.6902921"><ele>51.0</ele><time>2026-04-26T15:00:11.173Z</time></trkpt><trkpt lat="45.6439616" lon="11.6902151"><ele>50.599999999999994</ele><time>2026-04-26T15:00:13.173Z</time></trkpt><trkpt lat="45.6440556" lon="11.6901385"><ele>50.2</ele><time>2026-04-26T15:00:15.173Z</time></trkpt><trkpt lat="45.6441502" lon="11.6900597"><ele>49.8</ele><time>2026-04-26T15:00:17.173Z</time></trkpt><trkpt lat="45.6442417" lon="11.689985"><ele>49.400000000000006</ele><time>2026-04-26T15:00:19.172Z</time></trkpt><trkpt lat="45.6443221" lon="11.6899054"><ele>49.0</ele><time>2026-04-26T15:00:21.173Z</time></trkpt><trkpt lat="45.6443981" lon="11.6898284"><ele>48.800000000000004</ele><time>2026-04-26T15:00:23.173Z</time></trkpt><trkpt lat="45.6444717" lon="11.6897385"><ele>48.6</ele><time>2026-04-26T15:00:25.173Z</time></trkpt><trkpt lat="45.6445469" lon="11.6896366"><ele>48.4</ele><time>2026-04-26T15:00:27.172Z</time></trkpt><trkpt lat="45.6446311" lon="11.6895421"><ele>48.2</ele><time>2026-04-26T15:00:29.172Z</time></trkpt><trkpt lat="45.6447237" lon="11.6894626"><ele>48.0</ele><time>2026-04-26T15:00:31.173Z</time></trkpt><trkpt lat="45.6448193" lon="11.6893858"><ele>48.4</ele><time>2026-04-26T15:00:33.173Z</time></trkpt><trkpt lat="45.6449146" lon="11.6893172"><ele>48.8</ele><time>2026-04-26T15:00:35.172Z</time></trkpt><trkpt lat="45.6450113" lon="11.689253"><ele>49.2</ele><time>2026-04-26T15:00:37.173Z</time></trkpt><trkpt lat="45.6451062" lon="11.689181"><ele>49.6</ele><time>2026-04-26T15:00:39.173Z</time></trkpt><trkpt lat="45.6451993" lon="11.6891173"><ele>50.0</ele><time>2026-04-26T15:00:41.173Z</time></trkpt><trkpt lat="45.6452908" lon="11.6890576"><ele>50.00000000000001</ele><time>2026-04-26T15:00:43.173Z</time></trkpt><trkpt lat="45.6453742" lon="11.6890141"><ele>50.0</ele><time>2026-04-26T15:00:45.172Z</time></trkpt><trkpt lat="45.6454669" lon="11.6889922"><ele>50.0</ele><time>2026-04-26T15:00:47.173Z</time></trkpt><trkpt lat="45.6455157" lon="11.6889242"><ele>50.0</ele><time>2026-04-26T15:00:49.173Z</time></trkpt><trkpt lat="45.6455119" lon="11.6888205"><ele>50.00000000000001</ele><time>2026-04-26T15:00:51.173Z</time></trkpt><trkpt lat="45.6454743" lon="11.6886812"><ele>50.0</ele><time>2026-04-26T15:00:53.173Z</time></trkpt><trkpt lat="45.6454286" lon="11.688542"><ele>50.2</ele><time>2026-04-26T15:00:55.173Z</time></trkpt><trkpt lat="45.6453805" lon="11.6884199"><ele>50.4</ele><time>2026-04-26T15:00:57.173Z</time></trkpt><trkpt lat="45.6453341" lon="11.6882879"><ele>50.599999999999994</ele><time>2026-04-26T15:00:59.173Z</time></trkpt><trkpt lat="45.6452812" lon="11.6881551"><ele>50.8</ele><time>2026-04-26T15:01:01.173Z</time></trkpt><trkpt lat="45.645235" lon="11.6880269"><ele>51.0</ele><time>2026-04-26T15:01:03.173Z</time></trkpt><trkpt lat="45.6451927" lon="11.6879023"><ele>51.0</ele><time>2026-04-26T15:01:05.174Z</time></trkpt><trkpt lat="45.6451142" lon="11.6877938"><ele>51.0</ele><time>2026-04-26T15:01:07.173Z</time></trkpt><trkpt lat="45.6450247" lon="11.6876966"><ele>51.0</ele><time>2026-04-26T15:01:09.174Z</time></trkpt><trkpt lat="45.6449437" lon="11.6875986"><ele>51.0</ele><time>2026-04-26T15:01:11.174Z</time></trkpt><trkpt lat="45.6448589" lon="11.6875234"><ele>51.0</ele><time>2026-04-26T15:01:13.174Z</time></trkpt><trkpt lat="45.6447905" lon="11.6874411"><ele>51.0</ele><time>2026-04-26T15:01:15.173Z</time></trkpt><trkpt lat="45.6447233" lon="11.6873514"><ele>51.0</ele><time>2026-04-26T15:01:17.174Z</time></trkpt><trkpt lat="45.6446748" lon="11.6872594"><ele>51.0</ele><time>2026-04-26T15:01:19.174Z</time></trkpt><trkpt lat="45.6446294" lon="11.6871443"><ele>51.0</ele><time>2026-04-26T15:01:21.173Z</time></trkpt><trkpt lat="45.6445744" lon="11.6870202"><ele>51.0</ele><time>2026-04-26T15:01:23.173Z</time></trkpt><trkpt lat="45.644519" lon="11.6868949"><ele>50.599999999999994</ele><time>2026-04-26T15:01:25.174Z</time></trkpt><trkpt lat="45.6444689" lon="11.6867787"><ele>50.2</ele><time>2026-04-26T15:01:27.174Z</time></trkpt><trkpt lat="45.6444342" lon="11.6866525"><ele>49.8</ele><time>2026-04-26T15:01:29.174Z</time></trkpt><trkpt lat="45.6444027" lon="11.6865109"><ele>49.400000000000006</ele><time>2026-04-26T15:01:31.174Z</time></trkpt><trkpt lat="45.6443688" lon="11.6863617"><ele>49.0</ele><time>2026-04-26T15:01:33.174Z</time></trkpt><trkpt lat="45.6443358" lon="11.6862161"><ele>49.0</ele><time>2026-04-26T15:01:35.174Z</time></trkpt><trkpt lat="45.6443062" lon="11.686076"><ele>49.0</ele><time>2026-04-26T15:01:37.174Z</time></trkpt><trkpt lat="45.6442811" lon="11.6859415"><ele>49.0</ele><time>2026-04-26T15:01:39.173Z</time></trkpt><trkpt lat="45.6442515" lon="11.6857878"><ele>49.0</ele><time>2026-04-26T15:01:41.174Z</time></trkpt><trkpt lat="45.6442206" lon="11.6856384"><ele>49.0</ele><time>2026-04-26T15:01:43.174Z</time></trkpt><trkpt lat="45.6441912" lon="11.6854935"><ele>49.0</ele><time>2026-04-26T15:01:45.174Z</time></trkpt><trkpt lat="45.6441649" lon="11.6853471"><ele>49.0</ele><time>2026-04-26T15:01:47.174Z</time></trkpt><trkpt lat="45.6441386" lon="11.6852126"><ele>49.0</ele><time>2026-04-26T15:01:49.174Z</time></trkpt><trkpt lat="45.6441187" lon="11.6850879"><ele>49.0</ele><time>2026-04-26T15:01:51.174Z</time></trkpt><trkpt lat="45.6441028" lon="11.6849649"><ele>49.0</ele><time>2026-04-26T15:01:53.174Z</time></trkpt><trkpt lat="45.644075" lon="11.6847856"><ele>49.166666666666664</ele><time>2026-04-26T15:01:56.174Z</time></trkpt><trkpt lat="45.6440578" lon="11.6846861"><ele>49.33333333333333</ele><time>2026-04-26T15:01:58.174Z</time></trkpt><trkpt lat="45.6440426" lon="11.6845777"><ele>49.5</ele><time>2026-04-26T15:02:00.174Z</time></trkpt><trkpt lat="45.6440317" lon="11.6844787"><ele>49.66666666666667</ele><time>2026-04-26T15:02:02.174Z</time></trkpt><trkpt lat="45.644016" lon="11.6843813"><ele>49.833333333333336</ele><time>2026-04-26T15:02:04.174Z</time></trkpt><trkpt lat="45.6439896" lon="11.6842573"><ele>50.0</ele><time>2026-04-26T15:02:07.175Z</time></trkpt><trkpt lat="45.6439854" lon="11.6841433"><ele>50.16666666666667</ele><time>2026-04-26T15:02:10.175Z</time></trkpt><trkpt lat="45.6440402" lon="11.6840603"><ele>50.333333333333336</ele><time>2026-04-26T15:02:13.175Z</time></trkpt><trkpt lat="45.6441201" lon="11.6840558"><ele>50.5</ele><time>2026-04-26T15:02:15.175Z</time></trkpt><trkpt lat="45.6441982" lon="11.6840315"><ele>50.66666666666667</ele><time>2026-04-26T15:02:17.175Z</time></trkpt><trkpt lat="45.6442706" lon="11.6839918"><ele>50.833333333333336</ele><time>2026-04-26T15:02:19.175Z</time></trkpt><trkpt lat="45.6443487" lon="11.6839668"><ele>51.0</ele><time>2026-04-26T15:02:21.174Z</time></trkpt><trkpt lat="45.644428" lon="11.6839451"><ele>51.0</ele><time>2026-04-26T15:02:23.175Z</time></trkpt><trkpt lat="45.6445065" lon="11.6839184"><ele>51.0</ele><time>2026-04-26T15:02:25.174Z</time></trkpt><trkpt lat="45.6445881" lon="11.6838825"><ele>51.0</ele><time>2026-04-26T15:02:27.175Z</time></trkpt><trkpt lat="45.6446666" lon="11.6838605"><ele>51.0</ele><time>2026-04-26T15:02:29.175Z</time></trkpt><trkpt lat="45.6447458" lon="11.6838514"><ele>51.0</ele><time>2026-04-26T15:02:31.175Z</time></trkpt><trkpt lat="45.6448252" lon="11.6838196"><ele>51.0</ele><time>2026-04-26T15:02:33.175Z</time></trkpt><trkpt lat="45.6449018" lon="11.6837779"><ele>51.0</ele><time>2026-04-26T15:02:35.174Z</time></trkpt><trkpt lat="45.6449896" lon="11.6837408"><ele>51.0</ele><time>2026-04-26T15:02:37.174Z</time></trkpt><trkpt lat="45.6450818" lon="11.6837103"><ele>51.0</ele><time>2026-04-26T15:02:39.175Z</time></trkpt><trkpt lat="45.6451737" lon="11.683681"><ele>51.0</ele><time>2026-04-26T15:02:41.174Z</time></trkpt><trkpt lat="45.645269" lon="11.6836522"><ele>51.0</ele><time>2026-04-26T15:02:43.175Z</time></trkpt><trkpt lat="45.645367" lon="11.683628"><ele>51.0</ele><time>2026-04-26T15:02:45.174Z</time></trkpt><trkpt lat="45.6454647" lon="11.6836089"><ele>51.0</ele><time>2026-04-26T15:02:47.174Z</time></trkpt><trkpt lat="45.6455623" lon="11.6835913"><ele>51.0</ele><time>2026-04-26T15:02:49.174Z</time></trkpt><trkpt lat="45.6456605" lon="11.6835644"><ele>51.0</ele><time>2026-04-26T15:02:51.175Z</time></trkpt><trkpt lat="45.6457586" lon="11.6835339"><ele>51.0</ele><time>2026-04-26T15:02:53.175Z</time></trkpt><trkpt lat="45.6458449" lon="11.6835051"><ele>51.0</ele><time>2026-04-26T15:02:55.175Z</time></trkpt><trkpt lat="45.6459264" lon="11.6834866"><ele>51.0</ele><time>2026-04-26T15:02:57.175Z</time></trkpt><trkpt lat="45.6459928" lon="11.6834623"><ele>51.0</ele><time>2026-04-26T15:02:59.174Z</time></trkpt><trkpt lat="45.6460733" lon="11.6834373"><ele>51.0</ele><time>2026-04-26T15:03:01.175Z</time></trkpt><trkpt lat="45.6461608" lon="11.6834234"><ele>51.0</ele><time>2026-04-26T15:03:03.175Z</time></trkpt><trkpt lat="45.6462708" lon="11.6833928"><ele>51.0</ele><time>2026-04-26T15:03:05.175Z</time></trkpt><trkpt lat="45.6463634" lon="11.6833574"><ele>51.0</ele><time>2026-04-26T15:03:07.175Z</time></trkpt><trkpt lat="45.6464541" lon="11.6833313"><ele>51.0</ele><time>2026-04-26T15:03:09.175Z</time></trkpt><trkpt lat="45.6465453" lon="11.6833097"><ele>51.0</ele><time>2026-04-26T15:03:11.174Z</time></trkpt><trkpt lat="45.6466345" lon="11.6832822"><ele>51.0</ele><time>2026-04-26T15:03:13.175Z</time></trkpt><trkpt lat="45.6467108" lon="11.6832563"><ele>51.0</ele><time>2026-04-26T15:03:15.175Z</time></trkpt><trkpt lat="45.6467872" lon="11.6832087"><ele>51.0</ele><time>2026-04-26T15:03:17.175Z</time></trkpt><trkpt lat="45.6468578" lon="11.6831834"><ele>51.0</ele><time>2026-04-26T15:03:19.175Z</time></trkpt><trkpt lat="45.6469215" lon="11.6831556"><ele>51.0</ele><time>2026-04-26T15:03:22.176Z</time></trkpt><trkpt lat="45.6469886" lon="11.6830995"><ele>51.0</ele><time>2026-04-26T15:03:35.176Z</time></trkpt><trkpt lat="45.6469986" lon="11.6829691"><ele>51.0</ele><time>2026-04-26T15:03:38.175Z</time></trkpt><trkpt lat="45.6469718" lon="11.682834"><ele>51.0</ele><time>2026-04-26T15:03:40.176Z</time></trkpt><trkpt lat="45.6469361" lon="11.6826996"><ele>51.0</ele><time>2026-04-26T15:03:42.176Z</time></trkpt><trkpt lat="45.6469057" lon="11.6825766"><ele>51.0</ele><time>2026-04-26T15:03:44.175Z</time></trkpt><trkpt lat="45.6468751" lon="11.6824483"><ele>51.0</ele><time>2026-04-26T15:03:46.176Z</time></trkpt><trkpt lat="45.6468466" lon="11.6823185"><ele>51.0</ele><time>2026-04-26T15:03:48.176Z</time></trkpt><trkpt lat="45.6468156" lon="11.6821835"><ele>51.0</ele><time>2026-04-26T15:03:50.175Z</time></trkpt><trkpt lat="45.6467964" lon="11.6820653"><ele>51.0</ele><time>2026-04-26T15:03:52.175Z</time></trkpt><trkpt lat="45.6467684" lon="11.6819478"><ele>51.0</ele><time>2026-04-26T15:03:54.176Z</time></trkpt><trkpt lat="45.6467513" lon="11.6818384"><ele>51.0</ele><time>2026-04-26T15:03:56.176Z</time></trkpt><trkpt lat="45.6467228" lon="11.6817154"><ele>51.0</ele><time>2026-04-26T15:03:58.176Z</time></trkpt><trkpt lat="45.6466862" lon="11.681575"><ele>51.0</ele><time>2026-04-26T15:04:00.176Z</time></trkpt><trkpt lat="45.6466641" lon="11.681444"><ele>51.0</ele><time>2026-04-26T15:04:02.176Z</time></trkpt><trkpt lat="45.6466346" lon="11.6813131"><ele>51.0</ele><time>2026-04-26T15:04:04.176Z</time></trkpt><trkpt lat="45.6466071" lon="11.6811764"><ele>51.0</ele><time>2026-04-26T15:04:06.176Z</time></trkpt><trkpt lat="45.6465769" lon="11.6810446"><ele>51.0</ele><time>2026-04-26T15:04:08.176Z</time></trkpt><trkpt lat="45.6465473" lon="11.6809192"><ele>51.0</ele><time>2026-04-26T15:04:10.176Z</time></trkpt><trkpt lat="45.6465289" lon="11.6807943"><ele>51.0</ele><time>2026-04-26T15:04:12.176Z</time></trkpt><trkpt lat="45.6465158" lon="11.6806576"><ele>51.199999999999996</ele><time>2026-04-26T15:04:14.176Z</time></trkpt><trkpt lat="45.6465379" lon="11.6805174"><ele>51.4</ele><time>2026-04-26T15:04:16.176Z</time></trkpt><trkpt lat="45.6465875" lon="11.6803866"><ele>51.6</ele><time>2026-04-26T15:04:18.176Z</time></trkpt><trkpt lat="45.6466465" lon="11.6802597"><ele>51.8</ele><time>2026-04-26T15:04:20.176Z</time></trkpt><trkpt lat="45.6467041" lon="11.6801322"><ele>52.0</ele><time>2026-04-26T15:04:22.176Z</time></trkpt><trkpt lat="45.6467663" lon="11.6800031"><ele>52.0</ele><time>2026-04-26T15:04:24.176Z</time></trkpt><trkpt lat="45.6468382" lon="11.6798909"><ele>52.0</ele><time>2026-04-26T15:04:26.176Z</time></trkpt><trkpt lat="45.6469287" lon="11.6798026"><ele>52.0</ele><time>2026-04-26T15:04:28.177Z</time></trkpt><trkpt lat="45.6470224" lon="11.679724"><ele>52.0</ele><time>2026-04-26T15:04:30.176Z</time></trkpt><trkpt lat="45.6471165" lon="11.6796522"><ele>52.0</ele><time>2026-04-26T15:04:32.176Z</time></trkpt><trkpt lat="45.6472174" lon="11.6795882"><ele>51.8</ele><time>2026-04-26T15:04:34.177Z</time></trkpt><trkpt lat="45.6473225" lon="11.6795239"><ele>51.6</ele><time>2026-04-26T15:04:36.177Z</time></trkpt><trkpt lat="45.6474264" lon="11.6794671"><ele>51.4</ele><time>2026-04-26T15:04:38.177Z</time></trkpt><trkpt lat="45.6475353" lon="11.6794232"><ele>51.199999999999996</ele><time>2026-04-26T15:04:40.177Z</time></trkpt><trkpt lat="45.6476416" lon="11.6793939"><ele>51.0</ele><time>2026-04-26T15:04:42.177Z</time></trkpt><trkpt lat="45.6477474" lon="11.6793742"><ele>51.199999999999996</ele><time>2026-04-26T15:04:44.177Z</time></trkpt><trkpt lat="45.6478522" lon="11.6793692"><ele>51.4</ele><time>2026-04-26T15:04:46.177Z</time></trkpt><trkpt lat="45.6479563" lon="11.6793675"><ele>51.6</ele><time>2026-04-26T15:04:48.177Z</time></trkpt><trkpt lat="45.6480581" lon="11.6793669"><ele>51.8</ele><time>2026-04-26T15:04:50.177Z</time></trkpt><trkpt lat="45.6481608" lon="11.6793639"><ele>52.0</ele><time>2026-04-26T15:04:52.177Z</time></trkpt><trkpt lat="45.6482659" lon="11.6793529"><ele>52.0</ele><time>2026-04-26T15:04:54.177Z</time></trkpt><trkpt lat="45.6483689" lon="11.679327"><ele>52.0</ele><time>2026-04-26T15:04:56.177Z</time></trkpt><trkpt lat="45.6484794" lon="11.679323"><ele>52.0</ele><time>2026-04-26T15:04:58.177Z</time></trkpt><trkpt lat="45.6485909" lon="11.6793094"><ele>52.0</ele><time>2026-04-26T15:05:00.177Z</time></trkpt><trkpt lat="45.6487006" lon="11.679302"><ele>52.0</ele><time>2026-04-26T15:05:02.177Z</time></trkpt><trkpt lat="45.6488095" lon="11.6792689"><ele>52.2</ele><time>2026-04-26T15:05:04.177Z</time></trkpt><trkpt lat="45.6488877" lon="11.6791595"><ele>52.400000000000006</ele><time>2026-04-26T15:05:06.177Z</time></trkpt><trkpt lat="45.6488959" lon="11.6790074"><ele>52.599999999999994</ele><time>2026-04-26T15:05:08.177Z</time></trkpt><trkpt lat="45.6488614" lon="11.6788474"><ele>52.8</ele><time>2026-04-26T15:05:10.177Z</time></trkpt><trkpt lat="45.6488345" lon="11.6786987"><ele>53.0</ele><time>2026-04-26T15:05:12.176Z</time></trkpt><trkpt lat="45.6488103" lon="11.6785537"><ele>53.2</ele><time>2026-04-26T15:05:14.177Z</time></trkpt><trkpt lat="45.6487749" lon="11.6784113"><ele>53.4</ele><time>2026-04-26T15:05:16.177Z</time></trkpt><trkpt lat="45.6487531" lon="11.6782696"><ele>53.60000000000001</ele><time>2026-04-26T15:05:18.177Z</time></trkpt><trkpt lat="45.6487292" lon="11.6781334"><ele>53.800000000000004</ele><time>2026-04-26T15:05:20.177Z</time></trkpt><trkpt lat="45.6487061" lon="11.6780032"><ele>54.0</ele><time>2026-04-26T15:05:22.177Z</time></trkpt><trkpt lat="45.6486884" lon="11.6778754"><ele>53.800000000000004</ele><time>2026-04-26T15:05:24.177Z</time></trkpt><trkpt lat="45.6486629" lon="11.6777451"><ele>53.60000000000001</ele><time>2026-04-26T15:05:26.177Z</time></trkpt><trkpt lat="45.6486413" lon="11.6776038"><ele>53.4</ele><time>2026-04-26T15:05:28.177Z</time></trkpt><trkpt lat="45.6486148" lon="11.6774655"><ele>53.2</ele><time>2026-04-26T15:05:30.177Z</time></trkpt><trkpt lat="45.6485896" lon="11.6773313"><ele>53.0</ele><time>2026-04-26T15:05:32.177Z</time></trkpt><trkpt lat="45.6485636" lon="11.6771962"><ele>53.2</ele><time>2026-04-26T15:05:34.177Z</time></trkpt><trkpt lat="45.648542" lon="11.6770557"><ele>53.4</ele><time>2026-04-26T15:05:36.176Z</time></trkpt><trkpt lat="45.648526" lon="11.676915"><ele>53.60000000000001</ele><time>2026-04-26T15:05:38.178Z</time></trkpt><trkpt lat="45.6485052" lon="11.6767628"><ele>53.800000000000004</ele><time>2026-04-26T15:05:40.178Z</time></trkpt><trkpt lat="45.6484791" lon="11.6766161"><ele>54.0</ele><time>2026-04-26T15:05:42.178Z</time></trkpt><trkpt lat="45.6484592" lon="11.6764667"><ele>54.0</ele><time>2026-04-26T15:05:44.177Z</time></trkpt><trkpt lat="45.6484408" lon="11.6763143"><ele>54.00000000000001</ele><time>2026-04-26T15:05:46.178Z</time></trkpt><trkpt lat="45.648423" lon="11.6761645"><ele>54.00000000000001</ele><time>2026-04-26T15:05:48.178Z</time></trkpt><trkpt lat="45.6484064" lon="11.6760081"><ele>54.0</ele><time>2026-04-26T15:05:50.178Z</time></trkpt><trkpt lat="45.6483907" lon="11.6758571"><ele>54.0</ele><time>2026-04-26T15:05:52.178Z</time></trkpt><trkpt lat="45.6483918" lon="11.6757135"><ele>53.6</ele><time>2026-04-26T15:05:54.178Z</time></trkpt><trkpt lat="45.6484032" lon="11.6755618"><ele>53.2</ele><time>2026-04-26T15:05:56.178Z</time></trkpt><trkpt lat="45.6484122" lon="11.6754091"><ele>52.800000000000004</ele><time>2026-04-26T15:05:58.178Z</time></trkpt><trkpt lat="45.6484209" lon="11.6752581"><ele>52.400000000000006</ele><time>2026-04-26T15:06:00.178Z</time></trkpt><trkpt lat="45.6484328" lon="11.6751089"><ele>52.0</ele><time>2026-04-26T15:06:02.178Z</time></trkpt><trkpt lat="45.6484428" lon="11.6749604"><ele>52.0</ele><time>2026-04-26T15:06:04.178Z</time></trkpt><trkpt lat="45.6484518" lon="11.6748117"><ele>52.0</ele><time>2026-04-26T15:06:06.178Z</time></trkpt><trkpt lat="45.6484572" lon="11.6746696"><ele>52.0</ele><time>2026-04-26T15:06:08.178Z</time></trkpt><trkpt lat="45.6484642" lon="11.6745226"><ele>52.0</ele><time>2026-04-26T15:06:10.178Z</time></trkpt><trkpt lat="45.648471" lon="11.6743749"><ele>52.0</ele><time>2026-04-26T15:06:12.178Z</time></trkpt><trkpt lat="45.6484801" lon="11.6742315"><ele>52.0</ele><time>2026-04-26T15:06:14.178Z</time></trkpt><trkpt lat="45.6484848" lon="11.6740904"><ele>52.0</ele><time>2026-04-26T15:06:16.178Z</time></trkpt><trkpt lat="45.6484906" lon="11.6739454"><ele>52.0</ele><time>2026-04-26T15:06:18.178Z</time></trkpt><trkpt lat="45.6484983" lon="11.6737965"><ele>52.0</ele><time>2026-04-26T15:06:20.178Z</time></trkpt><trkpt lat="45.6485075" lon="11.6736489"><ele>52.0</ele><time>2026-04-26T15:06:22.178Z</time></trkpt><trkpt lat="45.6485162" lon="11.6735016"><ele>51.8</ele><time>2026-04-26T15:06:24.178Z</time></trkpt><trkpt lat="45.6485226" lon="11.6733553"><ele>51.6</ele><time>2026-04-26T15:06:26.177Z</time></trkpt><trkpt lat="45.6485295" lon="11.6732093"><ele>51.4</ele><time>2026-04-26T15:06:28.178Z</time></trkpt><trkpt lat="45.6485389" lon="11.6730632"><ele>51.199999999999996</ele><time>2026-04-26T15:06:30.178Z</time></trkpt><trkpt lat="45.6485446" lon="11.6729161"><ele>51.0</ele><time>2026-04-26T15:06:32.178Z</time></trkpt><trkpt lat="45.6485528" lon="11.6727736"><ele>51.199999999999996</ele><time>2026-04-26T15:06:34.178Z</time></trkpt><trkpt lat="45.6485557" lon="11.672634"><ele>51.4</ele><time>2026-04-26T15:06:36.178Z</time></trkpt><trkpt lat="45.6485618" lon="11.6724948"><ele>51.6</ele><time>2026-04-26T15:06:38.178Z</time></trkpt><trkpt lat="45.648573" lon="11.6723586"><ele>51.8</ele><time>2026-04-26T15:06:40.178Z</time></trkpt><trkpt lat="45.6485844" lon="11.6722177"><ele>52.0</ele><time>2026-04-26T15:06:42.179Z</time></trkpt><trkpt lat="45.6485973" lon="11.6720739"><ele>52.0</ele><time>2026-04-26T15:06:44.179Z</time></trkpt><trkpt lat="45.6486187" lon="11.6719416"><ele>52.0</ele><time>2026-04-26T15:06:46.179Z</time></trkpt><trkpt lat="45.6486422" lon="11.6718038"><ele>52.0</ele><time>2026-04-26T15:06:48.178Z</time></trkpt><trkpt lat="45.648664" lon="11.6716537"><ele>52.0</ele><time>2026-04-26T15:06:50.179Z</time></trkpt><trkpt lat="45.648685" lon="11.6715086"><ele>52.0</ele><time>2026-04-26T15:06:52.179Z</time></trkpt><trkpt lat="45.6487031" lon="11.6713693"><ele>52.0</ele><time>2026-04-26T15:06:54.179Z</time></trkpt><trkpt lat="45.6487226" lon="11.6712284"><ele>52.0</ele><time>2026-04-26T15:06:56.179Z</time></trkpt><trkpt lat="45.6487395" lon="11.6710831"><ele>52.0</ele><time>2026-04-26T15:06:58.179Z</time></trkpt><trkpt lat="45.6487537" lon="11.670934"><ele>52.0</ele><time>2026-04-26T15:07:00.179Z</time></trkpt><trkpt lat="45.6487782" lon="11.6707948"><ele>52.0</ele><time>2026-04-26T15:07:02.179Z</time></trkpt><trkpt lat="45.6487999" lon="11.6706642"><ele>52.0</ele><time>2026-04-26T15:07:04.178Z</time></trkpt><trkpt lat="45.6488225" lon="11.6705181"><ele>52.0</ele><time>2026-04-26T15:07:06.179Z</time></trkpt><trkpt lat="45.6488428" lon="11.6703665"><ele>52.0</ele><time>2026-04-26T15:07:08.179Z</time></trkpt><trkpt lat="45.6488621" lon="11.6702172"><ele>52.0</ele><time>2026-04-26T15:07:10.179Z</time></trkpt><trkpt lat="45.6488855" lon="11.6700674"><ele>52.0</ele><time>2026-04-26T15:07:12.178Z</time></trkpt><trkpt lat="45.6489079" lon="11.6699246"><ele>51.8</ele><time>2026-04-26T15:07:14.179Z</time></trkpt><trkpt lat="45.6489318" lon="11.6697787"><ele>51.6</ele><time>2026-04-26T15:07:16.179Z</time></trkpt><trkpt lat="45.6489552" lon="11.6696331"><ele>51.4</ele><time>2026-04-26T15:07:18.179Z</time></trkpt><trkpt lat="45.6489805" lon="11.6694864"><ele>51.199999999999996</ele><time>2026-04-26T15:07:20.178Z</time></trkpt><trkpt lat="45.6490009" lon="11.6693345"><ele>51.0</ele><time>2026-04-26T15:07:22.179Z</time></trkpt><trkpt lat="45.6490248" lon="11.669185"><ele>51.0</ele><time>2026-04-26T15:07:24.179Z</time></trkpt><trkpt lat="45.6490462" lon="11.6690351"><ele>51.0</ele><time>2026-04-26T15:07:26.179Z</time></trkpt><trkpt lat="45.6490679" lon="11.6688874"><ele>51.0</ele><time>2026-04-26T15:07:28.178Z</time></trkpt><trkpt lat="45.6490916" lon="11.6687393"><ele>51.0</ele><time>2026-04-26T15:07:30.179Z</time></trkpt><trkpt lat="45.6491123" lon="11.6685959"><ele>51.0</ele><time>2026-04-26T15:07:32.179Z</time></trkpt><trkpt lat="45.6491339" lon="11.6684561"><ele>51.4</ele><time>2026-04-26T15:07:34.179Z</time></trkpt><trkpt lat="45.6491533" lon="11.6683147"><ele>51.8</ele><time>2026-04-26T15:07:36.178Z</time></trkpt><trkpt lat="45.649174" lon="11.668168"><ele>52.199999999999996</ele><time>2026-04-26T15:07:38.178Z</time></trkpt><trkpt lat="45.649197" lon="11.6680249"><ele>52.599999999999994</ele><time>2026-04-26T15:07:40.178Z</time></trkpt><trkpt lat="45.6492179" lon="11.6678837"><ele>53.0</ele><time>2026-04-26T15:07:42.179Z</time></trkpt><trkpt lat="45.6492411" lon="11.6677357"><ele>53.0</ele><time>2026-04-26T15:07:44.18Z</time></trkpt><trkpt lat="45.6492666" lon="11.6675932"><ele>53.0</ele><time>2026-04-26T15:07:46.18Z</time></trkpt><trkpt lat="45.6492875" lon="11.667448"><ele>53.0</ele><time>2026-04-26T15:07:48.18Z</time></trkpt><trkpt lat="45.6493123" lon="11.6673036"><ele>53.0</ele><time>2026-04-26T15:07:50.179Z</time></trkpt><trkpt lat="45.6493371" lon="11.6671602"><ele>53.0</ele><time>2026-04-26T15:07:52.179Z</time></trkpt><trkpt lat="45.6493599" lon="11.6670158"><ele>52.8</ele><time>2026-04-26T15:07:54.18Z</time></trkpt><trkpt lat="45.6493845" lon="11.6668704"><ele>52.599999999999994</ele><time>2026-04-26T15:07:56.18Z</time></trkpt><trkpt lat="45.6494086" lon="11.6667246"><ele>52.400000000000006</ele><time>2026-04-26T15:07:58.18Z</time></trkpt><trkpt lat="45.6494309" lon="11.6665783"><ele>52.2</ele><time>2026-04-26T15:08:00.18Z</time></trkpt><trkpt lat="45.6494557" lon="11.666427"><ele>52.0</ele><time>2026-04-26T15:08:02.18Z</time></trkpt><trkpt lat="45.6494763" lon="11.6662677"><ele>52.25</ele><time>2026-04-26T15:08:04.18Z</time></trkpt><trkpt lat="45.6494991" lon="11.6661071"><ele>52.5</ele><time>2026-04-26T15:08:06.18Z</time></trkpt><trkpt lat="45.6495177" lon="11.6659512"><ele>52.75</ele><time>2026-04-26T15:08:08.18Z</time></trkpt><trkpt lat="45.6495433" lon="11.6657905"><ele>53.0</ele><time>2026-04-26T15:08:10.18Z</time></trkpt><trkpt lat="45.6495634" lon="11.6656286"><ele>53.0</ele><time>2026-04-26T15:08:12.18Z</time></trkpt><trkpt lat="45.6495871" lon="11.6654748"><ele>53.0</ele><time>2026-04-26T15:08:14.18Z</time></trkpt><trkpt lat="45.6496119" lon="11.6653249"><ele>53.0</ele><time>2026-04-26T15:08:16.18Z</time></trkpt><trkpt lat="45.6496349" lon="11.6651699"><ele>53.0</ele><time>2026-04-26T15:08:18.179Z</time></trkpt><trkpt lat="45.6496587" lon="11.665014"><ele>53.0</ele><time>2026-04-26T15:08:20.18Z</time></trkpt><trkpt lat="45.6496827" lon="11.664866"><ele>53.0</ele><time>2026-04-26T15:08:22.18Z</time></trkpt><trkpt lat="45.6497071" lon="11.6647168"><ele>53.0</ele><time>2026-04-26T15:08:24.18Z</time></trkpt><trkpt lat="45.6497304" lon="11.6645694"><ele>53.0</ele><time>2026-04-26T15:08:26.18Z</time></trkpt><trkpt lat="45.6497493" lon="11.6644243"><ele>53.0</ele><time>2026-04-26T15:08:28.18Z</time></trkpt><trkpt lat="45.6497725" lon="11.6642814"><ele>53.0</ele><time>2026-04-26T15:08:30.18Z</time></trkpt><trkpt lat="45.6497935" lon="11.6641319"><ele>53.0</ele><time>2026-04-26T15:08:32.18Z</time></trkpt><trkpt lat="45.6498153" lon="11.6639806"><ele>53.0</ele><time>2026-04-26T15:08:34.179Z</time></trkpt><trkpt lat="45.6498343" lon="11.6638328"><ele>53.0</ele><time>2026-04-26T15:08:36.179Z</time></trkpt><trkpt lat="45.6498535" lon="11.6636972"><ele>53.0</ele><time>2026-04-26T15:08:38.18Z</time></trkpt><trkpt lat="45.649874" lon="11.66357"><ele>53.0</ele><time>2026-04-26T15:08:40.18Z</time></trkpt><trkpt lat="45.6498879" lon="11.6634435"><ele>52.8</ele><time>2026-04-26T15:08:42.18Z</time></trkpt><trkpt lat="45.6499087" lon="11.6633044"><ele>52.599999999999994</ele><time>2026-04-26T15:08:44.179Z</time></trkpt><trkpt lat="45.6499376" lon="11.6631633"><ele>52.400000000000006</ele><time>2026-04-26T15:08:46.181Z</time></trkpt><trkpt lat="45.6499626" lon="11.6630073"><ele>52.2</ele><time>2026-04-26T15:08:48.181Z</time></trkpt><trkpt lat="45.649987" lon="11.6628581"><ele>52.0</ele><time>2026-04-26T15:08:50.181Z</time></trkpt><trkpt lat="45.6500088" lon="11.662711"><ele>52.0</ele><time>2026-04-26T15:08:52.181Z</time></trkpt><trkpt lat="45.6500301" lon="11.6625614"><ele>52.0</ele><time>2026-04-26T15:08:54.181Z</time></trkpt><trkpt lat="45.6500538" lon="11.6624133"><ele>52.0</ele><time>2026-04-26T15:08:56.181Z</time></trkpt><trkpt lat="45.6500735" lon="11.6622551"><ele>52.0</ele><time>2026-04-26T15:08:58.181Z</time></trkpt><trkpt lat="45.6500947" lon="11.6620979"><ele>52.0</ele><time>2026-04-26T15:09:00.181Z</time></trkpt><trkpt lat="45.6501167" lon="11.6619413"><ele>52.2</ele><time>2026-04-26T15:09:02.181Z</time></trkpt><trkpt lat="45.6501369" lon="11.661789"><ele>52.400000000000006</ele><time>2026-04-26T15:09:04.181Z</time></trkpt><trkpt lat="45.650163" lon="11.661636"><ele>52.599999999999994</ele><time>2026-04-26T15:09:06.181Z</time></trkpt><trkpt lat="45.6501869" lon="11.6614798"><ele>52.8</ele><time>2026-04-26T15:09:08.181Z</time></trkpt><trkpt lat="45.6502142" lon="11.6613284"><ele>53.0</ele><time>2026-04-26T15:09:10.181Z</time></trkpt><trkpt lat="45.6502503" lon="11.6611876"><ele>53.2</ele><time>2026-04-26T15:09:12.181Z</time></trkpt><trkpt lat="45.6502788" lon="11.661045"><ele>53.4</ele><time>2026-04-26T15:09:14.181Z</time></trkpt><trkpt lat="45.6503064" lon="11.6609198"><ele>53.60000000000001</ele><time>2026-04-26T15:09:16.181Z</time></trkpt><trkpt lat="45.650338" lon="11.6608065"><ele>53.800000000000004</ele><time>2026-04-26T15:09:18.181Z</time></trkpt><trkpt lat="45.65037" lon="11.6606913"><ele>54.0</ele><time>2026-04-26T15:09:20.181Z</time></trkpt><trkpt lat="45.6504074" lon="11.6605831"><ele>54.0</ele><time>2026-04-26T15:09:22.18Z</time></trkpt><trkpt lat="45.6504491" lon="11.6604648"><ele>54.00000000000001</ele><time>2026-04-26T15:09:24.181Z</time></trkpt><trkpt lat="45.6504934" lon="11.6603434"><ele>54.00000000000001</ele><time>2026-04-26T15:09:26.181Z</time></trkpt><trkpt lat="45.6505647" lon="11.660249"><ele>54.0</ele><time>2026-04-26T15:09:28.181Z</time></trkpt><trkpt lat="45.6506566" lon="11.6601957"><ele>54.0</ele><time>2026-04-26T15:09:30.181Z</time></trkpt><trkpt lat="45.6507566" lon="11.6601766"><ele>54.0</ele><time>2026-04-26T15:09:32.181Z</time></trkpt><trkpt lat="45.6508539" lon="11.6601679"><ele>54.00000000000001</ele><time>2026-04-26T15:09:34.181Z</time></trkpt><trkpt lat="45.6509574" lon="11.660164"><ele>54.00000000000001</ele><time>2026-04-26T15:09:36.181Z</time></trkpt><trkpt lat="45.6510678" lon="11.6601875"><ele>54.0</ele><time>2026-04-26T15:09:38.181Z</time></trkpt><trkpt lat="45.6511694" lon="11.6602364"><ele>54.0</ele><time>2026-04-26T15:09:40.18Z</time></trkpt><trkpt lat="45.6512624" lon="11.6602999"><ele>54.400000000000006</ele><time>2026-04-26T15:09:42.181Z</time></trkpt><trkpt lat="45.6513536" lon="11.6603559"><ele>54.800000000000004</ele><time>2026-04-26T15:09:44.18Z</time></trkpt><trkpt lat="45.6514525" lon="11.6604173"><ele>55.199999999999996</ele><time>2026-04-26T15:09:46.182Z</time></trkpt><trkpt lat="45.6515497" lon="11.6604726"><ele>55.599999999999994</ele><time>2026-04-26T15:09:48.182Z</time></trkpt><trkpt lat="45.6516408" lon="11.6605267"><ele>56.0</ele><time>2026-04-26T15:09:50.182Z</time></trkpt><trkpt lat="45.6517367" lon="11.6605808"><ele>56.0</ele><time>2026-04-26T15:09:52.182Z</time></trkpt><trkpt lat="45.651835" lon="11.6606299"><ele>55.99999999999999</ele><time>2026-04-26T15:09:54.182Z</time></trkpt><trkpt lat="45.6519292" lon="11.6606756"><ele>55.99999999999999</ele><time>2026-04-26T15:09:56.182Z</time></trkpt><trkpt lat="45.6520258" lon="11.6607206"><ele>56.0</ele><time>2026-04-26T15:09:58.182Z</time></trkpt><trkpt lat="45.6521229" lon="11.6607655"><ele>56.0</ele><time>2026-04-26T15:10:00.181Z</time></trkpt><trkpt lat="45.6522222" lon="11.6608029"><ele>55.8</ele><time>2026-04-26T15:10:02.182Z</time></trkpt><trkpt lat="45.6523249" lon="11.6608453"><ele>55.599999999999994</ele><time>2026-04-26T15:10:04.182Z</time></trkpt><trkpt lat="45.6524219" lon="11.6608891"><ele>55.4</ele><time>2026-04-26T15:10:06.182Z</time></trkpt><trkpt lat="45.6525126" lon="11.6609281"><ele>55.2</ele><time>2026-04-26T15:10:08.182Z</time></trkpt><trkpt lat="45.6526115" lon="11.6609659"><ele>55.0</ele><time>2026-04-26T15:10:10.182Z</time></trkpt><trkpt lat="45.6527195" lon="11.6610061"><ele>55.0</ele><time>2026-04-26T15:10:12.181Z</time></trkpt><trkpt lat="45.6528258" lon="11.6610444"><ele>55.0</ele><time>2026-04-26T15:10:14.182Z</time></trkpt><trkpt lat="45.6529253" lon="11.6610828"><ele>55.0</ele><time>2026-04-26T15:10:16.182Z</time></trkpt><trkpt lat="45.6530195" lon="11.6611176"><ele>55.0</ele><time>2026-04-26T15:10:18.182Z</time></trkpt><trkpt lat="45.6531075" lon="11.6611534"><ele>55.0</ele><time>2026-04-26T15:10:20.182Z</time></trkpt><trkpt lat="45.6531953" lon="11.6611885"><ele>54.99999999999999</ele><time>2026-04-26T15:10:22.181Z</time></trkpt><trkpt lat="45.6532746" lon="11.6612176"><ele>55.0</ele><time>2026-04-26T15:10:24.181Z</time></trkpt><trkpt lat="45.6533457" lon="11.6612552"><ele>55.0</ele><time>2026-04-26T15:10:26.182Z</time></trkpt><trkpt lat="45.6534156" lon="11.6612932"><ele>55.0</ele><time>2026-04-26T15:10:28.182Z</time></trkpt><trkpt lat="45.6535093" lon="11.661326"><ele>54.99999999999999</ele><time>2026-04-26T15:10:30.182Z</time></trkpt><trkpt lat="45.6536151" lon="11.6613729"><ele>55.0</ele><time>2026-04-26T15:10:32.182Z</time></trkpt><trkpt lat="45.6537254" lon="11.6614216"><ele>55.0</ele><time>2026-04-26T15:10:34.182Z</time></trkpt><trkpt lat="45.6537954" lon="11.6614493"><ele>55.0</ele><time>2026-04-26T15:10:35.182Z</time></trkpt><trkpt lat="45.6538574" lon="11.6614757"><ele>55.0</ele><time>2026-04-26T15:10:36.181Z</time></trkpt><trkpt lat="45.6539646" lon="11.6615347"><ele>55.0</ele><time>2026-04-26T15:10:38.182Z</time></trkpt><trkpt lat="45.6540627" lon="11.6615941"><ele>55.0</ele><time>2026-04-26T15:10:40.182Z</time></trkpt><trkpt lat="45.6541572" lon="11.6616496"><ele>55.0</ele><time>2026-04-26T15:10:42.181Z</time></trkpt><trkpt lat="45.6542565" lon="11.6617125"><ele>55.0</ele><time>2026-04-26T15:10:44.182Z</time></trkpt><trkpt lat="45.6543542" lon="11.6617831"><ele>55.0</ele><time>2026-04-26T15:10:46.183Z</time></trkpt><trkpt lat="45.6544495" lon="11.661849"><ele>55.0</ele><time>2026-04-26T15:10:48.183Z</time></trkpt><trkpt lat="45.6545505" lon="11.6619156"><ele>55.0</ele><time>2026-04-26T15:10:50.183Z</time></trkpt><trkpt lat="45.6546479" lon="11.6619823"><ele>55.2</ele><time>2026-04-26T15:10:52.183Z</time></trkpt><trkpt lat="45.6547393" lon="11.6620504"><ele>55.4</ele><time>2026-04-26T15:10:54.183Z</time></trkpt><trkpt lat="45.6548296" lon="11.6621169"><ele>55.599999999999994</ele><time>2026-04-26T15:10:56.183Z</time></trkpt><trkpt lat="45.6549237" lon="11.6621876"><ele>55.8</ele><time>2026-04-26T15:10:58.182Z</time></trkpt><trkpt lat="45.655014" lon="11.6622521"><ele>56.0</ele><time>2026-04-26T15:11:00.183Z</time></trkpt><trkpt lat="45.6550971" lon="11.6623243"><ele>56.0</ele><time>2026-04-26T15:11:02.182Z</time></trkpt><trkpt lat="45.6551975" lon="11.6623927"><ele>55.99999999999999</ele><time>2026-04-26T15:11:04.183Z</time></trkpt><trkpt lat="45.6552993" lon="11.6624565"><ele>55.99999999999999</ele><time>2026-04-26T15:11:06.183Z</time></trkpt><trkpt lat="45.6553892" lon="11.6625223"><ele>56.0</ele><time>2026-04-26T15:11:08.183Z</time></trkpt><trkpt lat="45.6554816" lon="11.662587"><ele>56.0</ele><time>2026-04-26T15:11:10.183Z</time></trkpt><trkpt lat="45.6555696" lon="11.66265"><ele>56.199999999999996</ele><time>2026-04-26T15:11:12.183Z</time></trkpt><trkpt lat="45.6556603" lon="11.6627125"><ele>56.39999999999999</ele><time>2026-04-26T15:11:14.183Z</time></trkpt><trkpt lat="45.6557512" lon="11.6627732"><ele>56.6</ele><time>2026-04-26T15:11:16.183Z</time></trkpt><trkpt lat="45.655841" lon="11.6628358"><ele>56.8</ele><time>2026-04-26T15:11:18.183Z</time></trkpt><trkpt lat="45.6559282" lon="11.6628944"><ele>57.0</ele><time>2026-04-26T15:11:20.183Z</time></trkpt><trkpt lat="45.6560153" lon="11.6629498"><ele>57.0</ele><time>2026-04-26T15:11:22.183Z</time></trkpt><trkpt lat="45.6561016" lon="11.6630049"><ele>57.0</ele><time>2026-04-26T15:11:24.182Z</time></trkpt><trkpt lat="45.656183" lon="11.6630545"><ele>57.0</ele><time>2026-04-26T15:11:26.183Z</time></trkpt><trkpt lat="45.6562727" lon="11.6630912"><ele>57.0</ele><time>2026-04-26T15:11:28.183Z</time></trkpt><trkpt lat="45.6563621" lon="11.6631259"><ele>57.0</ele><time>2026-04-26T15:11:30.182Z</time></trkpt><trkpt lat="45.656464" lon="11.6631589"><ele>57.0</ele><time>2026-04-26T15:11:32.183Z</time></trkpt><trkpt lat="45.6565705" lon="11.6631865"><ele>57.0</ele><time>2026-04-26T15:11:34.183Z</time></trkpt><trkpt lat="45.6566694" lon="11.6632122"><ele>57.0</ele><time>2026-04-26T15:11:36.183Z</time></trkpt><trkpt lat="45.6567709" lon="11.6632359"><ele>57.0</ele><time>2026-04-26T15:11:38.183Z</time></trkpt><trkpt lat="45.6568724" lon="11.6632538"><ele>57.0</ele><time>2026-04-26T15:11:40.183Z</time></trkpt><trkpt lat="45.6569731" lon="11.6632742"><ele>57.0</ele><time>2026-04-26T15:11:42.183Z</time></trkpt><trkpt lat="45.657078" lon="11.6632962"><ele>57.0</ele><time>2026-04-26T15:11:44.182Z</time></trkpt><trkpt lat="45.6571874" lon="11.6633145"><ele>57.0</ele><time>2026-04-26T15:11:46.183Z</time></trkpt><trkpt lat="45.657296" lon="11.6633382"><ele>57.0</ele><time>2026-04-26T15:11:48.183Z</time></trkpt><trkpt lat="45.6574068" lon="11.6633589"><ele>57.0</ele><time>2026-04-26T15:11:50.183Z</time></trkpt><trkpt lat="45.6575121" lon="11.6633826"><ele>57.0</ele><time>2026-04-26T15:11:52.184Z</time></trkpt><trkpt lat="45.6576195" lon="11.6634083"><ele>57.0</ele><time>2026-04-26T15:11:54.184Z</time></trkpt><trkpt lat="45.6577297" lon="11.6634323"><ele>57.0</ele><time>2026-04-26T15:11:56.184Z</time></trkpt><trkpt lat="45.6578358" lon="11.6634565"><ele>57.0</ele><time>2026-04-26T15:11:58.184Z</time></trkpt><trkpt lat="45.6579422" lon="11.6634803"><ele>57.0</ele><time>2026-04-26T15:12:00.184Z</time></trkpt><trkpt lat="45.6580505" lon="11.6635046"><ele>56.8</ele><time>2026-04-26T15:12:02.183Z</time></trkpt><trkpt lat="45.6581595" lon="11.6635274"><ele>56.6</ele><time>2026-04-26T15:12:04.184Z</time></trkpt><trkpt lat="45.6582669" lon="11.663551"><ele>56.39999999999999</ele><time>2026-04-26T15:12:06.184Z</time></trkpt><trkpt lat="45.6583737" lon="11.6635744"><ele>56.199999999999996</ele><time>2026-04-26T15:12:08.184Z</time></trkpt><trkpt lat="45.6584831" lon="11.663597"><ele>56.0</ele><time>2026-04-26T15:12:10.183Z</time></trkpt><trkpt lat="45.6585909" lon="11.6636199"><ele>56.199999999999996</ele><time>2026-04-26T15:12:12.184Z</time></trkpt><trkpt lat="45.6586933" lon="11.6636389"><ele>56.39999999999999</ele><time>2026-04-26T15:12:14.183Z</time></trkpt><trkpt lat="45.6588004" lon="11.6636603"><ele>56.6</ele><time>2026-04-26T15:12:16.184Z</time></trkpt><trkpt lat="45.6589118" lon="11.6636822"><ele>56.8</ele><time>2026-04-26T15:12:18.184Z</time></trkpt><trkpt lat="45.659017" lon="11.6637066"><ele>57.0</ele><time>2026-04-26T15:12:20.184Z</time></trkpt><trkpt lat="45.6591237" lon="11.6637339"><ele>57.0</ele><time>2026-04-26T15:12:22.184Z</time></trkpt><trkpt lat="45.6592429" lon="11.6637583"><ele>57.0</ele><time>2026-04-26T15:12:24.184Z</time></trkpt><trkpt lat="45.6593534" lon="11.6637952"><ele>57.0</ele><time>2026-04-26T15:12:26.184Z</time></trkpt><trkpt lat="45.6594635" lon="11.6638468"><ele>57.0</ele><time>2026-04-26T15:12:28.183Z</time></trkpt><trkpt lat="45.6595722" lon="11.6639006"><ele>57.2</ele><time>2026-04-26T15:12:30.184Z</time></trkpt><trkpt lat="45.6596785" lon="11.6639535"><ele>57.400000000000006</ele><time>2026-04-26T15:12:32.184Z</time></trkpt><trkpt lat="45.6597802" lon="11.6640099"><ele>57.599999999999994</ele><time>2026-04-26T15:12:34.184Z</time></trkpt><trkpt lat="45.6598789" lon="11.6640642"><ele>57.8</ele><time>2026-04-26T15:12:36.184Z</time></trkpt><trkpt lat="45.6599782" lon="11.6641153"><ele>58.0</ele><time>2026-04-26T15:12:38.184Z</time></trkpt><trkpt lat="45.6600779" lon="11.6641653"><ele>58.0</ele><time>2026-04-26T15:12:40.184Z</time></trkpt><trkpt lat="45.6601711" lon="11.6642227"><ele>58.0</ele><time>2026-04-26T15:12:42.184Z</time></trkpt><trkpt lat="45.6602537" lon="11.6642878"><ele>58.0</ele><time>2026-04-26T15:12:44.184Z</time></trkpt><trkpt lat="45.6603415" lon="11.6643531"><ele>58.0</ele><time>2026-04-26T15:12:46.183Z</time></trkpt><trkpt lat="45.6604184" lon="11.6643923"><ele>58.0</ele><time>2026-04-26T15:12:48.184Z</time></trkpt><trkpt lat="45.6604938" lon="11.6644213"><ele>57.83333333333333</ele><time>2026-04-26T15:12:50.185Z</time></trkpt><trkpt lat="45.6605627" lon="11.6644667"><ele>57.666666666666664</ele><time>2026-04-26T15:12:52.185Z</time></trkpt><trkpt lat="45.6606261" lon="11.6645119"><ele>57.5</ele><time>2026-04-26T15:12:54.185Z</time></trkpt><trkpt lat="45.6607" lon="11.6645366"><ele>57.33333333333333</ele><time>2026-04-26T15:12:56.185Z</time></trkpt><trkpt lat="45.660791" lon="11.664585"><ele>57.166666666666664</ele><time>2026-04-26T15:12:58.185Z</time></trkpt><trkpt lat="45.6608863" lon="11.6646398"><ele>57.0</ele><time>2026-04-26T15:13:00.185Z</time></trkpt><trkpt lat="45.6609699" lon="11.6646908"><ele>57.0</ele><time>2026-04-26T15:13:02.185Z</time></trkpt><trkpt lat="45.6610454" lon="11.6647355"><ele>57.0</ele><time>2026-04-26T15:13:04.185Z</time></trkpt><trkpt lat="45.661123" lon="11.66477"><ele>57.0</ele><time>2026-04-26T15:13:06.185Z</time></trkpt><trkpt lat="45.6611963" lon="11.6648087"><ele>57.0</ele><time>2026-04-26T15:13:08.185Z</time></trkpt><trkpt lat="45.6612619" lon="11.6648233"><ele>57.0</ele><time>2026-04-26T15:13:10.185Z</time></trkpt><trkpt lat="45.6613343" lon="11.6648329"><ele>57.0</ele><time>2026-04-26T15:13:12.184Z</time></trkpt><trkpt lat="45.66142" lon="11.6648597"><ele>57.0</ele><time>2026-04-26T15:13:14.185Z</time></trkpt><trkpt lat="45.6615032" lon="11.6648883"><ele>57.0</ele><time>2026-04-26T15:13:16.185Z</time></trkpt><trkpt lat="45.6615892" lon="11.6649298"><ele>57.0</ele><time>2026-04-26T15:13:18.185Z</time></trkpt><trkpt lat="45.6616818" lon="11.6649612"><ele>57.0</ele><time>2026-04-26T15:13:20.185Z</time></trkpt><trkpt lat="45.6617784" lon="11.6649752"><ele>57.0</ele><time>2026-04-26T15:13:22.184Z</time></trkpt><trkpt lat="45.6618802" lon="11.6649792"><ele>57.400000000000006</ele><time>2026-04-26T15:13:24.185Z</time></trkpt><trkpt lat="45.6619739" lon="11.6649606"><ele>57.800000000000004</ele><time>2026-04-26T15:13:26.185Z</time></trkpt><trkpt lat="45.6620586" lon="11.6648717"><ele>58.2</ele><time>2026-04-26T15:13:28.185Z</time></trkpt><trkpt lat="45.6620894" lon="11.6647009"><ele>58.6</ele><time>2026-04-26T15:13:30.185Z</time></trkpt><trkpt lat="45.6620913" lon="11.6646092"><ele>59.0</ele><time>2026-04-26T15:13:31.185Z</time></trkpt><trkpt lat="45.6620855" lon="11.6645132"><ele>58.5</ele><time>2026-04-26T15:13:32.185Z</time></trkpt><trkpt lat="45.662083" lon="11.6643464"><ele>58.0</ele><time>2026-04-26T15:13:34.185Z</time></trkpt><trkpt lat="45.6620807" lon="11.6641812"><ele>57.5</ele><time>2026-04-26T15:13:36.185Z</time></trkpt><trkpt lat="45.6620681" lon="11.6640197"><ele>57.0</ele><time>2026-04-26T15:13:38.185Z</time></trkpt><trkpt lat="45.6620577" lon="11.6638652"><ele>57.0</ele><time>2026-04-26T15:13:40.185Z</time></trkpt><trkpt lat="45.6620509" lon="11.6637154"><ele>57.0</ele><time>2026-04-26T15:13:42.185Z</time></trkpt><trkpt lat="45.6620441" lon="11.663569"><ele>57.0</ele><time>2026-04-26T15:13:44.185Z</time></trkpt><trkpt lat="45.6620344" lon="11.6634216"><ele>57.0</ele><time>2026-04-26T15:13:46.185Z</time></trkpt><trkpt lat="45.6620245" lon="11.6632725"><ele>57.0</ele><time>2026-04-26T15:13:48.185Z</time></trkpt><trkpt lat="45.6620191" lon="11.663128"><ele>56.8</ele><time>2026-04-26T15:13:50.184Z</time></trkpt><trkpt lat="45.6620184" lon="11.6629777"><ele>56.6</ele><time>2026-04-26T15:13:52.185Z</time></trkpt><trkpt lat="45.6620117" lon="11.6628302"><ele>56.39999999999999</ele><time>2026-04-26T15:13:54.185Z</time></trkpt><trkpt lat="45.6620076" lon="11.6626836"><ele>56.199999999999996</ele><time>2026-04-26T15:13:56.186Z</time></trkpt><trkpt lat="45.6620056" lon="11.662536"><ele>56.0</ele><time>2026-04-26T15:13:58.186Z</time></trkpt><trkpt lat="45.6619976" lon="11.6623905"><ele>56.0</ele><time>2026-04-26T15:14:00.185Z</time></trkpt><trkpt lat="45.6619884" lon="11.6622405"><ele>55.99999999999999</ele><time>2026-04-26T15:14:02.186Z</time></trkpt><trkpt lat="45.6619843" lon="11.6620944"><ele>55.99999999999999</ele><time>2026-04-26T15:14:04.186Z</time></trkpt><trkpt lat="45.6619789" lon="11.6619532"><ele>56.0</ele><time>2026-04-26T15:14:06.186Z</time></trkpt><trkpt lat="45.6619733" lon="11.6617989"><ele>56.0</ele><time>2026-04-26T15:14:08.185Z</time></trkpt><trkpt lat="45.6619662" lon="11.661645"><ele>56.199999999999996</ele><time>2026-04-26T15:14:10.185Z</time></trkpt><trkpt lat="45.6619588" lon="11.661501"><ele>56.39999999999999</ele><time>2026-04-26T15:14:12.186Z</time></trkpt><trkpt lat="45.6619501" lon="11.6613488"><ele>56.6</ele><time>2026-04-26T15:14:14.186Z</time></trkpt><trkpt lat="45.6619442" lon="11.6611955"><ele>56.8</ele><time>2026-04-26T15:14:16.186Z</time></trkpt><trkpt lat="45.661936" lon="11.6610398"><ele>57.0</ele><time>2026-04-26T15:14:18.186Z</time></trkpt><trkpt lat="45.6619247" lon="11.6608775"><ele>57.2</ele><time>2026-04-26T15:14:20.186Z</time></trkpt><trkpt lat="45.6619175" lon="11.6607155"><ele>57.400000000000006</ele><time>2026-04-26T15:14:22.186Z</time></trkpt><trkpt lat="45.6619098" lon="11.6605567"><ele>57.599999999999994</ele><time>2026-04-26T15:14:24.186Z</time></trkpt><trkpt lat="45.661907" lon="11.6604028"><ele>57.8</ele><time>2026-04-26T15:14:26.186Z</time></trkpt><trkpt lat="45.6619037" lon="11.6602511"><ele>58.0</ele><time>2026-04-26T15:14:28.185Z</time></trkpt><trkpt lat="45.6618994" lon="11.660103"><ele>58.0</ele><time>2026-04-26T15:14:30.186Z</time></trkpt><trkpt lat="45.6618924" lon="11.6599561"><ele>58.0</ele><time>2026-04-26T15:14:32.186Z</time></trkpt><trkpt lat="45.6618893" lon="11.6598126"><ele>58.0</ele><time>2026-04-26T15:14:34.186Z</time></trkpt><trkpt lat="45.6618847" lon="11.6596691"><ele>58.0</ele><time>2026-04-26T15:14:36.185Z</time></trkpt><trkpt lat="45.6618783" lon="11.6595193"><ele>58.0</ele><time>2026-04-26T15:14:38.185Z</time></trkpt><trkpt lat="45.6618726" lon="11.6593689"><ele>58.2</ele><time>2026-04-26T15:14:40.186Z</time></trkpt><trkpt lat="45.6618639" lon="11.6592211"><ele>58.4</ele><time>2026-04-26T15:14:42.186Z</time></trkpt><trkpt lat="45.6618528" lon="11.6590687"><ele>58.60000000000001</ele><time>2026-04-26T15:14:44.186Z</time></trkpt><trkpt lat="45.6618434" lon="11.6589126"><ele>58.800000000000004</ele><time>2026-04-26T15:14:46.185Z</time></trkpt><trkpt lat="45.6618338" lon="11.6587621"><ele>59.0</ele><time>2026-04-26T15:14:48.186Z</time></trkpt><trkpt lat="45.6618307" lon="11.6586144"><ele>59.0</ele><time>2026-04-26T15:14:50.186Z</time></trkpt><trkpt lat="45.6618243" lon="11.6584628"><ele>59.00000000000001</ele><time>2026-04-26T15:14:52.186Z</time></trkpt><trkpt lat="45.6618199" lon="11.6583088"><ele>59.00000000000001</ele><time>2026-04-26T15:14:54.186Z</time></trkpt><trkpt lat="45.6618164" lon="11.6581581"><ele>59.0</ele><time>2026-04-26T15:14:56.186Z</time></trkpt><trkpt lat="45.6618084" lon="11.6580106"><ele>59.0</ele><time>2026-04-26T15:14:58.186Z</time></trkpt><trkpt lat="45.6618034" lon="11.6578586"><ele>59.0</ele><time>2026-04-26T15:15:00.186Z</time></trkpt><trkpt lat="45.6618009" lon="11.6577074"><ele>59.00000000000001</ele><time>2026-04-26T15:15:02.187Z</time></trkpt><trkpt lat="45.661794" lon="11.6575534"><ele>59.00000000000001</ele><time>2026-04-26T15:15:04.187Z</time></trkpt><trkpt lat="45.6617866" lon="11.6574016"><ele>59.0</ele><time>2026-04-26T15:15:06.187Z</time></trkpt><trkpt lat="45.6617797" lon="11.6572473"><ele>59.0</ele><time>2026-04-26T15:15:08.186Z</time></trkpt><trkpt lat="45.6617741" lon="11.6570877"><ele>59.0</ele><time>2026-04-26T15:15:10.187Z</time></trkpt><trkpt lat="45.6617667" lon="11.656928"><ele>59.00000000000001</ele><time>2026-04-26T15:15:12.187Z</time></trkpt><trkpt lat="45.6617586" lon="11.6567735"><ele>59.00000000000001</ele><time>2026-04-26T15:15:14.187Z</time></trkpt><trkpt lat="45.6617525" lon="11.6566193"><ele>59.0</ele><time>2026-04-26T15:15:16.187Z</time></trkpt><trkpt lat="45.6617451" lon="11.6564643"><ele>59.0</ele><time>2026-04-26T15:15:18.187Z</time></trkpt><trkpt lat="45.6617359" lon="11.6563022"><ele>59.0</ele><time>2026-04-26T15:15:20.187Z</time></trkpt><trkpt lat="45.6617285" lon="11.6561517"><ele>59.00000000000001</ele><time>2026-04-26T15:15:22.187Z</time></trkpt><trkpt lat="45.6617222" lon="11.6559959"><ele>59.00000000000001</ele><time>2026-04-26T15:15:24.187Z</time></trkpt><trkpt lat="45.6617169" lon="11.655839"><ele>59.0</ele><time>2026-04-26T15:15:26.187Z</time></trkpt><trkpt lat="45.6617098" lon="11.6556796"><ele>59.0</ele><time>2026-04-26T15:15:28.187Z</time></trkpt><trkpt lat="45.661697" lon="11.6555198"><ele>59.0</ele><time>2026-04-26T15:15:30.187Z</time></trkpt><trkpt lat="45.6616907" lon="11.6553716"><ele>59.00000000000001</ele><time>2026-04-26T15:15:32.187Z</time></trkpt><trkpt lat="45.6616854" lon="11.6552169"><ele>59.00000000000001</ele><time>2026-04-26T15:15:34.186Z</time></trkpt><trkpt lat="45.6616771" lon="11.6550631"><ele>59.0</ele><time>2026-04-26T15:15:36.187Z</time></trkpt><trkpt lat="45.6616743" lon="11.6549066"><ele>59.0</ele><time>2026-04-26T15:15:38.187Z</time></trkpt><trkpt lat="45.6616683" lon="11.6547417"><ele>59.0</ele><time>2026-04-26T15:15:40.187Z</time></trkpt><trkpt lat="45.6616575" lon="11.6545783"><ele>59.0</ele><time>2026-04-26T15:15:42.187Z</time></trkpt><trkpt lat="45.6616536" lon="11.6544175"><ele>59.0</ele><time>2026-04-26T15:15:44.186Z</time></trkpt><trkpt lat="45.6616422" lon="11.6542452"><ele>59.0</ele><time>2026-04-26T15:15:46.186Z</time></trkpt><trkpt lat="45.6616348" lon="11.6540732"><ele>58.5</ele><time>2026-04-26T15:15:48.187Z</time></trkpt><trkpt lat="45.6616262" lon="11.6539009"><ele>58.0</ele><time>2026-04-26T15:15:50.186Z</time></trkpt><trkpt lat="45.6616167" lon="11.6537257"><ele>57.5</ele><time>2026-04-26T15:15:52.187Z</time></trkpt><trkpt lat="45.6616075" lon="11.6535581"><ele>57.0</ele><time>2026-04-26T15:15:54.187Z</time></trkpt><trkpt lat="45.6616003" lon="11.6533916"><ele>57.0</ele><time>2026-04-26T15:15:56.187Z</time></trkpt><trkpt lat="45.6615944" lon="11.6532269"><ele>57.0</ele><time>2026-04-26T15:15:58.187Z</time></trkpt><trkpt lat="45.6615868" lon="11.6530602"><ele>57.0</ele><time>2026-04-26T15:16:00.187Z</time></trkpt><trkpt lat="45.6615822" lon="11.6529089"><ele>57.0</ele><time>2026-04-26T15:16:02.188Z</time></trkpt><trkpt lat="45.6615775" lon="11.6527419"><ele>57.400000000000006</ele><time>2026-04-26T15:16:04.187Z</time></trkpt><trkpt lat="45.6615684" lon="11.6525736"><ele>57.800000000000004</ele><time>2026-04-26T15:16:06.188Z</time></trkpt><trkpt lat="45.6615588" lon="11.6524041"><ele>58.2</ele><time>2026-04-26T15:16:08.188Z</time></trkpt><trkpt lat="45.6615573" lon="11.6523101"><ele>58.6</ele><time>2026-04-26T15:16:09.188Z</time></trkpt><trkpt lat="45.6615517" lon="11.6521419"><ele>59.0</ele><time>2026-04-26T15:16:11.188Z</time></trkpt><trkpt lat="45.661549" lon="11.6519777"><ele>59.0</ele><time>2026-04-26T15:16:13.188Z</time></trkpt><trkpt lat="45.6615467" lon="11.6518187"><ele>59.00000000000001</ele><time>2026-04-26T15:16:15.188Z</time></trkpt><trkpt lat="45.6615413" lon="11.651667"><ele>59.00000000000001</ele><time>2026-04-26T15:16:17.188Z</time></trkpt><trkpt lat="45.6615269" lon="11.6515137"><ele>59.0</ele><time>2026-04-26T15:16:19.188Z</time></trkpt><trkpt lat="45.6615163" lon="11.6513453"><ele>59.0</ele><time>2026-04-26T15:16:21.188Z</time></trkpt><trkpt lat="45.6615088" lon="11.6511805"><ele>59.0</ele><time>2026-04-26T15:16:23.188Z</time></trkpt><trkpt lat="45.661499" lon="11.6510175"><ele>59.0</ele><time>2026-04-26T15:16:25.188Z</time></trkpt><trkpt lat="45.6614919" lon="11.6508557"><ele>59.0</ele><time>2026-04-26T15:16:27.188Z</time></trkpt><trkpt lat="45.6614835" lon="11.6506924"><ele>59.0</ele><time>2026-04-26T15:16:29.188Z</time></trkpt><trkpt lat="45.6614773" lon="11.6505215"><ele>59.0</ele><time>2026-04-26T15:16:31.188Z</time></trkpt><trkpt lat="45.661468" lon="11.6503544"><ele>59.0</ele><time>2026-04-26T15:16:33.188Z</time></trkpt><trkpt lat="45.661459" lon="11.6501872"><ele>59.0</ele><time>2026-04-26T15:16:35.188Z</time></trkpt><trkpt lat="45.6614506" lon="11.650019"><ele>59.0</ele><time>2026-04-26T15:16:37.187Z</time></trkpt><trkpt lat="45.6614421" lon="11.6498466"><ele>58.5</ele><time>2026-04-26T15:16:39.188Z</time></trkpt><trkpt lat="45.6614395" lon="11.6496821"><ele>58.0</ele><time>2026-04-26T15:16:41.188Z</time></trkpt><trkpt lat="45.6614332" lon="11.6495212"><ele>57.5</ele><time>2026-04-26T15:16:43.188Z</time></trkpt><trkpt lat="45.6614267" lon="11.6493607"><ele>57.0</ele><time>2026-04-26T15:16:45.188Z</time></trkpt><trkpt lat="45.661419" lon="11.6492021"><ele>57.0</ele><time>2026-04-26T15:16:47.188Z</time></trkpt><trkpt lat="45.6614165" lon="11.649039"><ele>57.0</ele><time>2026-04-26T15:16:49.188Z</time></trkpt><trkpt lat="45.6614095" lon="11.6488785"><ele>57.0</ele><time>2026-04-26T15:16:51.188Z</time></trkpt><trkpt lat="45.6614014" lon="11.6487154"><ele>57.0</ele><time>2026-04-26T15:16:53.188Z</time></trkpt><trkpt lat="45.661394" lon="11.6485539"><ele>57.0</ele><time>2026-04-26T15:16:55.187Z</time></trkpt><trkpt lat="45.6613875" lon="11.6483905"><ele>57.0</ele><time>2026-04-26T15:16:57.188Z</time></trkpt><trkpt lat="45.6613838" lon="11.6482261"><ele>57.0</ele><time>2026-04-26T15:16:59.188Z</time></trkpt><trkpt lat="45.6613756" lon="11.6480626"><ele>57.0</ele><time>2026-04-26T15:17:01.187Z</time></trkpt><trkpt lat="45.661366" lon="11.6479024"><ele>56.8</ele><time>2026-04-26T15:17:03.188Z</time></trkpt><trkpt lat="45.6613605" lon="11.6477413"><ele>56.6</ele><time>2026-04-26T15:17:05.188Z</time></trkpt><trkpt lat="45.6613528" lon="11.6475813"><ele>56.39999999999999</ele><time>2026-04-26T15:17:07.189Z</time></trkpt><trkpt lat="45.6613469" lon="11.6474214"><ele>56.199999999999996</ele><time>2026-04-26T15:17:09.189Z</time></trkpt><trkpt lat="45.6613366" lon="11.6472635"><ele>56.0</ele><time>2026-04-26T15:17:11.189Z</time></trkpt><trkpt lat="45.6613292" lon="11.6471061"><ele>56.0</ele><time>2026-04-26T15:17:13.188Z</time></trkpt><trkpt lat="45.6613257" lon="11.6469477"><ele>55.99999999999999</ele><time>2026-04-26T15:17:15.189Z</time></trkpt><trkpt lat="45.6613193" lon="11.6467904"><ele>55.99999999999999</ele><time>2026-04-26T15:17:17.188Z</time></trkpt><trkpt lat="45.6613097" lon="11.6466329"><ele>56.0</ele><time>2026-04-26T15:17:19.189Z</time></trkpt><trkpt lat="45.6613095" lon="11.6464775"><ele>56.0</ele><time>2026-04-26T15:17:21.188Z</time></trkpt><trkpt lat="45.6613024" lon="11.6463147"><ele>56.0</ele><time>2026-04-26T15:17:23.189Z</time></trkpt><trkpt lat="45.6612946" lon="11.6461526"><ele>55.99999999999999</ele><time>2026-04-26T15:17:25.189Z</time></trkpt><trkpt lat="45.6612849" lon="11.6459885"><ele>55.99999999999999</ele><time>2026-04-26T15:17:27.189Z</time></trkpt><trkpt lat="45.6612784" lon="11.6458274"><ele>56.0</ele><time>2026-04-26T15:17:29.189Z</time></trkpt><trkpt lat="45.6612691" lon="11.6456825"><ele>56.0</ele><time>2026-04-26T15:17:31.188Z</time></trkpt><trkpt lat="45.6612644" lon="11.6455457"><ele>56.00000000000001</ele><time>2026-04-26T15:17:33.189Z</time></trkpt><trkpt lat="45.6612594" lon="11.6454153"><ele>56.0</ele><time>2026-04-26T15:17:35.188Z</time></trkpt><trkpt lat="45.6612505" lon="11.6452889"><ele>56.0</ele><time>2026-04-26T15:17:37.189Z</time></trkpt><trkpt lat="45.6612378" lon="11.6451661"><ele>56.0</ele><time>2026-04-26T15:17:39.189Z</time></trkpt><trkpt lat="45.6612787" lon="11.645077"><ele>56.00000000000001</ele><time>2026-04-26T15:17:41.188Z</time></trkpt><trkpt lat="45.6613564" lon="11.6450804"><ele>56.0</ele><time>2026-04-26T15:17:43.189Z</time></trkpt><trkpt lat="45.6614297" lon="11.6451323"><ele>56.00000000000001</ele><time>2026-04-26T15:17:45.189Z</time></trkpt><trkpt lat="45.6614988" lon="11.6451707"><ele>56.0</ele><time>2026-04-26T15:17:47.189Z</time></trkpt><trkpt lat="45.6615813" lon="11.6452146"><ele>56.0</ele><time>2026-04-26T15:17:49.189Z</time></trkpt><trkpt lat="45.6616606" lon="11.6452491"><ele>56.0</ele><time>2026-04-26T15:17:51.189Z</time></trkpt><trkpt lat="45.6617535" lon="11.6452821"><ele>56.00000000000001</ele><time>2026-04-26T15:17:54.188Z</time></trkpt><trkpt lat="45.6618334" lon="11.645319"><ele>56.0</ele><time>2026-04-26T15:17:56.189Z</time></trkpt><trkpt lat="45.6619146" lon="11.6453581"><ele>56.333333333333336</ele><time>2026-04-26T15:17:58.189Z</time></trkpt><trkpt lat="45.6619912" lon="11.645379"><ele>56.66666666666667</ele><time>2026-04-26T15:18:00.189Z</time></trkpt><trkpt lat="45.6620544" lon="11.6454204"><ele>57.0</ele><time>2026-04-26T15:18:02.189Z</time></trkpt><trkpt lat="45.6621123" lon="11.6454618"><ele>57.33333333333333</ele><time>2026-04-26T15:18:04.189Z</time></trkpt><trkpt lat="45.6621901" lon="11.6455011"><ele>57.666666666666664</ele><time>2026-04-26T15:18:06.189Z</time></trkpt><trkpt lat="45.6622781" lon="11.6455349"><ele>58.0</ele><time>2026-04-26T15:18:08.189Z</time></trkpt><trkpt lat="45.6623873" lon="11.6455791"><ele>57.99999999999999</ele><time>2026-04-26T15:18:10.188Z</time></trkpt><trkpt lat="45.662475" lon="11.6456059"><ele>58.0</ele><time>2026-04-26T15:18:12.19Z</time></trkpt><trkpt lat="45.6625499" lon="11.6456069"><ele>58.0</ele><time>2026-04-26T15:18:14.19Z</time></trkpt><trkpt lat="45.6626224" lon="11.6455753"><ele>58.0</ele><time>2026-04-26T15:18:16.19Z</time></trkpt><trkpt lat="45.6626892" lon="11.6455119"><ele>57.99999999999999</ele><time>2026-04-26T15:18:18.19Z</time></trkpt><trkpt lat="45.6627368" lon="11.6454298"><ele>58.0</ele><time>2026-04-26T15:18:20.19Z</time></trkpt><trkpt lat="45.6627598" lon="11.6453304"><ele>57.83333333333333</ele><time>2026-04-26T15:18:22.19Z</time></trkpt><trkpt lat="45.6627827" lon="11.6452147"><ele>57.666666666666664</ele><time>2026-04-26T15:18:24.189Z</time></trkpt><trkpt lat="45.6628268" lon="11.6450795"><ele>57.5</ele><time>2026-04-26T15:18:26.19Z</time></trkpt><trkpt lat="45.6628597" lon="11.644964"><ele>57.33333333333333</ele><time>2026-04-26T15:18:28.19Z</time></trkpt><trkpt lat="45.6628798" lon="11.6448416"><ele>57.166666666666664</ele><time>2026-04-26T15:18:30.19Z</time></trkpt><trkpt lat="45.6629077" lon="11.6447298"><ele>57.0</ele><time>2026-04-26T15:18:32.19Z</time></trkpt><trkpt lat="45.6629279" lon="11.6446261"><ele>57.0</ele><time>2026-04-26T15:18:34.19Z</time></trkpt><trkpt lat="45.6629489" lon="11.6445159"><ele>57.0</ele><time>2026-04-26T15:18:36.19Z</time></trkpt><trkpt lat="45.6629698" lon="11.6444145"><ele>57.0</ele><time>2026-04-26T15:18:38.19Z</time></trkpt><trkpt lat="45.6629872" lon="11.6443204"><ele>57.0</ele><time>2026-04-26T15:18:40.19Z</time></trkpt><trkpt lat="45.6630159" lon="11.6441968"><ele>57.0</ele><time>2026-04-26T15:18:43.19Z</time></trkpt><trkpt lat="45.6630391" lon="11.644083"><ele>57.0</ele><time>2026-04-26T15:18:46.19Z</time></trkpt><trkpt lat="45.6630552" lon="11.6439777"><ele>57.166666666666664</ele><time>2026-04-26T15:18:49.19Z</time></trkpt><trkpt lat="45.6630812" lon="11.6438743"><ele>57.33333333333333</ele><time>2026-04-26T15:18:52.19Z</time></trkpt><trkpt lat="45.6631128" lon="11.6437689"><ele>57.5</ele><time>2026-04-26T15:18:54.19Z</time></trkpt><trkpt lat="45.6631364" lon="11.6436311"><ele>57.666666666666664</ele><time>2026-04-26T15:18:56.19Z</time></trkpt><trkpt lat="45.6631656" lon="11.6434854"><ele>57.83333333333333</ele><time>2026-04-26T15:18:58.19Z</time></trkpt><trkpt lat="45.6631948" lon="11.6433675"><ele>58.0</ele><time>2026-04-26T15:19:00.19Z</time></trkpt><trkpt lat="45.6632163" lon="11.6432507"><ele>57.99999999999999</ele><time>2026-04-26T15:19:02.19Z</time></trkpt><trkpt lat="45.6632395" lon="11.6431462"><ele>58.0</ele><time>2026-04-26T15:19:04.189Z</time></trkpt><trkpt lat="45.6632583" lon="11.6430372"><ele>58.0</ele><time>2026-04-26T15:19:06.19Z</time></trkpt><trkpt lat="45.6632869" lon="11.6429442"><ele>58.0</ele><time>2026-04-26T15:19:08.189Z</time></trkpt><trkpt lat="45.6633253" lon="11.6428167"><ele>57.99999999999999</ele><time>2026-04-26T15:19:10.189Z</time></trkpt><trkpt lat="45.663371" lon="11.6426752"><ele>58.0</ele><time>2026-04-26T15:19:12.19Z</time></trkpt><trkpt lat="45.663399" lon="11.6425426"><ele>58.166666666666664</ele><time>2026-04-26T15:19:14.192Z</time></trkpt><trkpt lat="45.6634237" lon="11.6424166"><ele>58.33333333333333</ele><time>2026-04-26T15:19:16.189Z</time></trkpt><trkpt lat="45.6634558" lon="11.6423086"><ele>58.5</ele><time>2026-04-26T15:19:18.191Z</time></trkpt><trkpt lat="45.6635011" lon="11.6421996"><ele>58.66666666666667</ele><time>2026-04-26T15:19:20.191Z</time></trkpt><trkpt lat="45.6635291" lon="11.6421048"><ele>58.833333333333336</ele><time>2026-04-26T15:19:22.191Z</time></trkpt><trkpt lat="45.663552" lon="11.6420002"><ele>59.0</ele><time>2026-04-26T15:19:24.191Z</time></trkpt><trkpt lat="45.6635797" lon="11.6418929"><ele>59.0</ele><time>2026-04-26T15:19:26.191Z</time></trkpt><trkpt lat="45.6636084" lon="11.6417477"><ele>59.00000000000001</ele><time>2026-04-26T15:19:28.191Z</time></trkpt><trkpt lat="45.6636375" lon="11.641614"><ele>59.00000000000001</ele><time>2026-04-26T15:19:30.191Z</time></trkpt><trkpt lat="45.6636641" lon="11.6414951"><ele>59.0</ele><time>2026-04-26T15:19:32.191Z</time></trkpt><trkpt lat="45.6636868" lon="11.6413796"><ele>59.0</ele><time>2026-04-26T15:19:34.191Z</time></trkpt><trkpt lat="45.6637121" lon="11.6412779"><ele>59.0</ele><time>2026-04-26T15:19:36.191Z</time></trkpt><trkpt lat="45.6637394" lon="11.6411931"><ele>59.00000000000001</ele><time>2026-04-26T15:19:38.191Z</time></trkpt><trkpt lat="45.6637698" lon="11.6410577"><ele>59.00000000000001</ele><time>2026-04-26T15:19:40.191Z</time></trkpt><trkpt lat="45.6637988" lon="11.6409115"><ele>59.0</ele><time>2026-04-26T15:19:42.191Z</time></trkpt><trkpt lat="45.6638258" lon="11.6407646"><ele>59.0</ele><time>2026-04-26T15:19:44.191Z</time></trkpt><trkpt lat="45.6638513" lon="11.6406337"><ele>58.833333333333336</ele><time>2026-04-26T15:19:46.191Z</time></trkpt><trkpt lat="45.6638765" lon="11.6405359"><ele>58.66666666666667</ele><time>2026-04-26T15:19:48.191Z</time></trkpt><trkpt lat="45.6638977" lon="11.6404285"><ele>58.5</ele><time>2026-04-26T15:19:50.191Z</time></trkpt><trkpt lat="45.6639212" lon="11.640322"><ele>58.33333333333333</ele><time>2026-04-26T15:19:52.191Z</time></trkpt><trkpt lat="45.6639454" lon="11.6402009"><ele>58.166666666666664</ele><time>2026-04-26T15:19:54.191Z</time></trkpt><trkpt lat="45.6639849" lon="11.6400366"><ele>58.0</ele><time>2026-04-26T15:19:56.191Z</time></trkpt><trkpt lat="45.6640124" lon="11.639889"><ele>57.8</ele><time>2026-04-26T15:19:58.191Z</time></trkpt><trkpt lat="45.6640438" lon="11.6397457"><ele>57.599999999999994</ele><time>2026-04-26T15:20:00.191Z</time></trkpt><trkpt lat="45.6640823" lon="11.6396135"><ele>57.400000000000006</ele><time>2026-04-26T15:20:02.191Z</time></trkpt><trkpt lat="45.6641079" lon="11.6394942"><ele>57.2</ele><time>2026-04-26T15:20:04.19Z</time></trkpt><trkpt lat="45.6641342" lon="11.6393803"><ele>57.0</ele><time>2026-04-26T15:20:06.191Z</time></trkpt><trkpt lat="45.6641575" lon="11.6392603"><ele>57.0</ele><time>2026-04-26T15:20:08.191Z</time></trkpt><trkpt lat="45.6641842" lon="11.6391668"><ele>57.0</ele><time>2026-04-26T15:20:10.19Z</time></trkpt><trkpt lat="45.6642092" lon="11.6390724"><ele>57.0</ele><time>2026-04-26T15:20:12.191Z</time></trkpt><trkpt lat="45.6642328" lon="11.6389475"><ele>57.0</ele><time>2026-04-26T15:20:14.19Z</time></trkpt><trkpt lat="45.6642698" lon="11.6388019"><ele>57.0</ele><time>2026-04-26T15:20:16.192Z</time></trkpt><trkpt lat="45.6643071" lon="11.6386574"><ele>57.0</ele><time>2026-04-26T15:20:18.191Z</time></trkpt><trkpt lat="45.6643488" lon="11.6385216"><ele>57.166666666666664</ele><time>2026-04-26T15:20:20.191Z</time></trkpt><trkpt lat="45.6643952" lon="11.6384066"><ele>57.33333333333333</ele><time>2026-04-26T15:20:22.192Z</time></trkpt><trkpt lat="45.6644452" lon="11.6383059"><ele>57.5</ele><time>2026-04-26T15:20:24.192Z</time></trkpt><trkpt lat="45.664493" lon="11.6382152"><ele>57.666666666666664</ele><time>2026-04-26T15:20:26.192Z</time></trkpt><trkpt lat="45.664536" lon="11.6381394"><ele>57.83333333333333</ele><time>2026-04-26T15:20:28.191Z</time></trkpt><trkpt lat="45.6645833" lon="11.6380398"><ele>58.0</ele><time>2026-04-26T15:20:30.192Z</time></trkpt><trkpt lat="45.664625" lon="11.6378931"><ele>57.99999999999999</ele><time>2026-04-26T15:20:32.191Z</time></trkpt><trkpt lat="45.6646527" lon="11.63777"><ele>58.0</ele><time>2026-04-26T15:20:34.192Z</time></trkpt><trkpt lat="45.6646604" lon="11.6376589"><ele>58.0</ele><time>2026-04-26T15:20:36.192Z</time></trkpt><trkpt lat="45.664636" lon="11.6375553"><ele>58.0</ele><time>2026-04-26T15:20:38.192Z</time></trkpt><trkpt lat="45.6646328" lon="11.6374308"><ele>57.99999999999999</ele><time>2026-04-26T15:20:40.192Z</time></trkpt><trkpt lat="45.6646157" lon="11.6372782"><ele>58.0</ele><time>2026-04-26T15:20:42.192Z</time></trkpt><trkpt lat="45.6645959" lon="11.6371292"><ele>57.99999999999999</ele><time>2026-04-26T15:20:44.192Z</time></trkpt><trkpt lat="45.6645812" lon="11.6370045"><ele>58.0</ele><time>2026-04-26T15:20:46.191Z</time></trkpt><trkpt lat="45.6645722" lon="11.6369009"><ele>58.0</ele><time>2026-04-26T15:20:48.191Z</time></trkpt><trkpt lat="45.6645663" lon="11.6367843"><ele>58.0</ele><time>2026-04-26T15:20:50.192Z</time></trkpt><trkpt lat="45.6645591" lon="11.6366891"><ele>57.99999999999999</ele><time>2026-04-26T15:20:52.191Z</time></trkpt><trkpt lat="45.6645458" lon="11.636552"><ele>58.0</ele><time>2026-04-26T15:20:55.192Z</time></trkpt><trkpt lat="45.6645341" lon="11.6364431"><ele>58.2</ele><time>2026-04-26T15:20:57.192Z</time></trkpt><trkpt lat="45.6645235" lon="11.6363016"><ele>58.4</ele><time>2026-04-26T15:20:59.192Z</time></trkpt><trkpt lat="45.6645101" lon="11.636165"><ele>58.60000000000001</ele><time>2026-04-26T15:21:01.192Z</time></trkpt><trkpt lat="45.6644859" lon="11.6360453"><ele>58.800000000000004</ele><time>2026-04-26T15:21:03.192Z</time></trkpt><trkpt lat="45.664449" lon="11.635944"><ele>59.0</ele><time>2026-04-26T15:21:05.192Z</time></trkpt><trkpt lat="45.6644368" lon="11.6358208"><ele>59.16666666666667</ele><time>2026-04-26T15:21:07.191Z</time></trkpt><trkpt lat="45.6644276" lon="11.635726"><ele>59.333333333333336</ele><time>2026-04-26T15:21:09.192Z</time></trkpt><trkpt lat="45.664389" lon="11.6356534"><ele>59.5</ele><time>2026-04-26T15:21:11.192Z</time></trkpt><trkpt lat="45.6642947" lon="11.6356034"><ele>59.66666666666667</ele><time>2026-04-26T15:21:13.192Z</time></trkpt><trkpt lat="45.6642015" lon="11.6355588"><ele>59.833333333333336</ele><time>2026-04-26T15:21:15.191Z</time></trkpt><trkpt lat="45.6641413" lon="11.6354603"><ele>60.0</ele><time>2026-04-26T15:21:17.192Z</time></trkpt><trkpt lat="45.6641075" lon="11.6353525"><ele>60.0</ele><time>2026-04-26T15:21:19.192Z</time></trkpt><trkpt lat="45.6640666" lon="11.6352549"><ele>60.0</ele><time>2026-04-26T15:21:22.192Z</time></trkpt><trkpt lat="45.6640153" lon="11.63519"><ele>60.0</ele><time>2026-04-26T15:21:24.193Z</time></trkpt><trkpt lat="45.6639645" lon="11.6351253"><ele>60.0</ele><time>2026-04-26T15:21:26.193Z</time></trkpt><trkpt lat="45.6639188" lon="11.6350578"><ele>60.0</ele><time>2026-04-26T15:21:28.193Z</time></trkpt><trkpt lat="45.6638511" lon="11.6349995"><ele>60.0</ele><time>2026-04-26T15:21:31.193Z</time></trkpt><trkpt lat="45.6637887" lon="11.6349767"><ele>60.0</ele><time>2026-04-26T15:21:33.193Z</time></trkpt><trkpt lat="45.6637276" lon="11.63492"><ele>60.0</ele><time>2026-04-26T15:21:36.193Z</time></trkpt><trkpt lat="45.6636558" lon="11.6348679"><ele>60.0</ele><time>2026-04-26T15:21:39.193Z</time></trkpt><trkpt lat="45.6635765" lon="11.6347854"><ele>60.0</ele><time>2026-04-26T15:21:42.193Z</time></trkpt><trkpt lat="45.6635217" lon="11.6347277"><ele>60.0</ele><time>2026-04-26T15:21:44.193Z</time></trkpt><trkpt lat="45.6634523" lon="11.6346465"><ele>60.0</ele><time>2026-04-26T15:21:47.193Z</time></trkpt><trkpt lat="45.66339" lon="11.6345497"><ele>60.0</ele><time>2026-04-26T15:21:50.193Z</time></trkpt><trkpt lat="45.6633238" lon="11.634471"><ele>59.714285714285715</ele><time>2026-04-26T15:21:53.193Z</time></trkpt><trkpt lat="45.6632665" lon="11.6343762"><ele>59.42857142857143</ele><time>2026-04-26T15:21:56.193Z</time></trkpt><trkpt lat="45.6632212" lon="11.6343093"><ele>59.142857142857146</ele><time>2026-04-26T15:21:58.193Z</time></trkpt><trkpt lat="45.6631751" lon="11.6342411"><ele>58.85714285714286</ele><time>2026-04-26T15:22:00.193Z</time></trkpt><trkpt lat="45.6631069" lon="11.6341616"><ele>58.57142857142857</ele><time>2026-04-26T15:22:03.193Z</time></trkpt><trkpt lat="45.6630523" lon="11.6340968"><ele>58.28571428571429</ele><time>2026-04-26T15:22:05.193Z</time></trkpt><trkpt lat="45.6630075" lon="11.6340305"><ele>58.00000000000001</ele><time>2026-04-26T15:22:07.193Z</time></trkpt><trkpt lat="45.6629467" lon="11.6339672"><ele>57.99999999999999</ele><time>2026-04-26T15:22:09.193Z</time></trkpt><trkpt lat="45.662891" lon="11.6338881"><ele>58.0</ele><time>2026-04-26T15:22:11.194Z</time></trkpt><trkpt lat="45.6628446" lon="11.6338225"><ele>58.0</ele><time>2026-04-26T15:22:13.193Z</time></trkpt><trkpt lat="45.6627721" lon="11.6337555"><ele>58.0</ele><time>2026-04-26T15:22:16.193Z</time></trkpt><trkpt lat="45.6626757" lon="11.6337058"><ele>57.99999999999999</ele><time>2026-04-26T15:22:19.193Z</time></trkpt><trkpt lat="45.6626055" lon="11.6336457"><ele>58.0</ele><time>2026-04-26T15:22:21.193Z</time></trkpt><trkpt lat="45.6625428" lon="11.6336165"><ele>58.0</ele><time>2026-04-26T15:22:23.193Z</time></trkpt><trkpt lat="45.6624706" lon="11.6335748"><ele>58.0</ele><time>2026-04-26T15:22:26.194Z</time></trkpt><trkpt lat="45.6623904" lon="11.6335209"><ele>58.0</ele><time>2026-04-26T15:22:29.194Z</time></trkpt><trkpt lat="45.6623132" lon="11.6334433"><ele>58.0</ele><time>2026-04-26T15:22:32.194Z</time></trkpt><trkpt lat="45.6622217" lon="11.6333727"><ele>58.0</ele><time>2026-04-26T15:22:34.194Z</time></trkpt><trkpt lat="45.6621391" lon="11.633301"><ele>57.99999999999999</ele><time>2026-04-26T15:22:36.193Z</time></trkpt><trkpt lat="45.662061" lon="11.6332255"><ele>58.0</ele><time>2026-04-26T15:22:38.194Z</time></trkpt><trkpt lat="45.6620045" lon="11.6331312"><ele>58.0</ele><time>2026-04-26T15:22:40.194Z</time></trkpt><trkpt lat="45.661986" lon="11.6330146"><ele>58.0</ele><time>2026-04-26T15:22:42.194Z</time></trkpt><trkpt lat="45.6619415" lon="11.6329385"><ele>57.99999999999999</ele><time>2026-04-26T15:22:44.194Z</time></trkpt><trkpt lat="45.6619191" lon="11.6328324"><ele>58.0</ele><time>2026-04-26T15:22:46.194Z</time></trkpt><trkpt lat="45.6619242" lon="11.6326965"><ele>58.0</ele><time>2026-04-26T15:22:48.194Z</time></trkpt><trkpt lat="45.6619213" lon="11.6325464"><ele>58.0</ele><time>2026-04-26T15:22:50.194Z</time></trkpt><trkpt lat="45.6619197" lon="11.6323998"><ele>58.0</ele><time>2026-04-26T15:22:52.193Z</time></trkpt><trkpt lat="45.6619117" lon="11.6322746"><ele>58.0</ele><time>2026-04-26T15:22:54.194Z</time></trkpt><trkpt lat="45.6619141" lon="11.63215"><ele>58.0</ele><time>2026-04-26T15:22:56.194Z</time></trkpt><trkpt lat="45.6619091" lon="11.6320347"><ele>57.666666666666664</ele><time>2026-04-26T15:22:58.193Z</time></trkpt><trkpt lat="45.6619074" lon="11.6319191"><ele>57.33333333333333</ele><time>2026-04-26T15:23:00.194Z</time></trkpt><trkpt lat="45.6619157" lon="11.6318111"><ele>57.0</ele><time>2026-04-26T15:23:02.194Z</time></trkpt><trkpt lat="45.6619061" lon="11.631701"><ele>56.66666666666667</ele><time>2026-04-26T15:23:04.193Z</time></trkpt><trkpt lat="45.6618935" lon="11.6315539"><ele>56.333333333333336</ele><time>2026-04-26T15:23:06.194Z</time></trkpt><trkpt lat="45.6618927" lon="11.6314614"><ele>56.0</ele><time>2026-04-26T15:23:07.195Z</time></trkpt><trkpt lat="45.6618899" lon="11.6313662"><ele>56.0</ele><time>2026-04-26T15:23:08.194Z</time></trkpt><trkpt lat="45.6618833" lon="11.631212"><ele>55.99999999999999</ele><time>2026-04-26T15:23:10.194Z</time></trkpt><trkpt lat="45.6618881" lon="11.6310698"><ele>55.99999999999999</ele><time>2026-04-26T15:23:12.195Z</time></trkpt><trkpt lat="45.6618831" lon="11.6309298"><ele>56.0</ele><time>2026-04-26T15:23:14.195Z</time></trkpt><trkpt lat="45.6618795" lon="11.6307974"><ele>56.0</ele><time>2026-04-26T15:23:16.194Z</time></trkpt><trkpt lat="45.6618776" lon="11.6306554"><ele>56.0</ele><time>2026-04-26T15:23:18.194Z</time></trkpt><trkpt lat="45.6618769" lon="11.6305152"><ele>55.99999999999999</ele><time>2026-04-26T15:23:20.194Z</time></trkpt><trkpt lat="45.6618725" lon="11.6303751"><ele>55.99999999999999</ele><time>2026-04-26T15:23:22.194Z</time></trkpt><trkpt lat="45.6618639" lon="11.6302334"><ele>56.0</ele><time>2026-04-26T15:23:24.195Z</time></trkpt><trkpt lat="45.6618606" lon="11.6300955"><ele>56.0</ele><time>2026-04-26T15:23:26.195Z</time></trkpt><trkpt lat="45.6618651" lon="11.6299572"><ele>55.8</ele><time>2026-04-26T15:23:28.195Z</time></trkpt><trkpt lat="45.6618612" lon="11.6298105"><ele>55.599999999999994</ele><time>2026-04-26T15:23:30.195Z</time></trkpt><trkpt lat="45.6618541" lon="11.6296742"><ele>55.4</ele><time>2026-04-26T15:23:32.194Z</time></trkpt><trkpt lat="45.6618519" lon="11.6295542"><ele>55.2</ele><time>2026-04-26T15:23:34.195Z</time></trkpt><trkpt lat="45.661852" lon="11.629433"><ele>55.0</ele><time>2026-04-26T15:23:36.195Z</time></trkpt><trkpt lat="45.6618404" lon="11.6293132"><ele>55.4</ele><time>2026-04-26T15:23:38.195Z</time></trkpt><trkpt lat="45.6618282" lon="11.6291655"><ele>55.8</ele><time>2026-04-26T15:23:40.195Z</time></trkpt><trkpt lat="45.6618243" lon="11.6289987"><ele>56.2</ele><time>2026-04-26T15:23:42.194Z</time></trkpt><trkpt lat="45.6618163" lon="11.6288458"><ele>56.6</ele><time>2026-04-26T15:23:44.195Z</time></trkpt><trkpt lat="45.6618092" lon="11.6287024"><ele>57.0</ele><time>2026-04-26T15:23:46.195Z</time></trkpt><trkpt lat="45.6618068" lon="11.6285656"><ele>57.2</ele><time>2026-04-26T15:23:48.195Z</time></trkpt><trkpt lat="45.6618033" lon="11.628438"><ele>57.400000000000006</ele><time>2026-04-26T15:23:50.195Z</time></trkpt><trkpt lat="45.6618059" lon="11.6283106"><ele>57.599999999999994</ele><time>2026-04-26T15:23:52.195Z</time></trkpt><trkpt lat="45.6618049" lon="11.62819"><ele>57.8</ele><time>2026-04-26T15:23:54.195Z</time></trkpt><trkpt lat="45.6618036" lon="11.6280582"><ele>58.0</ele><time>2026-04-26T15:23:56.194Z</time></trkpt><trkpt lat="45.661793" lon="11.6279202"><ele>57.8</ele><time>2026-04-26T15:23:58.195Z</time></trkpt><trkpt lat="45.6617839" lon="11.6277825"><ele>57.599999999999994</ele><time>2026-04-26T15:24:00.195Z</time></trkpt><trkpt lat="45.6617885" lon="11.6276482"><ele>57.400000000000006</ele><time>2026-04-26T15:24:02.195Z</time></trkpt><trkpt lat="45.6617845" lon="11.6275046"><ele>57.2</ele><time>2026-04-26T15:24:04.195Z</time></trkpt><trkpt lat="45.6617786" lon="11.6273592"><ele>57.0</ele><time>2026-04-26T15:24:06.196Z</time></trkpt><trkpt lat="45.6617736" lon="11.6272176"><ele>57.0</ele><time>2026-04-26T15:24:08.195Z</time></trkpt><trkpt lat="45.6617695" lon="11.6270756"><ele>57.0</ele><time>2026-04-26T15:24:10.196Z</time></trkpt><trkpt lat="45.6617679" lon="11.6269296"><ele>57.0</ele><time>2026-04-26T15:24:12.196Z</time></trkpt><trkpt lat="45.6617597" lon="11.6267925"><ele>57.0</ele><time>2026-04-26T15:24:14.196Z</time></trkpt><trkpt lat="45.6617543" lon="11.6266596"><ele>57.0</ele><time>2026-04-26T15:24:16.196Z</time></trkpt><trkpt lat="45.661758" lon="11.6265352"><ele>57.0</ele><time>2026-04-26T15:24:18.195Z</time></trkpt><trkpt lat="45.6617512" lon="11.6264234"><ele>57.0</ele><time>2026-04-26T15:24:20.195Z</time></trkpt><trkpt lat="45.6617417" lon="11.6263256"><ele>57.0</ele><time>2026-04-26T15:24:22.195Z</time></trkpt><trkpt lat="45.6617379" lon="11.626225"><ele>57.0</ele><time>2026-04-26T15:24:24.196Z</time></trkpt><trkpt lat="45.6617391" lon="11.6261147"><ele>57.0</ele><time>2026-04-26T15:24:26.195Z</time></trkpt><trkpt lat="45.6617356" lon="11.6260078"><ele>57.0</ele><time>2026-04-26T15:24:28.196Z</time></trkpt><trkpt lat="45.6617291" lon="11.6258915"><ele>57.0</ele><time>2026-04-26T15:24:30.196Z</time></trkpt><trkpt lat="45.6617255" lon="11.6257611"><ele>57.0</ele><time>2026-04-26T15:24:32.196Z</time></trkpt><trkpt lat="45.6617234" lon="11.6256341"><ele>57.0</ele><time>2026-04-26T15:24:34.196Z</time></trkpt><trkpt lat="45.6617229" lon="11.6255104"><ele>57.0</ele><time>2026-04-26T15:24:36.196Z</time></trkpt><trkpt lat="45.6617199" lon="11.6253817"><ele>57.0</ele><time>2026-04-26T15:24:38.196Z</time></trkpt><trkpt lat="45.6617211" lon="11.625243"><ele>56.833333333333336</ele><time>2026-04-26T15:24:40.196Z</time></trkpt><trkpt lat="45.6617114" lon="11.6251172"><ele>56.66666666666667</ele><time>2026-04-26T15:24:42.196Z</time></trkpt><trkpt lat="45.6617073" lon="11.6249815"><ele>56.5</ele><time>2026-04-26T15:24:44.196Z</time></trkpt><trkpt lat="45.6616961" lon="11.6248567"><ele>56.333333333333336</ele><time>2026-04-26T15:24:46.196Z</time></trkpt><trkpt lat="45.6616731" lon="11.6247386"><ele>56.16666666666667</ele><time>2026-04-26T15:24:48.196Z</time></trkpt><trkpt lat="45.6616621" lon="11.6246252"><ele>56.0</ele><time>2026-04-26T15:24:50.196Z</time></trkpt><trkpt lat="45.6616626" lon="11.6245167"><ele>55.8</ele><time>2026-04-26T15:24:52.196Z</time></trkpt><trkpt lat="45.6616619" lon="11.6244012"><ele>55.599999999999994</ele><time>2026-04-26T15:24:54.196Z</time></trkpt><trkpt lat="45.6616566" lon="11.6242821"><ele>55.4</ele><time>2026-04-26T15:24:56.196Z</time></trkpt><trkpt lat="45.6616495" lon="11.6241531"><ele>55.2</ele><time>2026-04-26T15:24:58.196Z</time></trkpt><trkpt lat="45.6616413" lon="11.624001"><ele>55.0</ele><time>2026-04-26T15:25:00.196Z</time></trkpt><trkpt lat="45.6616462" lon="11.6238705"><ele>54.99999999999999</ele><time>2026-04-26T15:25:02.196Z</time></trkpt><trkpt lat="45.661648" lon="11.6237488"><ele>55.0</ele><time>2026-04-26T15:25:04.196Z</time></trkpt><trkpt lat="45.6616471" lon="11.6236362"><ele>55.0</ele><time>2026-04-26T15:25:06.196Z</time></trkpt><trkpt lat="45.6616424" lon="11.6235313"><ele>55.0</ele><time>2026-04-26T15:25:08.195Z</time></trkpt><trkpt lat="45.6616533" lon="11.6234297"><ele>54.99999999999999</ele><time>2026-04-26T15:25:10.196Z</time></trkpt><trkpt lat="45.6616608" lon="11.6233085"><ele>55.0</ele><time>2026-04-26T15:25:12.196Z</time></trkpt><trkpt lat="45.6616641" lon="11.6231726"><ele>55.33333333333333</ele><time>2026-04-26T15:25:14.195Z</time></trkpt><trkpt lat="45.6616637" lon="11.6230288"><ele>55.666666666666664</ele><time>2026-04-26T15:25:16.196Z</time></trkpt><trkpt lat="45.6616595" lon="11.6229003"><ele>56.0</ele><time>2026-04-26T15:25:18.196Z</time></trkpt><trkpt lat="45.6616577" lon="11.6227796"><ele>56.33333333333333</ele><time>2026-04-26T15:25:20.195Z</time></trkpt><trkpt lat="45.6616655" lon="11.6226742"><ele>56.666666666666664</ele><time>2026-04-26T15:25:22.196Z</time></trkpt><trkpt lat="45.6616564" lon="11.622563"><ele>57.0</ele><time>2026-04-26T15:25:24.196Z</time></trkpt><trkpt lat="45.6616355" lon="11.6224552"><ele>57.0</ele><time>2026-04-26T15:25:26.197Z</time></trkpt><trkpt lat="45.6616244" lon="11.6223303"><ele>57.0</ele><time>2026-04-26T15:25:28.197Z</time></trkpt><trkpt lat="45.6616172" lon="11.6221771"><ele>57.0</ele><time>2026-04-26T15:25:30.197Z</time></trkpt><trkpt lat="45.6616146" lon="11.622087"><ele>57.0</ele><time>2026-04-26T15:25:31.197Z</time></trkpt><trkpt lat="45.6616118" lon="11.6219221"><ele>57.0</ele><time>2026-04-26T15:25:33.196Z</time></trkpt><trkpt lat="45.6616101" lon="11.6217728"><ele>56.833333333333336</ele><time>2026-04-26T15:25:35.197Z</time></trkpt><trkpt lat="45.6616182" lon="11.6216392"><ele>56.66666666666667</ele><time>2026-04-26T15:25:37.197Z</time></trkpt><trkpt lat="45.6616209" lon="11.6215091"><ele>56.5</ele><time>2026-04-26T15:25:39.197Z</time></trkpt><trkpt lat="45.6616184" lon="11.6213873"><ele>56.333333333333336</ele><time>2026-04-26T15:25:41.197Z</time></trkpt><trkpt lat="45.6616122" lon="11.621266"><ele>56.16666666666667</ele><time>2026-04-26T15:25:43.197Z</time></trkpt><trkpt lat="45.6616064" lon="11.621152"><ele>56.0</ele><time>2026-04-26T15:25:45.197Z</time></trkpt><trkpt lat="45.6616034" lon="11.621053"><ele>56.333333333333336</ele><time>2026-04-26T15:25:47.196Z</time></trkpt><trkpt lat="45.6616055" lon="11.6209444"><ele>56.66666666666667</ele><time>2026-04-26T15:25:49.196Z</time></trkpt><trkpt lat="45.661613" lon="11.6208363"><ele>57.0</ele><time>2026-04-26T15:25:51.197Z</time></trkpt><trkpt lat="45.6616124" lon="11.6207245"><ele>57.33333333333333</ele><time>2026-04-26T15:25:53.197Z</time></trkpt><trkpt lat="45.6616126" lon="11.6206087"><ele>57.666666666666664</ele><time>2026-04-26T15:25:55.197Z</time></trkpt><trkpt lat="45.6616162" lon="11.6204907"><ele>58.0</ele><time>2026-04-26T15:25:57.197Z</time></trkpt><trkpt lat="45.6616104" lon="11.6203751"><ele>57.99999999999999</ele><time>2026-04-26T15:25:59.197Z</time></trkpt><trkpt lat="45.6616013" lon="11.6202544"><ele>58.0</ele><time>2026-04-26T15:26:01.197Z</time></trkpt><trkpt lat="45.6615695" lon="11.6201445"><ele>58.0</ele><time>2026-04-26T15:26:03.197Z</time></trkpt><trkpt lat="45.6615199" lon="11.6200381"><ele>58.0</ele><time>2026-04-26T15:26:05.197Z</time></trkpt><trkpt lat="45.6615456" lon="11.6199207"><ele>57.99999999999999</ele><time>2026-04-26T15:26:07.197Z</time></trkpt><trkpt lat="45.6615938" lon="11.6198249"><ele>58.0</ele><time>2026-04-26T15:26:09.197Z</time></trkpt><trkpt lat="45.6615893" lon="11.6196949"><ele>57.99999999999999</ele><time>2026-04-26T15:26:11.197Z</time></trkpt><trkpt lat="45.6615925" lon="11.6195722"><ele>58.0</ele><time>2026-04-26T15:26:13.197Z</time></trkpt><trkpt lat="45.661593" lon="11.6194489"><ele>58.0</ele><time>2026-04-26T15:26:15.197Z</time></trkpt><trkpt lat="45.6615936" lon="11.6193254"><ele>58.0</ele><time>2026-04-26T15:26:17.197Z</time></trkpt><trkpt lat="45.6615972" lon="11.6192013"><ele>57.99999999999999</ele><time>2026-04-26T15:26:19.197Z</time></trkpt><trkpt lat="45.661594" lon="11.6190715"><ele>58.0</ele><time>2026-04-26T15:26:21.197Z</time></trkpt><trkpt lat="45.6615947" lon="11.6189338"><ele>57.99999999999999</ele><time>2026-04-26T15:26:23.198Z</time></trkpt><trkpt lat="45.6615975" lon="11.6188046"><ele>58.0</ele><time>2026-04-26T15:26:25.198Z</time></trkpt><trkpt lat="45.6616119" lon="11.6186881"><ele>58.0</ele><time>2026-04-26T15:26:27.198Z</time></trkpt><trkpt lat="45.6616103" lon="11.6185767"><ele>58.0</ele><time>2026-04-26T15:26:29.197Z</time></trkpt><trkpt lat="45.6616051" lon="11.6184622"><ele>57.99999999999999</ele><time>2026-04-26T15:26:31.198Z</time></trkpt><trkpt lat="45.6616058" lon="11.6183375"><ele>58.0</ele><time>2026-04-26T15:26:33.198Z</time></trkpt><trkpt lat="45.6616094" lon="11.6182155"><ele>58.0</ele><time>2026-04-26T15:26:35.198Z</time></trkpt><trkpt lat="45.661606" lon="11.6180966"><ele>58.0</ele><time>2026-04-26T15:26:37.198Z</time></trkpt><trkpt lat="45.6616022" lon="11.6179534"><ele>58.0</ele><time>2026-04-26T15:26:39.198Z</time></trkpt><trkpt lat="45.6615932" lon="11.6178197"><ele>58.0</ele><time>2026-04-26T15:26:41.197Z</time></trkpt><trkpt lat="45.6615891" lon="11.6176939"><ele>58.0</ele><time>2026-04-26T15:26:43.198Z</time></trkpt><trkpt lat="45.6615754" lon="11.6175584"><ele>57.8</ele><time>2026-04-26T15:26:45.198Z</time></trkpt><trkpt lat="45.6615706" lon="11.6174121"><ele>57.599999999999994</ele><time>2026-04-26T15:26:47.198Z</time></trkpt><trkpt lat="45.6615649" lon="11.6172546"><ele>57.400000000000006</ele><time>2026-04-26T15:26:49.197Z</time></trkpt><trkpt lat="45.6615603" lon="11.6170985"><ele>57.2</ele><time>2026-04-26T15:26:51.198Z</time></trkpt><trkpt lat="45.6615587" lon="11.6169479"><ele>57.0</ele><time>2026-04-26T15:26:53.198Z</time></trkpt><trkpt lat="45.6615572" lon="11.6168039"><ele>56.8</ele><time>2026-04-26T15:26:55.198Z</time></trkpt><trkpt lat="45.6615534" lon="11.6166572"><ele>56.6</ele><time>2026-04-26T15:26:57.198Z</time></trkpt><trkpt lat="45.6615488" lon="11.6165053"><ele>56.39999999999999</ele><time>2026-04-26T15:26:59.197Z</time></trkpt><trkpt lat="45.6615504" lon="11.6163529"><ele>56.199999999999996</ele><time>2026-04-26T15:27:01.198Z</time></trkpt><trkpt lat="45.6615532" lon="11.6161972"><ele>56.0</ele><time>2026-04-26T15:27:03.198Z</time></trkpt><trkpt lat="45.6615537" lon="11.6160435"><ele>56.0</ele><time>2026-04-26T15:27:05.198Z</time></trkpt><trkpt lat="45.6615536" lon="11.6158985"><ele>55.99999999999999</ele><time>2026-04-26T15:27:07.197Z</time></trkpt><trkpt lat="45.6615515" lon="11.6157539"><ele>55.99999999999999</ele><time>2026-04-26T15:27:09.198Z</time></trkpt><trkpt lat="45.6615516" lon="11.6156131"><ele>56.0</ele><time>2026-04-26T15:27:11.198Z</time></trkpt><trkpt lat="45.6615507" lon="11.6154695"><ele>56.0</ele><time>2026-04-26T15:27:13.198Z</time></trkpt><trkpt lat="45.6615472" lon="11.6153206"><ele>56.199999999999996</ele><time>2026-04-26T15:27:15.198Z</time></trkpt><trkpt lat="45.6615427" lon="11.6151733"><ele>56.39999999999999</ele><time>2026-04-26T15:27:17.198Z</time></trkpt><trkpt lat="45.6615389" lon="11.6150269"><ele>56.6</ele><time>2026-04-26T15:27:19.198Z</time></trkpt><trkpt lat="45.6615281" lon="11.6148701"><ele>56.8</ele><time>2026-04-26T15:27:21.197Z</time></trkpt><trkpt lat="45.6615252" lon="11.6147249"><ele>57.0</ele><time>2026-04-26T15:27:23.199Z</time></trkpt><trkpt lat="45.6615238" lon="11.6145811"><ele>57.333333333333336</ele><time>2026-04-26T15:27:25.197Z</time></trkpt><trkpt lat="45.6615177" lon="11.6144513"><ele>57.66666666666667</ele><time>2026-04-26T15:27:27.198Z</time></trkpt><trkpt lat="45.6615028" lon="11.6143433"><ele>58.0</ele><time>2026-04-26T15:27:29.199Z</time></trkpt><trkpt lat="45.6614972" lon="11.6142395"><ele>58.333333333333336</ele><time>2026-04-26T15:27:31.199Z</time></trkpt><trkpt lat="45.6614945" lon="11.6141416"><ele>58.66666666666667</ele><time>2026-04-26T15:27:33.199Z</time></trkpt><trkpt lat="45.6614387" lon="11.6140507"><ele>59.0</ele><time>2026-04-26T15:27:35.199Z</time></trkpt><trkpt lat="45.6613748" lon="11.6140035"><ele>59.00000000000001</ele><time>2026-04-26T15:27:37.199Z</time></trkpt><trkpt lat="45.6613538" lon="11.6139153"><ele>59.0</ele><time>2026-04-26T15:27:39.199Z</time></trkpt><trkpt lat="45.6613241" lon="11.613818"><ele>59.0</ele><time>2026-04-26T15:27:41.199Z</time></trkpt><trkpt lat="45.6612642" lon="11.6137349"><ele>59.0</ele><time>2026-04-26T15:27:43.199Z</time></trkpt><trkpt lat="45.661207" lon="11.6136677"><ele>59.00000000000001</ele><time>2026-04-26T15:27:45.199Z</time></trkpt><trkpt lat="45.6611342" lon="11.6135861"><ele>59.0</ele><time>2026-04-26T15:27:48.199Z</time></trkpt><trkpt lat="45.6610946" lon="11.6134921"><ele>59.0</ele><time>2026-04-26T15:27:51.199Z</time></trkpt><trkpt lat="45.6611565" lon="11.6133983"><ele>59.00000000000001</ele><time>2026-04-26T15:27:54.199Z</time></trkpt><trkpt lat="45.6612107" lon="11.6132958"><ele>59.00000000000001</ele><time>2026-04-26T15:27:57.199Z</time></trkpt><trkpt lat="45.6612713" lon="11.6132093"><ele>59.0</ele><time>2026-04-26T15:28:00.199Z</time></trkpt><trkpt lat="45.6613525" lon="11.6132787"><ele>59.0</ele><time>2026-04-26T15:28:02.199Z</time></trkpt><trkpt lat="45.6614107" lon="11.6133763"><ele>59.00000000000001</ele><time>2026-04-26T15:28:04.199Z</time></trkpt><trkpt lat="45.6614885" lon="11.6133802"><ele>59.0</ele><time>2026-04-26T15:28:06.199Z</time></trkpt><trkpt lat="45.661535" lon="11.6132389"><ele>59.0</ele><time>2026-04-26T15:28:08.199Z</time></trkpt><trkpt lat="45.6615272" lon="11.6131417"><ele>59.0</ele><time>2026-04-26T15:28:09.199Z</time></trkpt><trkpt lat="45.6615187" lon="11.6130431"><ele>59.00000000000001</ele><time>2026-04-26T15:28:10.199Z</time></trkpt><trkpt lat="45.6615138" lon="11.6129494"><ele>59.0</ele><time>2026-04-26T15:28:11.199Z</time></trkpt><trkpt lat="45.6615116" lon="11.6127749"><ele>58.800000000000004</ele><time>2026-04-26T15:28:13.198Z</time></trkpt><trkpt lat="45.6615051" lon="11.6126197"><ele>58.60000000000001</ele><time>2026-04-26T15:28:15.199Z</time></trkpt><trkpt lat="45.6614982" lon="11.6124804"><ele>58.4</ele><time>2026-04-26T15:28:17.199Z</time></trkpt><trkpt lat="45.6614918" lon="11.6123472"><ele>58.2</ele><time>2026-04-26T15:28:19.199Z</time></trkpt><trkpt lat="45.6614909" lon="11.612217"><ele>58.0</ele><time>2026-04-26T15:28:21.198Z</time></trkpt><trkpt lat="45.6614879" lon="11.6120881"><ele>58.0</ele><time>2026-04-26T15:28:23.2Z</time></trkpt><trkpt lat="45.6614844" lon="11.6119521"><ele>58.0</ele><time>2026-04-26T15:28:25.198Z</time></trkpt><trkpt lat="45.6614694" lon="11.61183"><ele>58.0</ele><time>2026-04-26T15:28:27.2Z</time></trkpt><trkpt lat="45.6614446" lon="11.6117002"><ele>58.0</ele><time>2026-04-26T15:28:29.2Z</time></trkpt><trkpt lat="45.6614419" lon="11.6115648"><ele>58.0</ele><time>2026-04-26T15:28:31.2Z</time></trkpt><trkpt lat="45.6614736" lon="11.6114241"><ele>58.0</ele><time>2026-04-26T15:28:33.2Z</time></trkpt><trkpt lat="45.6614844" lon="11.6112852"><ele>58.0</ele><time>2026-04-26T15:28:35.2Z</time></trkpt><trkpt lat="45.661481" lon="11.6111505"><ele>58.0</ele><time>2026-04-26T15:28:37.2Z</time></trkpt><trkpt lat="45.6614789" lon="11.6110162"><ele>58.0</ele><time>2026-04-26T15:28:39.199Z</time></trkpt><trkpt lat="45.6614798" lon="11.6108804"><ele>58.0</ele><time>2026-04-26T15:28:41.2Z</time></trkpt><trkpt lat="45.6614795" lon="11.6107399"><ele>58.2</ele><time>2026-04-26T15:28:43.2Z</time></trkpt><trkpt lat="45.6614766" lon="11.6105882"><ele>58.4</ele><time>2026-04-26T15:28:45.2Z</time></trkpt><trkpt lat="45.6614722" lon="11.6104415"><ele>58.60000000000001</ele><time>2026-04-26T15:28:47.2Z</time></trkpt><trkpt lat="45.6614721" lon="11.6102913"><ele>58.800000000000004</ele><time>2026-04-26T15:28:49.2Z</time></trkpt><trkpt lat="45.6614703" lon="11.6101323"><ele>59.0</ele><time>2026-04-26T15:28:51.2Z</time></trkpt><trkpt lat="45.6614681" lon="11.6099882"><ele>58.833333333333336</ele><time>2026-04-26T15:28:53.2Z</time></trkpt><trkpt lat="45.6614714" lon="11.6098524"><ele>58.66666666666667</ele><time>2026-04-26T15:28:55.2Z</time></trkpt><trkpt lat="45.6614675" lon="11.6097268"><ele>58.5</ele><time>2026-04-26T15:28:57.2Z</time></trkpt><trkpt lat="45.661468" lon="11.6095974"><ele>58.33333333333333</ele><time>2026-04-26T15:28:59.2Z</time></trkpt><trkpt lat="45.6614527" lon="11.6094833"><ele>58.166666666666664</ele><time>2026-04-26T15:29:01.2Z</time></trkpt><trkpt lat="45.6614415" lon="11.6093717"><ele>58.0</ele><time>2026-04-26T15:29:03.2Z</time></trkpt><trkpt lat="45.6614414" lon="11.6092654"><ele>57.99999999999999</ele><time>2026-04-26T15:29:05.2Z</time></trkpt><trkpt lat="45.6614389" lon="11.6091568"><ele>58.0</ele><time>2026-04-26T15:29:07.2Z</time></trkpt><trkpt lat="45.6614411" lon="11.6090359"><ele>58.0</ele><time>2026-04-26T15:29:09.2Z</time></trkpt><trkpt lat="45.6614409" lon="11.608903"><ele>58.0</ele><time>2026-04-26T15:29:11.2Z</time></trkpt><trkpt lat="45.6614382" lon="11.6087714"><ele>57.99999999999999</ele><time>2026-04-26T15:29:13.2Z</time></trkpt><trkpt lat="45.6614411" lon="11.6086297"><ele>58.0</ele><time>2026-04-26T15:29:15.2Z</time></trkpt><trkpt lat="45.6614404" lon="11.6084864"><ele>58.33333333333333</ele><time>2026-04-26T15:29:17.2Z</time></trkpt><trkpt lat="45.6614429" lon="11.6083582"><ele>58.666666666666664</ele><time>2026-04-26T15:29:19.2Z</time></trkpt><trkpt lat="45.6614463" lon="11.6082488"><ele>59.0</ele><time>2026-04-26T15:29:21.2Z</time></trkpt><trkpt lat="45.6614477" lon="11.6081299"><ele>59.33333333333333</ele><time>2026-04-26T15:29:23.199Z</time></trkpt><trkpt lat="45.6614502" lon="11.6080044"><ele>59.666666666666664</ele><time>2026-04-26T15:29:25.199Z</time></trkpt><trkpt lat="45.6614554" lon="11.6078758"><ele>60.0</ele><time>2026-04-26T15:29:27.201Z</time></trkpt><trkpt lat="45.6614584" lon="11.60776"><ele>60.5</ele><time>2026-04-26T15:29:29.201Z</time></trkpt><trkpt lat="45.6614579" lon="11.6076474"><ele>61.0</ele><time>2026-04-26T15:29:31.2Z</time></trkpt><trkpt lat="45.6614121" lon="11.6075299"><ele>61.5</ele><time>2026-04-26T15:29:33.2Z</time></trkpt><trkpt lat="45.6613577" lon="11.6074133"><ele>62.0</ele><time>2026-04-26T15:29:35.201Z</time></trkpt><trkpt lat="45.6613262" lon="11.6073056"><ele>62.5</ele><time>2026-04-26T15:29:37.201Z</time></trkpt><trkpt lat="45.6613334" lon="11.6071779"><ele>63.0</ele><time>2026-04-26T15:29:39.201Z</time></trkpt><trkpt lat="45.6613163" lon="11.6070527"><ele>63.166666666666664</ele><time>2026-04-26T15:29:41.2Z</time></trkpt><trkpt lat="45.661262" lon="11.6069561"><ele>63.33333333333333</ele><time>2026-04-26T15:29:43.201Z</time></trkpt><trkpt lat="45.6612279" lon="11.6068486"><ele>63.5</ele><time>2026-04-26T15:29:45.201Z</time></trkpt><trkpt lat="45.6611916" lon="11.6067395"><ele>63.666666666666664</ele><time>2026-04-26T15:29:47.201Z</time></trkpt><trkpt lat="45.6611436" lon="11.6066318"><ele>63.83333333333333</ele><time>2026-04-26T15:29:49.201Z</time></trkpt><trkpt lat="45.6611057" lon="11.6065285"><ele>64.0</ele><time>2026-04-26T15:29:51.201Z</time></trkpt><trkpt lat="45.661062" lon="11.606421"><ele>64.16666666666666</ele><time>2026-04-26T15:29:53.201Z</time></trkpt><trkpt lat="45.6610394" lon="11.606318"><ele>64.33333333333333</ele><time>2026-04-26T15:29:55.201Z</time></trkpt><trkpt lat="45.6610221" lon="11.6062067"><ele>64.5</ele><time>2026-04-26T15:29:57.2Z</time></trkpt><trkpt lat="45.6609973" lon="11.6060988"><ele>64.66666666666667</ele><time>2026-04-26T15:29:59.2Z</time></trkpt><trkpt lat="45.6610056" lon="11.6059865"><ele>64.83333333333334</ele><time>2026-04-26T15:30:01.201Z</time></trkpt><trkpt lat="45.6610328" lon="11.6058723"><ele>65.0</ele><time>2026-04-26T15:30:03.201Z</time></trkpt><trkpt lat="45.6610647" lon="11.6057573"><ele>65.0</ele><time>2026-04-26T15:30:05.2Z</time></trkpt><trkpt lat="45.6610893" lon="11.6056281"><ele>65.0</ele><time>2026-04-26T15:30:07.2Z</time></trkpt><trkpt lat="45.6611139" lon="11.6055165"><ele>65.0</ele><time>2026-04-26T15:30:09.201Z</time></trkpt><trkpt lat="45.6611444" lon="11.6054019"><ele>65.0</ele><time>2026-04-26T15:30:11.201Z</time></trkpt><trkpt lat="45.6611801" lon="11.6052837"><ele>65.0</ele><time>2026-04-26T15:30:13.2Z</time></trkpt><trkpt lat="45.6612266" lon="11.6051841"><ele>65.0</ele><time>2026-04-26T15:30:15.201Z</time></trkpt><trkpt lat="45.6612715" lon="11.6050889"><ele>65.16666666666667</ele><time>2026-04-26T15:30:17.201Z</time></trkpt><trkpt lat="45.6613093" lon="11.604983"><ele>65.33333333333334</ele><time>2026-04-26T15:30:19.201Z</time></trkpt><trkpt lat="45.6613485" lon="11.6048754"><ele>65.5</ele><time>2026-04-26T15:30:21.201Z</time></trkpt><trkpt lat="45.6613843" lon="11.6047742"><ele>65.66666666666667</ele><time>2026-04-26T15:30:23.201Z</time></trkpt><trkpt lat="45.6614073" lon="11.6046736"><ele>65.83333333333333</ele><time>2026-04-26T15:30:25.201Z</time></trkpt><trkpt lat="45.6614028" lon="11.6045442"><ele>66.0</ele><time>2026-04-26T15:30:27.202Z</time></trkpt><trkpt lat="45.6613766" lon="11.6044039"><ele>66.2</ele><time>2026-04-26T15:30:29.202Z</time></trkpt><trkpt lat="45.6613299" lon="11.604273"><ele>66.39999999999999</ele><time>2026-04-26T15:30:31.202Z</time></trkpt><trkpt lat="45.6612747" lon="11.6041552"><ele>66.6</ele><time>2026-04-26T15:30:33.202Z</time></trkpt><trkpt lat="45.6612051" lon="11.6040549"><ele>66.8</ele><time>2026-04-26T15:30:35.202Z</time></trkpt><trkpt lat="45.6611495" lon="11.6039462"><ele>67.0</ele><time>2026-04-26T15:30:37.202Z</time></trkpt><trkpt lat="45.661106" lon="11.6038189"><ele>66.8</ele><time>2026-04-26T15:30:39.201Z</time></trkpt><trkpt lat="45.6610891" lon="11.6036892"><ele>66.6</ele><time>2026-04-26T15:30:41.202Z</time></trkpt><trkpt lat="45.661071" lon="11.603546"><ele>66.39999999999999</ele><time>2026-04-26T15:30:43.201Z</time></trkpt><trkpt lat="45.6610498" lon="11.6034002"><ele>66.2</ele><time>2026-04-26T15:30:45.201Z</time></trkpt><trkpt lat="45.6610052" lon="11.6032552"><ele>66.0</ele><time>2026-04-26T15:30:47.202Z</time></trkpt><trkpt lat="45.6609525" lon="11.6031173"><ele>66.0</ele><time>2026-04-26T15:30:49.202Z</time></trkpt><trkpt lat="45.660913" lon="11.6029832"><ele>66.0</ele><time>2026-04-26T15:30:51.202Z</time></trkpt><trkpt lat="45.660889" lon="11.6028514"><ele>66.0</ele><time>2026-04-26T15:30:53.202Z</time></trkpt><trkpt lat="45.6608759" lon="11.6027214"><ele>66.0</ele><time>2026-04-26T15:30:55.202Z</time></trkpt><trkpt lat="45.6608622" lon="11.6025973"><ele>66.0</ele><time>2026-04-26T15:30:57.201Z</time></trkpt><trkpt lat="45.6608534" lon="11.6024734"><ele>66.16666666666667</ele><time>2026-04-26T15:30:59.202Z</time></trkpt><trkpt lat="45.6608493" lon="11.6023638"><ele>66.33333333333333</ele><time>2026-04-26T15:31:01.202Z</time></trkpt><trkpt lat="45.6607954" lon="11.6023024"><ele>66.5</ele><time>2026-04-26T15:31:03.202Z</time></trkpt><trkpt lat="45.6606984" lon="11.6023287"><ele>66.66666666666666</ele><time>2026-04-26T15:31:05.201Z</time></trkpt><trkpt lat="45.6605962" lon="11.6023537"><ele>66.83333333333333</ele><time>2026-04-26T15:31:07.201Z</time></trkpt><trkpt lat="45.6605098" lon="11.6023406"><ele>67.0</ele><time>2026-04-26T15:31:09.202Z</time></trkpt><trkpt lat="45.660469" lon="11.6022567"><ele>67.0</ele><time>2026-04-26T15:31:11.202Z</time></trkpt><trkpt lat="45.6604636" lon="11.6021464"><ele>67.0</ele><time>2026-04-26T15:31:13.202Z</time></trkpt><trkpt lat="45.6604755" lon="11.6020316"><ele>67.0</ele><time>2026-04-26T15:31:15.202Z</time></trkpt><trkpt lat="45.6604848" lon="11.6019192"><ele>67.0</ele><time>2026-04-26T15:31:17.202Z</time></trkpt><trkpt lat="45.6604899" lon="11.601818"><ele>67.0</ele><time>2026-04-26T15:31:19.202Z</time></trkpt><trkpt lat="45.6604882" lon="11.6017127"><ele>67.0</ele><time>2026-04-26T15:31:21.202Z</time></trkpt><trkpt lat="45.6604835" lon="11.6016062"><ele>67.16666666666666</ele><time>2026-04-26T15:31:23.202Z</time></trkpt><trkpt lat="45.6604819" lon="11.60147"><ele>67.33333333333333</ele><time>2026-04-26T15:31:26.202Z</time></trkpt><trkpt lat="45.6604968" lon="11.6013452"><ele>67.5</ele><time>2026-04-26T15:31:28.203Z</time></trkpt><trkpt lat="45.6604957" lon="11.6012247"><ele>67.66666666666667</ele><time>2026-04-26T15:31:30.203Z</time></trkpt><trkpt lat="45.6604896" lon="11.6010842"><ele>67.83333333333334</ele><time>2026-04-26T15:31:32.203Z</time></trkpt><trkpt lat="45.6604965" lon="11.6009664"><ele>68.0</ele><time>2026-04-26T15:31:34.203Z</time></trkpt><trkpt lat="45.6604985" lon="11.6008376"><ele>67.57142857142857</ele><time>2026-04-26T15:31:36.202Z</time></trkpt><trkpt lat="45.660509" lon="11.6007236"><ele>67.14285714285714</ele><time>2026-04-26T15:31:38.203Z</time></trkpt><trkpt lat="45.6605138" lon="11.6006163"><ele>66.71428571428572</ele><time>2026-04-26T15:31:40.203Z</time></trkpt><trkpt lat="45.660536" lon="11.6005284"><ele>66.28571428571428</ele><time>2026-04-26T15:31:46.203Z</time></trkpt><trkpt lat="45.6606129" lon="11.6005142"><ele>65.85714285714286</ele><time>2026-04-26T15:31:50.203Z</time></trkpt><trkpt lat="45.6606294" lon="11.6004253"><ele>65.42857142857143</ele><time>2026-04-26T15:31:52.203Z</time></trkpt><trkpt lat="45.6606534" lon="11.6003388"><ele>65.0</ele><time>2026-04-26T15:31:54.203Z</time></trkpt><trkpt lat="45.6606897" lon="11.6002348"><ele>64.83333333333334</ele><time>2026-04-26T15:31:56.203Z</time></trkpt><trkpt lat="45.6607185" lon="11.6001391"><ele>64.66666666666667</ele><time>2026-04-26T15:31:58.203Z</time></trkpt><trkpt lat="45.6607429" lon="11.6000306"><ele>64.5</ele><time>2026-04-26T15:32:00.203Z</time></trkpt><trkpt lat="45.660753" lon="11.5999126"><ele>64.33333333333333</ele><time>2026-04-26T15:32:02.203Z</time></trkpt><trkpt lat="45.6607613" lon="11.5997957"><ele>64.16666666666666</ele><time>2026-04-26T15:32:04.203Z</time></trkpt><trkpt lat="45.6607688" lon="11.5996938"><ele>64.0</ele><time>2026-04-26T15:32:06.203Z</time></trkpt><trkpt lat="45.6607783" lon="11.599596"><ele>63.99999999999999</ele><time>2026-04-26T15:32:08.203Z</time></trkpt><trkpt lat="45.6607932" lon="11.599493"><ele>64.0</ele><time>2026-04-26T15:32:10.203Z</time></trkpt><trkpt lat="45.6608176" lon="11.5993871"><ele>64.0</ele><time>2026-04-26T15:32:12.204Z</time></trkpt><trkpt lat="45.6608392" lon="11.599274"><ele>64.0</ele><time>2026-04-26T15:32:14.203Z</time></trkpt><trkpt lat="45.6608464" lon="11.5991516"><ele>63.99999999999999</ele><time>2026-04-26T15:32:16.203Z</time></trkpt><trkpt lat="45.6608581" lon="11.5990354"><ele>64.0</ele><time>2026-04-26T15:32:18.203Z</time></trkpt><trkpt lat="45.6608839" lon="11.5989297"><ele>63.99999999999999</ele><time>2026-04-26T15:32:20.203Z</time></trkpt><trkpt lat="45.6609073" lon="11.5988267"><ele>64.0</ele><time>2026-04-26T15:32:22.204Z</time></trkpt><trkpt lat="45.6609233" lon="11.5987132"><ele>64.0</ele><time>2026-04-26T15:32:24.203Z</time></trkpt><trkpt lat="45.6609426" lon="11.5985951"><ele>64.0</ele><time>2026-04-26T15:32:26.203Z</time></trkpt><trkpt lat="45.6609459" lon="11.5984566"><ele>63.99999999999999</ele><time>2026-04-26T15:32:28.204Z</time></trkpt><trkpt lat="45.6609499" lon="11.5983251"><ele>64.0</ele><time>2026-04-26T15:32:30.203Z</time></trkpt><trkpt lat="45.6609634" lon="11.5982024"><ele>64.16666666666666</ele><time>2026-04-26T15:32:32.204Z</time></trkpt><trkpt lat="45.660979" lon="11.598087"><ele>64.33333333333333</ele><time>2026-04-26T15:32:34.204Z</time></trkpt><trkpt lat="45.6609947" lon="11.5979849"><ele>64.5</ele><time>2026-04-26T15:32:36.203Z</time></trkpt><trkpt lat="45.6610025" lon="11.5978869"><ele>64.66666666666667</ele><time>2026-04-26T15:32:38.204Z</time></trkpt><trkpt lat="45.6610004" lon="11.597777"><ele>64.83333333333334</ele><time>2026-04-26T15:32:40.204Z</time></trkpt><trkpt lat="45.6609927" lon="11.5976551"><ele>65.0</ele><time>2026-04-26T15:32:42.204Z</time></trkpt><trkpt lat="45.660982" lon="11.5975281"><ele>65.0</ele><time>2026-04-26T15:32:44.204Z</time></trkpt><trkpt lat="45.6609342" lon="11.597398"><ele>65.0</ele><time>2026-04-26T15:32:46.203Z</time></trkpt><trkpt lat="45.6608521" lon="11.5973099"><ele>65.0</ele><time>2026-04-26T15:32:48.204Z</time></trkpt><trkpt lat="45.6607645" lon="11.5972654"><ele>65.0</ele><time>2026-04-26T15:32:50.204Z</time></trkpt><trkpt lat="45.660674" lon="11.5972339"><ele>65.0</ele><time>2026-04-26T15:32:52.204Z</time></trkpt><trkpt lat="45.6605837" lon="11.5972676"><ele>65.0</ele><time>2026-04-26T15:32:54.204Z</time></trkpt><trkpt lat="45.6604952" lon="11.597299"><ele>65.0</ele><time>2026-04-26T15:32:56.204Z</time></trkpt><trkpt lat="45.6604071" lon="11.5973007"><ele>65.0</ele><time>2026-04-26T15:32:58.204Z</time></trkpt><trkpt lat="45.6603296" lon="11.5972961"><ele>65.0</ele><time>2026-04-26T15:33:00.204Z</time></trkpt><trkpt lat="45.6602572" lon="11.5972869"><ele>65.0</ele><time>2026-04-26T15:33:02.204Z</time></trkpt><trkpt lat="45.6601807" lon="11.597263"><ele>65.0</ele><time>2026-04-26T15:33:04.204Z</time></trkpt><trkpt lat="45.660103" lon="11.5972063"><ele>64.4</ele><time>2026-04-26T15:33:06.204Z</time></trkpt><trkpt lat="45.6600242" lon="11.5971483"><ele>63.8</ele><time>2026-04-26T15:33:08.215Z</time></trkpt><trkpt lat="45.6599527" lon="11.5970699"><ele>63.2</ele><time>2026-04-26T15:33:10.204Z</time></trkpt><trkpt lat="45.659889" lon="11.5969744"><ele>62.6</ele><time>2026-04-26T15:33:12.203Z</time></trkpt><trkpt lat="45.6598353" lon="11.5968684"><ele>62.0</ele><time>2026-04-26T15:33:14.204Z</time></trkpt><trkpt lat="45.6597871" lon="11.596763"><ele>62.0</ele><time>2026-04-26T15:33:16.204Z</time></trkpt><trkpt lat="45.6597557" lon="11.5966479"><ele>62.0</ele><time>2026-04-26T15:33:18.223Z</time></trkpt><trkpt lat="45.659728" lon="11.5965434"><ele>62.0</ele><time>2026-04-26T15:33:22.143Z</time></trkpt><trkpt lat="45.659722" lon="11.5964293"><ele>62.0</ele><time>2026-04-26T15:33:23.257Z</time></trkpt><trkpt lat="45.6597153" lon="11.5962659"><ele>62.0</ele><time>2026-04-26T15:33:25.27Z</time></trkpt><trkpt lat="45.6597307" lon="11.5961377"><ele>62.16666666666667</ele><time>2026-04-26T15:33:27.283Z</time></trkpt><trkpt lat="45.6597465" lon="11.5960285"><ele>62.333333333333336</ele><time>2026-04-26T15:33:29.297Z</time></trkpt><trkpt lat="45.6597548" lon="11.5959263"><ele>62.5</ele><time>2026-04-26T15:33:31.209Z</time></trkpt><trkpt lat="45.6597859" lon="11.5958247"><ele>62.66666666666667</ele><time>2026-04-26T15:33:34.229Z</time></trkpt><trkpt lat="45.6598746" lon="11.5958164"><ele>62.833333333333336</ele><time>2026-04-26T15:33:37.269Z</time></trkpt><trkpt lat="45.6599315" lon="11.5957078"><ele>63.0</ele><time>2026-04-26T15:33:39.205Z</time></trkpt><trkpt lat="45.6599505" lon="11.595609"><ele>63.0</ele><time>2026-04-26T15:33:41.284Z</time></trkpt><trkpt lat="45.6599728" lon="11.5954557"><ele>63.0</ele><time>2026-04-26T15:33:43.205Z</time></trkpt><trkpt lat="45.6599826" lon="11.5953371"><ele>63.0</ele><time>2026-04-26T15:33:45.205Z</time></trkpt><trkpt lat="45.6600014" lon="11.5952046"><ele>63.0</ele><time>2026-04-26T15:33:47.205Z</time></trkpt><trkpt lat="45.6600206" lon="11.5950824"><ele>63.0</ele><time>2026-04-26T15:33:49.205Z</time></trkpt><trkpt lat="45.6600266" lon="11.5949729"><ele>63.166666666666664</ele><time>2026-04-26T15:33:51.204Z</time></trkpt><trkpt lat="45.6600456" lon="11.5948723"><ele>63.33333333333333</ele><time>2026-04-26T15:33:53.205Z</time></trkpt><trkpt lat="45.6600691" lon="11.5947535"><ele>63.5</ele><time>2026-04-26T15:33:55.205Z</time></trkpt><trkpt lat="45.6600862" lon="11.5946084"><ele>63.666666666666664</ele><time>2026-04-26T15:33:57.204Z</time></trkpt><trkpt lat="45.6601045" lon="11.5944886"><ele>63.83333333333333</ele><time>2026-04-26T15:33:59.205Z</time></trkpt><trkpt lat="45.6601126" lon="11.5943874"><ele>64.0</ele><time>2026-04-26T15:34:01.205Z</time></trkpt><trkpt lat="45.6601442" lon="11.5942696"><ele>63.99999999999999</ele><time>2026-04-26T15:34:04.205Z</time></trkpt><trkpt lat="45.6601611" lon="11.594162"><ele>64.0</ele><time>2026-04-26T15:34:06.205Z</time></trkpt><trkpt lat="45.6601766" lon="11.5940489"><ele>64.0</ele><time>2026-04-26T15:34:08.205Z</time></trkpt><trkpt lat="45.6602029" lon="11.5939616"><ele>64.0</ele><time>2026-04-26T15:34:10.204Z</time></trkpt><trkpt lat="45.6603054" lon="11.5939742"><ele>63.99999999999999</ele><time>2026-04-26T15:34:13.205Z</time></trkpt><trkpt lat="45.6604087" lon="11.594013"><ele>64.0</ele><time>2026-04-26T15:34:15.205Z</time></trkpt><trkpt lat="45.6604796" lon="11.5940398"><ele>64.33333333333333</ele><time>2026-04-26T15:34:17.205Z</time></trkpt><trkpt lat="45.6605502" lon="11.5940585"><ele>64.66666666666666</ele><time>2026-04-26T15:34:19.205Z</time></trkpt><trkpt lat="45.6606228" lon="11.5940692"><ele>65.0</ele><time>2026-04-26T15:34:21.205Z</time></trkpt><trkpt lat="45.6607115" lon="11.5940997"><ele>65.33333333333333</ele><time>2026-04-26T15:34:24.204Z</time></trkpt><trkpt lat="45.6607703" lon="11.5941389"><ele>65.66666666666667</ele><time>2026-04-26T15:34:26.205Z</time></trkpt><trkpt lat="45.6608538" lon="11.5941655"><ele>66.0</ele><time>2026-04-26T15:34:28.206Z</time></trkpt><trkpt lat="45.6609292" lon="11.5941804"><ele>66.0</ele><time>2026-04-26T15:34:30.206Z</time></trkpt><trkpt lat="45.6610266" lon="11.5942108"><ele>66.0</ele><time>2026-04-26T15:34:33.206Z</time></trkpt><trkpt lat="45.6611046" lon="11.5942373"><ele>66.0</ele><time>2026-04-26T15:34:35.206Z</time></trkpt><trkpt lat="45.6611865" lon="11.5942236"><ele>66.0</ele><time>2026-04-26T15:34:38.206Z</time></trkpt><trkpt lat="45.6612394" lon="11.5941295"><ele>66.0</ele><time>2026-04-26T15:34:40.206Z</time></trkpt><trkpt lat="45.6612484" lon="11.5939615"><ele>66.0</ele><time>2026-04-26T15:34:42.206Z</time></trkpt><trkpt lat="45.661254" lon="11.5938337"><ele>66.0</ele><time>2026-04-26T15:34:44.206Z</time></trkpt><trkpt lat="45.661265" lon="11.5937194"><ele>66.0</ele><time>2026-04-26T15:34:46.206Z</time></trkpt><trkpt lat="45.6613195" lon="11.5936636"><ele>66.0</ele><time>2026-04-26T15:34:49.206Z</time></trkpt><trkpt lat="45.6613857" lon="11.5937016"><ele>66.0</ele><time>2026-04-26T15:35:07.206Z</time></trkpt><trkpt lat="45.6614499" lon="11.5937309"><ele>66.0</ele><time>2026-04-26T15:35:32.207Z</time></trkpt><trkpt lat="45.6615923" lon="11.593669"><ele>66.0</ele><time>2026-04-26T15:43:00.354Z</time></trkpt><trkpt lat="45.6616747" lon="11.5937026"><ele>68.0</ele><time>2026-04-26T15:43:18.273Z</time></trkpt><trkpt lat="45.6616288" lon="11.5937721"><ele>68.0</ele><time>2026-04-26T15:43:29.347Z</time></trkpt></trkseg></trk></gpx>